<?xml version="1.0"?>
<gpx xmlns="http://www.topografix.com/GPX/1/1" xmlns:xsi="http://www.w3.org/2001/XMLSchema-instance" version="1.1" creator="GPX RubyGem 1.0.0 -- http://dougfales.github.io/gpx/" xsi:schemaLocation="http://www.topografix.com/GPX/1/1 http://www.topografix.com/GPX/1/1/gpx.xsd">
  <metadata>
    <name/>
    <time>2026-05-08T01:05:12+00:00</time>
    <bound minlat="90.0" minlon="180.0" maxlat="-90.0" maxlon="-180.0"/>
  </metadata>
  <trk>
    <name/>
    <trkseg>
      <trkpt lat="45.20533" lon="6.840882">
        <time>2023-04-19T04:37:24+00:00</time>
        <ele>1720.0</ele>
      </trkpt>
      <trkpt lat="45.20535" lon="6.840882">
        <time>2023-04-19T04:37:25+00:00</time>
        <ele>1719.0</ele>
      </trkpt>
      <trkpt lat="45.205307" lon="6.840889">
        <time>2023-04-19T04:37:53+00:00</time>
        <ele>1720.0</ele>
      </trkpt>
      <trkpt lat="45.205242" lon="6.840835">
        <time>2023-04-19T04:37:59+00:00</time>
        <ele>1722.0</ele>
      </trkpt>
      <trkpt lat="45.205174" lon="6.840796">
        <time>2023-04-19T04:38:05+00:00</time>
        <ele>1724.0</ele>
      </trkpt>
      <trkpt lat="45.205017" lon="6.840705">
        <time>2023-04-19T04:38:19+00:00</time>
        <ele>1727.0</ele>
      </trkpt>
      <trkpt lat="45.204991" lon="6.840684">
        <time>2023-04-19T04:38:22+00:00</time>
        <ele>1727.0</ele>
      </trkpt>
      <trkpt lat="45.204789" lon="6.840588">
        <time>2023-04-19T04:38:43+00:00</time>
        <ele>1730.0</ele>
      </trkpt>
      <trkpt lat="45.204716" lon="6.840546">
        <time>2023-04-19T04:38:52+00:00</time>
        <ele>1731.0</ele>
      </trkpt>
      <trkpt lat="45.204466" lon="6.840375">
        <time>2023-04-19T04:39:17+00:00</time>
        <ele>1738.0</ele>
      </trkpt>
      <trkpt lat="45.204435" lon="6.840338">
        <time>2023-04-19T04:39:22+00:00</time>
        <ele>1739.0</ele>
      </trkpt>
      <trkpt lat="45.204404" lon="6.840301">
        <time>2023-04-19T04:39:28+00:00</time>
        <ele>1739.0</ele>
      </trkpt>
      <trkpt lat="45.204351" lon="6.840227">
        <time>2023-04-19T04:39:37+00:00</time>
        <ele>1740.0</ele>
      </trkpt>
      <trkpt lat="45.204313" lon="6.8402">
        <time>2023-04-19T04:39:41+00:00</time>
        <ele>1741.0</ele>
      </trkpt>
      <trkpt lat="45.204309" lon="6.840141">
        <time>2023-04-19T04:39:46+00:00</time>
        <ele>1740.0</ele>
      </trkpt>
      <trkpt lat="45.204257" lon="6.84004">
        <time>2023-04-19T04:39:57+00:00</time>
        <ele>1741.0</ele>
      </trkpt>
      <trkpt lat="45.204229" lon="6.840001">
        <time>2023-04-19T04:40:01+00:00</time>
        <ele>1742.0</ele>
      </trkpt>
      <trkpt lat="45.204192" lon="6.839939">
        <time>2023-04-19T04:40:07+00:00</time>
        <ele>1743.0</ele>
      </trkpt>
      <trkpt lat="45.204157" lon="6.839874">
        <time>2023-04-19T04:40:12+00:00</time>
        <ele>1743.0</ele>
      </trkpt>
      <trkpt lat="45.204149" lon="6.839824">
        <time>2023-04-19T04:40:15+00:00</time>
        <ele>1743.0</ele>
      </trkpt>
      <trkpt lat="45.204088" lon="6.839686">
        <time>2023-04-19T04:40:25+00:00</time>
        <ele>1745.0</ele>
      </trkpt>
      <trkpt lat="45.204076" lon="6.839566">
        <time>2023-04-19T04:40:34+00:00</time>
        <ele>1744.0</ele>
      </trkpt>
      <trkpt lat="45.204074" lon="6.839434">
        <time>2023-04-19T04:40:44+00:00</time>
        <ele>1744.0</ele>
      </trkpt>
      <trkpt lat="45.204038" lon="6.839254">
        <time>2023-04-19T04:40:57+00:00</time>
        <ele>1746.0</ele>
      </trkpt>
      <trkpt lat="45.204015" lon="6.839108">
        <time>2023-04-19T04:41:07+00:00</time>
        <ele>1747.0</ele>
      </trkpt>
      <trkpt lat="45.204003" lon="6.839044">
        <time>2023-04-19T04:41:13+00:00</time>
        <ele>1748.0</ele>
      </trkpt>
      <trkpt lat="45.203981" lon="6.838923">
        <time>2023-04-19T04:41:20+00:00</time>
        <ele>1749.0</ele>
      </trkpt>
      <trkpt lat="45.203978" lon="6.838795">
        <time>2023-04-19T04:41:28+00:00</time>
        <ele>1749.0</ele>
      </trkpt>
      <trkpt lat="45.20397" lon="6.838672">
        <time>2023-04-19T04:41:38+00:00</time>
        <ele>1750.0</ele>
      </trkpt>
      <trkpt lat="45.20396" lon="6.838418">
        <time>2023-04-19T04:41:58+00:00</time>
        <ele>1752.0</ele>
      </trkpt>
      <trkpt lat="45.203945" lon="6.838356">
        <time>2023-04-19T04:42:03+00:00</time>
        <ele>1753.0</ele>
      </trkpt>
      <trkpt lat="45.203951" lon="6.838295">
        <time>2023-04-19T04:42:08+00:00</time>
        <ele>1753.0</ele>
      </trkpt>
      <trkpt lat="45.203963" lon="6.838109">
        <time>2023-04-19T04:42:22+00:00</time>
        <ele>1754.0</ele>
      </trkpt>
      <trkpt lat="45.203954" lon="6.837975">
        <time>2023-04-19T04:42:32+00:00</time>
        <ele>1755.0</ele>
      </trkpt>
      <trkpt lat="45.203935" lon="6.83791">
        <time>2023-04-19T04:42:37+00:00</time>
        <ele>1757.0</ele>
      </trkpt>
      <trkpt lat="45.203949" lon="6.837855">
        <time>2023-04-19T04:42:42+00:00</time>
        <ele>1756.0</ele>
      </trkpt>
      <trkpt lat="45.203906" lon="6.837736">
        <time>2023-04-19T04:42:53+00:00</time>
        <ele>1759.0</ele>
      </trkpt>
      <trkpt lat="45.203774" lon="6.837553">
        <time>2023-04-19T04:43:13+00:00</time>
        <ele>1762.0</ele>
      </trkpt>
      <trkpt lat="45.203756" lon="6.837494">
        <time>2023-04-19T04:43:18+00:00</time>
        <ele>1762.0</ele>
      </trkpt>
      <trkpt lat="45.203724" lon="6.837453">
        <time>2023-04-19T04:43:22+00:00</time>
        <ele>1763.0</ele>
      </trkpt>
      <trkpt lat="45.203691" lon="6.837353">
        <time>2023-04-19T04:43:33+00:00</time>
        <ele>1763.0</ele>
      </trkpt>
      <trkpt lat="45.203686" lon="6.83729">
        <time>2023-04-19T04:43:38+00:00</time>
        <ele>1763.0</ele>
      </trkpt>
      <trkpt lat="45.203671" lon="6.837242">
        <time>2023-04-19T04:43:43+00:00</time>
        <ele>1763.0</ele>
      </trkpt>
      <trkpt lat="45.20368" lon="6.837191">
        <time>2023-04-19T04:43:48+00:00</time>
        <ele>1763.0</ele>
      </trkpt>
      <trkpt lat="45.203664" lon="6.837075">
        <time>2023-04-19T04:44:00+00:00</time>
        <ele>1763.0</ele>
      </trkpt>
      <trkpt lat="45.203655" lon="6.837025">
        <time>2023-04-19T04:44:03+00:00</time>
        <ele>1764.0</ele>
      </trkpt>
      <trkpt lat="45.20364" lon="6.836768">
        <time>2023-04-19T04:44:22+00:00</time>
        <ele>1766.0</ele>
      </trkpt>
      <trkpt lat="45.203616" lon="6.836718">
        <time>2023-04-19T04:44:30+00:00</time>
        <ele>1767.0</ele>
      </trkpt>
      <trkpt lat="45.20361" lon="6.836654">
        <time>2023-04-19T04:44:34+00:00</time>
        <ele>1768.0</ele>
      </trkpt>
      <trkpt lat="45.203618" lon="6.836587">
        <time>2023-04-19T04:44:37+00:00</time>
        <ele>1769.0</ele>
      </trkpt>
      <trkpt lat="45.203615" lon="6.83653">
        <time>2023-04-19T04:44:41+00:00</time>
        <ele>1770.0</ele>
      </trkpt>
      <trkpt lat="45.203603" lon="6.836465">
        <time>2023-04-19T04:44:46+00:00</time>
        <ele>1770.0</ele>
      </trkpt>
      <trkpt lat="45.203619" lon="6.836192">
        <time>2023-04-19T04:45:07+00:00</time>
        <ele>1772.0</ele>
      </trkpt>
      <trkpt lat="45.20361" lon="6.835989">
        <time>2023-04-19T04:45:23+00:00</time>
        <ele>1773.0</ele>
      </trkpt>
      <trkpt lat="45.203588" lon="6.835841">
        <time>2023-04-19T04:45:33+00:00</time>
        <ele>1774.0</ele>
      </trkpt>
      <trkpt lat="45.203563" lon="6.835807">
        <time>2023-04-19T04:45:37+00:00</time>
        <ele>1775.0</ele>
      </trkpt>
      <trkpt lat="45.203531" lon="6.835787">
        <time>2023-04-19T04:45:42+00:00</time>
        <ele>1776.0</ele>
      </trkpt>
      <trkpt lat="45.203498" lon="6.835814">
        <time>2023-04-19T04:45:47+00:00</time>
        <ele>1777.0</ele>
      </trkpt>
      <trkpt lat="45.203484" lon="6.835936">
        <time>2023-04-19T04:45:57+00:00</time>
        <ele>1778.0</ele>
      </trkpt>
      <trkpt lat="45.20347" lon="6.836015">
        <time>2023-04-19T04:46:03+00:00</time>
        <ele>1778.0</ele>
      </trkpt>
      <trkpt lat="45.20348" lon="6.836097">
        <time>2023-04-19T04:46:10+00:00</time>
        <ele>1778.0</ele>
      </trkpt>
      <trkpt lat="45.203473" lon="6.836141">
        <time>2023-04-19T04:46:13+00:00</time>
        <ele>1778.0</ele>
      </trkpt>
      <trkpt lat="45.203462" lon="6.836172">
        <time>2023-04-19T04:46:15+00:00</time>
        <ele>1778.0</ele>
      </trkpt>
      <trkpt lat="45.20344" lon="6.836285">
        <time>2023-04-19T04:46:25+00:00</time>
        <ele>1778.0</ele>
      </trkpt>
      <trkpt lat="45.203405" lon="6.836386">
        <time>2023-04-19T04:46:33+00:00</time>
        <ele>1778.0</ele>
      </trkpt>
      <trkpt lat="45.203363" lon="6.836456">
        <time>2023-04-19T04:46:40+00:00</time>
        <ele>1778.0</ele>
      </trkpt>
      <trkpt lat="45.203342" lon="6.83649">
        <time>2023-04-19T04:46:43+00:00</time>
        <ele>1779.0</ele>
      </trkpt>
      <trkpt lat="45.203254" lon="6.836553">
        <time>2023-04-19T04:46:54+00:00</time>
        <ele>1781.0</ele>
      </trkpt>
      <trkpt lat="45.203185" lon="6.83665">
        <time>2023-04-19T04:47:03+00:00</time>
        <ele>1783.0</ele>
      </trkpt>
      <trkpt lat="45.20317" lon="6.8367">
        <time>2023-04-19T04:47:08+00:00</time>
        <ele>1784.0</ele>
      </trkpt>
      <trkpt lat="45.203156" lon="6.836749">
        <time>2023-04-19T04:47:12+00:00</time>
        <ele>1785.0</ele>
      </trkpt>
      <trkpt lat="45.203148" lon="6.836887">
        <time>2023-04-19T04:47:22+00:00</time>
        <ele>1787.0</ele>
      </trkpt>
      <trkpt lat="45.203157" lon="6.836939">
        <time>2023-04-19T04:47:27+00:00</time>
        <ele>1787.0</ele>
      </trkpt>
      <trkpt lat="45.203175" lon="6.836998">
        <time>2023-04-19T04:47:32+00:00</time>
        <ele>1787.0</ele>
      </trkpt>
      <trkpt lat="45.203184" lon="6.837089">
        <time>2023-04-19T04:47:39+00:00</time>
        <ele>1787.0</ele>
      </trkpt>
      <trkpt lat="45.203176" lon="6.837185">
        <time>2023-04-19T04:47:49+00:00</time>
        <ele>1789.0</ele>
      </trkpt>
      <trkpt lat="45.203168" lon="6.83723">
        <time>2023-04-19T04:47:53+00:00</time>
        <ele>1790.0</ele>
      </trkpt>
      <trkpt lat="45.203149" lon="6.837385">
        <time>2023-04-19T04:48:07+00:00</time>
        <ele>1792.0</ele>
      </trkpt>
      <trkpt lat="45.203142" lon="6.837436">
        <time>2023-04-19T04:48:12+00:00</time>
        <ele>1793.0</ele>
      </trkpt>
      <trkpt lat="45.203137" lon="6.837502">
        <time>2023-04-19T04:48:17+00:00</time>
        <ele>1794.0</ele>
      </trkpt>
      <trkpt lat="45.20314" lon="6.837618">
        <time>2023-04-19T04:48:27+00:00</time>
        <ele>1795.0</ele>
      </trkpt>
      <trkpt lat="45.203153" lon="6.837827">
        <time>2023-04-19T04:48:43+00:00</time>
        <ele>1796.0</ele>
      </trkpt>
      <trkpt lat="45.203145" lon="6.837881">
        <time>2023-04-19T04:48:48+00:00</time>
        <ele>1797.0</ele>
      </trkpt>
      <trkpt lat="45.203154" lon="6.837927">
        <time>2023-04-19T04:48:52+00:00</time>
        <ele>1797.0</ele>
      </trkpt>
      <trkpt lat="45.203154" lon="6.83797">
        <time>2023-04-19T04:48:56+00:00</time>
        <ele>1798.0</ele>
      </trkpt>
      <trkpt lat="45.203165" lon="6.838112">
        <time>2023-04-19T04:49:07+00:00</time>
        <ele>1798.0</ele>
      </trkpt>
      <trkpt lat="45.203153" lon="6.838179">
        <time>2023-04-19T04:49:12+00:00</time>
        <ele>1800.0</ele>
      </trkpt>
      <trkpt lat="45.203154" lon="6.838237">
        <time>2023-04-19T04:49:17+00:00</time>
        <ele>1800.0</ele>
      </trkpt>
      <trkpt lat="45.20313" lon="6.838349">
        <time>2023-04-19T04:49:27+00:00</time>
        <ele>1801.0</ele>
      </trkpt>
      <trkpt lat="45.203129" lon="6.838464">
        <time>2023-04-19T04:49:37+00:00</time>
        <ele>1801.0</ele>
      </trkpt>
      <trkpt lat="45.203078" lon="6.838751">
        <time>2023-04-19T04:50:01+00:00</time>
        <ele>1805.0</ele>
      </trkpt>
      <trkpt lat="45.203071" lon="6.838815">
        <time>2023-04-19T04:50:07+00:00</time>
        <ele>1805.0</ele>
      </trkpt>
      <trkpt lat="45.203047" lon="6.838876">
        <time>2023-04-19T04:50:12+00:00</time>
        <ele>1807.0</ele>
      </trkpt>
      <trkpt lat="45.203037" lon="6.838917">
        <time>2023-04-19T04:50:15+00:00</time>
        <ele>1807.0</ele>
      </trkpt>
      <trkpt lat="45.203022" lon="6.838965">
        <time>2023-04-19T04:50:19+00:00</time>
        <ele>1808.0</ele>
      </trkpt>
      <trkpt lat="45.203008" lon="6.839174">
        <time>2023-04-19T04:50:37+00:00</time>
        <ele>1809.0</ele>
      </trkpt>
      <trkpt lat="45.202996" lon="6.839213">
        <time>2023-04-19T04:50:40+00:00</time>
        <ele>1810.0</ele>
      </trkpt>
      <trkpt lat="45.202983" lon="6.839254">
        <time>2023-04-19T04:50:44+00:00</time>
        <ele>1811.0</ele>
      </trkpt>
      <trkpt lat="45.202964" lon="6.839342">
        <time>2023-04-19T04:50:52+00:00</time>
        <ele>1812.0</ele>
      </trkpt>
      <trkpt lat="45.202967" lon="6.839472">
        <time>2023-04-19T04:51:02+00:00</time>
        <ele>1811.0</ele>
      </trkpt>
      <trkpt lat="45.20296" lon="6.839521">
        <time>2023-04-19T04:51:06+00:00</time>
        <ele>1811.0</ele>
      </trkpt>
      <trkpt lat="45.202966" lon="6.839568">
        <time>2023-04-19T04:51:10+00:00</time>
        <ele>1811.0</ele>
      </trkpt>
      <trkpt lat="45.202964" lon="6.83961">
        <time>2023-04-19T04:51:14+00:00</time>
        <ele>1811.0</ele>
      </trkpt>
      <trkpt lat="45.20297" lon="6.839666">
        <time>2023-04-19T04:51:19+00:00</time>
        <ele>1810.0</ele>
      </trkpt>
      <trkpt lat="45.202967" lon="6.839721">
        <time>2023-04-19T04:51:24+00:00</time>
        <ele>1810.0</ele>
      </trkpt>
      <trkpt lat="45.202952" lon="6.839779">
        <time>2023-04-19T04:51:29+00:00</time>
        <ele>1811.0</ele>
      </trkpt>
      <trkpt lat="45.202942" lon="6.839834">
        <time>2023-04-19T04:51:34+00:00</time>
        <ele>1811.0</ele>
      </trkpt>
      <trkpt lat="45.202919" lon="6.83994">
        <time>2023-04-19T04:51:43+00:00</time>
        <ele>1813.0</ele>
      </trkpt>
      <trkpt lat="45.202932" lon="6.839997">
        <time>2023-04-19T04:51:47+00:00</time>
        <ele>1813.0</ele>
      </trkpt>
      <trkpt lat="45.202949" lon="6.840132">
        <time>2023-04-19T04:51:57+00:00</time>
        <ele>1813.0</ele>
      </trkpt>
      <trkpt lat="45.202936" lon="6.840176">
        <time>2023-04-19T04:52:02+00:00</time>
        <ele>1815.0</ele>
      </trkpt>
      <trkpt lat="45.202908" lon="6.840185">
        <time>2023-04-19T04:52:05+00:00</time>
        <ele>1816.0</ele>
      </trkpt>
      <trkpt lat="45.202876" lon="6.840187">
        <time>2023-04-19T04:52:09+00:00</time>
        <ele>1818.0</ele>
      </trkpt>
      <trkpt lat="45.202849" lon="6.840163">
        <time>2023-04-19T04:52:13+00:00</time>
        <ele>1819.0</ele>
      </trkpt>
      <trkpt lat="45.202826" lon="6.840124">
        <time>2023-04-19T04:52:18+00:00</time>
        <ele>1820.0</ele>
      </trkpt>
      <trkpt lat="45.202824" lon="6.840066">
        <time>2023-04-19T04:52:23+00:00</time>
        <ele>1819.0</ele>
      </trkpt>
      <trkpt lat="45.202824" lon="6.840012">
        <time>2023-04-19T04:52:28+00:00</time>
        <ele>1819.0</ele>
      </trkpt>
      <trkpt lat="45.202833" lon="6.839944">
        <time>2023-04-19T04:52:32+00:00</time>
        <ele>1818.0</ele>
      </trkpt>
      <trkpt lat="45.202806" lon="6.839836">
        <time>2023-04-19T04:52:42+00:00</time>
        <ele>1818.0</ele>
      </trkpt>
      <trkpt lat="45.202791" lon="6.839794">
        <time>2023-04-19T04:52:45+00:00</time>
        <ele>1819.0</ele>
      </trkpt>
      <trkpt lat="45.202775" lon="6.839753">
        <time>2023-04-19T04:52:49+00:00</time>
        <ele>1820.0</ele>
      </trkpt>
      <trkpt lat="45.202775" lon="6.839697">
        <time>2023-04-19T04:52:55+00:00</time>
        <ele>1821.0</ele>
      </trkpt>
      <trkpt lat="45.202767" lon="6.839636">
        <time>2023-04-19T04:53:00+00:00</time>
        <ele>1822.0</ele>
      </trkpt>
      <trkpt lat="45.20275" lon="6.839584">
        <time>2023-04-19T04:53:05+00:00</time>
        <ele>1823.0</ele>
      </trkpt>
      <trkpt lat="45.202747" lon="6.83947">
        <time>2023-04-19T04:53:13+00:00</time>
        <ele>1824.0</ele>
      </trkpt>
      <trkpt lat="45.202744" lon="6.839306">
        <time>2023-04-19T04:53:30+00:00</time>
        <ele>1825.0</ele>
      </trkpt>
      <trkpt lat="45.20272" lon="6.839039">
        <time>2023-04-19T04:53:59+00:00</time>
        <ele>1828.0</ele>
      </trkpt>
      <trkpt lat="45.202713" lon="6.838991">
        <time>2023-04-19T04:54:05+00:00</time>
        <ele>1828.0</ele>
      </trkpt>
      <trkpt lat="45.202647" lon="6.838751">
        <time>2023-04-19T04:54:27+00:00</time>
        <ele>1831.0</ele>
      </trkpt>
      <trkpt lat="45.202643" lon="6.838656">
        <time>2023-04-19T04:54:38+00:00</time>
        <ele>1831.0</ele>
      </trkpt>
      <trkpt lat="45.202607" lon="6.838571">
        <time>2023-04-19T04:54:48+00:00</time>
        <ele>1832.0</ele>
      </trkpt>
      <trkpt lat="45.202601" lon="6.838526">
        <time>2023-04-19T04:54:54+00:00</time>
        <ele>1832.0</ele>
      </trkpt>
      <trkpt lat="45.202572" lon="6.838445">
        <time>2023-04-19T04:55:03+00:00</time>
        <ele>1833.0</ele>
      </trkpt>
      <trkpt lat="45.20257" lon="6.838399">
        <time>2023-04-19T04:55:07+00:00</time>
        <ele>1833.0</ele>
      </trkpt>
      <trkpt lat="45.20256" lon="6.838357">
        <time>2023-04-19T04:55:12+00:00</time>
        <ele>1833.0</ele>
      </trkpt>
      <trkpt lat="45.202534" lon="6.838333">
        <time>2023-04-19T04:55:17+00:00</time>
        <ele>1834.0</ele>
      </trkpt>
      <trkpt lat="45.202492" lon="6.83826">
        <time>2023-04-19T04:55:27+00:00</time>
        <ele>1836.0</ele>
      </trkpt>
      <trkpt lat="45.202445" lon="6.83823">
        <time>2023-04-19T04:55:37+00:00</time>
        <ele>1838.0</ele>
      </trkpt>
      <trkpt lat="45.202412" lon="6.838185">
        <time>2023-04-19T04:55:42+00:00</time>
        <ele>1839.0</ele>
      </trkpt>
      <trkpt lat="45.202345" lon="6.838126">
        <time>2023-04-19T04:55:52+00:00</time>
        <ele>1841.0</ele>
      </trkpt>
      <trkpt lat="45.202317" lon="6.838083">
        <time>2023-04-19T04:55:58+00:00</time>
        <ele>1842.0</ele>
      </trkpt>
      <trkpt lat="45.202259" lon="6.837996">
        <time>2023-04-19T04:56:09+00:00</time>
        <ele>1843.0</ele>
      </trkpt>
      <trkpt lat="45.202231" lon="6.83795">
        <time>2023-04-19T04:56:13+00:00</time>
        <ele>1844.0</ele>
      </trkpt>
      <trkpt lat="45.202169" lon="6.83787">
        <time>2023-04-19T04:56:17+00:00</time>
        <ele>1845.0</ele>
      </trkpt>
      <trkpt lat="45.202129" lon="6.837861">
        <time>2023-04-19T04:56:24+00:00</time>
        <ele>1846.0</ele>
      </trkpt>
      <trkpt lat="45.202089" lon="6.837822">
        <time>2023-04-19T04:56:30+00:00</time>
        <ele>1847.0</ele>
      </trkpt>
      <trkpt lat="45.202052" lon="6.837788">
        <time>2023-04-19T04:56:37+00:00</time>
        <ele>1847.0</ele>
      </trkpt>
      <trkpt lat="45.202023" lon="6.837744">
        <time>2023-04-19T04:56:43+00:00</time>
        <ele>1847.0</ele>
      </trkpt>
      <trkpt lat="45.201994" lon="6.837707">
        <time>2023-04-19T04:56:48+00:00</time>
        <ele>1847.0</ele>
      </trkpt>
      <trkpt lat="45.201965" lon="6.837662">
        <time>2023-04-19T04:56:55+00:00</time>
        <ele>1847.0</ele>
      </trkpt>
      <trkpt lat="45.201856" lon="6.837594">
        <time>2023-04-19T04:57:10+00:00</time>
        <ele>1849.0</ele>
      </trkpt>
      <trkpt lat="45.201823" lon="6.837566">
        <time>2023-04-19T04:57:15+00:00</time>
        <ele>1849.0</ele>
      </trkpt>
      <trkpt lat="45.201791" lon="6.837539">
        <time>2023-04-19T04:57:20+00:00</time>
        <ele>1850.0</ele>
      </trkpt>
      <trkpt lat="45.20177" lon="6.837496">
        <time>2023-04-19T04:57:24+00:00</time>
        <ele>1850.0</ele>
      </trkpt>
      <trkpt lat="45.201734" lon="6.837474">
        <time>2023-04-19T04:57:28+00:00</time>
        <ele>1851.0</ele>
      </trkpt>
      <trkpt lat="45.201665" lon="6.837338">
        <time>2023-04-19T04:57:43+00:00</time>
        <ele>1851.0</ele>
      </trkpt>
      <trkpt lat="45.201607" lon="6.837283">
        <time>2023-04-19T04:57:52+00:00</time>
        <ele>1852.0</ele>
      </trkpt>
      <trkpt lat="45.201582" lon="6.837237">
        <time>2023-04-19T04:57:57+00:00</time>
        <ele>1852.0</ele>
      </trkpt>
      <trkpt lat="45.201559" lon="6.837215">
        <time>2023-04-19T04:58:00+00:00</time>
        <ele>1852.0</ele>
      </trkpt>
      <trkpt lat="45.201505" lon="6.837095">
        <time>2023-04-19T04:58:13+00:00</time>
        <ele>1851.0</ele>
      </trkpt>
      <trkpt lat="45.201474" lon="6.837079">
        <time>2023-04-19T04:58:17+00:00</time>
        <ele>1852.0</ele>
      </trkpt>
      <trkpt lat="45.201442" lon="6.837035">
        <time>2023-04-19T04:58:22+00:00</time>
        <ele>1853.0</ele>
      </trkpt>
      <trkpt lat="45.201431" lon="6.836975">
        <time>2023-04-19T04:58:27+00:00</time>
        <ele>1852.0</ele>
      </trkpt>
      <trkpt lat="45.20143" lon="6.83692">
        <time>2023-04-19T04:58:32+00:00</time>
        <ele>1852.0</ele>
      </trkpt>
      <trkpt lat="45.201418" lon="6.83688">
        <time>2023-04-19T04:58:36+00:00</time>
        <ele>1852.0</ele>
      </trkpt>
      <trkpt lat="45.201363" lon="6.836727">
        <time>2023-04-19T04:58:52+00:00</time>
        <ele>1851.0</ele>
      </trkpt>
      <trkpt lat="45.201319" lon="6.836714">
        <time>2023-04-19T04:58:57+00:00</time>
        <ele>1852.0</ele>
      </trkpt>
      <trkpt lat="45.201269" lon="6.83667">
        <time>2023-04-19T04:59:03+00:00</time>
        <ele>1853.0</ele>
      </trkpt>
      <trkpt lat="45.201008" lon="6.836582">
        <time>2023-04-19T04:59:27+00:00</time>
        <ele>1855.0</ele>
      </trkpt>
      <trkpt lat="45.200981" lon="6.836552">
        <time>2023-04-19T04:59:30+00:00</time>
        <ele>1855.0</ele>
      </trkpt>
      <trkpt lat="45.200923" lon="6.836528">
        <time>2023-04-19T04:59:37+00:00</time>
        <ele>1856.0</ele>
      </trkpt>
      <trkpt lat="45.20062" lon="6.836439">
        <time>2023-04-19T05:00:07+00:00</time>
        <ele>1857.0</ele>
      </trkpt>
      <trkpt lat="45.200378" lon="6.836433">
        <time>2023-04-19T05:00:29+00:00</time>
        <ele>1859.0</ele>
      </trkpt>
      <trkpt lat="45.20035" lon="6.836432">
        <time>2023-04-19T05:00:32+00:00</time>
        <ele>1859.0</ele>
      </trkpt>
      <trkpt lat="45.200282" lon="6.836462">
        <time>2023-04-19T05:00:38+00:00</time>
        <ele>1861.0</ele>
      </trkpt>
      <trkpt lat="45.200129" lon="6.836421">
        <time>2023-04-19T05:00:52+00:00</time>
        <ele>1863.0</ele>
      </trkpt>
      <trkpt lat="45.199929" lon="6.836314">
        <time>2023-04-19T05:01:12+00:00</time>
        <ele>1862.0</ele>
      </trkpt>
      <trkpt lat="45.199895" lon="6.836272">
        <time>2023-04-19T05:01:16+00:00</time>
        <ele>1861.0</ele>
      </trkpt>
      <trkpt lat="45.199852" lon="6.836241">
        <time>2023-04-19T05:01:20+00:00</time>
        <ele>1861.0</ele>
      </trkpt>
      <trkpt lat="45.199832" lon="6.836212">
        <time>2023-04-19T05:01:22+00:00</time>
        <ele>1861.0</ele>
      </trkpt>
      <trkpt lat="45.199726" lon="6.836107">
        <time>2023-04-19T05:01:32+00:00</time>
        <ele>1861.0</ele>
      </trkpt>
      <trkpt lat="45.19966" lon="6.83597">
        <time>2023-04-19T05:01:42+00:00</time>
        <ele>1860.0</ele>
      </trkpt>
      <trkpt lat="45.199626" lon="6.835916">
        <time>2023-04-19T05:01:47+00:00</time>
        <ele>1860.0</ele>
      </trkpt>
      <trkpt lat="45.199584" lon="6.835908">
        <time>2023-04-19T05:01:52+00:00</time>
        <ele>1861.0</ele>
      </trkpt>
      <trkpt lat="45.19954" lon="6.835874">
        <time>2023-04-19T05:01:57+00:00</time>
        <ele>1861.0</ele>
      </trkpt>
      <trkpt lat="45.199376" lon="6.83584">
        <time>2023-04-19T05:02:14+00:00</time>
        <ele>1862.0</ele>
      </trkpt>
      <trkpt lat="45.199339" lon="6.835816">
        <time>2023-04-19T05:02:17+00:00</time>
        <ele>1862.0</ele>
      </trkpt>
      <trkpt lat="45.199296" lon="6.835811">
        <time>2023-04-19T05:02:22+00:00</time>
        <ele>1863.0</ele>
      </trkpt>
      <trkpt lat="45.19926" lon="6.835801">
        <time>2023-04-19T05:02:25+00:00</time>
        <ele>1864.0</ele>
      </trkpt>
      <trkpt lat="45.199089" lon="6.835668">
        <time>2023-04-19T05:02:42+00:00</time>
        <ele>1864.0</ele>
      </trkpt>
      <trkpt lat="45.199061" lon="6.835648">
        <time>2023-04-19T05:02:45+00:00</time>
        <ele>1864.0</ele>
      </trkpt>
      <trkpt lat="45.199032" lon="6.835644">
        <time>2023-04-19T05:02:48+00:00</time>
        <ele>1865.0</ele>
      </trkpt>
      <trkpt lat="45.198996" lon="6.83563">
        <time>2023-04-19T05:02:53+00:00</time>
        <ele>1866.0</ele>
      </trkpt>
      <trkpt lat="45.198953" lon="6.835625">
        <time>2023-04-19T05:02:57+00:00</time>
        <ele>1866.0</ele>
      </trkpt>
      <trkpt lat="45.198913" lon="6.835638">
        <time>2023-04-19T05:03:02+00:00</time>
        <ele>1867.0</ele>
      </trkpt>
      <trkpt lat="45.198845" lon="6.835616">
        <time>2023-04-19T05:03:09+00:00</time>
        <ele>1867.0</ele>
      </trkpt>
      <trkpt lat="45.198814" lon="6.835617">
        <time>2023-04-19T05:03:13+00:00</time>
        <ele>1867.0</ele>
      </trkpt>
      <trkpt lat="45.19878" lon="6.835589">
        <time>2023-04-19T05:03:18+00:00</time>
        <ele>1867.0</ele>
      </trkpt>
      <trkpt lat="45.198699" lon="6.835583">
        <time>2023-04-19T05:03:30+00:00</time>
        <ele>1870.0</ele>
      </trkpt>
      <trkpt lat="45.198586" lon="6.835513">
        <time>2023-04-19T05:03:40+00:00</time>
        <ele>1871.0</ele>
      </trkpt>
      <trkpt lat="45.198562" lon="6.835481">
        <time>2023-04-19T05:03:45+00:00</time>
        <ele>1871.0</ele>
      </trkpt>
      <trkpt lat="45.198539" lon="6.83546">
        <time>2023-04-19T05:03:48+00:00</time>
        <ele>1870.0</ele>
      </trkpt>
      <trkpt lat="45.198293" lon="6.835394">
        <time>2023-04-19T05:04:22+00:00</time>
        <ele>1877.0</ele>
      </trkpt>
      <trkpt lat="45.198259" lon="6.835367">
        <time>2023-04-19T05:04:29+00:00</time>
        <ele>1877.0</ele>
      </trkpt>
      <trkpt lat="45.198242" lon="6.835333">
        <time>2023-04-19T05:04:33+00:00</time>
        <ele>1876.0</ele>
      </trkpt>
      <trkpt lat="45.198211" lon="6.835318">
        <time>2023-04-19T05:04:37+00:00</time>
        <ele>1877.0</ele>
      </trkpt>
      <trkpt lat="45.198174" lon="6.835293">
        <time>2023-04-19T05:04:45+00:00</time>
        <ele>1878.0</ele>
      </trkpt>
      <trkpt lat="45.198142" lon="6.83527">
        <time>2023-04-19T05:04:50+00:00</time>
        <ele>1878.0</ele>
      </trkpt>
      <trkpt lat="45.198124" lon="6.835237">
        <time>2023-04-19T05:04:54+00:00</time>
        <ele>1878.0</ele>
      </trkpt>
      <trkpt lat="45.198086" lon="6.835223">
        <time>2023-04-19T05:04:59+00:00</time>
        <ele>1879.0</ele>
      </trkpt>
      <trkpt lat="45.198053" lon="6.835195">
        <time>2023-04-19T05:05:05+00:00</time>
        <ele>1880.0</ele>
      </trkpt>
      <trkpt lat="45.198029" lon="6.835181">
        <time>2023-04-19T05:05:09+00:00</time>
        <ele>1880.0</ele>
      </trkpt>
      <trkpt lat="45.198004" lon="6.835161">
        <time>2023-04-19T05:05:13+00:00</time>
        <ele>1881.0</ele>
      </trkpt>
      <trkpt lat="45.197985" lon="6.835134">
        <time>2023-04-19T05:05:17+00:00</time>
        <ele>1880.0</ele>
      </trkpt>
      <trkpt lat="45.197951" lon="6.83507">
        <time>2023-04-19T05:05:26+00:00</time>
        <ele>1880.0</ele>
      </trkpt>
      <trkpt lat="45.197877" lon="6.835041">
        <time>2023-04-19T05:05:37+00:00</time>
        <ele>1881.0</ele>
      </trkpt>
      <trkpt lat="45.197842" lon="6.835041">
        <time>2023-04-19T05:05:42+00:00</time>
        <ele>1882.0</ele>
      </trkpt>
      <trkpt lat="45.197688" lon="6.834892">
        <time>2023-04-19T05:06:08+00:00</time>
        <ele>1885.0</ele>
      </trkpt>
      <trkpt lat="45.197659" lon="6.834873">
        <time>2023-04-19T05:06:13+00:00</time>
        <ele>1886.0</ele>
      </trkpt>
      <trkpt lat="45.19755" lon="6.834816">
        <time>2023-04-19T05:06:28+00:00</time>
        <ele>1889.0</ele>
      </trkpt>
      <trkpt lat="45.197525" lon="6.834792">
        <time>2023-04-19T05:06:32+00:00</time>
        <ele>1890.0</ele>
      </trkpt>
      <trkpt lat="45.197494" lon="6.834774">
        <time>2023-04-19T05:06:37+00:00</time>
        <ele>1891.0</ele>
      </trkpt>
      <trkpt lat="45.197462" lon="6.834752">
        <time>2023-04-19T05:06:42+00:00</time>
        <ele>1892.0</ele>
      </trkpt>
      <trkpt lat="45.197331" lon="6.83454">
        <time>2023-04-19T05:07:09+00:00</time>
        <ele>1890.0</ele>
      </trkpt>
      <trkpt lat="45.19731" lon="6.834522">
        <time>2023-04-19T05:07:14+00:00</time>
        <ele>1891.0</ele>
      </trkpt>
      <trkpt lat="45.197185" lon="6.83445">
        <time>2023-04-19T05:07:36+00:00</time>
        <ele>1893.0</ele>
      </trkpt>
      <trkpt lat="45.197142" lon="6.834435">
        <time>2023-04-19T05:07:43+00:00</time>
        <ele>1893.0</ele>
      </trkpt>
      <trkpt lat="45.197103" lon="6.834427">
        <time>2023-04-19T05:07:48+00:00</time>
        <ele>1894.0</ele>
      </trkpt>
      <trkpt lat="45.197062" lon="6.834426">
        <time>2023-04-19T05:07:55+00:00</time>
        <ele>1896.0</ele>
      </trkpt>
      <trkpt lat="45.196998" lon="6.834372">
        <time>2023-04-19T05:08:06+00:00</time>
        <ele>1896.0</ele>
      </trkpt>
      <trkpt lat="45.196966" lon="6.834343">
        <time>2023-04-19T05:08:10+00:00</time>
        <ele>1896.0</ele>
      </trkpt>
      <trkpt lat="45.196929" lon="6.834324">
        <time>2023-04-19T05:08:14+00:00</time>
        <ele>1896.0</ele>
      </trkpt>
      <trkpt lat="45.196852" lon="6.834306">
        <time>2023-04-19T05:08:23+00:00</time>
        <ele>1899.0</ele>
      </trkpt>
      <trkpt lat="45.19682" lon="6.834287">
        <time>2023-04-19T05:08:28+00:00</time>
        <ele>1900.0</ele>
      </trkpt>
      <trkpt lat="45.196674" lon="6.834085">
        <time>2023-04-19T05:08:58+00:00</time>
        <ele>1899.0</ele>
      </trkpt>
      <trkpt lat="45.196573" lon="6.834013">
        <time>2023-04-19T05:09:14+00:00</time>
        <ele>1899.0</ele>
      </trkpt>
      <trkpt lat="45.196541" lon="6.833998">
        <time>2023-04-19T05:09:19+00:00</time>
        <ele>1900.0</ele>
      </trkpt>
      <trkpt lat="45.196468" lon="6.833975">
        <time>2023-04-19T05:09:28+00:00</time>
        <ele>1901.0</ele>
      </trkpt>
      <trkpt lat="45.196439" lon="6.833955">
        <time>2023-04-19T05:09:32+00:00</time>
        <ele>1901.0</ele>
      </trkpt>
      <trkpt lat="45.196413" lon="6.833899">
        <time>2023-04-19T05:09:39+00:00</time>
        <ele>1900.0</ele>
      </trkpt>
      <trkpt lat="45.196385" lon="6.833879">
        <time>2023-04-19T05:09:43+00:00</time>
        <ele>1900.0</ele>
      </trkpt>
      <trkpt lat="45.1962" lon="6.833811">
        <time>2023-04-19T05:10:08+00:00</time>
        <ele>1901.0</ele>
      </trkpt>
      <trkpt lat="45.196164" lon="6.833794">
        <time>2023-04-19T05:10:13+00:00</time>
        <ele>1901.0</ele>
      </trkpt>
      <trkpt lat="45.196128" lon="6.833763">
        <time>2023-04-19T05:10:18+00:00</time>
        <ele>1901.0</ele>
      </trkpt>
      <trkpt lat="45.196099" lon="6.833739">
        <time>2023-04-19T05:10:21+00:00</time>
        <ele>1901.0</ele>
      </trkpt>
      <trkpt lat="45.196033" lon="6.833716">
        <time>2023-04-19T05:10:30+00:00</time>
        <ele>1903.0</ele>
      </trkpt>
      <trkpt lat="45.195981" lon="6.833692">
        <time>2023-04-19T05:10:36+00:00</time>
        <ele>1903.0</ele>
      </trkpt>
      <trkpt lat="45.19596" lon="6.833677">
        <time>2023-04-19T05:10:40+00:00</time>
        <ele>1903.0</ele>
      </trkpt>
      <trkpt lat="45.195931" lon="6.833657">
        <time>2023-04-19T05:10:44+00:00</time>
        <ele>1904.0</ele>
      </trkpt>
      <trkpt lat="45.1959" lon="6.833637">
        <time>2023-04-19T05:10:48+00:00</time>
        <ele>1904.0</ele>
      </trkpt>
      <trkpt lat="45.195869" lon="6.833628">
        <time>2023-04-19T05:10:53+00:00</time>
        <ele>1905.0</ele>
      </trkpt>
      <trkpt lat="45.195844" lon="6.833616">
        <time>2023-04-19T05:10:55+00:00</time>
        <ele>1906.0</ele>
      </trkpt>
      <trkpt lat="45.195783" lon="6.833614">
        <time>2023-04-19T05:11:03+00:00</time>
        <ele>1908.0</ele>
      </trkpt>
      <trkpt lat="45.195742" lon="6.8336">
        <time>2023-04-19T05:11:08+00:00</time>
        <ele>1909.0</ele>
      </trkpt>
      <trkpt lat="45.195715" lon="6.833586">
        <time>2023-04-19T05:11:13+00:00</time>
        <ele>1909.0</ele>
      </trkpt>
      <trkpt lat="45.195654" lon="6.833548">
        <time>2023-04-19T05:11:23+00:00</time>
        <ele>1910.0</ele>
      </trkpt>
      <trkpt lat="45.195593" lon="6.833504">
        <time>2023-04-19T05:11:33+00:00</time>
        <ele>1910.0</ele>
      </trkpt>
      <trkpt lat="45.195529" lon="6.833463">
        <time>2023-04-19T05:11:43+00:00</time>
        <ele>1911.0</ele>
      </trkpt>
      <trkpt lat="45.195504" lon="6.833429">
        <time>2023-04-19T05:11:49+00:00</time>
        <ele>1911.0</ele>
      </trkpt>
      <trkpt lat="45.195436" lon="6.833414">
        <time>2023-04-19T05:11:59+00:00</time>
        <ele>1912.0</ele>
      </trkpt>
      <trkpt lat="45.195399" lon="6.833368">
        <time>2023-04-19T05:12:08+00:00</time>
        <ele>1912.0</ele>
      </trkpt>
      <trkpt lat="45.19535" lon="6.833321">
        <time>2023-04-19T05:12:16+00:00</time>
        <ele>1913.0</ele>
      </trkpt>
      <trkpt lat="45.195318" lon="6.833312">
        <time>2023-04-19T05:12:20+00:00</time>
        <ele>1914.0</ele>
      </trkpt>
      <trkpt lat="45.195263" lon="6.833283">
        <time>2023-04-19T05:12:31+00:00</time>
        <ele>1915.0</ele>
      </trkpt>
      <trkpt lat="45.19524" lon="6.83328">
        <time>2023-04-19T05:12:34+00:00</time>
        <ele>1916.0</ele>
      </trkpt>
      <trkpt lat="45.195214" lon="6.833261">
        <time>2023-04-19T05:12:38+00:00</time>
        <ele>1917.0</ele>
      </trkpt>
      <trkpt lat="45.195192" lon="6.833245">
        <time>2023-04-19T05:12:41+00:00</time>
        <ele>1917.0</ele>
      </trkpt>
      <trkpt lat="45.195174" lon="6.833221">
        <time>2023-04-19T05:12:44+00:00</time>
        <ele>1918.0</ele>
      </trkpt>
      <trkpt lat="45.195152" lon="6.833198">
        <time>2023-04-19T05:12:48+00:00</time>
        <ele>1918.0</ele>
      </trkpt>
      <trkpt lat="45.195058" lon="6.833067">
        <time>2023-04-19T05:13:06+00:00</time>
        <ele>1920.0</ele>
      </trkpt>
      <trkpt lat="45.194939" lon="6.832816">
        <time>2023-04-19T05:13:35+00:00</time>
        <ele>1920.0</ele>
      </trkpt>
      <trkpt lat="45.194934" lon="6.832784">
        <time>2023-04-19T05:13:38+00:00</time>
        <ele>1919.0</ele>
      </trkpt>
      <trkpt lat="45.194917" lon="6.832756">
        <time>2023-04-19T05:13:42+00:00</time>
        <ele>1919.0</ele>
      </trkpt>
      <trkpt lat="45.194898" lon="6.832736">
        <time>2023-04-19T05:13:45+00:00</time>
        <ele>1919.0</ele>
      </trkpt>
      <trkpt lat="45.194886" lon="6.832704">
        <time>2023-04-19T05:13:49+00:00</time>
        <ele>1919.0</ele>
      </trkpt>
      <trkpt lat="45.194852" lon="6.832684">
        <time>2023-04-19T05:13:53+00:00</time>
        <ele>1919.0</ele>
      </trkpt>
      <trkpt lat="45.19481" lon="6.832655">
        <time>2023-04-19T05:13:58+00:00</time>
        <ele>1920.0</ele>
      </trkpt>
      <trkpt lat="45.194783" lon="6.832646">
        <time>2023-04-19T05:14:01+00:00</time>
        <ele>1920.0</ele>
      </trkpt>
      <trkpt lat="45.194756" lon="6.832636">
        <time>2023-04-19T05:14:04+00:00</time>
        <ele>1920.0</ele>
      </trkpt>
      <trkpt lat="45.194703" lon="6.832568">
        <time>2023-04-19T05:14:13+00:00</time>
        <ele>1920.0</ele>
      </trkpt>
      <trkpt lat="45.194651" lon="6.832534">
        <time>2023-04-19T05:14:19+00:00</time>
        <ele>1920.0</ele>
      </trkpt>
      <trkpt lat="45.194602" lon="6.832467">
        <time>2023-04-19T05:14:28+00:00</time>
        <ele>1920.0</ele>
      </trkpt>
      <trkpt lat="45.194551" lon="6.832432">
        <time>2023-04-19T05:14:35+00:00</time>
        <ele>1920.0</ele>
      </trkpt>
      <trkpt lat="45.194528" lon="6.832433">
        <time>2023-04-19T05:14:38+00:00</time>
        <ele>1921.0</ele>
      </trkpt>
      <trkpt lat="45.194489" lon="6.832421">
        <time>2023-04-19T05:14:43+00:00</time>
        <ele>1921.0</ele>
      </trkpt>
      <trkpt lat="45.194467" lon="6.832393">
        <time>2023-04-19T05:14:46+00:00</time>
        <ele>1921.0</ele>
      </trkpt>
      <trkpt lat="45.194437" lon="6.832381">
        <time>2023-04-19T05:14:49+00:00</time>
        <ele>1922.0</ele>
      </trkpt>
      <trkpt lat="45.194406" lon="6.832387">
        <time>2023-04-19T05:14:53+00:00</time>
        <ele>1922.0</ele>
      </trkpt>
      <trkpt lat="45.194299" lon="6.832366">
        <time>2023-04-19T05:15:09+00:00</time>
        <ele>1924.0</ele>
      </trkpt>
      <trkpt lat="45.19424" lon="6.832356">
        <time>2023-04-19T05:15:18+00:00</time>
        <ele>1924.0</ele>
      </trkpt>
      <trkpt lat="45.194083" lon="6.832368">
        <time>2023-04-19T05:15:35+00:00</time>
        <ele>1927.0</ele>
      </trkpt>
      <trkpt lat="45.193957" lon="6.832301">
        <time>2023-04-19T05:15:49+00:00</time>
        <ele>1928.0</ele>
      </trkpt>
      <trkpt lat="45.193902" lon="6.832273">
        <time>2023-04-19T05:15:55+00:00</time>
        <ele>1928.0</ele>
      </trkpt>
      <trkpt lat="45.193872" lon="6.832252">
        <time>2023-04-19T05:15:58+00:00</time>
        <ele>1928.0</ele>
      </trkpt>
      <trkpt lat="45.193849" lon="6.832233">
        <time>2023-04-19T05:16:01+00:00</time>
        <ele>1928.0</ele>
      </trkpt>
      <trkpt lat="45.193702" lon="6.832136">
        <time>2023-04-19T05:16:18+00:00</time>
        <ele>1929.0</ele>
      </trkpt>
      <trkpt lat="45.193674" lon="6.832132">
        <time>2023-04-19T05:16:21+00:00</time>
        <ele>1929.0</ele>
      </trkpt>
      <trkpt lat="45.193651" lon="6.832122">
        <time>2023-04-19T05:16:24+00:00</time>
        <ele>1929.0</ele>
      </trkpt>
      <trkpt lat="45.193619" lon="6.832092">
        <time>2023-04-19T05:16:28+00:00</time>
        <ele>1929.0</ele>
      </trkpt>
      <trkpt lat="45.193597" lon="6.832046">
        <time>2023-04-19T05:16:33+00:00</time>
        <ele>1929.0</ele>
      </trkpt>
      <trkpt lat="45.193574" lon="6.832027">
        <time>2023-04-19T05:16:36+00:00</time>
        <ele>1929.0</ele>
      </trkpt>
      <trkpt lat="45.19355" lon="6.832006">
        <time>2023-04-19T05:16:40+00:00</time>
        <ele>1930.0</ele>
      </trkpt>
      <trkpt lat="45.193517" lon="6.832005">
        <time>2023-04-19T05:16:44+00:00</time>
        <ele>1930.0</ele>
      </trkpt>
      <trkpt lat="45.19344" lon="6.831951">
        <time>2023-04-19T05:16:54+00:00</time>
        <ele>1931.0</ele>
      </trkpt>
      <trkpt lat="45.193423" lon="6.831933">
        <time>2023-04-19T05:16:58+00:00</time>
        <ele>1931.0</ele>
      </trkpt>
      <trkpt lat="45.193399" lon="6.83192">
        <time>2023-04-19T05:17:03+00:00</time>
        <ele>1932.0</ele>
      </trkpt>
      <trkpt lat="45.193379" lon="6.831908">
        <time>2023-04-19T05:17:06+00:00</time>
        <ele>1932.0</ele>
      </trkpt>
      <trkpt lat="45.193359" lon="6.831893">
        <time>2023-04-19T05:17:09+00:00</time>
        <ele>1932.0</ele>
      </trkpt>
      <trkpt lat="45.193339" lon="6.831868">
        <time>2023-04-19T05:17:13+00:00</time>
        <ele>1933.0</ele>
      </trkpt>
      <trkpt lat="45.193305" lon="6.831839">
        <time>2023-04-19T05:17:18+00:00</time>
        <ele>1933.0</ele>
      </trkpt>
      <trkpt lat="45.193288" lon="6.831824">
        <time>2023-04-19T05:17:21+00:00</time>
        <ele>1933.0</ele>
      </trkpt>
      <trkpt lat="45.193269" lon="6.831793">
        <time>2023-04-19T05:17:25+00:00</time>
        <ele>1933.0</ele>
      </trkpt>
      <trkpt lat="45.193253" lon="6.831777">
        <time>2023-04-19T05:17:28+00:00</time>
        <ele>1933.0</ele>
      </trkpt>
      <trkpt lat="45.193207" lon="6.831727">
        <time>2023-04-19T05:17:33+00:00</time>
        <ele>1934.0</ele>
      </trkpt>
      <trkpt lat="45.193188" lon="6.831709">
        <time>2023-04-19T05:17:36+00:00</time>
        <ele>1934.0</ele>
      </trkpt>
      <trkpt lat="45.193165" lon="6.831695">
        <time>2023-04-19T05:17:41+00:00</time>
        <ele>1934.0</ele>
      </trkpt>
      <trkpt lat="45.193155" lon="6.831667">
        <time>2023-04-19T05:17:44+00:00</time>
        <ele>1934.0</ele>
      </trkpt>
      <trkpt lat="45.193138" lon="6.83164">
        <time>2023-04-19T05:17:48+00:00</time>
        <ele>1935.0</ele>
      </trkpt>
      <trkpt lat="45.193118" lon="6.831628">
        <time>2023-04-19T05:17:51+00:00</time>
        <ele>1935.0</ele>
      </trkpt>
      <trkpt lat="45.193099" lon="6.831612">
        <time>2023-04-19T05:17:54+00:00</time>
        <ele>1935.0</ele>
      </trkpt>
      <trkpt lat="45.193084" lon="6.831585">
        <time>2023-04-19T05:17:58+00:00</time>
        <ele>1935.0</ele>
      </trkpt>
      <trkpt lat="45.193045" lon="6.83156">
        <time>2023-04-19T05:18:05+00:00</time>
        <ele>1936.0</ele>
      </trkpt>
      <trkpt lat="45.193025" lon="6.831535">
        <time>2023-04-19T05:18:08+00:00</time>
        <ele>1936.0</ele>
      </trkpt>
      <trkpt lat="45.193014" lon="6.831503">
        <time>2023-04-19T05:18:11+00:00</time>
        <ele>1936.0</ele>
      </trkpt>
      <trkpt lat="45.192982" lon="6.831466">
        <time>2023-04-19T05:18:16+00:00</time>
        <ele>1936.0</ele>
      </trkpt>
      <trkpt lat="45.192972" lon="6.831436">
        <time>2023-04-19T05:18:19+00:00</time>
        <ele>1936.0</ele>
      </trkpt>
      <trkpt lat="45.192937" lon="6.831401">
        <time>2023-04-19T05:18:24+00:00</time>
        <ele>1937.0</ele>
      </trkpt>
      <trkpt lat="45.192924" lon="6.831352">
        <time>2023-04-19T05:18:28+00:00</time>
        <ele>1937.0</ele>
      </trkpt>
      <trkpt lat="45.192911" lon="6.831335">
        <time>2023-04-19T05:18:30+00:00</time>
        <ele>1937.0</ele>
      </trkpt>
      <trkpt lat="45.192863" lon="6.831265">
        <time>2023-04-19T05:18:38+00:00</time>
        <ele>1938.0</ele>
      </trkpt>
      <trkpt lat="45.19285" lon="6.83124">
        <time>2023-04-19T05:18:41+00:00</time>
        <ele>1938.0</ele>
      </trkpt>
      <trkpt lat="45.192832" lon="6.831227">
        <time>2023-04-19T05:18:43+00:00</time>
        <ele>1939.0</ele>
      </trkpt>
      <trkpt lat="45.19281" lon="6.831217">
        <time>2023-04-19T05:18:45+00:00</time>
        <ele>1939.0</ele>
      </trkpt>
      <trkpt lat="45.192786" lon="6.831189">
        <time>2023-04-19T05:18:48+00:00</time>
        <ele>1939.0</ele>
      </trkpt>
      <trkpt lat="45.192774" lon="6.831158">
        <time>2023-04-19T05:18:51+00:00</time>
        <ele>1939.0</ele>
      </trkpt>
      <trkpt lat="45.192758" lon="6.831137">
        <time>2023-04-19T05:18:54+00:00</time>
        <ele>1940.0</ele>
      </trkpt>
      <trkpt lat="45.192739" lon="6.831126">
        <time>2023-04-19T05:18:58+00:00</time>
        <ele>1940.0</ele>
      </trkpt>
      <trkpt lat="45.192716" lon="6.831099">
        <time>2023-04-19T05:19:03+00:00</time>
        <ele>1940.0</ele>
      </trkpt>
      <trkpt lat="45.19269" lon="6.831111">
        <time>2023-04-19T05:19:06+00:00</time>
        <ele>1940.0</ele>
      </trkpt>
      <trkpt lat="45.19266" lon="6.831143">
        <time>2023-04-19T05:19:08+00:00</time>
        <ele>1941.0</ele>
      </trkpt>
      <trkpt lat="45.192636" lon="6.831124">
        <time>2023-04-19T05:19:13+00:00</time>
        <ele>1941.0</ele>
      </trkpt>
      <trkpt lat="45.192605" lon="6.831112">
        <time>2023-04-19T05:19:18+00:00</time>
        <ele>1941.0</ele>
      </trkpt>
      <trkpt lat="45.192575" lon="6.831118">
        <time>2023-04-19T05:19:23+00:00</time>
        <ele>1942.0</ele>
      </trkpt>
      <trkpt lat="45.192552" lon="6.831127">
        <time>2023-04-19T05:19:26+00:00</time>
        <ele>1942.0</ele>
      </trkpt>
      <trkpt lat="45.192525" lon="6.831126">
        <time>2023-04-19T05:19:30+00:00</time>
        <ele>1942.0</ele>
      </trkpt>
      <trkpt lat="45.192506" lon="6.831119">
        <time>2023-04-19T05:19:33+00:00</time>
        <ele>1942.0</ele>
      </trkpt>
      <trkpt lat="45.192485" lon="6.831122">
        <time>2023-04-19T05:19:36+00:00</time>
        <ele>1943.0</ele>
      </trkpt>
      <trkpt lat="45.192454" lon="6.831119">
        <time>2023-04-19T05:19:39+00:00</time>
        <ele>1943.0</ele>
      </trkpt>
      <trkpt lat="45.192427" lon="6.831111">
        <time>2023-04-19T05:19:43+00:00</time>
        <ele>1943.0</ele>
      </trkpt>
      <trkpt lat="45.192414" lon="6.831091">
        <time>2023-04-19T05:19:46+00:00</time>
        <ele>1943.0</ele>
      </trkpt>
      <trkpt lat="45.192397" lon="6.831076">
        <time>2023-04-19T05:19:50+00:00</time>
        <ele>1943.0</ele>
      </trkpt>
      <trkpt lat="45.192356" lon="6.831068">
        <time>2023-04-19T05:19:56+00:00</time>
        <ele>1944.0</ele>
      </trkpt>
      <trkpt lat="45.192337" lon="6.831056">
        <time>2023-04-19T05:19:59+00:00</time>
        <ele>1944.0</ele>
      </trkpt>
      <trkpt lat="45.192287" lon="6.831048">
        <time>2023-04-19T05:20:06+00:00</time>
        <ele>1944.0</ele>
      </trkpt>
      <trkpt lat="45.192251" lon="6.831003">
        <time>2023-04-19T05:20:13+00:00</time>
        <ele>1944.0</ele>
      </trkpt>
      <trkpt lat="45.192223" lon="6.830993">
        <time>2023-04-19T05:20:18+00:00</time>
        <ele>1945.0</ele>
      </trkpt>
      <trkpt lat="45.192178" lon="6.830989">
        <time>2023-04-19T05:20:23+00:00</time>
        <ele>1945.0</ele>
      </trkpt>
      <trkpt lat="45.192088" lon="6.830992">
        <time>2023-04-19T05:20:33+00:00</time>
        <ele>1946.0</ele>
      </trkpt>
      <trkpt lat="45.192058" lon="6.831004">
        <time>2023-04-19T05:20:36+00:00</time>
        <ele>1946.0</ele>
      </trkpt>
      <trkpt lat="45.191987" lon="6.830992">
        <time>2023-04-19T05:20:43+00:00</time>
        <ele>1947.0</ele>
      </trkpt>
      <trkpt lat="45.191959" lon="6.830991">
        <time>2023-04-19T05:20:45+00:00</time>
        <ele>1947.0</ele>
      </trkpt>
      <trkpt lat="45.191928" lon="6.830995">
        <time>2023-04-19T05:20:48+00:00</time>
        <ele>1948.0</ele>
      </trkpt>
      <trkpt lat="45.191886" lon="6.830981">
        <time>2023-04-19T05:20:53+00:00</time>
        <ele>1949.0</ele>
      </trkpt>
      <trkpt lat="45.191868" lon="6.830999">
        <time>2023-04-19T05:20:56+00:00</time>
        <ele>1949.0</ele>
      </trkpt>
      <trkpt lat="45.191844" lon="6.831001">
        <time>2023-04-19T05:20:59+00:00</time>
        <ele>1950.0</ele>
      </trkpt>
      <trkpt lat="45.191819" lon="6.830988">
        <time>2023-04-19T05:21:03+00:00</time>
        <ele>1950.0</ele>
      </trkpt>
      <trkpt lat="45.191801" lon="6.830973">
        <time>2023-04-19T05:21:06+00:00</time>
        <ele>1950.0</ele>
      </trkpt>
      <trkpt lat="45.191717" lon="6.830957">
        <time>2023-04-19T05:21:18+00:00</time>
        <ele>1951.0</ele>
      </trkpt>
      <trkpt lat="45.191654" lon="6.830944">
        <time>2023-04-19T05:21:26+00:00</time>
        <ele>1952.0</ele>
      </trkpt>
      <trkpt lat="45.191622" lon="6.830931">
        <time>2023-04-19T05:21:30+00:00</time>
        <ele>1952.0</ele>
      </trkpt>
      <trkpt lat="45.191596" lon="6.830947">
        <time>2023-04-19T05:21:35+00:00</time>
        <ele>1953.0</ele>
      </trkpt>
      <trkpt lat="45.191572" lon="6.830936">
        <time>2023-04-19T05:21:39+00:00</time>
        <ele>1953.0</ele>
      </trkpt>
      <trkpt lat="45.191411" lon="6.83096">
        <time>2023-04-19T05:21:57+00:00</time>
        <ele>1954.0</ele>
      </trkpt>
      <trkpt lat="45.191387" lon="6.830958">
        <time>2023-04-19T05:21:59+00:00</time>
        <ele>1954.0</ele>
      </trkpt>
      <trkpt lat="45.191353" lon="6.830939">
        <time>2023-04-19T05:22:03+00:00</time>
        <ele>1954.0</ele>
      </trkpt>
      <trkpt lat="45.191315" lon="6.830943">
        <time>2023-04-19T05:22:06+00:00</time>
        <ele>1954.0</ele>
      </trkpt>
      <trkpt lat="45.191197" lon="6.830877">
        <time>2023-04-19T05:22:18+00:00</time>
        <ele>1954.0</ele>
      </trkpt>
      <trkpt lat="45.19117" lon="6.830833">
        <time>2023-04-19T05:22:21+00:00</time>
        <ele>1954.0</ele>
      </trkpt>
      <trkpt lat="45.191108" lon="6.830808">
        <time>2023-04-19T05:22:27+00:00</time>
        <ele>1954.0</ele>
      </trkpt>
      <trkpt lat="45.191084" lon="6.830784">
        <time>2023-04-19T05:22:31+00:00</time>
        <ele>1954.0</ele>
      </trkpt>
      <trkpt lat="45.190863" lon="6.830772">
        <time>2023-04-19T05:22:50+00:00</time>
        <ele>1954.0</ele>
      </trkpt>
      <trkpt lat="45.190725" lon="6.830783">
        <time>2023-04-19T05:23:03+00:00</time>
        <ele>1954.0</ele>
      </trkpt>
      <trkpt lat="45.190695" lon="6.830782">
        <time>2023-04-19T05:23:05+00:00</time>
        <ele>1954.0</ele>
      </trkpt>
      <trkpt lat="45.190638" lon="6.830789">
        <time>2023-04-19T05:23:11+00:00</time>
        <ele>1954.0</ele>
      </trkpt>
      <trkpt lat="45.190281" lon="6.830933">
        <time>2023-04-19T05:23:43+00:00</time>
        <ele>1955.0</ele>
      </trkpt>
      <trkpt lat="45.190258" lon="6.830937">
        <time>2023-04-19T05:23:46+00:00</time>
        <ele>1956.0</ele>
      </trkpt>
      <trkpt lat="45.190232" lon="6.830946">
        <time>2023-04-19T05:23:49+00:00</time>
        <ele>1956.0</ele>
      </trkpt>
      <trkpt lat="45.190206" lon="6.830947">
        <time>2023-04-19T05:23:53+00:00</time>
        <ele>1956.0</ele>
      </trkpt>
      <trkpt lat="45.19013" lon="6.831014">
        <time>2023-04-19T05:24:03+00:00</time>
        <ele>1957.0</ele>
      </trkpt>
      <trkpt lat="45.190092" lon="6.831044">
        <time>2023-04-19T05:24:08+00:00</time>
        <ele>1957.0</ele>
      </trkpt>
      <trkpt lat="45.189955" lon="6.831164">
        <time>2023-04-19T05:24:27+00:00</time>
        <ele>1959.0</ele>
      </trkpt>
      <trkpt lat="45.189929" lon="6.831177">
        <time>2023-04-19T05:24:30+00:00</time>
        <ele>1960.0</ele>
      </trkpt>
      <trkpt lat="45.189889" lon="6.831246">
        <time>2023-04-19T05:24:46+00:00</time>
        <ele>1961.0</ele>
      </trkpt>
      <trkpt lat="45.189861" lon="6.831273">
        <time>2023-04-19T05:24:53+00:00</time>
        <ele>1962.0</ele>
      </trkpt>
      <trkpt lat="45.189799" lon="6.83136">
        <time>2023-04-19T05:25:09+00:00</time>
        <ele>1964.0</ele>
      </trkpt>
      <trkpt lat="45.189714" lon="6.831418">
        <time>2023-04-19T05:25:20+00:00</time>
        <ele>1965.0</ele>
      </trkpt>
      <trkpt lat="45.189689" lon="6.831436">
        <time>2023-04-19T05:25:24+00:00</time>
        <ele>1966.0</ele>
      </trkpt>
      <trkpt lat="45.189674" lon="6.831456">
        <time>2023-04-19T05:25:26+00:00</time>
        <ele>1967.0</ele>
      </trkpt>
      <trkpt lat="45.189645" lon="6.831463">
        <time>2023-04-19T05:25:29+00:00</time>
        <ele>1967.0</ele>
      </trkpt>
      <trkpt lat="45.189613" lon="6.831466">
        <time>2023-04-19T05:25:33+00:00</time>
        <ele>1967.0</ele>
      </trkpt>
      <trkpt lat="45.189542" lon="6.831527">
        <time>2023-04-19T05:25:43+00:00</time>
        <ele>1969.0</ele>
      </trkpt>
      <trkpt lat="45.189492" lon="6.831536">
        <time>2023-04-19T05:25:49+00:00</time>
        <ele>1970.0</ele>
      </trkpt>
      <trkpt lat="45.189243" lon="6.831522">
        <time>2023-04-19T05:26:19+00:00</time>
        <ele>1974.0</ele>
      </trkpt>
      <trkpt lat="45.188998" lon="6.831444">
        <time>2023-04-19T05:26:48+00:00</time>
        <ele>1978.0</ele>
      </trkpt>
      <trkpt lat="45.188977" lon="6.831427">
        <time>2023-04-19T05:26:51+00:00</time>
        <ele>1978.0</ele>
      </trkpt>
      <trkpt lat="45.188957" lon="6.831419">
        <time>2023-04-19T05:26:53+00:00</time>
        <ele>1978.0</ele>
      </trkpt>
      <trkpt lat="45.18894" lon="6.831413">
        <time>2023-04-19T05:26:55+00:00</time>
        <ele>1978.0</ele>
      </trkpt>
      <trkpt lat="45.188763" lon="6.831352">
        <time>2023-04-19T05:27:14+00:00</time>
        <ele>1980.0</ele>
      </trkpt>
      <trkpt lat="45.188734" lon="6.831335">
        <time>2023-04-19T05:27:18+00:00</time>
        <ele>1980.0</ele>
      </trkpt>
      <trkpt lat="45.188708" lon="6.831317">
        <time>2023-04-19T05:27:21+00:00</time>
        <ele>1980.0</ele>
      </trkpt>
      <trkpt lat="45.188608" lon="6.83126">
        <time>2023-04-19T05:27:33+00:00</time>
        <ele>1979.0</ele>
      </trkpt>
      <trkpt lat="45.188578" lon="6.831278">
        <time>2023-04-19T05:28:46+00:00</time>
        <ele>1979.0</ele>
      </trkpt>
      <trkpt lat="45.18845" lon="6.831242">
        <time>2023-04-19T05:28:58+00:00</time>
        <ele>1979.0</ele>
      </trkpt>
      <trkpt lat="45.188109" lon="6.83129">
        <time>2023-04-19T05:29:28+00:00</time>
        <ele>1980.0</ele>
      </trkpt>
      <trkpt lat="45.18808" lon="6.831298">
        <time>2023-04-19T05:29:31+00:00</time>
        <ele>1981.0</ele>
      </trkpt>
      <trkpt lat="45.187718" lon="6.831258">
        <time>2023-04-19T05:30:03+00:00</time>
        <ele>1980.0</ele>
      </trkpt>
      <trkpt lat="45.187662" lon="6.831262">
        <time>2023-04-19T05:30:08+00:00</time>
        <ele>1980.0</ele>
      </trkpt>
      <trkpt lat="45.187581" lon="6.831242">
        <time>2023-04-19T05:30:15+00:00</time>
        <ele>1979.0</ele>
      </trkpt>
      <trkpt lat="45.187447" lon="6.831253">
        <time>2023-04-19T05:30:28+00:00</time>
        <ele>1979.0</ele>
      </trkpt>
      <trkpt lat="45.187332" lon="6.831298">
        <time>2023-04-19T05:30:38+00:00</time>
        <ele>1980.0</ele>
      </trkpt>
      <trkpt lat="45.187222" lon="6.831299">
        <time>2023-04-19T05:30:48+00:00</time>
        <ele>1981.0</ele>
      </trkpt>
      <trkpt lat="45.187199" lon="6.831291">
        <time>2023-04-19T05:30:50+00:00</time>
        <ele>1981.0</ele>
      </trkpt>
      <trkpt lat="45.187077" lon="6.83129">
        <time>2023-04-19T05:31:03+00:00</time>
        <ele>1984.0</ele>
      </trkpt>
      <trkpt lat="45.187059" lon="6.831289">
        <time>2023-04-19T05:31:05+00:00</time>
        <ele>1984.0</ele>
      </trkpt>
      <trkpt lat="45.186975" lon="6.831218">
        <time>2023-04-19T05:31:21+00:00</time>
        <ele>1985.0</ele>
      </trkpt>
      <trkpt lat="45.186889" lon="6.831002">
        <time>2023-04-19T05:31:43+00:00</time>
        <ele>1985.0</ele>
      </trkpt>
      <trkpt lat="45.186878" lon="6.830968">
        <time>2023-04-19T05:31:46+00:00</time>
        <ele>1984.0</ele>
      </trkpt>
      <trkpt lat="45.186785" lon="6.830826">
        <time>2023-04-19T05:31:58+00:00</time>
        <ele>1984.0</ele>
      </trkpt>
      <trkpt lat="45.186487" lon="6.830644">
        <time>2023-04-19T05:32:30+00:00</time>
        <ele>1987.0</ele>
      </trkpt>
      <trkpt lat="45.186458" lon="6.830621">
        <time>2023-04-19T05:32:34+00:00</time>
        <ele>1988.0</ele>
      </trkpt>
      <trkpt lat="45.186412" lon="6.830565">
        <time>2023-04-19T05:32:40+00:00</time>
        <ele>1987.0</ele>
      </trkpt>
      <trkpt lat="45.186395" lon="6.830523">
        <time>2023-04-19T05:32:43+00:00</time>
        <ele>1986.0</ele>
      </trkpt>
      <trkpt lat="45.1863" lon="6.830429">
        <time>2023-04-19T05:32:53+00:00</time>
        <ele>1986.0</ele>
      </trkpt>
      <trkpt lat="45.186247" lon="6.830393">
        <time>2023-04-19T05:32:59+00:00</time>
        <ele>1985.0</ele>
      </trkpt>
      <trkpt lat="45.186192" lon="6.83036">
        <time>2023-04-19T05:33:05+00:00</time>
        <ele>1983.0</ele>
      </trkpt>
      <trkpt lat="45.186162" lon="6.830348">
        <time>2023-04-19T05:33:08+00:00</time>
        <ele>1982.0</ele>
      </trkpt>
      <trkpt lat="45.186103" lon="6.830363">
        <time>2023-04-19T05:33:14+00:00</time>
        <ele>1982.0</ele>
      </trkpt>
      <trkpt lat="45.186072" lon="6.830376">
        <time>2023-04-19T05:33:17+00:00</time>
        <ele>1982.0</ele>
      </trkpt>
      <trkpt lat="45.185973" lon="6.830494">
        <time>2023-04-19T05:33:29+00:00</time>
        <ele>1984.0</ele>
      </trkpt>
      <trkpt lat="45.18593" lon="6.830539">
        <time>2023-04-19T05:33:33+00:00</time>
        <ele>1985.0</ele>
      </trkpt>
      <trkpt lat="45.18589" lon="6.830561">
        <time>2023-04-19T05:33:36+00:00</time>
        <ele>1985.0</ele>
      </trkpt>
      <trkpt lat="45.185853" lon="6.830565">
        <time>2023-04-19T05:33:39+00:00</time>
        <ele>1986.0</ele>
      </trkpt>
      <trkpt lat="45.185764" lon="6.8305">
        <time>2023-04-19T05:33:49+00:00</time>
        <ele>1989.0</ele>
      </trkpt>
      <trkpt lat="45.185739" lon="6.830446">
        <time>2023-04-19T05:33:54+00:00</time>
        <ele>1989.0</ele>
      </trkpt>
      <trkpt lat="45.185734" lon="6.830421">
        <time>2023-04-19T05:33:56+00:00</time>
        <ele>1989.0</ele>
      </trkpt>
      <trkpt lat="45.185725" lon="6.830399">
        <time>2023-04-19T05:33:59+00:00</time>
        <ele>1989.0</ele>
      </trkpt>
      <trkpt lat="45.185699" lon="6.830369">
        <time>2023-04-19T05:34:03+00:00</time>
        <ele>1990.0</ele>
      </trkpt>
      <trkpt lat="45.185688" lon="6.830347">
        <time>2023-04-19T05:34:05+00:00</time>
        <ele>1990.0</ele>
      </trkpt>
      <trkpt lat="45.185639" lon="6.830193">
        <time>2023-04-19T05:34:18+00:00</time>
        <ele>1988.0</ele>
      </trkpt>
      <trkpt lat="45.185625" lon="6.830176">
        <time>2023-04-19T05:34:20+00:00</time>
        <ele>1989.0</ele>
      </trkpt>
      <trkpt lat="45.185577" lon="6.830066">
        <time>2023-04-19T05:34:30+00:00</time>
        <ele>1988.0</ele>
      </trkpt>
      <trkpt lat="45.185484" lon="6.829924">
        <time>2023-04-19T05:34:45+00:00</time>
        <ele>1988.0</ele>
      </trkpt>
      <trkpt lat="45.185469" lon="6.829897">
        <time>2023-04-19T05:34:48+00:00</time>
        <ele>1988.0</ele>
      </trkpt>
      <trkpt lat="45.185333" lon="6.829652">
        <time>2023-04-19T05:35:15+00:00</time>
        <ele>1987.0</ele>
      </trkpt>
      <trkpt lat="45.185209" lon="6.829538">
        <time>2023-04-19T05:35:31+00:00</time>
        <ele>1987.0</ele>
      </trkpt>
      <trkpt lat="45.185156" lon="6.82951">
        <time>2023-04-19T05:35:36+00:00</time>
        <ele>1988.0</ele>
      </trkpt>
      <trkpt lat="45.185072" lon="6.82942">
        <time>2023-04-19T05:35:48+00:00</time>
        <ele>1987.0</ele>
      </trkpt>
      <trkpt lat="45.184902" lon="6.82925">
        <time>2023-04-19T05:36:12+00:00</time>
        <ele>1986.0</ele>
      </trkpt>
      <trkpt lat="45.184883" lon="6.829248">
        <time>2023-04-19T05:36:14+00:00</time>
        <ele>1987.0</ele>
      </trkpt>
      <trkpt lat="45.184854" lon="6.829222">
        <time>2023-04-19T05:36:18+00:00</time>
        <ele>1987.0</ele>
      </trkpt>
      <trkpt lat="45.184833" lon="6.829212">
        <time>2023-04-19T05:36:20+00:00</time>
        <ele>1987.0</ele>
      </trkpt>
      <trkpt lat="45.184813" lon="6.829197">
        <time>2023-04-19T05:36:23+00:00</time>
        <ele>1987.0</ele>
      </trkpt>
      <trkpt lat="45.184767" lon="6.829163">
        <time>2023-04-19T05:36:29+00:00</time>
        <ele>1988.0</ele>
      </trkpt>
      <trkpt lat="45.184755" lon="6.829136">
        <time>2023-04-19T05:36:33+00:00</time>
        <ele>1987.0</ele>
      </trkpt>
      <trkpt lat="45.184706" lon="6.829105">
        <time>2023-04-19T05:36:41+00:00</time>
        <ele>1987.0</ele>
      </trkpt>
      <trkpt lat="45.184568" lon="6.829022">
        <time>2023-04-19T05:37:01+00:00</time>
        <ele>1987.0</ele>
      </trkpt>
      <trkpt lat="45.184548" lon="6.829014">
        <time>2023-04-19T05:37:04+00:00</time>
        <ele>1987.0</ele>
      </trkpt>
      <trkpt lat="45.184526" lon="6.829006">
        <time>2023-04-19T05:37:07+00:00</time>
        <ele>1987.0</ele>
      </trkpt>
      <trkpt lat="45.184509" lon="6.828994">
        <time>2023-04-19T05:37:10+00:00</time>
        <ele>1987.0</ele>
      </trkpt>
      <trkpt lat="45.184463" lon="6.828991">
        <time>2023-04-19T05:37:18+00:00</time>
        <ele>1988.0</ele>
      </trkpt>
      <trkpt lat="45.184446" lon="6.828978">
        <time>2023-04-19T05:37:21+00:00</time>
        <ele>1988.0</ele>
      </trkpt>
      <trkpt lat="45.184393" lon="6.828979">
        <time>2023-04-19T05:37:28+00:00</time>
        <ele>1989.0</ele>
      </trkpt>
      <trkpt lat="45.184368" lon="6.828985">
        <time>2023-04-19T05:37:33+00:00</time>
        <ele>1990.0</ele>
      </trkpt>
      <trkpt lat="45.184355" lon="6.828968">
        <time>2023-04-19T05:37:39+00:00</time>
        <ele>1989.0</ele>
      </trkpt>
      <trkpt lat="45.184336" lon="6.828954">
        <time>2023-04-19T05:37:43+00:00</time>
        <ele>1989.0</ele>
      </trkpt>
      <trkpt lat="45.184249" lon="6.828929">
        <time>2023-04-19T05:37:59+00:00</time>
        <ele>1990.0</ele>
      </trkpt>
      <trkpt lat="45.18422" lon="6.82893">
        <time>2023-04-19T05:38:03+00:00</time>
        <ele>1991.0</ele>
      </trkpt>
      <trkpt lat="45.184202" lon="6.828922">
        <time>2023-04-19T05:38:06+00:00</time>
        <ele>1991.0</ele>
      </trkpt>
      <trkpt lat="45.184175" lon="6.828917">
        <time>2023-04-19T05:38:11+00:00</time>
        <ele>1991.0</ele>
      </trkpt>
      <trkpt lat="45.18401" lon="6.828937">
        <time>2023-04-19T05:38:31+00:00</time>
        <ele>1996.0</ele>
      </trkpt>
      <trkpt lat="45.183991" lon="6.82893">
        <time>2023-04-19T05:38:35+00:00</time>
        <ele>1996.0</ele>
      </trkpt>
      <trkpt lat="45.183969" lon="6.82891">
        <time>2023-04-19T05:38:41+00:00</time>
        <ele>1996.0</ele>
      </trkpt>
      <trkpt lat="45.183943" lon="6.828905">
        <time>2023-04-19T05:38:44+00:00</time>
        <ele>1997.0</ele>
      </trkpt>
      <trkpt lat="45.183922" lon="6.82889">
        <time>2023-04-19T05:38:48+00:00</time>
        <ele>1997.0</ele>
      </trkpt>
      <trkpt lat="45.183846" lon="6.828852">
        <time>2023-04-19T05:39:01+00:00</time>
        <ele>1998.0</ele>
      </trkpt>
      <trkpt lat="45.183833" lon="6.828835">
        <time>2023-04-19T05:39:04+00:00</time>
        <ele>1998.0</ele>
      </trkpt>
      <trkpt lat="45.183809" lon="6.828816">
        <time>2023-04-19T05:39:08+00:00</time>
        <ele>1998.0</ele>
      </trkpt>
      <trkpt lat="45.183779" lon="6.828804">
        <time>2023-04-19T05:39:13+00:00</time>
        <ele>1998.0</ele>
      </trkpt>
      <trkpt lat="45.18376" lon="6.828785">
        <time>2023-04-19T05:39:16+00:00</time>
        <ele>1998.0</ele>
      </trkpt>
      <trkpt lat="45.183739" lon="6.828771">
        <time>2023-04-19T05:39:19+00:00</time>
        <ele>1999.0</ele>
      </trkpt>
      <trkpt lat="45.183692" lon="6.828741">
        <time>2023-04-19T05:39:26+00:00</time>
        <ele>2000.0</ele>
      </trkpt>
      <trkpt lat="45.183669" lon="6.828737">
        <time>2023-04-19T05:39:30+00:00</time>
        <ele>2001.0</ele>
      </trkpt>
      <trkpt lat="45.183646" lon="6.828716">
        <time>2023-04-19T05:39:34+00:00</time>
        <ele>2001.0</ele>
      </trkpt>
      <trkpt lat="45.183628" lon="6.828681">
        <time>2023-04-19T05:39:39+00:00</time>
        <ele>2000.0</ele>
      </trkpt>
      <trkpt lat="45.183604" lon="6.828668">
        <time>2023-04-19T05:39:44+00:00</time>
        <ele>2001.0</ele>
      </trkpt>
      <trkpt lat="45.183577" lon="6.828631">
        <time>2023-04-19T05:39:48+00:00</time>
        <ele>2001.0</ele>
      </trkpt>
      <trkpt lat="45.183558" lon="6.828608">
        <time>2023-04-19T05:39:52+00:00</time>
        <ele>2001.0</ele>
      </trkpt>
      <trkpt lat="45.183494" lon="6.828539">
        <time>2023-04-19T05:40:04+00:00</time>
        <ele>2002.0</ele>
      </trkpt>
      <trkpt lat="45.183481" lon="6.828515">
        <time>2023-04-19T05:40:09+00:00</time>
        <ele>2002.0</ele>
      </trkpt>
      <trkpt lat="45.183452" lon="6.828443">
        <time>2023-04-19T05:40:18+00:00</time>
        <ele>2001.0</ele>
      </trkpt>
      <trkpt lat="45.183436" lon="6.828433">
        <time>2023-04-19T05:40:20+00:00</time>
        <ele>2001.0</ele>
      </trkpt>
      <trkpt lat="45.183427" lon="6.828412">
        <time>2023-04-19T05:40:23+00:00</time>
        <ele>2001.0</ele>
      </trkpt>
      <trkpt lat="45.183414" lon="6.828402">
        <time>2023-04-19T05:40:25+00:00</time>
        <ele>2002.0</ele>
      </trkpt>
      <trkpt lat="45.183402" lon="6.828387">
        <time>2023-04-19T05:40:27+00:00</time>
        <ele>2002.0</ele>
      </trkpt>
      <trkpt lat="45.183393" lon="6.828372">
        <time>2023-04-19T05:40:29+00:00</time>
        <ele>2002.0</ele>
      </trkpt>
      <trkpt lat="45.183365" lon="6.82835">
        <time>2023-04-19T05:40:34+00:00</time>
        <ele>2003.0</ele>
      </trkpt>
      <trkpt lat="45.183357" lon="6.828329">
        <time>2023-04-19T05:40:37+00:00</time>
        <ele>2002.0</ele>
      </trkpt>
      <trkpt lat="45.18334" lon="6.82831">
        <time>2023-04-19T05:40:40+00:00</time>
        <ele>2003.0</ele>
      </trkpt>
      <trkpt lat="45.183323" lon="6.828288">
        <time>2023-04-19T05:40:44+00:00</time>
        <ele>2003.0</ele>
      </trkpt>
      <trkpt lat="45.183312" lon="6.828269">
        <time>2023-04-19T05:40:47+00:00</time>
        <ele>2003.0</ele>
      </trkpt>
      <trkpt lat="45.183272" lon="6.828216">
        <time>2023-04-19T05:40:54+00:00</time>
        <ele>2003.0</ele>
      </trkpt>
      <trkpt lat="45.18324" lon="6.828169">
        <time>2023-04-19T05:40:59+00:00</time>
        <ele>2003.0</ele>
      </trkpt>
      <trkpt lat="45.183208" lon="6.828126">
        <time>2023-04-19T05:41:04+00:00</time>
        <ele>2004.0</ele>
      </trkpt>
      <trkpt lat="45.183191" lon="6.828111">
        <time>2023-04-19T05:41:07+00:00</time>
        <ele>2004.0</ele>
      </trkpt>
      <trkpt lat="45.183176" lon="6.828087">
        <time>2023-04-19T05:41:10+00:00</time>
        <ele>2004.0</ele>
      </trkpt>
      <trkpt lat="45.183159" lon="6.828061">
        <time>2023-04-19T05:41:14+00:00</time>
        <ele>2005.0</ele>
      </trkpt>
      <trkpt lat="45.183146" lon="6.827997">
        <time>2023-04-19T05:41:19+00:00</time>
        <ele>2003.0</ele>
      </trkpt>
      <trkpt lat="45.183126" lon="6.827961">
        <time>2023-04-19T05:41:22+00:00</time>
        <ele>2003.0</ele>
      </trkpt>
      <trkpt lat="45.183064" lon="6.827893">
        <time>2023-04-19T05:41:32+00:00</time>
        <ele>2005.0</ele>
      </trkpt>
      <trkpt lat="45.183028" lon="6.827833">
        <time>2023-04-19T05:41:39+00:00</time>
        <ele>2005.0</ele>
      </trkpt>
      <trkpt lat="45.183011" lon="6.827804">
        <time>2023-04-19T05:41:42+00:00</time>
        <ele>2005.0</ele>
      </trkpt>
      <trkpt lat="45.182972" lon="6.827765">
        <time>2023-04-19T05:41:48+00:00</time>
        <ele>2006.0</ele>
      </trkpt>
      <trkpt lat="45.182944" lon="6.827745">
        <time>2023-04-19T05:41:51+00:00</time>
        <ele>2007.0</ele>
      </trkpt>
      <trkpt lat="45.182894" lon="6.827692">
        <time>2023-04-19T05:41:57+00:00</time>
        <ele>2007.0</ele>
      </trkpt>
      <trkpt lat="45.182876" lon="6.827656">
        <time>2023-04-19T05:42:01+00:00</time>
        <ele>2007.0</ele>
      </trkpt>
      <trkpt lat="45.182765" lon="6.827523">
        <time>2023-04-19T05:42:14+00:00</time>
        <ele>2007.0</ele>
      </trkpt>
      <trkpt lat="45.182716" lon="6.827459">
        <time>2023-04-19T05:42:19+00:00</time>
        <ele>2007.0</ele>
      </trkpt>
      <trkpt lat="45.182559" lon="6.827283">
        <time>2023-04-19T05:42:39+00:00</time>
        <ele>2008.0</ele>
      </trkpt>
      <trkpt lat="45.182548" lon="6.827257">
        <time>2023-04-19T05:42:41+00:00</time>
        <ele>2007.0</ele>
      </trkpt>
      <trkpt lat="45.182528" lon="6.827238">
        <time>2023-04-19T05:42:44+00:00</time>
        <ele>2007.0</ele>
      </trkpt>
      <trkpt lat="45.182516" lon="6.827215">
        <time>2023-04-19T05:42:46+00:00</time>
        <ele>2007.0</ele>
      </trkpt>
      <trkpt lat="45.182504" lon="6.82719">
        <time>2023-04-19T05:42:49+00:00</time>
        <ele>2007.0</ele>
      </trkpt>
      <trkpt lat="45.182493" lon="6.82717">
        <time>2023-04-19T05:42:51+00:00</time>
        <ele>2006.0</ele>
      </trkpt>
      <trkpt lat="45.182474" lon="6.827148">
        <time>2023-04-19T05:42:54+00:00</time>
        <ele>2006.0</ele>
      </trkpt>
      <trkpt lat="45.182407" lon="6.827041">
        <time>2023-04-19T05:43:04+00:00</time>
        <ele>2005.0</ele>
      </trkpt>
      <trkpt lat="45.182325" lon="6.826878">
        <time>2023-04-19T05:43:19+00:00</time>
        <ele>2002.0</ele>
      </trkpt>
      <trkpt lat="45.182215" lon="6.826713">
        <time>2023-04-19T05:43:34+00:00</time>
        <ele>2001.0</ele>
      </trkpt>
      <trkpt lat="45.182207" lon="6.826689">
        <time>2023-04-19T05:43:36+00:00</time>
        <ele>2001.0</ele>
      </trkpt>
      <trkpt lat="45.182179" lon="6.826668">
        <time>2023-04-19T05:43:39+00:00</time>
        <ele>2002.0</ele>
      </trkpt>
      <trkpt lat="45.182005" lon="6.826411">
        <time>2023-04-19T05:44:04+00:00</time>
        <ele>2003.0</ele>
      </trkpt>
      <trkpt lat="45.181971" lon="6.826356">
        <time>2023-04-19T05:44:09+00:00</time>
        <ele>2003.0</ele>
      </trkpt>
      <trkpt lat="45.181777" lon="6.826024">
        <time>2023-04-19T05:44:39+00:00</time>
        <ele>2004.0</ele>
      </trkpt>
      <trkpt lat="45.181759" lon="6.826002">
        <time>2023-04-19T05:44:41+00:00</time>
        <ele>2004.0</ele>
      </trkpt>
      <trkpt lat="45.181727" lon="6.825938">
        <time>2023-04-19T05:44:47+00:00</time>
        <ele>2004.0</ele>
      </trkpt>
      <trkpt lat="45.181703" lon="6.825928">
        <time>2023-04-19T05:44:50+00:00</time>
        <ele>2004.0</ele>
      </trkpt>
      <trkpt lat="45.181675" lon="6.825892">
        <time>2023-04-19T05:44:54+00:00</time>
        <ele>2005.0</ele>
      </trkpt>
      <trkpt lat="45.18163" lon="6.825854">
        <time>2023-04-19T05:44:59+00:00</time>
        <ele>2005.0</ele>
      </trkpt>
      <trkpt lat="45.181594" lon="6.825806">
        <time>2023-04-19T05:45:04+00:00</time>
        <ele>2005.0</ele>
      </trkpt>
      <trkpt lat="45.181572" lon="6.825797">
        <time>2023-04-19T05:45:06+00:00</time>
        <ele>2005.0</ele>
      </trkpt>
      <trkpt lat="45.181322" lon="6.825578">
        <time>2023-04-19T05:45:34+00:00</time>
        <ele>2008.0</ele>
      </trkpt>
      <trkpt lat="45.181262" lon="6.825519">
        <time>2023-04-19T05:45:41+00:00</time>
        <ele>2009.0</ele>
      </trkpt>
      <trkpt lat="45.181199" lon="6.825449">
        <time>2023-04-19T05:45:49+00:00</time>
        <ele>2009.0</ele>
      </trkpt>
      <trkpt lat="45.18118" lon="6.82542">
        <time>2023-04-19T05:45:52+00:00</time>
        <ele>2008.0</ele>
      </trkpt>
      <trkpt lat="45.181151" lon="6.825402">
        <time>2023-04-19T05:45:55+00:00</time>
        <ele>2008.0</ele>
      </trkpt>
      <trkpt lat="45.181092" lon="6.825377">
        <time>2023-04-19T05:46:02+00:00</time>
        <ele>2010.0</ele>
      </trkpt>
      <trkpt lat="45.181068" lon="6.825367">
        <time>2023-04-19T05:46:05+00:00</time>
        <ele>2011.0</ele>
      </trkpt>
      <trkpt lat="45.181054" lon="6.82535">
        <time>2023-04-19T05:46:07+00:00</time>
        <ele>2011.0</ele>
      </trkpt>
      <trkpt lat="45.181042" lon="6.825335">
        <time>2023-04-19T05:46:09+00:00</time>
        <ele>2011.0</ele>
      </trkpt>
      <trkpt lat="45.181026" lon="6.825324">
        <time>2023-04-19T05:46:11+00:00</time>
        <ele>2011.0</ele>
      </trkpt>
      <trkpt lat="45.180972" lon="6.825267">
        <time>2023-04-19T05:46:20+00:00</time>
        <ele>2012.0</ele>
      </trkpt>
      <trkpt lat="45.180951" lon="6.825238">
        <time>2023-04-19T05:46:24+00:00</time>
        <ele>2012.0</ele>
      </trkpt>
      <trkpt lat="45.180904" lon="6.825205">
        <time>2023-04-19T05:46:32+00:00</time>
        <ele>2012.0</ele>
      </trkpt>
      <trkpt lat="45.180889" lon="6.825189">
        <time>2023-04-19T05:46:35+00:00</time>
        <ele>2012.0</ele>
      </trkpt>
      <trkpt lat="45.180864" lon="6.825163">
        <time>2023-04-19T05:46:39+00:00</time>
        <ele>2011.0</ele>
      </trkpt>
      <trkpt lat="45.18085" lon="6.825147">
        <time>2023-04-19T05:46:41+00:00</time>
        <ele>2011.0</ele>
      </trkpt>
      <trkpt lat="45.18078" lon="6.825109">
        <time>2023-04-19T05:46:49+00:00</time>
        <ele>2012.0</ele>
      </trkpt>
      <trkpt lat="45.180759" lon="6.825103">
        <time>2023-04-19T05:46:52+00:00</time>
        <ele>2012.0</ele>
      </trkpt>
      <trkpt lat="45.180741" lon="6.825101">
        <time>2023-04-19T05:46:54+00:00</time>
        <ele>2012.0</ele>
      </trkpt>
      <trkpt lat="45.180712" lon="6.825088">
        <time>2023-04-19T05:46:59+00:00</time>
        <ele>2012.0</ele>
      </trkpt>
      <trkpt lat="45.180676" lon="6.825074">
        <time>2023-04-19T05:47:04+00:00</time>
        <ele>2012.0</ele>
      </trkpt>
      <trkpt lat="45.180663" lon="6.825058">
        <time>2023-04-19T05:47:07+00:00</time>
        <ele>2011.0</ele>
      </trkpt>
      <trkpt lat="45.180385" lon="6.824959">
        <time>2023-04-19T05:47:38+00:00</time>
        <ele>2011.0</ele>
      </trkpt>
      <trkpt lat="45.180323" lon="6.824919">
        <time>2023-04-19T05:47:46+00:00</time>
        <ele>2011.0</ele>
      </trkpt>
      <trkpt lat="45.180294" lon="6.824913">
        <time>2023-04-19T05:47:49+00:00</time>
        <ele>2011.0</ele>
      </trkpt>
      <trkpt lat="45.180247" lon="6.824917">
        <time>2023-04-19T05:47:54+00:00</time>
        <ele>2011.0</ele>
      </trkpt>
      <trkpt lat="45.18018" lon="6.824919">
        <time>2023-04-19T05:48:01+00:00</time>
        <ele>2011.0</ele>
      </trkpt>
      <trkpt lat="45.180156" lon="6.824906">
        <time>2023-04-19T05:48:04+00:00</time>
        <ele>2011.0</ele>
      </trkpt>
      <trkpt lat="45.180105" lon="6.824908">
        <time>2023-04-19T05:48:09+00:00</time>
        <ele>2012.0</ele>
      </trkpt>
      <trkpt lat="45.180086" lon="6.824918">
        <time>2023-04-19T05:48:11+00:00</time>
        <ele>2012.0</ele>
      </trkpt>
      <trkpt lat="45.180061" lon="6.824915">
        <time>2023-04-19T05:48:14+00:00</time>
        <ele>2012.0</ele>
      </trkpt>
      <trkpt lat="45.180032" lon="6.824925">
        <time>2023-04-19T05:48:17+00:00</time>
        <ele>2012.0</ele>
      </trkpt>
      <trkpt lat="45.17997" lon="6.824912">
        <time>2023-04-19T05:48:24+00:00</time>
        <ele>2012.0</ele>
      </trkpt>
      <trkpt lat="45.179949" lon="6.824907">
        <time>2023-04-19T05:48:26+00:00</time>
        <ele>2012.0</ele>
      </trkpt>
      <trkpt lat="45.179903" lon="6.82486">
        <time>2023-04-19T05:48:31+00:00</time>
        <ele>2012.0</ele>
      </trkpt>
      <trkpt lat="45.179878" lon="6.824865">
        <time>2023-04-19T05:48:34+00:00</time>
        <ele>2012.0</ele>
      </trkpt>
      <trkpt lat="45.179859" lon="6.824891">
        <time>2023-04-19T05:48:37+00:00</time>
        <ele>2013.0</ele>
      </trkpt>
      <trkpt lat="45.179839" lon="6.82491">
        <time>2023-04-19T05:48:44+00:00</time>
        <ele>2014.0</ele>
      </trkpt>
      <trkpt lat="45.17985" lon="6.824928">
        <time>2023-04-19T05:48:55+00:00</time>
        <ele>2014.0</ele>
      </trkpt>
      <trkpt lat="45.179846" lon="6.824904">
        <time>2023-04-19T05:52:09+00:00</time>
        <ele>2013.0</ele>
      </trkpt>
      <trkpt lat="45.179836" lon="6.824876">
        <time>2023-04-19T05:52:11+00:00</time>
        <ele>2013.0</ele>
      </trkpt>
      <trkpt lat="45.179816" lon="6.82483">
        <time>2023-04-19T05:52:14+00:00</time>
        <ele>2012.0</ele>
      </trkpt>
      <trkpt lat="45.179795" lon="6.824812">
        <time>2023-04-19T05:52:16+00:00</time>
        <ele>2012.0</ele>
      </trkpt>
      <trkpt lat="45.179772" lon="6.824805">
        <time>2023-04-19T05:52:18+00:00</time>
        <ele>2012.0</ele>
      </trkpt>
      <trkpt lat="45.179753" lon="6.824788">
        <time>2023-04-19T05:52:20+00:00</time>
        <ele>2012.0</ele>
      </trkpt>
      <trkpt lat="45.179725" lon="6.82477">
        <time>2023-04-19T05:52:23+00:00</time>
        <ele>2011.0</ele>
      </trkpt>
      <trkpt lat="45.179705" lon="6.824737">
        <time>2023-04-19T05:52:26+00:00</time>
        <ele>2011.0</ele>
      </trkpt>
      <trkpt lat="45.179687" lon="6.824729">
        <time>2023-04-19T05:52:27+00:00</time>
        <ele>2011.0</ele>
      </trkpt>
      <trkpt lat="45.179667" lon="6.824716">
        <time>2023-04-19T05:52:29+00:00</time>
        <ele>2010.0</ele>
      </trkpt>
      <trkpt lat="45.179647" lon="6.824703">
        <time>2023-04-19T05:52:31+00:00</time>
        <ele>2010.0</ele>
      </trkpt>
      <trkpt lat="45.179621" lon="6.824673">
        <time>2023-04-19T05:52:34+00:00</time>
        <ele>2010.0</ele>
      </trkpt>
      <trkpt lat="45.179591" lon="6.824658">
        <time>2023-04-19T05:52:37+00:00</time>
        <ele>2010.0</ele>
      </trkpt>
      <trkpt lat="45.179459" lon="6.824605">
        <time>2023-04-19T05:52:49+00:00</time>
        <ele>2010.0</ele>
      </trkpt>
      <trkpt lat="45.17936" lon="6.824514">
        <time>2023-04-19T05:53:00+00:00</time>
        <ele>2008.0</ele>
      </trkpt>
      <trkpt lat="45.179338" lon="6.82451">
        <time>2023-04-19T05:53:02+00:00</time>
        <ele>2008.0</ele>
      </trkpt>
      <trkpt lat="45.179292" lon="6.824476">
        <time>2023-04-19T05:53:08+00:00</time>
        <ele>2008.0</ele>
      </trkpt>
      <trkpt lat="45.17918" lon="6.824418">
        <time>2023-04-19T05:53:21+00:00</time>
        <ele>2008.0</ele>
      </trkpt>
      <trkpt lat="45.179094" lon="6.824405">
        <time>2023-04-19T05:53:30+00:00</time>
        <ele>2008.0</ele>
      </trkpt>
      <trkpt lat="45.179066" lon="6.8244">
        <time>2023-04-19T05:53:34+00:00</time>
        <ele>2008.0</ele>
      </trkpt>
      <trkpt lat="45.179014" lon="6.824383">
        <time>2023-04-19T05:53:40+00:00</time>
        <ele>2009.0</ele>
      </trkpt>
      <trkpt lat="45.178994" lon="6.824339">
        <time>2023-04-19T05:53:44+00:00</time>
        <ele>2008.0</ele>
      </trkpt>
      <trkpt lat="45.178853" lon="6.824305">
        <time>2023-04-19T05:54:00+00:00</time>
        <ele>2009.0</ele>
      </trkpt>
      <trkpt lat="45.178768" lon="6.824294">
        <time>2023-04-19T05:54:10+00:00</time>
        <ele>2010.0</ele>
      </trkpt>
      <trkpt lat="45.178739" lon="6.824287">
        <time>2023-04-19T05:54:14+00:00</time>
        <ele>2011.0</ele>
      </trkpt>
      <trkpt lat="45.178701" lon="6.824278">
        <time>2023-04-19T05:54:19+00:00</time>
        <ele>2011.0</ele>
      </trkpt>
      <trkpt lat="45.178655" lon="6.824265">
        <time>2023-04-19T05:54:25+00:00</time>
        <ele>2012.0</ele>
      </trkpt>
      <trkpt lat="45.17864" lon="6.824298">
        <time>2023-04-19T05:54:32+00:00</time>
        <ele>2013.0</ele>
      </trkpt>
      <trkpt lat="45.178582" lon="6.824298">
        <time>2023-04-19T05:54:37+00:00</time>
        <ele>2013.0</ele>
      </trkpt>
      <trkpt lat="45.178546" lon="6.824307">
        <time>2023-04-19T05:54:42+00:00</time>
        <ele>2014.0</ele>
      </trkpt>
      <trkpt lat="45.178513" lon="6.824291">
        <time>2023-04-19T05:54:46+00:00</time>
        <ele>2014.0</ele>
      </trkpt>
      <trkpt lat="45.178485" lon="6.824296">
        <time>2023-04-19T05:54:49+00:00</time>
        <ele>2014.0</ele>
      </trkpt>
      <trkpt lat="45.178453" lon="6.824279">
        <time>2023-04-19T05:54:54+00:00</time>
        <ele>2014.0</ele>
      </trkpt>
      <trkpt lat="45.17843" lon="6.824285">
        <time>2023-04-19T05:54:57+00:00</time>
        <ele>2015.0</ele>
      </trkpt>
      <trkpt lat="45.178383" lon="6.824294">
        <time>2023-04-19T05:55:03+00:00</time>
        <ele>2015.0</ele>
      </trkpt>
      <trkpt lat="45.178363" lon="6.824308">
        <time>2023-04-19T05:55:06+00:00</time>
        <ele>2016.0</ele>
      </trkpt>
      <trkpt lat="45.178336" lon="6.824309">
        <time>2023-04-19T05:55:11+00:00</time>
        <ele>2016.0</ele>
      </trkpt>
      <trkpt lat="45.178186" lon="6.82433">
        <time>2023-04-19T05:55:32+00:00</time>
        <ele>2018.0</ele>
      </trkpt>
      <trkpt lat="45.178112" lon="6.824408">
        <time>2023-04-19T05:55:49+00:00</time>
        <ele>2020.0</ele>
      </trkpt>
      <trkpt lat="45.178092" lon="6.824443">
        <time>2023-04-19T05:55:54+00:00</time>
        <ele>2020.0</ele>
      </trkpt>
      <trkpt lat="45.178061" lon="6.824446">
        <time>2023-04-19T05:55:57+00:00</time>
        <ele>2021.0</ele>
      </trkpt>
      <trkpt lat="45.178036" lon="6.824458">
        <time>2023-04-19T05:56:00+00:00</time>
        <ele>2021.0</ele>
      </trkpt>
      <trkpt lat="45.178008" lon="6.824444">
        <time>2023-04-19T05:56:37+00:00</time>
        <ele>2021.0</ele>
      </trkpt>
      <trkpt lat="45.178014" lon="6.824471">
        <time>2023-04-19T05:57:39+00:00</time>
        <ele>2022.0</ele>
      </trkpt>
      <trkpt lat="45.17799" lon="6.824489">
        <time>2023-04-19T05:57:45+00:00</time>
        <ele>2023.0</ele>
      </trkpt>
      <trkpt lat="45.177969" lon="6.824502">
        <time>2023-04-19T05:58:05+00:00</time>
        <ele>2023.0</ele>
      </trkpt>
      <trkpt lat="45.177886" lon="6.8245">
        <time>2023-04-19T05:58:39+00:00</time>
        <ele>2024.0</ele>
      </trkpt>
      <trkpt lat="45.177849" lon="6.824495">
        <time>2023-04-19T05:58:44+00:00</time>
        <ele>2025.0</ele>
      </trkpt>
      <trkpt lat="45.177798" lon="6.824514">
        <time>2023-04-19T05:58:50+00:00</time>
        <ele>2026.0</ele>
      </trkpt>
      <trkpt lat="45.177673" lon="6.824535">
        <time>2023-04-19T05:59:05+00:00</time>
        <ele>2029.0</ele>
      </trkpt>
      <trkpt lat="45.177639" lon="6.82453">
        <time>2023-04-19T05:59:09+00:00</time>
        <ele>2029.0</ele>
      </trkpt>
      <trkpt lat="45.177619" lon="6.824544">
        <time>2023-04-19T05:59:11+00:00</time>
        <ele>2029.0</ele>
      </trkpt>
      <trkpt lat="45.177593" lon="6.824563">
        <time>2023-04-19T05:59:15+00:00</time>
        <ele>2030.0</ele>
      </trkpt>
      <trkpt lat="45.177563" lon="6.824552">
        <time>2023-04-19T05:59:19+00:00</time>
        <ele>2030.0</ele>
      </trkpt>
      <trkpt lat="45.177535" lon="6.824551">
        <time>2023-04-19T05:59:24+00:00</time>
        <ele>2030.0</ele>
      </trkpt>
      <trkpt lat="45.177456" lon="6.824579">
        <time>2023-04-19T05:59:32+00:00</time>
        <ele>2030.0</ele>
      </trkpt>
      <trkpt lat="45.177435" lon="6.824592">
        <time>2023-04-19T05:59:36+00:00</time>
        <ele>2030.0</ele>
      </trkpt>
      <trkpt lat="45.1774" lon="6.824635">
        <time>2023-04-19T05:59:41+00:00</time>
        <ele>2031.0</ele>
      </trkpt>
      <trkpt lat="45.177353" lon="6.824678">
        <time>2023-04-19T05:59:49+00:00</time>
        <ele>2031.0</ele>
      </trkpt>
      <trkpt lat="45.177305" lon="6.824705">
        <time>2023-04-19T05:59:55+00:00</time>
        <ele>2031.0</ele>
      </trkpt>
      <trkpt lat="45.177267" lon="6.824705">
        <time>2023-04-19T05:59:59+00:00</time>
        <ele>2031.0</ele>
      </trkpt>
      <trkpt lat="45.177246" lon="6.824715">
        <time>2023-04-19T06:00:02+00:00</time>
        <ele>2031.0</ele>
      </trkpt>
      <trkpt lat="45.177204" lon="6.824707">
        <time>2023-04-19T06:00:09+00:00</time>
        <ele>2030.0</ele>
      </trkpt>
      <trkpt lat="45.177082" lon="6.824778">
        <time>2023-04-19T06:00:26+00:00</time>
        <ele>2032.0</ele>
      </trkpt>
      <trkpt lat="45.177055" lon="6.8248">
        <time>2023-04-19T06:00:29+00:00</time>
        <ele>2032.0</ele>
      </trkpt>
      <trkpt lat="45.177037" lon="6.824805">
        <time>2023-04-19T06:00:36+00:00</time>
        <ele>2033.0</ele>
      </trkpt>
      <trkpt lat="45.177013" lon="6.824799">
        <time>2023-04-19T06:01:11+00:00</time>
        <ele>2033.0</ele>
      </trkpt>
      <trkpt lat="45.176905" lon="6.824843">
        <time>2023-04-19T06:01:44+00:00</time>
        <ele>2034.0</ele>
      </trkpt>
      <trkpt lat="45.176743" lon="6.824844">
        <time>2023-04-19T06:02:00+00:00</time>
        <ele>2034.0</ele>
      </trkpt>
      <trkpt lat="45.176475" lon="6.824949">
        <time>2023-04-19T06:02:30+00:00</time>
        <ele>2037.0</ele>
      </trkpt>
      <trkpt lat="45.176421" lon="6.824977">
        <time>2023-04-19T06:02:37+00:00</time>
        <ele>2038.0</ele>
      </trkpt>
      <trkpt lat="45.1764" lon="6.824981">
        <time>2023-04-19T06:02:40+00:00</time>
        <ele>2038.0</ele>
      </trkpt>
      <trkpt lat="45.176302" lon="6.824953">
        <time>2023-04-19T06:02:53+00:00</time>
        <ele>2038.0</ele>
      </trkpt>
      <trkpt lat="45.176224" lon="6.824979">
        <time>2023-04-19T06:03:04+00:00</time>
        <ele>2038.0</ele>
      </trkpt>
      <trkpt lat="45.176188" lon="6.825013">
        <time>2023-04-19T06:03:09+00:00</time>
        <ele>2039.0</ele>
      </trkpt>
      <trkpt lat="45.176158" lon="6.825025">
        <time>2023-04-19T06:03:12+00:00</time>
        <ele>2040.0</ele>
      </trkpt>
      <trkpt lat="45.176105" lon="6.825047">
        <time>2023-04-19T06:03:16+00:00</time>
        <ele>2041.0</ele>
      </trkpt>
      <trkpt lat="45.175829" lon="6.825097">
        <time>2023-04-19T06:03:47+00:00</time>
        <ele>2045.0</ele>
      </trkpt>
      <trkpt lat="45.17577" lon="6.825097">
        <time>2023-04-19T06:03:53+00:00</time>
        <ele>2045.0</ele>
      </trkpt>
      <trkpt lat="45.175712" lon="6.825118">
        <time>2023-04-19T06:03:59+00:00</time>
        <ele>2046.0</ele>
      </trkpt>
      <trkpt lat="45.175684" lon="6.825122">
        <time>2023-04-19T06:04:02+00:00</time>
        <ele>2046.0</ele>
      </trkpt>
      <trkpt lat="45.175661" lon="6.825107">
        <time>2023-04-19T06:04:05+00:00</time>
        <ele>2046.0</ele>
      </trkpt>
      <trkpt lat="45.175547" lon="6.825097">
        <time>2023-04-19T06:04:20+00:00</time>
        <ele>2047.0</ele>
      </trkpt>
      <trkpt lat="45.175515" lon="6.825092">
        <time>2023-04-19T06:04:24+00:00</time>
        <ele>2047.0</ele>
      </trkpt>
      <trkpt lat="45.175491" lon="6.825072">
        <time>2023-04-19T06:04:27+00:00</time>
        <ele>2046.0</ele>
      </trkpt>
      <trkpt lat="45.175381" lon="6.825046">
        <time>2023-04-19T06:04:41+00:00</time>
        <ele>2047.0</ele>
      </trkpt>
      <trkpt lat="45.175342" lon="6.825017">
        <time>2023-04-19T06:04:46+00:00</time>
        <ele>2048.0</ele>
      </trkpt>
      <trkpt lat="45.175317" lon="6.82501">
        <time>2023-04-19T06:04:49+00:00</time>
        <ele>2048.0</ele>
      </trkpt>
      <trkpt lat="45.175296" lon="6.825">
        <time>2023-04-19T06:04:52+00:00</time>
        <ele>2048.0</ele>
      </trkpt>
      <trkpt lat="45.1751" lon="6.824979">
        <time>2023-04-19T06:05:14+00:00</time>
        <ele>2051.0</ele>
      </trkpt>
      <trkpt lat="45.175081" lon="6.824988">
        <time>2023-04-19T06:05:16+00:00</time>
        <ele>2051.0</ele>
      </trkpt>
      <trkpt lat="45.175063" lon="6.824989">
        <time>2023-04-19T06:05:19+00:00</time>
        <ele>2052.0</ele>
      </trkpt>
      <trkpt lat="45.175003" lon="6.824986">
        <time>2023-04-19T06:05:27+00:00</time>
        <ele>2051.0</ele>
      </trkpt>
      <trkpt lat="45.174871" lon="6.825007">
        <time>2023-04-19T06:05:42+00:00</time>
        <ele>2050.0</ele>
      </trkpt>
      <trkpt lat="45.174841" lon="6.825026">
        <time>2023-04-19T06:05:45+00:00</time>
        <ele>2051.0</ele>
      </trkpt>
      <trkpt lat="45.1748" lon="6.825082">
        <time>2023-04-19T06:05:53+00:00</time>
        <ele>2052.0</ele>
      </trkpt>
      <trkpt lat="45.174782" lon="6.825116">
        <time>2023-04-19T06:05:56+00:00</time>
        <ele>2053.0</ele>
      </trkpt>
      <trkpt lat="45.174766" lon="6.825157">
        <time>2023-04-19T06:06:01+00:00</time>
        <ele>2054.0</ele>
      </trkpt>
      <trkpt lat="45.174699" lon="6.825162">
        <time>2023-04-19T06:06:07+00:00</time>
        <ele>2054.0</ele>
      </trkpt>
      <trkpt lat="45.174643" lon="6.825155">
        <time>2023-04-19T06:06:12+00:00</time>
        <ele>2054.0</ele>
      </trkpt>
      <trkpt lat="45.174618" lon="6.825141">
        <time>2023-04-19T06:06:15+00:00</time>
        <ele>2053.0</ele>
      </trkpt>
      <trkpt lat="45.174556" lon="6.82513">
        <time>2023-04-19T06:06:22+00:00</time>
        <ele>2054.0</ele>
      </trkpt>
      <trkpt lat="45.174537" lon="6.825115">
        <time>2023-04-19T06:06:24+00:00</time>
        <ele>2054.0</ele>
      </trkpt>
      <trkpt lat="45.174516" lon="6.825097">
        <time>2023-04-19T06:06:29+00:00</time>
        <ele>2053.0</ele>
      </trkpt>
      <trkpt lat="45.174245" lon="6.82503">
        <time>2023-04-19T06:06:59+00:00</time>
        <ele>2055.0</ele>
      </trkpt>
      <trkpt lat="45.174018" lon="6.825066">
        <time>2023-04-19T06:07:24+00:00</time>
        <ele>2058.0</ele>
      </trkpt>
      <trkpt lat="45.173852" lon="6.825034">
        <time>2023-04-19T06:07:44+00:00</time>
        <ele>2059.0</ele>
      </trkpt>
      <trkpt lat="45.173765" lon="6.824974">
        <time>2023-04-19T06:07:57+00:00</time>
        <ele>2058.0</ele>
      </trkpt>
      <trkpt lat="45.173637" lon="6.824927">
        <time>2023-04-19T06:08:14+00:00</time>
        <ele>2060.0</ele>
      </trkpt>
      <trkpt lat="45.173413" lon="6.824788">
        <time>2023-04-19T06:08:44+00:00</time>
        <ele>2061.0</ele>
      </trkpt>
      <trkpt lat="45.173387" lon="6.824774">
        <time>2023-04-19T06:08:49+00:00</time>
        <ele>2061.0</ele>
      </trkpt>
      <trkpt lat="45.173343" lon="6.824755">
        <time>2023-04-19T06:08:55+00:00</time>
        <ele>2061.0</ele>
      </trkpt>
      <trkpt lat="45.173319" lon="6.824741">
        <time>2023-04-19T06:08:59+00:00</time>
        <ele>2061.0</ele>
      </trkpt>
      <trkpt lat="45.173066" lon="6.824735">
        <time>2023-04-19T06:09:31+00:00</time>
        <ele>2065.0</ele>
      </trkpt>
      <trkpt lat="45.173035" lon="6.824739">
        <time>2023-04-19T06:09:36+00:00</time>
        <ele>2065.0</ele>
      </trkpt>
      <trkpt lat="45.172867" lon="6.824786">
        <time>2023-04-19T06:10:00+00:00</time>
        <ele>2071.0</ele>
      </trkpt>
      <trkpt lat="45.172785" lon="6.824733">
        <time>2023-04-19T06:10:12+00:00</time>
        <ele>2071.0</ele>
      </trkpt>
      <trkpt lat="45.172761" lon="6.82473">
        <time>2023-04-19T06:10:15+00:00</time>
        <ele>2072.0</ele>
      </trkpt>
      <trkpt lat="45.172523" lon="6.824643">
        <time>2023-04-19T06:10:49+00:00</time>
        <ele>2075.0</ele>
      </trkpt>
      <trkpt lat="45.172327" lon="6.824592">
        <time>2023-04-19T06:11:19+00:00</time>
        <ele>2080.0</ele>
      </trkpt>
      <trkpt lat="45.172232" lon="6.824542">
        <time>2023-04-19T06:11:35+00:00</time>
        <ele>2081.0</ele>
      </trkpt>
      <trkpt lat="45.172173" lon="6.824493">
        <time>2023-04-19T06:11:45+00:00</time>
        <ele>2080.0</ele>
      </trkpt>
      <trkpt lat="45.172155" lon="6.824471">
        <time>2023-04-19T06:11:49+00:00</time>
        <ele>2080.0</ele>
      </trkpt>
      <trkpt lat="45.172082" lon="6.824401">
        <time>2023-04-19T06:12:02+00:00</time>
        <ele>2080.0</ele>
      </trkpt>
      <trkpt lat="45.172057" lon="6.824399">
        <time>2023-04-19T06:12:05+00:00</time>
        <ele>2081.0</ele>
      </trkpt>
      <trkpt lat="45.171993" lon="6.824373">
        <time>2023-04-19T06:12:14+00:00</time>
        <ele>2081.0</ele>
      </trkpt>
      <trkpt lat="45.171931" lon="6.824366">
        <time>2023-04-19T06:12:21+00:00</time>
        <ele>2082.0</ele>
      </trkpt>
      <trkpt lat="45.171908" lon="6.824352">
        <time>2023-04-19T06:12:24+00:00</time>
        <ele>2082.0</ele>
      </trkpt>
      <trkpt lat="45.171884" lon="6.824342">
        <time>2023-04-19T06:12:27+00:00</time>
        <ele>2082.0</ele>
      </trkpt>
      <trkpt lat="45.171867" lon="6.82433">
        <time>2023-04-19T06:12:30+00:00</time>
        <ele>2082.0</ele>
      </trkpt>
      <trkpt lat="45.171843" lon="6.824306">
        <time>2023-04-19T06:12:34+00:00</time>
        <ele>2082.0</ele>
      </trkpt>
      <trkpt lat="45.171825" lon="6.824302">
        <time>2023-04-19T06:12:36+00:00</time>
        <ele>2082.0</ele>
      </trkpt>
      <trkpt lat="45.171781" lon="6.824271">
        <time>2023-04-19T06:12:42+00:00</time>
        <ele>2083.0</ele>
      </trkpt>
      <trkpt lat="45.171731" lon="6.824248">
        <time>2023-04-19T06:12:49+00:00</time>
        <ele>2084.0</ele>
      </trkpt>
      <trkpt lat="45.171715" lon="6.824226">
        <time>2023-04-19T06:12:52+00:00</time>
        <ele>2084.0</ele>
      </trkpt>
      <trkpt lat="45.171693" lon="6.824212">
        <time>2023-04-19T06:12:56+00:00</time>
        <ele>2084.0</ele>
      </trkpt>
      <trkpt lat="45.171429" lon="6.824153">
        <time>2023-04-19T06:13:29+00:00</time>
        <ele>2086.0</ele>
      </trkpt>
      <trkpt lat="45.171327" lon="6.824098">
        <time>2023-04-19T06:13:42+00:00</time>
        <ele>2087.0</ele>
      </trkpt>
      <trkpt lat="45.171304" lon="6.824074">
        <time>2023-04-19T06:13:45+00:00</time>
        <ele>2087.0</ele>
      </trkpt>
      <trkpt lat="45.171055" lon="6.82391">
        <time>2023-04-19T06:14:17+00:00</time>
        <ele>2090.0</ele>
      </trkpt>
      <trkpt lat="45.170817" lon="6.823729">
        <time>2023-04-19T06:14:48+00:00</time>
        <ele>2091.0</ele>
      </trkpt>
      <trkpt lat="45.170794" lon="6.823714">
        <time>2023-04-19T06:14:51+00:00</time>
        <ele>2092.0</ele>
      </trkpt>
      <trkpt lat="45.170773" lon="6.823684">
        <time>2023-04-19T06:14:55+00:00</time>
        <ele>2092.0</ele>
      </trkpt>
      <trkpt lat="45.170749" lon="6.823665">
        <time>2023-04-19T06:14:58+00:00</time>
        <ele>2092.0</ele>
      </trkpt>
      <trkpt lat="45.170654" lon="6.823555">
        <time>2023-04-19T06:15:13+00:00</time>
        <ele>2093.0</ele>
      </trkpt>
      <trkpt lat="45.170515" lon="6.82351">
        <time>2023-04-19T06:15:30+00:00</time>
        <ele>2093.0</ele>
      </trkpt>
      <trkpt lat="45.170492" lon="6.823515">
        <time>2023-04-19T06:15:32+00:00</time>
        <ele>2094.0</ele>
      </trkpt>
      <trkpt lat="45.170416" lon="6.823491">
        <time>2023-04-19T06:15:41+00:00</time>
        <ele>2095.0</ele>
      </trkpt>
      <trkpt lat="45.170383" lon="6.823472">
        <time>2023-04-19T06:15:45+00:00</time>
        <ele>2095.0</ele>
      </trkpt>
      <trkpt lat="45.170259" lon="6.823435">
        <time>2023-04-19T06:16:01+00:00</time>
        <ele>2096.0</ele>
      </trkpt>
      <trkpt lat="45.170152" lon="6.823375">
        <time>2023-04-19T06:16:13+00:00</time>
        <ele>2097.0</ele>
      </trkpt>
      <trkpt lat="45.170106" lon="6.823362">
        <time>2023-04-19T06:16:17+00:00</time>
        <ele>2098.0</ele>
      </trkpt>
      <trkpt lat="45.170061" lon="6.823332">
        <time>2023-04-19T06:16:23+00:00</time>
        <ele>2098.0</ele>
      </trkpt>
      <trkpt lat="45.169923" lon="6.823286">
        <time>2023-04-19T06:16:40+00:00</time>
        <ele>2099.0</ele>
      </trkpt>
      <trkpt lat="45.169902" lon="6.823278">
        <time>2023-04-19T06:16:43+00:00</time>
        <ele>2099.0</ele>
      </trkpt>
      <trkpt lat="45.169879" lon="6.823272">
        <time>2023-04-19T06:16:46+00:00</time>
        <ele>2099.0</ele>
      </trkpt>
      <trkpt lat="45.169644" lon="6.823129">
        <time>2023-04-19T06:17:16+00:00</time>
        <ele>2100.0</ele>
      </trkpt>
      <trkpt lat="45.169611" lon="6.823101">
        <time>2023-04-19T06:17:20+00:00</time>
        <ele>2100.0</ele>
      </trkpt>
      <trkpt lat="45.169576" lon="6.823092">
        <time>2023-04-19T06:17:25+00:00</time>
        <ele>2100.0</ele>
      </trkpt>
      <trkpt lat="45.169532" lon="6.823073">
        <time>2023-04-19T06:17:30+00:00</time>
        <ele>2100.0</ele>
      </trkpt>
      <trkpt lat="45.169288" lon="6.822904">
        <time>2023-04-19T06:18:01+00:00</time>
        <ele>2099.0</ele>
      </trkpt>
      <trkpt lat="45.169261" lon="6.822882">
        <time>2023-04-19T06:18:05+00:00</time>
        <ele>2098.0</ele>
      </trkpt>
      <trkpt lat="45.169148" lon="6.822854">
        <time>2023-04-19T06:18:27+00:00</time>
        <ele>2098.0</ele>
      </trkpt>
      <trkpt lat="45.169131" lon="6.822821">
        <time>2023-04-19T06:18:32+00:00</time>
        <ele>2097.0</ele>
      </trkpt>
      <trkpt lat="45.168922" lon="6.82274">
        <time>2023-04-19T06:18:55+00:00</time>
        <ele>2098.0</ele>
      </trkpt>
      <trkpt lat="45.16883" lon="6.822681">
        <time>2023-04-19T06:19:06+00:00</time>
        <ele>2099.0</ele>
      </trkpt>
      <trkpt lat="45.168768" lon="6.822643">
        <time>2023-04-19T06:19:15+00:00</time>
        <ele>2100.0</ele>
      </trkpt>
      <trkpt lat="45.168748" lon="6.822622">
        <time>2023-04-19T06:19:18+00:00</time>
        <ele>2100.0</ele>
      </trkpt>
      <trkpt lat="45.168721" lon="6.82264">
        <time>2023-04-19T06:19:52+00:00</time>
        <ele>2100.0</ele>
      </trkpt>
      <trkpt lat="45.168733" lon="6.822642">
        <time>2023-04-19T06:22:23+00:00</time>
        <ele>2100.0</ele>
      </trkpt>
      <trkpt lat="45.168712" lon="6.822617">
        <time>2023-04-19T06:24:55+00:00</time>
        <ele>2100.0</ele>
      </trkpt>
      <trkpt lat="45.168702" lon="6.822596">
        <time>2023-04-19T06:25:31+00:00</time>
        <ele>2100.0</ele>
      </trkpt>
      <trkpt lat="45.168681" lon="6.822576">
        <time>2023-04-19T06:25:35+00:00</time>
        <ele>2101.0</ele>
      </trkpt>
      <trkpt lat="45.168653" lon="6.822544">
        <time>2023-04-19T06:25:40+00:00</time>
        <ele>2101.0</ele>
      </trkpt>
      <trkpt lat="45.168631" lon="6.822529">
        <time>2023-04-19T06:25:43+00:00</time>
        <ele>2102.0</ele>
      </trkpt>
      <trkpt lat="45.168608" lon="6.822522">
        <time>2023-04-19T06:25:47+00:00</time>
        <ele>2102.0</ele>
      </trkpt>
      <trkpt lat="45.168589" lon="6.822496">
        <time>2023-04-19T06:25:50+00:00</time>
        <ele>2103.0</ele>
      </trkpt>
      <trkpt lat="45.168575" lon="6.82247">
        <time>2023-04-19T06:25:55+00:00</time>
        <ele>2103.0</ele>
      </trkpt>
      <trkpt lat="45.168586" lon="6.822441">
        <time>2023-04-19T06:26:00+00:00</time>
        <ele>2104.0</ele>
      </trkpt>
      <trkpt lat="45.168663" lon="6.822312">
        <time>2023-04-19T06:26:25+00:00</time>
        <ele>2105.0</ele>
      </trkpt>
      <trkpt lat="45.168671" lon="6.822274">
        <time>2023-04-19T06:26:32+00:00</time>
        <ele>2106.0</ele>
      </trkpt>
      <trkpt lat="45.168669" lon="6.822236">
        <time>2023-04-19T06:26:37+00:00</time>
        <ele>2107.0</ele>
      </trkpt>
      <trkpt lat="45.168653" lon="6.822208">
        <time>2023-04-19T06:26:48+00:00</time>
        <ele>2108.0</ele>
      </trkpt>
      <trkpt lat="45.168637" lon="6.822185">
        <time>2023-04-19T06:26:51+00:00</time>
        <ele>2109.0</ele>
      </trkpt>
      <trkpt lat="45.16862" lon="6.822151">
        <time>2023-04-19T06:26:56+00:00</time>
        <ele>2111.0</ele>
      </trkpt>
      <trkpt lat="45.168622" lon="6.822113">
        <time>2023-04-19T06:27:02+00:00</time>
        <ele>2112.0</ele>
      </trkpt>
      <trkpt lat="45.168621" lon="6.822024">
        <time>2023-04-19T06:27:22+00:00</time>
        <ele>2115.0</ele>
      </trkpt>
      <trkpt lat="45.168624" lon="6.821991">
        <time>2023-04-19T06:27:28+00:00</time>
        <ele>2116.0</ele>
      </trkpt>
      <trkpt lat="45.168569" lon="6.82195">
        <time>2023-04-19T06:27:46+00:00</time>
        <ele>2118.0</ele>
      </trkpt>
      <trkpt lat="45.168542" lon="6.82192">
        <time>2023-04-19T06:27:54+00:00</time>
        <ele>2119.0</ele>
      </trkpt>
      <trkpt lat="45.16855" lon="6.821887">
        <time>2023-04-19T06:28:03+00:00</time>
        <ele>2120.0</ele>
      </trkpt>
      <trkpt lat="45.168585" lon="6.821837">
        <time>2023-04-19T06:28:18+00:00</time>
        <ele>2120.0</ele>
      </trkpt>
      <trkpt lat="45.16861" lon="6.821803">
        <time>2023-04-19T06:28:25+00:00</time>
        <ele>2121.0</ele>
      </trkpt>
      <trkpt lat="45.16859" lon="6.821773">
        <time>2023-04-19T06:28:31+00:00</time>
        <ele>2122.0</ele>
      </trkpt>
      <trkpt lat="45.168569" lon="6.821739">
        <time>2023-04-19T06:28:40+00:00</time>
        <ele>2123.0</ele>
      </trkpt>
      <trkpt lat="45.168542" lon="6.821736">
        <time>2023-04-19T06:28:50+00:00</time>
        <ele>2124.0</ele>
      </trkpt>
      <trkpt lat="45.168527" lon="6.821721">
        <time>2023-04-19T06:29:15+00:00</time>
        <ele>2125.0</ele>
      </trkpt>
      <trkpt lat="45.168512" lon="6.821698">
        <time>2023-04-19T06:29:25+00:00</time>
        <ele>2126.0</ele>
      </trkpt>
      <trkpt lat="45.16851" lon="6.821661">
        <time>2023-04-19T06:29:30+00:00</time>
        <ele>2127.0</ele>
      </trkpt>
      <trkpt lat="45.168521" lon="6.821619">
        <time>2023-04-19T06:29:38+00:00</time>
        <ele>2128.0</ele>
      </trkpt>
      <trkpt lat="45.168502" lon="6.821588">
        <time>2023-04-19T06:29:51+00:00</time>
        <ele>2130.0</ele>
      </trkpt>
      <trkpt lat="45.168484" lon="6.821557">
        <time>2023-04-19T06:29:58+00:00</time>
        <ele>2131.0</ele>
      </trkpt>
      <trkpt lat="45.168457" lon="6.821532">
        <time>2023-04-19T06:30:08+00:00</time>
        <ele>2133.0</ele>
      </trkpt>
      <trkpt lat="45.168422" lon="6.821521">
        <time>2023-04-19T06:30:18+00:00</time>
        <ele>2134.0</ele>
      </trkpt>
      <trkpt lat="45.168398" lon="6.821518">
        <time>2023-04-19T06:30:37+00:00</time>
        <ele>2134.0</ele>
      </trkpt>
      <trkpt lat="45.168372" lon="6.821502">
        <time>2023-04-19T06:31:16+00:00</time>
        <ele>2135.0</ele>
      </trkpt>
      <trkpt lat="45.168369" lon="6.821456">
        <time>2023-04-19T06:31:35+00:00</time>
        <ele>2137.0</ele>
      </trkpt>
      <trkpt lat="45.168368" lon="6.821421">
        <time>2023-04-19T06:31:40+00:00</time>
        <ele>2138.0</ele>
      </trkpt>
      <trkpt lat="45.168384" lon="6.821382">
        <time>2023-04-19T06:31:46+00:00</time>
        <ele>2140.0</ele>
      </trkpt>
      <trkpt lat="45.168427" lon="6.821336">
        <time>2023-04-19T06:32:00+00:00</time>
        <ele>2141.0</ele>
      </trkpt>
      <trkpt lat="45.168423" lon="6.821305">
        <time>2023-04-19T06:32:15+00:00</time>
        <ele>2143.0</ele>
      </trkpt>
      <trkpt lat="45.16843" lon="6.821273">
        <time>2023-04-19T06:32:19+00:00</time>
        <ele>2144.0</ele>
      </trkpt>
      <trkpt lat="45.168451" lon="6.821247">
        <time>2023-04-19T06:32:25+00:00</time>
        <ele>2145.0</ele>
      </trkpt>
      <trkpt lat="45.168503" lon="6.821224">
        <time>2023-04-19T06:32:40+00:00</time>
        <ele>2145.0</ele>
      </trkpt>
      <trkpt lat="45.168501" lon="6.821186">
        <time>2023-04-19T06:33:00+00:00</time>
        <ele>2147.0</ele>
      </trkpt>
      <trkpt lat="45.168483" lon="6.821162">
        <time>2023-04-19T06:33:05+00:00</time>
        <ele>2148.0</ele>
      </trkpt>
      <trkpt lat="45.168465" lon="6.821143">
        <time>2023-04-19T06:33:10+00:00</time>
        <ele>2149.0</ele>
      </trkpt>
      <trkpt lat="45.168444" lon="6.821119">
        <time>2023-04-19T06:33:18+00:00</time>
        <ele>2150.0</ele>
      </trkpt>
      <trkpt lat="45.168443" lon="6.821086">
        <time>2023-04-19T06:33:30+00:00</time>
        <ele>2151.0</ele>
      </trkpt>
      <trkpt lat="45.168458" lon="6.82106">
        <time>2023-04-19T06:33:36+00:00</time>
        <ele>2152.0</ele>
      </trkpt>
      <trkpt lat="45.168482" lon="6.821052">
        <time>2023-04-19T06:33:50+00:00</time>
        <ele>2152.0</ele>
      </trkpt>
      <trkpt lat="45.168483" lon="6.821016">
        <time>2023-04-19T06:34:10+00:00</time>
        <ele>2153.0</ele>
      </trkpt>
      <trkpt lat="45.168476" lon="6.820986">
        <time>2023-04-19T06:34:16+00:00</time>
        <ele>2154.0</ele>
      </trkpt>
      <trkpt lat="45.168458" lon="6.820946">
        <time>2023-04-19T06:34:31+00:00</time>
        <ele>2156.0</ele>
      </trkpt>
      <trkpt lat="45.168431" lon="6.820926">
        <time>2023-04-19T06:34:40+00:00</time>
        <ele>2158.0</ele>
      </trkpt>
      <trkpt lat="45.168405" lon="6.820933">
        <time>2023-04-19T06:34:58+00:00</time>
        <ele>2158.0</ele>
      </trkpt>
      <trkpt lat="45.168408" lon="6.820895">
        <time>2023-04-19T06:35:21+00:00</time>
        <ele>2160.0</ele>
      </trkpt>
      <trkpt lat="45.16839" lon="6.820855">
        <time>2023-04-19T06:35:53+00:00</time>
        <ele>2162.0</ele>
      </trkpt>
      <trkpt lat="45.168358" lon="6.82084">
        <time>2023-04-19T06:36:05+00:00</time>
        <ele>2163.0</ele>
      </trkpt>
      <trkpt lat="45.168327" lon="6.82084">
        <time>2023-04-19T06:36:16+00:00</time>
        <ele>2164.0</ele>
      </trkpt>
      <trkpt lat="45.168295" lon="6.820815">
        <time>2023-04-19T06:36:26+00:00</time>
        <ele>2166.0</ele>
      </trkpt>
      <trkpt lat="45.168273" lon="6.820817">
        <time>2023-04-19T06:36:50+00:00</time>
        <ele>2166.0</ele>
      </trkpt>
      <trkpt lat="45.168249" lon="6.820803">
        <time>2023-04-19T06:36:57+00:00</time>
        <ele>2168.0</ele>
      </trkpt>
      <trkpt lat="45.168246" lon="6.820763">
        <time>2023-04-19T06:37:06+00:00</time>
        <ele>2170.0</ele>
      </trkpt>
      <trkpt lat="45.168263" lon="6.820735">
        <time>2023-04-19T06:37:15+00:00</time>
        <ele>2171.0</ele>
      </trkpt>
      <trkpt lat="45.168283" lon="6.820707">
        <time>2023-04-19T06:37:22+00:00</time>
        <ele>2172.0</ele>
      </trkpt>
      <trkpt lat="45.168314" lon="6.820645">
        <time>2023-04-19T06:37:37+00:00</time>
        <ele>2174.0</ele>
      </trkpt>
      <trkpt lat="45.168341" lon="6.820638">
        <time>2023-04-19T06:37:44+00:00</time>
        <ele>2174.0</ele>
      </trkpt>
      <trkpt lat="45.168366" lon="6.820621">
        <time>2023-04-19T06:37:56+00:00</time>
        <ele>2174.0</ele>
      </trkpt>
      <trkpt lat="45.168385" lon="6.820592">
        <time>2023-04-19T06:38:03+00:00</time>
        <ele>2175.0</ele>
      </trkpt>
      <trkpt lat="45.168397" lon="6.820507">
        <time>2023-04-19T06:38:38+00:00</time>
        <ele>2179.0</ele>
      </trkpt>
      <trkpt lat="45.16839" lon="6.820456">
        <time>2023-04-19T06:38:50+00:00</time>
        <ele>2181.0</ele>
      </trkpt>
      <trkpt lat="45.168357" lon="6.820432">
        <time>2023-04-19T06:39:02+00:00</time>
        <ele>2183.0</ele>
      </trkpt>
      <trkpt lat="45.168347" lon="6.820396">
        <time>2023-04-19T06:39:31+00:00</time>
        <ele>2185.0</ele>
      </trkpt>
      <trkpt lat="45.168317" lon="6.820407">
        <time>2023-04-19T06:39:37+00:00</time>
        <ele>2186.0</ele>
      </trkpt>
      <trkpt lat="45.168308" lon="6.820369">
        <time>2023-04-19T06:39:46+00:00</time>
        <ele>2188.0</ele>
      </trkpt>
      <trkpt lat="45.16831" lon="6.820241">
        <time>2023-04-19T06:40:17+00:00</time>
        <ele>2193.0</ele>
      </trkpt>
      <trkpt lat="45.168338" lon="6.82009">
        <time>2023-04-19T06:40:47+00:00</time>
        <ele>2199.0</ele>
      </trkpt>
      <trkpt lat="45.168347" lon="6.820041">
        <time>2023-04-19T06:40:55+00:00</time>
        <ele>2200.0</ele>
      </trkpt>
      <trkpt lat="45.168307" lon="6.820052">
        <time>2023-04-19T06:41:20+00:00</time>
        <ele>2202.0</ele>
      </trkpt>
      <trkpt lat="45.16832" lon="6.819904">
        <time>2023-04-19T06:41:55+00:00</time>
        <ele>2207.0</ele>
      </trkpt>
      <trkpt lat="45.168318" lon="6.819898">
        <time>2023-04-19T06:42:15+00:00</time>
        <ele>2207.0</ele>
      </trkpt>
      <trkpt lat="45.168283" lon="6.819896">
        <time>2023-04-19T06:42:22+00:00</time>
        <ele>2209.0</ele>
      </trkpt>
      <trkpt lat="45.16825" lon="6.819893">
        <time>2023-04-19T06:42:35+00:00</time>
        <ele>2210.0</ele>
      </trkpt>
      <trkpt lat="45.168255" lon="6.819829">
        <time>2023-04-19T06:42:55+00:00</time>
        <ele>2212.0</ele>
      </trkpt>
      <trkpt lat="45.168258" lon="6.819784">
        <time>2023-04-19T06:43:12+00:00</time>
        <ele>2213.0</ele>
      </trkpt>
      <trkpt lat="45.168279" lon="6.819748">
        <time>2023-04-19T06:43:31+00:00</time>
        <ele>2213.0</ele>
      </trkpt>
      <trkpt lat="45.168302" lon="6.819625">
        <time>2023-04-19T06:44:01+00:00</time>
        <ele>2215.0</ele>
      </trkpt>
      <trkpt lat="45.168235" lon="6.819614">
        <time>2023-04-19T06:44:28+00:00</time>
        <ele>2219.0</ele>
      </trkpt>
      <trkpt lat="45.168151" lon="6.81968">
        <time>2023-04-19T06:45:02+00:00</time>
        <ele>2221.0</ele>
      </trkpt>
      <trkpt lat="45.168146" lon="6.819624">
        <time>2023-04-19T06:45:20+00:00</time>
        <ele>2223.0</ele>
      </trkpt>
      <trkpt lat="45.168144" lon="6.819586">
        <time>2023-04-19T06:45:36+00:00</time>
        <ele>2224.0</ele>
      </trkpt>
      <trkpt lat="45.168136" lon="6.819547">
        <time>2023-04-19T06:45:45+00:00</time>
        <ele>2225.0</ele>
      </trkpt>
      <trkpt lat="45.168139" lon="6.819502">
        <time>2023-04-19T06:45:56+00:00</time>
        <ele>2226.0</ele>
      </trkpt>
      <trkpt lat="45.168128" lon="6.819461">
        <time>2023-04-19T06:46:05+00:00</time>
        <ele>2227.0</ele>
      </trkpt>
      <trkpt lat="45.168104" lon="6.819436">
        <time>2023-04-19T06:46:25+00:00</time>
        <ele>2229.0</ele>
      </trkpt>
      <trkpt lat="45.168077" lon="6.81944">
        <time>2023-04-19T06:46:33+00:00</time>
        <ele>2230.0</ele>
      </trkpt>
      <trkpt lat="45.16802" lon="6.819455">
        <time>2023-04-19T06:46:48+00:00</time>
        <ele>2233.0</ele>
      </trkpt>
      <trkpt lat="45.167993" lon="6.819447">
        <time>2023-04-19T06:46:53+00:00</time>
        <ele>2234.0</ele>
      </trkpt>
      <trkpt lat="45.167989" lon="6.819396">
        <time>2023-04-19T06:47:41+00:00</time>
        <ele>2236.0</ele>
      </trkpt>
      <trkpt lat="45.168004" lon="6.819347">
        <time>2023-04-19T06:47:52+00:00</time>
        <ele>2236.0</ele>
      </trkpt>
      <trkpt lat="45.167971" lon="6.819322">
        <time>2023-04-19T06:48:10+00:00</time>
        <ele>2238.0</ele>
      </trkpt>
      <trkpt lat="45.167944" lon="6.819322">
        <time>2023-04-19T06:48:16+00:00</time>
        <ele>2240.0</ele>
      </trkpt>
      <trkpt lat="45.167914" lon="6.819335">
        <time>2023-04-19T06:48:23+00:00</time>
        <ele>2241.0</ele>
      </trkpt>
      <trkpt lat="45.167882" lon="6.819342">
        <time>2023-04-19T06:48:35+00:00</time>
        <ele>2242.0</ele>
      </trkpt>
      <trkpt lat="45.167896" lon="6.819294">
        <time>2023-04-19T06:48:47+00:00</time>
        <ele>2243.0</ele>
      </trkpt>
      <trkpt lat="45.167928" lon="6.819253">
        <time>2023-04-19T06:49:00+00:00</time>
        <ele>2242.0</ele>
      </trkpt>
      <trkpt lat="45.167887" lon="6.819225">
        <time>2023-04-19T06:49:17+00:00</time>
        <ele>2245.0</ele>
      </trkpt>
      <trkpt lat="45.167856" lon="6.819221">
        <time>2023-04-19T06:49:20+00:00</time>
        <ele>2247.0</ele>
      </trkpt>
      <trkpt lat="45.167824" lon="6.819217">
        <time>2023-04-19T06:49:31+00:00</time>
        <ele>2249.0</ele>
      </trkpt>
      <trkpt lat="45.167803" lon="6.819178">
        <time>2023-04-19T06:49:41+00:00</time>
        <ele>2251.0</ele>
      </trkpt>
      <trkpt lat="45.167784" lon="6.819172">
        <time>2023-04-19T06:50:55+00:00</time>
        <ele>2252.0</ele>
      </trkpt>
      <trkpt lat="45.167754" lon="6.819149">
        <time>2023-04-19T06:51:02+00:00</time>
        <ele>2254.0</ele>
      </trkpt>
      <trkpt lat="45.167757" lon="6.819094">
        <time>2023-04-19T06:51:58+00:00</time>
        <ele>2256.0</ele>
      </trkpt>
      <trkpt lat="45.167722" lon="6.819069">
        <time>2023-04-19T06:52:13+00:00</time>
        <ele>2259.0</ele>
      </trkpt>
      <trkpt lat="45.167731" lon="6.819046">
        <time>2023-04-19T06:52:40+00:00</time>
        <ele>2259.0</ele>
      </trkpt>
      <trkpt lat="45.167726" lon="6.818995">
        <time>2023-04-19T06:53:18+00:00</time>
        <ele>2261.0</ele>
      </trkpt>
      <trkpt lat="45.167694" lon="6.818979">
        <time>2023-04-19T06:53:23+00:00</time>
        <ele>2264.0</ele>
      </trkpt>
      <trkpt lat="45.167641" lon="6.818926">
        <time>2023-04-19T06:53:59+00:00</time>
        <ele>2268.0</ele>
      </trkpt>
      <trkpt lat="45.167613" lon="6.818864">
        <time>2023-04-19T06:54:21+00:00</time>
        <ele>2271.0</ele>
      </trkpt>
      <trkpt lat="45.167599" lon="6.818932">
        <time>2023-04-19T06:54:39+00:00</time>
        <ele>2269.0</ele>
      </trkpt>
      <trkpt lat="45.167618" lon="6.818931">
        <time>2023-04-19T06:55:58+00:00</time>
        <ele>2269.0</ele>
      </trkpt>
      <trkpt lat="45.167605" lon="6.818882">
        <time>2023-04-19T06:56:11+00:00</time>
        <ele>2271.0</ele>
      </trkpt>
      <trkpt lat="45.167632" lon="6.818846">
        <time>2023-04-19T06:56:57+00:00</time>
        <ele>2271.0</ele>
      </trkpt>
      <trkpt lat="45.167608" lon="6.818807">
        <time>2023-04-19T06:57:21+00:00</time>
        <ele>2274.0</ele>
      </trkpt>
      <trkpt lat="45.167575" lon="6.818802">
        <time>2023-04-19T06:57:28+00:00</time>
        <ele>2275.0</ele>
      </trkpt>
      <trkpt lat="45.167586" lon="6.818752">
        <time>2023-04-19T06:58:10+00:00</time>
        <ele>2276.0</ele>
      </trkpt>
      <trkpt lat="45.167629" lon="6.818718">
        <time>2023-04-19T06:58:23+00:00</time>
        <ele>2276.0</ele>
      </trkpt>
      <trkpt lat="45.167654" lon="6.81869">
        <time>2023-04-19T06:58:34+00:00</time>
        <ele>2276.0</ele>
      </trkpt>
      <trkpt lat="45.167637" lon="6.818666">
        <time>2023-04-19T06:59:13+00:00</time>
        <ele>2278.0</ele>
      </trkpt>
      <trkpt lat="45.16757" lon="6.818646">
        <time>2023-04-19T06:59:30+00:00</time>
        <ele>2281.0</ele>
      </trkpt>
      <trkpt lat="45.167538" lon="6.81863">
        <time>2023-04-19T06:59:37+00:00</time>
        <ele>2283.0</ele>
      </trkpt>
      <trkpt lat="45.167573" lon="6.818598">
        <time>2023-04-19T07:00:05+00:00</time>
        <ele>2282.0</ele>
      </trkpt>
      <trkpt lat="45.167645" lon="6.8185">
        <time>2023-04-19T07:00:38+00:00</time>
        <ele>2283.0</ele>
      </trkpt>
      <trkpt lat="45.167618" lon="6.818485">
        <time>2023-04-19T07:01:01+00:00</time>
        <ele>2285.0</ele>
      </trkpt>
      <trkpt lat="45.167593" lon="6.818472">
        <time>2023-04-19T07:01:06+00:00</time>
        <ele>2286.0</ele>
      </trkpt>
      <trkpt lat="45.167562" lon="6.818451">
        <time>2023-04-19T07:01:12+00:00</time>
        <ele>2288.0</ele>
      </trkpt>
      <trkpt lat="45.167506" lon="6.818451">
        <time>2023-04-19T07:01:27+00:00</time>
        <ele>2291.0</ele>
      </trkpt>
      <trkpt lat="45.167534" lon="6.818449">
        <time>2023-04-19T07:01:51+00:00</time>
        <ele>2290.0</ele>
      </trkpt>
      <trkpt lat="45.167556" lon="6.818422">
        <time>2023-04-19T07:02:03+00:00</time>
        <ele>2290.0</ele>
      </trkpt>
      <trkpt lat="45.167572" lon="6.818398">
        <time>2023-04-19T07:02:16+00:00</time>
        <ele>2290.0</ele>
      </trkpt>
      <trkpt lat="45.167548" lon="6.818372">
        <time>2023-04-19T07:03:01+00:00</time>
        <ele>2292.0</ele>
      </trkpt>
      <trkpt lat="45.167498" lon="6.818341">
        <time>2023-04-19T07:03:19+00:00</time>
        <ele>2296.0</ele>
      </trkpt>
      <trkpt lat="45.167471" lon="6.818347">
        <time>2023-04-19T07:03:27+00:00</time>
        <ele>2297.0</ele>
      </trkpt>
      <trkpt lat="45.167463" lon="6.81832">
        <time>2023-04-19T07:04:26+00:00</time>
        <ele>2298.0</ele>
      </trkpt>
      <trkpt lat="45.167444" lon="6.818303">
        <time>2023-04-19T07:04:42+00:00</time>
        <ele>2299.0</ele>
      </trkpt>
      <trkpt lat="45.167389" lon="6.818316">
        <time>2023-04-19T07:04:57+00:00</time>
        <ele>2300.0</ele>
      </trkpt>
      <trkpt lat="45.167362" lon="6.818306">
        <time>2023-04-19T07:05:21+00:00</time>
        <ele>2301.0</ele>
      </trkpt>
      <trkpt lat="45.167296" lon="6.818297">
        <time>2023-04-19T07:05:51+00:00</time>
        <ele>2302.0</ele>
      </trkpt>
      <trkpt lat="45.167297" lon="6.818266">
        <time>2023-04-19T07:06:24+00:00</time>
        <ele>2304.0</ele>
      </trkpt>
      <trkpt lat="45.167309" lon="6.818237">
        <time>2023-04-19T07:06:32+00:00</time>
        <ele>2305.0</ele>
      </trkpt>
      <trkpt lat="45.167332" lon="6.8181">
        <time>2023-04-19T07:07:11+00:00</time>
        <ele>2310.0</ele>
      </trkpt>
      <trkpt lat="45.167334" lon="6.818064">
        <time>2023-04-19T07:07:21+00:00</time>
        <ele>2312.0</ele>
      </trkpt>
      <trkpt lat="45.167311" lon="6.818056">
        <time>2023-04-19T07:07:58+00:00</time>
        <ele>2312.0</ele>
      </trkpt>
      <trkpt lat="45.167192" lon="6.818018">
        <time>2023-04-19T07:08:34+00:00</time>
        <ele>2316.0</ele>
      </trkpt>
      <trkpt lat="45.167163" lon="6.818013">
        <time>2023-04-19T07:08:42+00:00</time>
        <ele>2317.0</ele>
      </trkpt>
      <trkpt lat="45.16713" lon="6.818004">
        <time>2023-04-19T07:08:51+00:00</time>
        <ele>2318.0</ele>
      </trkpt>
      <trkpt lat="45.167104" lon="6.817995">
        <time>2023-04-19T07:08:58+00:00</time>
        <ele>2318.0</ele>
      </trkpt>
      <trkpt lat="45.167083" lon="6.817973">
        <time>2023-04-19T07:09:06+00:00</time>
        <ele>2319.0</ele>
      </trkpt>
      <trkpt lat="45.167053" lon="6.817975">
        <time>2023-04-19T07:09:13+00:00</time>
        <ele>2320.0</ele>
      </trkpt>
      <trkpt lat="45.167024" lon="6.817962">
        <time>2023-04-19T07:09:42+00:00</time>
        <ele>2321.0</ele>
      </trkpt>
      <trkpt lat="45.166991" lon="6.817948">
        <time>2023-04-19T07:09:51+00:00</time>
        <ele>2322.0</ele>
      </trkpt>
      <trkpt lat="45.166971" lon="6.817919">
        <time>2023-04-19T07:09:59+00:00</time>
        <ele>2323.0</ele>
      </trkpt>
      <trkpt lat="45.166952" lon="6.817902">
        <time>2023-04-19T07:10:22+00:00</time>
        <ele>2324.0</ele>
      </trkpt>
      <trkpt lat="45.166967" lon="6.817875">
        <time>2023-04-19T07:10:34+00:00</time>
        <ele>2326.0</ele>
      </trkpt>
      <trkpt lat="45.166984" lon="6.817836">
        <time>2023-04-19T07:10:46+00:00</time>
        <ele>2327.0</ele>
      </trkpt>
      <trkpt lat="45.167017" lon="6.817783">
        <time>2023-04-19T07:10:59+00:00</time>
        <ele>2330.0</ele>
      </trkpt>
      <trkpt lat="45.167034" lon="6.817752">
        <time>2023-04-19T07:11:05+00:00</time>
        <ele>2331.0</ele>
      </trkpt>
      <trkpt lat="45.167047" lon="6.817726">
        <time>2023-04-19T07:11:12+00:00</time>
        <ele>2332.0</ele>
      </trkpt>
      <trkpt lat="45.167064" lon="6.817701">
        <time>2023-04-19T07:11:21+00:00</time>
        <ele>2333.0</ele>
      </trkpt>
      <trkpt lat="45.167075" lon="6.817672">
        <time>2023-04-19T07:11:27+00:00</time>
        <ele>2334.0</ele>
      </trkpt>
      <trkpt lat="45.167097" lon="6.817646">
        <time>2023-04-19T07:11:36+00:00</time>
        <ele>2334.0</ele>
      </trkpt>
      <trkpt lat="45.167099" lon="6.8176">
        <time>2023-04-19T07:11:42+00:00</time>
        <ele>2336.0</ele>
      </trkpt>
      <trkpt lat="45.167074" lon="6.8176">
        <time>2023-04-19T07:12:19+00:00</time>
        <ele>2337.0</ele>
      </trkpt>
      <trkpt lat="45.167045" lon="6.817591">
        <time>2023-04-19T07:12:25+00:00</time>
        <ele>2338.0</ele>
      </trkpt>
      <trkpt lat="45.167017" lon="6.817571">
        <time>2023-04-19T07:12:34+00:00</time>
        <ele>2339.0</ele>
      </trkpt>
      <trkpt lat="45.16699" lon="6.817576">
        <time>2023-04-19T07:12:42+00:00</time>
        <ele>2339.0</ele>
      </trkpt>
      <trkpt lat="45.166962" lon="6.817557">
        <time>2023-04-19T07:12:52+00:00</time>
        <ele>2341.0</ele>
      </trkpt>
      <trkpt lat="45.166936" lon="6.817548">
        <time>2023-04-19T07:13:00+00:00</time>
        <ele>2342.0</ele>
      </trkpt>
      <trkpt lat="45.166869" lon="6.817528">
        <time>2023-04-19T07:13:16+00:00</time>
        <ele>2344.0</ele>
      </trkpt>
      <trkpt lat="45.166844" lon="6.817529">
        <time>2023-04-19T07:13:25+00:00</time>
        <ele>2344.0</ele>
      </trkpt>
      <trkpt lat="45.16681" lon="6.817521">
        <time>2023-04-19T07:13:55+00:00</time>
        <ele>2345.0</ele>
      </trkpt>
      <trkpt lat="45.166777" lon="6.817513">
        <time>2023-04-19T07:14:06+00:00</time>
        <ele>2346.0</ele>
      </trkpt>
      <trkpt lat="45.16675" lon="6.817503">
        <time>2023-04-19T07:14:22+00:00</time>
        <ele>2346.0</ele>
      </trkpt>
      <trkpt lat="45.166771" lon="6.817475">
        <time>2023-04-19T07:14:32+00:00</time>
        <ele>2348.0</ele>
      </trkpt>
      <trkpt lat="45.16679" lon="6.817442">
        <time>2023-04-19T07:14:43+00:00</time>
        <ele>2349.0</ele>
      </trkpt>
      <trkpt lat="45.166815" lon="6.817423">
        <time>2023-04-19T07:14:54+00:00</time>
        <ele>2350.0</ele>
      </trkpt>
      <trkpt lat="45.166829" lon="6.817393">
        <time>2023-04-19T07:15:01+00:00</time>
        <ele>2351.0</ele>
      </trkpt>
      <trkpt lat="45.166858" lon="6.81733">
        <time>2023-04-19T07:15:19+00:00</time>
        <ele>2353.0</ele>
      </trkpt>
      <trkpt lat="45.166844" lon="6.817314">
        <time>2023-04-19T07:15:43+00:00</time>
        <ele>2354.0</ele>
      </trkpt>
      <trkpt lat="45.166823" lon="6.817303">
        <time>2023-04-19T07:15:47+00:00</time>
        <ele>2354.0</ele>
      </trkpt>
      <trkpt lat="45.166808" lon="6.817286">
        <time>2023-04-19T07:15:53+00:00</time>
        <ele>2355.0</ele>
      </trkpt>
      <trkpt lat="45.16676" lon="6.81729">
        <time>2023-04-19T07:16:06+00:00</time>
        <ele>2356.0</ele>
      </trkpt>
      <trkpt lat="45.166701" lon="6.817272">
        <time>2023-04-19T07:16:22+00:00</time>
        <ele>2358.0</ele>
      </trkpt>
      <trkpt lat="45.166683" lon="6.817261">
        <time>2023-04-19T07:16:28+00:00</time>
        <ele>2358.0</ele>
      </trkpt>
      <trkpt lat="45.166661" lon="6.817266">
        <time>2023-04-19T07:16:44+00:00</time>
        <ele>2358.0</ele>
      </trkpt>
      <trkpt lat="45.166637" lon="6.817257">
        <time>2023-04-19T07:16:49+00:00</time>
        <ele>2359.0</ele>
      </trkpt>
      <trkpt lat="45.166643" lon="6.81722">
        <time>2023-04-19T07:17:14+00:00</time>
        <ele>2361.0</ele>
      </trkpt>
      <trkpt lat="45.166703" lon="6.817095">
        <time>2023-04-19T07:17:49+00:00</time>
        <ele>2365.0</ele>
      </trkpt>
      <trkpt lat="45.166676" lon="6.817069">
        <time>2023-04-19T07:18:25+00:00</time>
        <ele>2366.0</ele>
      </trkpt>
      <trkpt lat="45.16665" lon="6.817052">
        <time>2023-04-19T07:18:31+00:00</time>
        <ele>2367.0</ele>
      </trkpt>
      <trkpt lat="45.166615" lon="6.817051">
        <time>2023-04-19T07:18:40+00:00</time>
        <ele>2368.0</ele>
      </trkpt>
      <trkpt lat="45.166586" lon="6.817037">
        <time>2023-04-19T07:19:06+00:00</time>
        <ele>2369.0</ele>
      </trkpt>
      <trkpt lat="45.166563" lon="6.817037">
        <time>2023-04-19T07:19:11+00:00</time>
        <ele>2369.0</ele>
      </trkpt>
      <trkpt lat="45.166514" lon="6.817019">
        <time>2023-04-19T07:19:33+00:00</time>
        <ele>2370.0</ele>
      </trkpt>
      <trkpt lat="45.166495" lon="6.817003">
        <time>2023-04-19T07:19:38+00:00</time>
        <ele>2371.0</ele>
      </trkpt>
      <trkpt lat="45.166469" lon="6.81699">
        <time>2023-04-19T07:19:47+00:00</time>
        <ele>2372.0</ele>
      </trkpt>
      <trkpt lat="45.166501" lon="6.816958">
        <time>2023-04-19T07:20:26+00:00</time>
        <ele>2373.0</ele>
      </trkpt>
      <trkpt lat="45.166521" lon="6.816926">
        <time>2023-04-19T07:20:43+00:00</time>
        <ele>2374.0</ele>
      </trkpt>
      <trkpt lat="45.166558" lon="6.816872">
        <time>2023-04-19T07:21:16+00:00</time>
        <ele>2376.0</ele>
      </trkpt>
      <trkpt lat="45.166565" lon="6.816839">
        <time>2023-04-19T07:21:21+00:00</time>
        <ele>2377.0</ele>
      </trkpt>
      <trkpt lat="45.166598" lon="6.816786">
        <time>2023-04-19T07:21:42+00:00</time>
        <ele>2379.0</ele>
      </trkpt>
      <trkpt lat="45.166589" lon="6.816755">
        <time>2023-04-19T07:22:21+00:00</time>
        <ele>2381.0</ele>
      </trkpt>
      <trkpt lat="45.166563" lon="6.816749">
        <time>2023-04-19T07:22:27+00:00</time>
        <ele>2381.0</ele>
      </trkpt>
      <trkpt lat="45.166536" lon="6.816739">
        <time>2023-04-19T07:22:36+00:00</time>
        <ele>2382.0</ele>
      </trkpt>
      <trkpt lat="45.166483" lon="6.816709">
        <time>2023-04-19T07:22:57+00:00</time>
        <ele>2385.0</ele>
      </trkpt>
      <trkpt lat="45.166502" lon="6.816668">
        <time>2023-04-19T07:23:42+00:00</time>
        <ele>2387.0</ele>
      </trkpt>
      <trkpt lat="45.166549" lon="6.816586">
        <time>2023-04-19T07:24:08+00:00</time>
        <ele>2389.0</ele>
      </trkpt>
      <trkpt lat="45.166554" lon="6.816558">
        <time>2023-04-19T07:24:14+00:00</time>
        <ele>2390.0</ele>
      </trkpt>
      <trkpt lat="45.166532" lon="6.816549">
        <time>2023-04-19T07:24:45+00:00</time>
        <ele>2391.0</ele>
      </trkpt>
      <trkpt lat="45.166479" lon="6.816539">
        <time>2023-04-19T07:24:56+00:00</time>
        <ele>2392.0</ele>
      </trkpt>
      <trkpt lat="45.166451" lon="6.816537">
        <time>2023-04-19T07:25:12+00:00</time>
        <ele>2392.0</ele>
      </trkpt>
      <trkpt lat="45.166444" lon="6.816506">
        <time>2023-04-19T07:25:41+00:00</time>
        <ele>2393.0</ele>
      </trkpt>
      <trkpt lat="45.166443" lon="6.816472">
        <time>2023-04-19T07:25:53+00:00</time>
        <ele>2394.0</ele>
      </trkpt>
      <trkpt lat="45.166441" lon="6.816447">
        <time>2023-04-19T07:25:59+00:00</time>
        <ele>2395.0</ele>
      </trkpt>
      <trkpt lat="45.166427" lon="6.816409">
        <time>2023-04-19T07:26:06+00:00</time>
        <ele>2397.0</ele>
      </trkpt>
      <trkpt lat="45.166422" lon="6.816316">
        <time>2023-04-19T07:26:38+00:00</time>
        <ele>2401.0</ele>
      </trkpt>
      <trkpt lat="45.166421" lon="6.816284">
        <time>2023-04-19T07:26:42+00:00</time>
        <ele>2402.0</ele>
      </trkpt>
      <trkpt lat="45.166401" lon="6.816275">
        <time>2023-04-19T07:27:41+00:00</time>
        <ele>2402.0</ele>
      </trkpt>
      <trkpt lat="45.166383" lon="6.816277">
        <time>2023-04-19T07:27:45+00:00</time>
        <ele>2402.0</ele>
      </trkpt>
      <trkpt lat="45.166351" lon="6.816272">
        <time>2023-04-19T07:27:51+00:00</time>
        <ele>2403.0</ele>
      </trkpt>
      <trkpt lat="45.16633" lon="6.816251">
        <time>2023-04-19T07:27:59+00:00</time>
        <ele>2404.0</ele>
      </trkpt>
      <trkpt lat="45.166313" lon="6.81623">
        <time>2023-04-19T07:28:08+00:00</time>
        <ele>2405.0</ele>
      </trkpt>
      <trkpt lat="45.166326" lon="6.816199">
        <time>2023-04-19T07:28:13+00:00</time>
        <ele>2406.0</ele>
      </trkpt>
      <trkpt lat="45.166351" lon="6.816167">
        <time>2023-04-19T07:28:45+00:00</time>
        <ele>2407.0</ele>
      </trkpt>
      <trkpt lat="45.166365" lon="6.816131">
        <time>2023-04-19T07:28:56+00:00</time>
        <ele>2408.0</ele>
      </trkpt>
      <trkpt lat="45.166396" lon="6.816111">
        <time>2023-04-19T07:29:09+00:00</time>
        <ele>2409.0</ele>
      </trkpt>
      <trkpt lat="45.166425" lon="6.816076">
        <time>2023-04-19T07:29:26+00:00</time>
        <ele>2410.0</ele>
      </trkpt>
      <trkpt lat="45.166458" lon="6.816048">
        <time>2023-04-19T07:32:18+00:00</time>
        <ele>2411.0</ele>
      </trkpt>
      <trkpt lat="45.166466" lon="6.815923">
        <time>2023-04-19T07:38:17+00:00</time>
        <ele>2416.0</ele>
      </trkpt>
      <trkpt lat="45.166455" lon="6.815966">
        <time>2023-04-19T07:38:38+00:00</time>
        <ele>2414.0</ele>
      </trkpt>
      <trkpt lat="45.166434" lon="6.816031">
        <time>2023-04-19T07:40:07+00:00</time>
        <ele>2412.0</ele>
      </trkpt>
      <trkpt lat="45.166444" lon="6.816036">
        <time>2023-04-19T07:43:19+00:00</time>
        <ele>2412.0</ele>
      </trkpt>
      <trkpt lat="45.166446" lon="6.815997">
        <time>2023-04-19T07:44:02+00:00</time>
        <ele>2413.0</ele>
      </trkpt>
      <trkpt lat="45.166452" lon="6.815957">
        <time>2023-04-19T07:44:07+00:00</time>
        <ele>2415.0</ele>
      </trkpt>
      <trkpt lat="45.166446" lon="6.815916">
        <time>2023-04-19T07:44:13+00:00</time>
        <ele>2416.0</ele>
      </trkpt>
      <trkpt lat="45.166379" lon="6.815847">
        <time>2023-04-19T07:44:24+00:00</time>
        <ele>2419.0</ele>
      </trkpt>
      <trkpt lat="45.166277" lon="6.815826">
        <time>2023-04-19T07:44:37+00:00</time>
        <ele>2420.0</ele>
      </trkpt>
      <trkpt lat="45.166249" lon="6.815806">
        <time>2023-04-19T07:45:07+00:00</time>
        <ele>2421.0</ele>
      </trkpt>
      <trkpt lat="45.166228" lon="6.815795">
        <time>2023-04-19T07:45:09+00:00</time>
        <ele>2421.0</ele>
      </trkpt>
      <trkpt lat="45.166183" lon="6.815763">
        <time>2023-04-19T07:45:17+00:00</time>
        <ele>2422.0</ele>
      </trkpt>
      <trkpt lat="45.166158" lon="6.815748">
        <time>2023-04-19T07:45:20+00:00</time>
        <ele>2423.0</ele>
      </trkpt>
      <trkpt lat="45.166141" lon="6.815735">
        <time>2023-04-19T07:45:29+00:00</time>
        <ele>2423.0</ele>
      </trkpt>
      <trkpt lat="45.166122" lon="6.815716">
        <time>2023-04-19T07:45:55+00:00</time>
        <ele>2424.0</ele>
      </trkpt>
      <trkpt lat="45.1661" lon="6.815703">
        <time>2023-04-19T07:45:58+00:00</time>
        <ele>2424.0</ele>
      </trkpt>
      <trkpt lat="45.166092" lon="6.815672">
        <time>2023-04-19T07:46:03+00:00</time>
        <ele>2425.0</ele>
      </trkpt>
      <trkpt lat="45.166072" lon="6.815651">
        <time>2023-04-19T07:46:07+00:00</time>
        <ele>2425.0</ele>
      </trkpt>
      <trkpt lat="45.166054" lon="6.815654">
        <time>2023-04-19T07:49:41+00:00</time>
        <ele>2425.0</ele>
      </trkpt>
      <trkpt lat="45.166028" lon="6.815635">
        <time>2023-04-19T07:50:18+00:00</time>
        <ele>2425.0</ele>
      </trkpt>
      <trkpt lat="45.166008" lon="6.815605">
        <time>2023-04-19T07:50:22+00:00</time>
        <ele>2426.0</ele>
      </trkpt>
      <trkpt lat="45.165978" lon="6.815558">
        <time>2023-04-19T07:50:28+00:00</time>
        <ele>2427.0</ele>
      </trkpt>
      <trkpt lat="45.165838" lon="6.815462">
        <time>2023-04-19T07:50:47+00:00</time>
        <ele>2429.0</ele>
      </trkpt>
      <trkpt lat="45.165814" lon="6.815451">
        <time>2023-04-19T07:51:09+00:00</time>
        <ele>2429.0</ele>
      </trkpt>
      <trkpt lat="45.165797" lon="6.815448">
        <time>2023-04-19T07:51:12+00:00</time>
        <ele>2429.0</ele>
      </trkpt>
      <trkpt lat="45.165752" lon="6.815407">
        <time>2023-04-19T07:51:20+00:00</time>
        <ele>2431.0</ele>
      </trkpt>
      <trkpt lat="45.165707" lon="6.815368">
        <time>2023-04-19T07:51:27+00:00</time>
        <ele>2432.0</ele>
      </trkpt>
      <trkpt lat="45.165692" lon="6.815343">
        <time>2023-04-19T07:51:31+00:00</time>
        <ele>2433.0</ele>
      </trkpt>
      <trkpt lat="45.165662" lon="6.81532">
        <time>2023-04-19T07:51:35+00:00</time>
        <ele>2433.0</ele>
      </trkpt>
      <trkpt lat="45.165645" lon="6.815298">
        <time>2023-04-19T07:51:38+00:00</time>
        <ele>2434.0</ele>
      </trkpt>
      <trkpt lat="45.165628" lon="6.81529">
        <time>2023-04-19T07:51:52+00:00</time>
        <ele>2434.0</ele>
      </trkpt>
      <trkpt lat="45.165605" lon="6.815254">
        <time>2023-04-19T07:51:57+00:00</time>
        <ele>2435.0</ele>
      </trkpt>
      <trkpt lat="45.165592" lon="6.815216">
        <time>2023-04-19T07:52:28+00:00</time>
        <ele>2436.0</ele>
      </trkpt>
      <trkpt lat="45.165582" lon="6.815181">
        <time>2023-04-19T07:52:32+00:00</time>
        <ele>2437.0</ele>
      </trkpt>
      <trkpt lat="45.165554" lon="6.815158">
        <time>2023-04-19T07:52:35+00:00</time>
        <ele>2438.0</ele>
      </trkpt>
      <trkpt lat="45.165535" lon="6.815138">
        <time>2023-04-19T07:52:38+00:00</time>
        <ele>2438.0</ele>
      </trkpt>
      <trkpt lat="45.165508" lon="6.815136">
        <time>2023-04-19T07:52:41+00:00</time>
        <ele>2438.0</ele>
      </trkpt>
      <trkpt lat="45.16533" lon="6.815112">
        <time>2023-04-19T07:53:04+00:00</time>
        <ele>2439.0</ele>
      </trkpt>
      <trkpt lat="45.165304" lon="6.815109">
        <time>2023-04-19T07:53:07+00:00</time>
        <ele>2439.0</ele>
      </trkpt>
      <trkpt lat="45.165281" lon="6.815103">
        <time>2023-04-19T07:53:38+00:00</time>
        <ele>2440.0</ele>
      </trkpt>
      <trkpt lat="45.165251" lon="6.815102">
        <time>2023-04-19T07:53:42+00:00</time>
        <ele>2440.0</ele>
      </trkpt>
      <trkpt lat="45.165229" lon="6.815104">
        <time>2023-04-19T07:53:45+00:00</time>
        <ele>2440.0</ele>
      </trkpt>
      <trkpt lat="45.165131" lon="6.815095">
        <time>2023-04-19T07:53:59+00:00</time>
        <ele>2441.0</ele>
      </trkpt>
      <trkpt lat="45.16511" lon="6.815082">
        <time>2023-04-19T07:54:03+00:00</time>
        <ele>2441.0</ele>
      </trkpt>
      <trkpt lat="45.16509" lon="6.815081">
        <time>2023-04-19T07:54:05+00:00</time>
        <ele>2441.0</ele>
      </trkpt>
      <trkpt lat="45.165066" lon="6.815076">
        <time>2023-04-19T07:54:08+00:00</time>
        <ele>2442.0</ele>
      </trkpt>
      <trkpt lat="45.165049" lon="6.815058">
        <time>2023-04-19T07:54:11+00:00</time>
        <ele>2442.0</ele>
      </trkpt>
      <trkpt lat="45.165035" lon="6.815034">
        <time>2023-04-19T07:54:14+00:00</time>
        <ele>2443.0</ele>
      </trkpt>
      <trkpt lat="45.165012" lon="6.815015">
        <time>2023-04-19T07:54:18+00:00</time>
        <ele>2444.0</ele>
      </trkpt>
      <trkpt lat="45.164991" lon="6.815004">
        <time>2023-04-19T07:54:20+00:00</time>
        <ele>2445.0</ele>
      </trkpt>
      <trkpt lat="45.164963" lon="6.814993">
        <time>2023-04-19T07:54:25+00:00</time>
        <ele>2446.0</ele>
      </trkpt>
      <trkpt lat="45.164941" lon="6.814999">
        <time>2023-04-19T07:54:28+00:00</time>
        <ele>2446.0</ele>
      </trkpt>
      <trkpt lat="45.164879" lon="6.815037">
        <time>2023-04-19T07:54:55+00:00</time>
        <ele>2446.0</ele>
      </trkpt>
      <trkpt lat="45.164856" lon="6.815037">
        <time>2023-04-19T07:54:58+00:00</time>
        <ele>2446.0</ele>
      </trkpt>
      <trkpt lat="45.164833" lon="6.815043">
        <time>2023-04-19T07:55:04+00:00</time>
        <ele>2446.0</ele>
      </trkpt>
      <trkpt lat="45.164704" lon="6.815013">
        <time>2023-04-19T07:55:22+00:00</time>
        <ele>2448.0</ele>
      </trkpt>
      <trkpt lat="45.164632" lon="6.815003">
        <time>2023-04-19T07:55:53+00:00</time>
        <ele>2449.0</ele>
      </trkpt>
      <trkpt lat="45.164445" lon="6.814937">
        <time>2023-04-19T07:56:22+00:00</time>
        <ele>2451.0</ele>
      </trkpt>
      <trkpt lat="45.164428" lon="6.814929">
        <time>2023-04-19T07:56:24+00:00</time>
        <ele>2452.0</ele>
      </trkpt>
      <trkpt lat="45.164416" lon="6.814913">
        <time>2023-04-19T07:56:50+00:00</time>
        <ele>2452.0</ele>
      </trkpt>
      <trkpt lat="45.164374" lon="6.814891">
        <time>2023-04-19T07:56:55+00:00</time>
        <ele>2453.0</ele>
      </trkpt>
      <trkpt lat="45.164291" lon="6.814762">
        <time>2023-04-19T07:57:25+00:00</time>
        <ele>2458.0</ele>
      </trkpt>
      <trkpt lat="45.164269" lon="6.814736">
        <time>2023-04-19T07:57:29+00:00</time>
        <ele>2459.0</ele>
      </trkpt>
      <trkpt lat="45.164244" lon="6.814728">
        <time>2023-04-19T07:57:32+00:00</time>
        <ele>2459.0</ele>
      </trkpt>
      <trkpt lat="45.164221" lon="6.814732">
        <time>2023-04-19T07:57:35+00:00</time>
        <ele>2459.0</ele>
      </trkpt>
      <trkpt lat="45.16409" lon="6.814824">
        <time>2023-04-19T07:57:56+00:00</time>
        <ele>2460.0</ele>
      </trkpt>
      <trkpt lat="45.164069" lon="6.814837">
        <time>2023-04-19T07:58:00+00:00</time>
        <ele>2460.0</ele>
      </trkpt>
      <trkpt lat="45.164022" lon="6.814865">
        <time>2023-04-19T07:58:06+00:00</time>
        <ele>2461.0</ele>
      </trkpt>
      <trkpt lat="45.164006" lon="6.81488">
        <time>2023-04-19T07:58:43+00:00</time>
        <ele>2460.0</ele>
      </trkpt>
      <trkpt lat="45.163968" lon="6.81488">
        <time>2023-04-19T07:58:48+00:00</time>
        <ele>2461.0</ele>
      </trkpt>
      <trkpt lat="45.163941" lon="6.814883">
        <time>2023-04-19T07:58:53+00:00</time>
        <ele>2461.0</ele>
      </trkpt>
      <trkpt lat="45.163915" lon="6.814871">
        <time>2023-04-19T07:58:57+00:00</time>
        <ele>2462.0</ele>
      </trkpt>
      <trkpt lat="45.16375" lon="6.814893">
        <time>2023-04-19T07:59:22+00:00</time>
        <ele>2464.0</ele>
      </trkpt>
      <trkpt lat="45.163699" lon="6.814892">
        <time>2023-04-19T07:59:29+00:00</time>
        <ele>2465.0</ele>
      </trkpt>
      <trkpt lat="45.16368" lon="6.814891">
        <time>2023-04-19T07:59:34+00:00</time>
        <ele>2465.0</ele>
      </trkpt>
      <trkpt lat="45.163667" lon="6.814909">
        <time>2023-04-19T08:04:09+00:00</time>
        <ele>2464.0</ele>
      </trkpt>
      <trkpt lat="45.163646" lon="6.814886">
        <time>2023-04-19T08:05:40+00:00</time>
        <ele>2465.0</ele>
      </trkpt>
      <trkpt lat="45.163487" lon="6.814806">
        <time>2023-04-19T08:06:03+00:00</time>
        <ele>2469.0</ele>
      </trkpt>
      <trkpt lat="45.163468" lon="6.814808">
        <time>2023-04-19T08:06:05+00:00</time>
        <ele>2469.0</ele>
      </trkpt>
      <trkpt lat="45.163445" lon="6.814803">
        <time>2023-04-19T08:06:08+00:00</time>
        <ele>2469.0</ele>
      </trkpt>
      <trkpt lat="45.163422" lon="6.814795">
        <time>2023-04-19T08:06:11+00:00</time>
        <ele>2470.0</ele>
      </trkpt>
      <trkpt lat="45.163402" lon="6.814789">
        <time>2023-04-19T08:06:15+00:00</time>
        <ele>2470.0</ele>
      </trkpt>
      <trkpt lat="45.163243" lon="6.814762">
        <time>2023-04-19T08:07:13+00:00</time>
        <ele>2473.0</ele>
      </trkpt>
      <trkpt lat="45.16322" lon="6.814758">
        <time>2023-04-19T08:07:16+00:00</time>
        <ele>2474.0</ele>
      </trkpt>
      <trkpt lat="45.163177" lon="6.814763">
        <time>2023-04-19T08:07:23+00:00</time>
        <ele>2474.0</ele>
      </trkpt>
      <trkpt lat="45.163151" lon="6.814762">
        <time>2023-04-19T08:07:28+00:00</time>
        <ele>2475.0</ele>
      </trkpt>
      <trkpt lat="45.163089" lon="6.81477">
        <time>2023-04-19T08:07:36+00:00</time>
        <ele>2476.0</ele>
      </trkpt>
      <trkpt lat="45.163073" lon="6.81476">
        <time>2023-04-19T08:07:38+00:00</time>
        <ele>2476.0</ele>
      </trkpt>
      <trkpt lat="45.162855" lon="6.814796">
        <time>2023-04-19T08:08:08+00:00</time>
        <ele>2476.0</ele>
      </trkpt>
      <trkpt lat="45.162684" lon="6.814811">
        <time>2023-04-19T08:08:58+00:00</time>
        <ele>2478.0</ele>
      </trkpt>
      <trkpt lat="45.162641" lon="6.8148">
        <time>2023-04-19T08:09:04+00:00</time>
        <ele>2479.0</ele>
      </trkpt>
      <trkpt lat="45.162615" lon="6.814787">
        <time>2023-04-19T08:09:08+00:00</time>
        <ele>2479.0</ele>
      </trkpt>
      <trkpt lat="45.162598" lon="6.814783">
        <time>2023-04-19T08:09:10+00:00</time>
        <ele>2480.0</ele>
      </trkpt>
      <trkpt lat="45.162456" lon="6.814732">
        <time>2023-04-19T08:09:33+00:00</time>
        <ele>2482.0</ele>
      </trkpt>
      <trkpt lat="45.162436" lon="6.814724">
        <time>2023-04-19T08:09:36+00:00</time>
        <ele>2482.0</ele>
      </trkpt>
      <trkpt lat="45.162387" lon="6.814699">
        <time>2023-04-19T08:09:43+00:00</time>
        <ele>2483.0</ele>
      </trkpt>
      <trkpt lat="45.162368" lon="6.814701">
        <time>2023-04-19T08:09:46+00:00</time>
        <ele>2483.0</ele>
      </trkpt>
      <trkpt lat="45.162349" lon="6.814679">
        <time>2023-04-19T08:10:09+00:00</time>
        <ele>2484.0</ele>
      </trkpt>
      <trkpt lat="45.162282" lon="6.814657">
        <time>2023-04-19T08:10:18+00:00</time>
        <ele>2484.0</ele>
      </trkpt>
      <trkpt lat="45.162239" lon="6.814628">
        <time>2023-04-19T08:10:24+00:00</time>
        <ele>2485.0</ele>
      </trkpt>
      <trkpt lat="45.162221" lon="6.81463">
        <time>2023-04-19T08:10:27+00:00</time>
        <ele>2485.0</ele>
      </trkpt>
      <trkpt lat="45.162182" lon="6.814622">
        <time>2023-04-19T08:10:31+00:00</time>
        <ele>2485.0</ele>
      </trkpt>
      <trkpt lat="45.162009" lon="6.814505">
        <time>2023-04-19T08:11:18+00:00</time>
        <ele>2488.0</ele>
      </trkpt>
      <trkpt lat="45.161971" lon="6.814477">
        <time>2023-04-19T08:11:24+00:00</time>
        <ele>2489.0</ele>
      </trkpt>
      <trkpt lat="45.161769" lon="6.814405">
        <time>2023-04-19T08:11:53+00:00</time>
        <ele>2489.0</ele>
      </trkpt>
      <trkpt lat="45.16148" lon="6.814331">
        <time>2023-04-19T08:12:24+00:00</time>
        <ele>2491.0</ele>
      </trkpt>
      <trkpt lat="45.161356" lon="6.814329">
        <time>2023-04-19T08:12:38+00:00</time>
        <ele>2492.0</ele>
      </trkpt>
      <trkpt lat="45.161336" lon="6.81434">
        <time>2023-04-19T08:12:41+00:00</time>
        <ele>2492.0</ele>
      </trkpt>
      <trkpt lat="45.161317" lon="6.814345">
        <time>2023-04-19T08:12:43+00:00</time>
        <ele>2492.0</ele>
      </trkpt>
      <trkpt lat="45.161192" lon="6.81434">
        <time>2023-04-19T08:13:28+00:00</time>
        <ele>2493.0</ele>
      </trkpt>
      <trkpt lat="45.161167" lon="6.814345">
        <time>2023-04-19T08:13:31+00:00</time>
        <ele>2493.0</ele>
      </trkpt>
      <trkpt lat="45.16115" lon="6.814354">
        <time>2023-04-19T08:13:33+00:00</time>
        <ele>2493.0</ele>
      </trkpt>
      <trkpt lat="45.161078" lon="6.814393">
        <time>2023-04-19T08:13:40+00:00</time>
        <ele>2494.0</ele>
      </trkpt>
      <trkpt lat="45.161055" lon="6.814418">
        <time>2023-04-19T08:13:43+00:00</time>
        <ele>2494.0</ele>
      </trkpt>
      <trkpt lat="45.161039" lon="6.814429">
        <time>2023-04-19T08:13:46+00:00</time>
        <ele>2494.0</ele>
      </trkpt>
      <trkpt lat="45.160971" lon="6.814396">
        <time>2023-04-19T08:13:56+00:00</time>
        <ele>2496.0</ele>
      </trkpt>
      <trkpt lat="45.160901" lon="6.814391">
        <time>2023-04-19T08:14:07+00:00</time>
        <ele>2496.0</ele>
      </trkpt>
      <trkpt lat="45.160878" lon="6.814388">
        <time>2023-04-19T08:17:18+00:00</time>
        <ele>2497.0</ele>
      </trkpt>
      <trkpt lat="45.160855" lon="6.814396">
        <time>2023-04-19T08:18:26+00:00</time>
        <ele>2497.0</ele>
      </trkpt>
      <trkpt lat="45.160862" lon="6.814429">
        <time>2023-04-19T08:19:19+00:00</time>
        <ele>2496.0</ele>
      </trkpt>
      <trkpt lat="45.160854" lon="6.814416">
        <time>2023-04-19T08:19:46+00:00</time>
        <ele>2497.0</ele>
      </trkpt>
      <trkpt lat="45.160686" lon="6.814377">
        <time>2023-04-19T08:20:06+00:00</time>
        <ele>2500.0</ele>
      </trkpt>
      <trkpt lat="45.16067" lon="6.814368">
        <time>2023-04-19T08:20:08+00:00</time>
        <ele>2500.0</ele>
      </trkpt>
      <trkpt lat="45.160572" lon="6.814362">
        <time>2023-04-19T08:20:22+00:00</time>
        <ele>2501.0</ele>
      </trkpt>
      <trkpt lat="45.160548" lon="6.814356">
        <time>2023-04-19T08:20:25+00:00</time>
        <ele>2502.0</ele>
      </trkpt>
      <trkpt lat="45.160522" lon="6.81435">
        <time>2023-04-19T08:20:28+00:00</time>
        <ele>2502.0</ele>
      </trkpt>
      <trkpt lat="45.160324" lon="6.814336">
        <time>2023-04-19T08:21:28+00:00</time>
        <ele>2505.0</ele>
      </trkpt>
      <trkpt lat="45.1603" lon="6.814339">
        <time>2023-04-19T08:21:48+00:00</time>
        <ele>2505.0</ele>
      </trkpt>
      <trkpt lat="45.160241" lon="6.814324">
        <time>2023-04-19T08:21:58+00:00</time>
        <ele>2506.0</ele>
      </trkpt>
      <trkpt lat="45.160216" lon="6.81432">
        <time>2023-04-19T08:22:01+00:00</time>
        <ele>2506.0</ele>
      </trkpt>
      <trkpt lat="45.160177" lon="6.814323">
        <time>2023-04-19T08:22:06+00:00</time>
        <ele>2507.0</ele>
      </trkpt>
      <trkpt lat="45.160005" lon="6.81432">
        <time>2023-04-19T08:22:33+00:00</time>
        <ele>2510.0</ele>
      </trkpt>
      <trkpt lat="45.15992" lon="6.814347">
        <time>2023-04-19T08:22:45+00:00</time>
        <ele>2511.0</ele>
      </trkpt>
      <trkpt lat="45.159803" lon="6.814368">
        <time>2023-04-19T08:23:03+00:00</time>
        <ele>2512.0</ele>
      </trkpt>
      <trkpt lat="45.159713" lon="6.814404">
        <time>2023-04-19T08:23:14+00:00</time>
        <ele>2512.0</ele>
      </trkpt>
      <trkpt lat="45.159618" lon="6.814406">
        <time>2023-04-19T08:24:01+00:00</time>
        <ele>2513.0</ele>
      </trkpt>
      <trkpt lat="45.159597" lon="6.814398">
        <time>2023-04-19T08:24:04+00:00</time>
        <ele>2513.0</ele>
      </trkpt>
      <trkpt lat="45.159572" lon="6.814395">
        <time>2023-04-19T08:24:08+00:00</time>
        <ele>2514.0</ele>
      </trkpt>
      <trkpt lat="45.159555" lon="6.814371">
        <time>2023-04-19T08:24:11+00:00</time>
        <ele>2514.0</ele>
      </trkpt>
      <trkpt lat="45.159531" lon="6.814366">
        <time>2023-04-19T08:24:14+00:00</time>
        <ele>2515.0</ele>
      </trkpt>
      <trkpt lat="45.15948" lon="6.814331">
        <time>2023-04-19T08:24:23+00:00</time>
        <ele>2516.0</ele>
      </trkpt>
      <trkpt lat="45.159457" lon="6.814326">
        <time>2023-04-19T08:24:26+00:00</time>
        <ele>2516.0</ele>
      </trkpt>
      <trkpt lat="45.159436" lon="6.814304">
        <time>2023-04-19T08:24:31+00:00</time>
        <ele>2517.0</ele>
      </trkpt>
      <trkpt lat="45.159407" lon="6.814293">
        <time>2023-04-19T08:24:37+00:00</time>
        <ele>2518.0</ele>
      </trkpt>
      <trkpt lat="45.159382" lon="6.814266">
        <time>2023-04-19T08:24:40+00:00</time>
        <ele>2519.0</ele>
      </trkpt>
      <trkpt lat="45.15936" lon="6.814259">
        <time>2023-04-19T08:25:18+00:00</time>
        <ele>2519.0</ele>
      </trkpt>
      <trkpt lat="45.159352" lon="6.814236">
        <time>2023-04-19T08:25:38+00:00</time>
        <ele>2520.0</ele>
      </trkpt>
      <trkpt lat="45.159353" lon="6.814205">
        <time>2023-04-19T08:25:46+00:00</time>
        <ele>2520.0</ele>
      </trkpt>
      <trkpt lat="45.159347" lon="6.81416">
        <time>2023-04-19T08:25:58+00:00</time>
        <ele>2521.0</ele>
      </trkpt>
      <trkpt lat="45.159319" lon="6.814131">
        <time>2023-04-19T08:26:06+00:00</time>
        <ele>2522.0</ele>
      </trkpt>
      <trkpt lat="45.159278" lon="6.814119">
        <time>2023-04-19T08:26:13+00:00</time>
        <ele>2523.0</ele>
      </trkpt>
      <trkpt lat="45.159215" lon="6.814086">
        <time>2023-04-19T08:26:30+00:00</time>
        <ele>2525.0</ele>
      </trkpt>
      <trkpt lat="45.159202" lon="6.814057">
        <time>2023-04-19T08:26:35+00:00</time>
        <ele>2526.0</ele>
      </trkpt>
      <trkpt lat="45.159102" lon="6.814025">
        <time>2023-04-19T08:27:04+00:00</time>
        <ele>2529.0</ele>
      </trkpt>
      <trkpt lat="45.159079" lon="6.814007">
        <time>2023-04-19T08:27:13+00:00</time>
        <ele>2529.0</ele>
      </trkpt>
      <trkpt lat="45.159066" lon="6.813987">
        <time>2023-04-19T08:27:34+00:00</time>
        <ele>2530.0</ele>
      </trkpt>
      <trkpt lat="45.15905" lon="6.814008">
        <time>2023-04-19T08:27:42+00:00</time>
        <ele>2530.0</ele>
      </trkpt>
      <trkpt lat="45.159026" lon="6.813994">
        <time>2023-04-19T08:29:03+00:00</time>
        <ele>2531.0</ele>
      </trkpt>
      <trkpt lat="45.159009" lon="6.813988">
        <time>2023-04-19T08:29:08+00:00</time>
        <ele>2531.0</ele>
      </trkpt>
      <trkpt lat="45.158994" lon="6.813972">
        <time>2023-04-19T08:29:13+00:00</time>
        <ele>2532.0</ele>
      </trkpt>
      <trkpt lat="45.158983" lon="6.813948">
        <time>2023-04-19T08:29:18+00:00</time>
        <ele>2532.0</ele>
      </trkpt>
      <trkpt lat="45.158958" lon="6.813944">
        <time>2023-04-19T08:29:23+00:00</time>
        <ele>2533.0</ele>
      </trkpt>
      <trkpt lat="45.158939" lon="6.813929">
        <time>2023-04-19T08:29:29+00:00</time>
        <ele>2534.0</ele>
      </trkpt>
      <trkpt lat="45.158916" lon="6.813924">
        <time>2023-04-19T08:29:33+00:00</time>
        <ele>2534.0</ele>
      </trkpt>
      <trkpt lat="45.15887" lon="6.813903">
        <time>2023-04-19T08:29:48+00:00</time>
        <ele>2536.0</ele>
      </trkpt>
      <trkpt lat="45.15885" lon="6.813897">
        <time>2023-04-19T08:29:56+00:00</time>
        <ele>2536.0</ele>
      </trkpt>
      <trkpt lat="45.158828" lon="6.813892">
        <time>2023-04-19T08:30:01+00:00</time>
        <ele>2536.0</ele>
      </trkpt>
      <trkpt lat="45.15878" lon="6.813871">
        <time>2023-04-19T08:30:13+00:00</time>
        <ele>2537.0</ele>
      </trkpt>
      <trkpt lat="45.158774" lon="6.813849">
        <time>2023-04-19T08:30:55+00:00</time>
        <ele>2538.0</ele>
      </trkpt>
      <trkpt lat="45.158753" lon="6.81383">
        <time>2023-04-19T08:31:03+00:00</time>
        <ele>2539.0</ele>
      </trkpt>
      <trkpt lat="45.158732" lon="6.813818">
        <time>2023-04-19T08:31:09+00:00</time>
        <ele>2540.0</ele>
      </trkpt>
      <trkpt lat="45.158712" lon="6.813795">
        <time>2023-04-19T08:31:13+00:00</time>
        <ele>2541.0</ele>
      </trkpt>
      <trkpt lat="45.158655" lon="6.813745">
        <time>2023-04-19T08:31:33+00:00</time>
        <ele>2542.0</ele>
      </trkpt>
      <trkpt lat="45.158633" lon="6.813728">
        <time>2023-04-19T08:31:38+00:00</time>
        <ele>2543.0</ele>
      </trkpt>
      <trkpt lat="45.158605" lon="6.813711">
        <time>2023-04-19T08:31:43+00:00</time>
        <ele>2543.0</ele>
      </trkpt>
      <trkpt lat="45.158585" lon="6.81371">
        <time>2023-04-19T08:32:21+00:00</time>
        <ele>2543.0</ele>
      </trkpt>
      <trkpt lat="45.158575" lon="6.813679">
        <time>2023-04-19T08:32:30+00:00</time>
        <ele>2544.0</ele>
      </trkpt>
      <trkpt lat="45.158476" lon="6.813569">
        <time>2023-04-19T08:32:58+00:00</time>
        <ele>2550.0</ele>
      </trkpt>
      <trkpt lat="45.158462" lon="6.813551">
        <time>2023-04-19T08:33:38+00:00</time>
        <ele>2551.0</ele>
      </trkpt>
      <trkpt lat="45.158441" lon="6.813524">
        <time>2023-04-19T08:33:51+00:00</time>
        <ele>2552.0</ele>
      </trkpt>
      <trkpt lat="45.158422" lon="6.813508">
        <time>2023-04-19T08:33:55+00:00</time>
        <ele>2553.0</ele>
      </trkpt>
      <trkpt lat="45.158378" lon="6.813513">
        <time>2023-04-19T08:34:03+00:00</time>
        <ele>2554.0</ele>
      </trkpt>
      <trkpt lat="45.158361" lon="6.813504">
        <time>2023-04-19T08:34:06+00:00</time>
        <ele>2554.0</ele>
      </trkpt>
      <trkpt lat="45.158314" lon="6.813511">
        <time>2023-04-19T08:34:13+00:00</time>
        <ele>2555.0</ele>
      </trkpt>
      <trkpt lat="45.158291" lon="6.813515">
        <time>2023-04-19T08:34:18+00:00</time>
        <ele>2555.0</ele>
      </trkpt>
      <trkpt lat="45.158267" lon="6.813528">
        <time>2023-04-19T08:34:24+00:00</time>
        <ele>2556.0</ele>
      </trkpt>
      <trkpt lat="45.158247" lon="6.81352">
        <time>2023-04-19T08:34:29+00:00</time>
        <ele>2556.0</ele>
      </trkpt>
      <trkpt lat="45.1582" lon="6.813539">
        <time>2023-04-19T08:34:39+00:00</time>
        <ele>2557.0</ele>
      </trkpt>
      <trkpt lat="45.158177" lon="6.813539">
        <time>2023-04-19T08:35:49+00:00</time>
        <ele>2558.0</ele>
      </trkpt>
      <trkpt lat="45.158053" lon="6.813542">
        <time>2023-04-19T08:36:21+00:00</time>
        <ele>2561.0</ele>
      </trkpt>
      <trkpt lat="45.158032" lon="6.813529">
        <time>2023-04-19T08:36:36+00:00</time>
        <ele>2562.0</ele>
      </trkpt>
      <trkpt lat="45.15801" lon="6.813538">
        <time>2023-04-19T08:38:07+00:00</time>
        <ele>2562.0</ele>
      </trkpt>
      <trkpt lat="45.157992" lon="6.813527">
        <time>2023-04-19T08:38:13+00:00</time>
        <ele>2563.0</ele>
      </trkpt>
      <trkpt lat="45.157979" lon="6.81351">
        <time>2023-04-19T08:38:21+00:00</time>
        <ele>2564.0</ele>
      </trkpt>
      <trkpt lat="45.157961" lon="6.813519">
        <time>2023-04-19T08:38:24+00:00</time>
        <ele>2564.0</ele>
      </trkpt>
      <trkpt lat="45.157918" lon="6.813523">
        <time>2023-04-19T08:38:43+00:00</time>
        <ele>2566.0</ele>
      </trkpt>
      <trkpt lat="45.157938" lon="6.813513">
        <time>2023-04-19T08:41:09+00:00</time>
        <ele>2565.0</ele>
      </trkpt>
      <trkpt lat="45.157961" lon="6.813441">
        <time>2023-04-19T08:41:26+00:00</time>
        <ele>2567.0</ele>
      </trkpt>
      <trkpt lat="45.157965" lon="6.813412">
        <time>2023-04-19T08:41:32+00:00</time>
        <ele>2568.0</ele>
      </trkpt>
      <trkpt lat="45.157977" lon="6.813375">
        <time>2023-04-19T08:41:38+00:00</time>
        <ele>2569.0</ele>
      </trkpt>
      <trkpt lat="45.157989" lon="6.813339">
        <time>2023-04-19T08:41:47+00:00</time>
        <ele>2571.0</ele>
      </trkpt>
      <trkpt lat="45.157986" lon="6.813318">
        <time>2023-04-19T08:42:38+00:00</time>
        <ele>2571.0</ele>
      </trkpt>
      <trkpt lat="45.157963" lon="6.813326">
        <time>2023-04-19T08:42:44+00:00</time>
        <ele>2572.0</ele>
      </trkpt>
      <trkpt lat="45.15794" lon="6.813317">
        <time>2023-04-19T08:42:50+00:00</time>
        <ele>2573.0</ele>
      </trkpt>
      <trkpt lat="45.157916" lon="6.813321">
        <time>2023-04-19T08:42:58+00:00</time>
        <ele>2574.0</ele>
      </trkpt>
      <trkpt lat="45.157889" lon="6.813286">
        <time>2023-04-19T08:43:46+00:00</time>
        <ele>2577.0</ele>
      </trkpt>
      <trkpt lat="45.157899" lon="6.813245">
        <time>2023-04-19T08:44:04+00:00</time>
        <ele>2579.0</ele>
      </trkpt>
      <trkpt lat="45.157924" lon="6.813107">
        <time>2023-04-19T08:44:41+00:00</time>
        <ele>2583.0</ele>
      </trkpt>
      <trkpt lat="45.157913" lon="6.813081">
        <time>2023-04-19T08:45:39+00:00</time>
        <ele>2585.0</ele>
      </trkpt>
      <trkpt lat="45.157857" lon="6.813085">
        <time>2023-04-19T08:46:02+00:00</time>
        <ele>2589.0</ele>
      </trkpt>
      <trkpt lat="45.157832" lon="6.813094">
        <time>2023-04-19T08:46:08+00:00</time>
        <ele>2591.0</ele>
      </trkpt>
      <trkpt lat="45.157812" lon="6.813093">
        <time>2023-04-19T08:46:42+00:00</time>
        <ele>2592.0</ele>
      </trkpt>
      <trkpt lat="45.157816" lon="6.813058">
        <time>2023-04-19T08:46:48+00:00</time>
        <ele>2593.0</ele>
      </trkpt>
      <trkpt lat="45.157806" lon="6.812982">
        <time>2023-04-19T08:47:02+00:00</time>
        <ele>2597.0</ele>
      </trkpt>
      <trkpt lat="45.157812" lon="6.812937">
        <time>2023-04-19T08:47:12+00:00</time>
        <ele>2599.0</ele>
      </trkpt>
      <trkpt lat="45.157845" lon="6.812841">
        <time>2023-04-19T08:47:40+00:00</time>
        <ele>2600.0</ele>
      </trkpt>
      <trkpt lat="45.157874" lon="6.812806">
        <time>2023-04-19T08:47:50+00:00</time>
        <ele>2600.0</ele>
      </trkpt>
      <trkpt lat="45.157877" lon="6.812788">
        <time>2023-04-19T08:49:04+00:00</time>
        <ele>2601.0</ele>
      </trkpt>
      <trkpt lat="45.157853" lon="6.812782">
        <time>2023-04-19T08:49:11+00:00</time>
        <ele>2603.0</ele>
      </trkpt>
      <trkpt lat="45.157807" lon="6.812798">
        <time>2023-04-19T08:49:24+00:00</time>
        <ele>2605.0</ele>
      </trkpt>
      <trkpt lat="45.157783" lon="6.812801">
        <time>2023-04-19T08:49:34+00:00</time>
        <ele>2606.0</ele>
      </trkpt>
      <trkpt lat="45.157758" lon="6.812789">
        <time>2023-04-19T08:50:21+00:00</time>
        <ele>2608.0</ele>
      </trkpt>
      <trkpt lat="45.157772" lon="6.812748">
        <time>2023-04-19T08:50:27+00:00</time>
        <ele>2608.0</ele>
      </trkpt>
      <trkpt lat="45.157792" lon="6.812718">
        <time>2023-04-19T08:50:37+00:00</time>
        <ele>2609.0</ele>
      </trkpt>
      <trkpt lat="45.157781" lon="6.81269">
        <time>2023-04-19T08:51:59+00:00</time>
        <ele>2610.0</ele>
      </trkpt>
      <trkpt lat="45.157713" lon="6.812695">
        <time>2023-04-19T08:52:19+00:00</time>
        <ele>2614.0</ele>
      </trkpt>
      <trkpt lat="45.15767" lon="6.812711">
        <time>2023-04-19T08:53:09+00:00</time>
        <ele>2617.0</ele>
      </trkpt>
      <trkpt lat="45.157644" lon="6.812733">
        <time>2023-04-19T08:53:19+00:00</time>
        <ele>2618.0</ele>
      </trkpt>
      <trkpt lat="45.157619" lon="6.812746">
        <time>2023-04-19T08:53:26+00:00</time>
        <ele>2620.0</ele>
      </trkpt>
      <trkpt lat="45.157589" lon="6.812751">
        <time>2023-04-19T08:53:50+00:00</time>
        <ele>2623.0</ele>
      </trkpt>
      <trkpt lat="45.157583" lon="6.812706">
        <time>2023-04-19T08:54:02+00:00</time>
        <ele>2623.0</ele>
      </trkpt>
      <trkpt lat="45.157581" lon="6.812671">
        <time>2023-04-19T08:54:10+00:00</time>
        <ele>2623.0</ele>
      </trkpt>
      <trkpt lat="45.157562" lon="6.81268">
        <time>2023-04-19T08:54:39+00:00</time>
        <ele>2625.0</ele>
      </trkpt>
      <trkpt lat="45.15754" lon="6.812688">
        <time>2023-04-19T08:54:44+00:00</time>
        <ele>2627.0</ele>
      </trkpt>
      <trkpt lat="45.157491" lon="6.812699">
        <time>2023-04-19T08:54:55+00:00</time>
        <ele>2633.0</ele>
      </trkpt>
      <trkpt lat="45.157485" lon="6.812668">
        <time>2023-04-19T08:55:00+00:00</time>
        <ele>2633.0</ele>
      </trkpt>
      <trkpt lat="45.157464" lon="6.812626">
        <time>2023-04-19T08:55:17+00:00</time>
        <ele>2635.0</ele>
      </trkpt>
      <trkpt lat="45.157441" lon="6.812623">
        <time>2023-04-19T08:55:20+00:00</time>
        <ele>2637.0</ele>
      </trkpt>
      <trkpt lat="45.157391" lon="6.812618">
        <time>2023-04-19T08:55:34+00:00</time>
        <ele>2642.0</ele>
      </trkpt>
      <trkpt lat="45.157366" lon="6.812634">
        <time>2023-04-19T08:56:19+00:00</time>
        <ele>2645.0</ele>
      </trkpt>
      <trkpt lat="45.157347" lon="6.812607">
        <time>2023-04-19T08:56:37+00:00</time>
        <ele>2646.0</ele>
      </trkpt>
      <trkpt lat="45.157277" lon="6.812542">
        <time>2023-04-19T08:57:02+00:00</time>
        <ele>2652.0</ele>
      </trkpt>
      <trkpt lat="45.157251" lon="6.812519">
        <time>2023-04-19T08:57:09+00:00</time>
        <ele>2654.0</ele>
      </trkpt>
      <trkpt lat="45.157226" lon="6.812523">
        <time>2023-04-19T08:57:46+00:00</time>
        <ele>2657.0</ele>
      </trkpt>
      <trkpt lat="45.157214" lon="6.812497">
        <time>2023-04-19T08:57:55+00:00</time>
        <ele>2657.0</ele>
      </trkpt>
      <trkpt lat="45.157182" lon="6.812464">
        <time>2023-04-19T08:58:04+00:00</time>
        <ele>2658.0</ele>
      </trkpt>
      <trkpt lat="45.15717" lon="6.812434">
        <time>2023-04-19T08:58:12+00:00</time>
        <ele>2658.0</ele>
      </trkpt>
      <trkpt lat="45.157141" lon="6.81242">
        <time>2023-04-19T08:58:19+00:00</time>
        <ele>2659.0</ele>
      </trkpt>
      <trkpt lat="45.157115" lon="6.812412">
        <time>2023-04-19T08:58:27+00:00</time>
        <ele>2661.0</ele>
      </trkpt>
      <trkpt lat="45.157115" lon="6.812378">
        <time>2023-04-19T08:58:35+00:00</time>
        <ele>2660.0</ele>
      </trkpt>
      <trkpt lat="45.157112" lon="6.812337">
        <time>2023-04-19T08:58:44+00:00</time>
        <ele>2658.0</ele>
      </trkpt>
      <trkpt lat="45.157085" lon="6.812314">
        <time>2023-04-19T08:59:45+00:00</time>
        <ele>2660.0</ele>
      </trkpt>
      <trkpt lat="45.157062" lon="6.812269">
        <time>2023-04-19T09:00:00+00:00</time>
        <ele>2660.0</ele>
      </trkpt>
      <trkpt lat="45.157069" lon="6.812227">
        <time>2023-04-19T09:00:10+00:00</time>
        <ele>2658.0</ele>
      </trkpt>
      <trkpt lat="45.157064" lon="6.812187">
        <time>2023-04-19T09:00:22+00:00</time>
        <ele>2657.0</ele>
      </trkpt>
      <trkpt lat="45.157052" lon="6.812144">
        <time>2023-04-19T09:00:31+00:00</time>
        <ele>2656.0</ele>
      </trkpt>
      <trkpt lat="45.157045" lon="6.812108">
        <time>2023-04-19T09:00:37+00:00</time>
        <ele>2655.0</ele>
      </trkpt>
      <trkpt lat="45.157017" lon="6.812098">
        <time>2023-04-19T09:00:44+00:00</time>
        <ele>2656.0</ele>
      </trkpt>
      <trkpt lat="45.157002" lon="6.812069">
        <time>2023-04-19T09:00:49+00:00</time>
        <ele>2656.0</ele>
      </trkpt>
      <trkpt lat="45.156982" lon="6.812047">
        <time>2023-04-19T09:00:57+00:00</time>
        <ele>2656.0</ele>
      </trkpt>
      <trkpt lat="45.156963" lon="6.812033">
        <time>2023-04-19T09:01:02+00:00</time>
        <ele>2657.0</ele>
      </trkpt>
      <trkpt lat="45.156952" lon="6.812006">
        <time>2023-04-19T09:01:06+00:00</time>
        <ele>2657.0</ele>
      </trkpt>
      <trkpt lat="45.156931" lon="6.811997">
        <time>2023-04-19T09:01:12+00:00</time>
        <ele>2658.0</ele>
      </trkpt>
      <trkpt lat="45.156919" lon="6.811965">
        <time>2023-04-19T09:02:30+00:00</time>
        <ele>2657.0</ele>
      </trkpt>
      <trkpt lat="45.156906" lon="6.811944">
        <time>2023-04-19T09:02:34+00:00</time>
        <ele>2657.0</ele>
      </trkpt>
      <trkpt lat="45.156891" lon="6.811917">
        <time>2023-04-19T09:02:40+00:00</time>
        <ele>2657.0</ele>
      </trkpt>
      <trkpt lat="45.156867" lon="6.811897">
        <time>2023-04-19T09:02:47+00:00</time>
        <ele>2658.0</ele>
      </trkpt>
      <trkpt lat="45.156849" lon="6.811883">
        <time>2023-04-19T09:02:52+00:00</time>
        <ele>2658.0</ele>
      </trkpt>
      <trkpt lat="45.156827" lon="6.811867">
        <time>2023-04-19T09:02:59+00:00</time>
        <ele>2659.0</ele>
      </trkpt>
      <trkpt lat="45.156808" lon="6.81184">
        <time>2023-04-19T09:03:05+00:00</time>
        <ele>2658.0</ele>
      </trkpt>
      <trkpt lat="45.156767" lon="6.811812">
        <time>2023-04-19T09:03:14+00:00</time>
        <ele>2658.0</ele>
      </trkpt>
      <trkpt lat="45.15676" lon="6.811797">
        <time>2023-04-19T09:05:40+00:00</time>
        <ele>2658.0</ele>
      </trkpt>
      <trkpt lat="45.156737" lon="6.811788">
        <time>2023-04-19T09:06:34+00:00</time>
        <ele>2659.0</ele>
      </trkpt>
      <trkpt lat="45.156733" lon="6.811744">
        <time>2023-04-19T09:06:44+00:00</time>
        <ele>2658.0</ele>
      </trkpt>
      <trkpt lat="45.156676" lon="6.811665">
        <time>2023-04-19T09:07:02+00:00</time>
        <ele>2659.0</ele>
      </trkpt>
      <trkpt lat="45.156622" lon="6.8116">
        <time>2023-04-19T09:07:20+00:00</time>
        <ele>2660.0</ele>
      </trkpt>
      <trkpt lat="45.156601" lon="6.811546">
        <time>2023-04-19T09:07:32+00:00</time>
        <ele>2661.0</ele>
      </trkpt>
      <trkpt lat="45.156529" lon="6.81146">
        <time>2023-04-19T09:07:56+00:00</time>
        <ele>2663.0</ele>
      </trkpt>
      <trkpt lat="45.156508" lon="6.811431">
        <time>2023-04-19T09:08:04+00:00</time>
        <ele>2664.0</ele>
      </trkpt>
      <trkpt lat="45.156466" lon="6.811383">
        <time>2023-04-19T09:08:20+00:00</time>
        <ele>2665.0</ele>
      </trkpt>
      <trkpt lat="45.156446" lon="6.81135">
        <time>2023-04-19T09:08:27+00:00</time>
        <ele>2666.0</ele>
      </trkpt>
      <trkpt lat="45.156399" lon="6.811282">
        <time>2023-04-19T09:08:45+00:00</time>
        <ele>2668.0</ele>
      </trkpt>
      <trkpt lat="45.156308" lon="6.81119">
        <time>2023-04-19T09:09:18+00:00</time>
        <ele>2671.0</ele>
      </trkpt>
      <trkpt lat="45.156287" lon="6.811173">
        <time>2023-04-19T09:09:24+00:00</time>
        <ele>2671.0</ele>
      </trkpt>
      <trkpt lat="45.156267" lon="6.81114">
        <time>2023-04-19T09:09:34+00:00</time>
        <ele>2672.0</ele>
      </trkpt>
      <trkpt lat="45.156252" lon="6.811128">
        <time>2023-04-19T09:09:45+00:00</time>
        <ele>2673.0</ele>
      </trkpt>
      <trkpt lat="45.156232" lon="6.8111">
        <time>2023-04-19T09:10:19+00:00</time>
        <ele>2673.0</ele>
      </trkpt>
      <trkpt lat="45.156209" lon="6.81108">
        <time>2023-04-19T09:10:24+00:00</time>
        <ele>2674.0</ele>
      </trkpt>
      <trkpt lat="45.156193" lon="6.811003">
        <time>2023-04-19T09:10:37+00:00</time>
        <ele>2674.0</ele>
      </trkpt>
      <trkpt lat="45.156197" lon="6.810967">
        <time>2023-04-19T09:10:44+00:00</time>
        <ele>2674.0</ele>
      </trkpt>
      <trkpt lat="45.156168" lon="6.810908">
        <time>2023-04-19T09:10:56+00:00</time>
        <ele>2675.0</ele>
      </trkpt>
      <trkpt lat="45.156145" lon="6.810894">
        <time>2023-04-19T09:11:01+00:00</time>
        <ele>2676.0</ele>
      </trkpt>
      <trkpt lat="45.156129" lon="6.810869">
        <time>2023-04-19T09:11:07+00:00</time>
        <ele>2676.0</ele>
      </trkpt>
      <trkpt lat="45.156112" lon="6.810851">
        <time>2023-04-19T09:12:09+00:00</time>
        <ele>2677.0</ele>
      </trkpt>
      <trkpt lat="45.156096" lon="6.810839">
        <time>2023-04-19T09:12:14+00:00</time>
        <ele>2677.0</ele>
      </trkpt>
      <trkpt lat="45.156078" lon="6.810819">
        <time>2023-04-19T09:12:21+00:00</time>
        <ele>2678.0</ele>
      </trkpt>
      <trkpt lat="45.156017" lon="6.810763">
        <time>2023-04-19T09:12:40+00:00</time>
        <ele>2680.0</ele>
      </trkpt>
      <trkpt lat="45.155998" lon="6.810742">
        <time>2023-04-19T09:12:49+00:00</time>
        <ele>2681.0</ele>
      </trkpt>
      <trkpt lat="45.155995" lon="6.810714">
        <time>2023-04-19T09:12:54+00:00</time>
        <ele>2681.0</ele>
      </trkpt>
      <trkpt lat="45.155976" lon="6.810714">
        <time>2023-04-19T09:12:57+00:00</time>
        <ele>2681.0</ele>
      </trkpt>
      <trkpt lat="45.155941" lon="6.81068">
        <time>2023-04-19T09:13:07+00:00</time>
        <ele>2682.0</ele>
      </trkpt>
      <trkpt lat="45.155904" lon="6.810648">
        <time>2023-04-19T09:13:19+00:00</time>
        <ele>2683.0</ele>
      </trkpt>
      <trkpt lat="45.15588" lon="6.810656">
        <time>2023-04-19T09:14:11+00:00</time>
        <ele>2683.0</ele>
      </trkpt>
      <trkpt lat="45.155858" lon="6.810647">
        <time>2023-04-19T09:15:24+00:00</time>
        <ele>2684.0</ele>
      </trkpt>
      <trkpt lat="45.155837" lon="6.810638">
        <time>2023-04-19T09:15:28+00:00</time>
        <ele>2684.0</ele>
      </trkpt>
      <trkpt lat="45.155808" lon="6.810643">
        <time>2023-04-19T09:15:34+00:00</time>
        <ele>2685.0</ele>
      </trkpt>
      <trkpt lat="45.155789" lon="6.810639">
        <time>2023-04-19T09:15:39+00:00</time>
        <ele>2685.0</ele>
      </trkpt>
      <trkpt lat="45.155782" lon="6.810623">
        <time>2023-04-19T09:15:54+00:00</time>
        <ele>2685.0</ele>
      </trkpt>
      <trkpt lat="45.155775" lon="6.810656">
        <time>2023-04-19T09:16:05+00:00</time>
        <ele>2685.0</ele>
      </trkpt>
      <trkpt lat="45.15575" lon="6.810664">
        <time>2023-04-19T09:16:08+00:00</time>
        <ele>2686.0</ele>
      </trkpt>
      <trkpt lat="45.155728" lon="6.810658">
        <time>2023-04-19T09:16:11+00:00</time>
        <ele>2686.0</ele>
      </trkpt>
      <trkpt lat="45.155682" lon="6.810676">
        <time>2023-04-19T09:16:17+00:00</time>
        <ele>2687.0</ele>
      </trkpt>
      <trkpt lat="45.155649" lon="6.81068">
        <time>2023-04-19T09:16:22+00:00</time>
        <ele>2688.0</ele>
      </trkpt>
      <trkpt lat="45.155602" lon="6.810685">
        <time>2023-04-19T09:16:29+00:00</time>
        <ele>2689.0</ele>
      </trkpt>
      <trkpt lat="45.155551" lon="6.810685">
        <time>2023-04-19T09:16:37+00:00</time>
        <ele>2690.0</ele>
      </trkpt>
      <trkpt lat="45.155533" lon="6.810674">
        <time>2023-04-19T09:16:40+00:00</time>
        <ele>2690.0</ele>
      </trkpt>
      <trkpt lat="45.155513" lon="6.81068">
        <time>2023-04-19T09:16:44+00:00</time>
        <ele>2691.0</ele>
      </trkpt>
      <trkpt lat="45.155389" lon="6.810665">
        <time>2023-04-19T09:17:02+00:00</time>
        <ele>2691.0</ele>
      </trkpt>
      <trkpt lat="45.155286" lon="6.810681">
        <time>2023-04-19T09:17:56+00:00</time>
        <ele>2690.0</ele>
      </trkpt>
      <trkpt lat="45.155264" lon="6.810696">
        <time>2023-04-19T09:17:58+00:00</time>
        <ele>2690.0</ele>
      </trkpt>
      <trkpt lat="45.155235" lon="6.810721">
        <time>2023-04-19T09:18:01+00:00</time>
        <ele>2691.0</ele>
      </trkpt>
      <trkpt lat="45.155204" lon="6.810752">
        <time>2023-04-19T09:18:05+00:00</time>
        <ele>2691.0</ele>
      </trkpt>
      <trkpt lat="45.155183" lon="6.810765">
        <time>2023-04-19T09:18:45+00:00</time>
        <ele>2691.0</ele>
      </trkpt>
      <trkpt lat="45.155075" lon="6.810856">
        <time>2023-04-19T09:19:04+00:00</time>
        <ele>2692.0</ele>
      </trkpt>
      <trkpt lat="45.155011" lon="6.810906">
        <time>2023-04-19T09:19:15+00:00</time>
        <ele>2693.0</ele>
      </trkpt>
      <trkpt lat="45.154962" lon="6.810934">
        <time>2023-04-19T09:19:24+00:00</time>
        <ele>2694.0</ele>
      </trkpt>
      <trkpt lat="45.154938" lon="6.810942">
        <time>2023-04-19T09:19:29+00:00</time>
        <ele>2694.0</ele>
      </trkpt>
      <trkpt lat="45.154886" lon="6.81096">
        <time>2023-04-19T09:19:38+00:00</time>
        <ele>2695.0</ele>
      </trkpt>
      <trkpt lat="45.154871" lon="6.810982">
        <time>2023-04-19T09:20:03+00:00</time>
        <ele>2696.0</ele>
      </trkpt>
      <trkpt lat="45.154866" lon="6.811007">
        <time>2023-04-19T09:20:22+00:00</time>
        <ele>2696.0</ele>
      </trkpt>
      <trkpt lat="45.154809" lon="6.811029">
        <time>2023-04-19T09:20:30+00:00</time>
        <ele>2698.0</ele>
      </trkpt>
      <trkpt lat="45.154783" lon="6.811053">
        <time>2023-04-19T09:20:36+00:00</time>
        <ele>2700.0</ele>
      </trkpt>
      <trkpt lat="45.154766" lon="6.811069">
        <time>2023-04-19T09:20:40+00:00</time>
        <ele>2700.0</ele>
      </trkpt>
      <trkpt lat="45.154731" lon="6.81111">
        <time>2023-04-19T09:21:17+00:00</time>
        <ele>2702.0</ele>
      </trkpt>
      <trkpt lat="45.154708" lon="6.811142">
        <time>2023-04-19T09:21:25+00:00</time>
        <ele>2703.0</ele>
      </trkpt>
      <trkpt lat="45.154687" lon="6.811168">
        <time>2023-04-19T09:21:30+00:00</time>
        <ele>2703.0</ele>
      </trkpt>
      <trkpt lat="45.154668" lon="6.81119">
        <time>2023-04-19T09:21:38+00:00</time>
        <ele>2704.0</ele>
      </trkpt>
      <trkpt lat="45.154647" lon="6.811212">
        <time>2023-04-19T09:21:46+00:00</time>
        <ele>2704.0</ele>
      </trkpt>
      <trkpt lat="45.154601" lon="6.811238">
        <time>2023-04-19T09:21:56+00:00</time>
        <ele>2705.0</ele>
      </trkpt>
      <trkpt lat="45.154558" lon="6.811282">
        <time>2023-04-19T09:22:31+00:00</time>
        <ele>2706.0</ele>
      </trkpt>
      <trkpt lat="45.154536" lon="6.811297">
        <time>2023-04-19T09:22:35+00:00</time>
        <ele>2706.0</ele>
      </trkpt>
      <trkpt lat="45.154514" lon="6.811319">
        <time>2023-04-19T09:22:40+00:00</time>
        <ele>2707.0</ele>
      </trkpt>
      <trkpt lat="45.154456" lon="6.811355">
        <time>2023-04-19T09:22:53+00:00</time>
        <ele>2707.0</ele>
      </trkpt>
      <trkpt lat="45.154427" lon="6.811367">
        <time>2023-04-19T09:22:58+00:00</time>
        <ele>2708.0</ele>
      </trkpt>
      <trkpt lat="45.154382" lon="6.811396">
        <time>2023-04-19T09:23:11+00:00</time>
        <ele>2709.0</ele>
      </trkpt>
      <trkpt lat="45.154329" lon="6.811415">
        <time>2023-04-19T09:23:21+00:00</time>
        <ele>2709.0</ele>
      </trkpt>
      <trkpt lat="45.154312" lon="6.81143">
        <time>2023-04-19T09:23:28+00:00</time>
        <ele>2710.0</ele>
      </trkpt>
      <trkpt lat="45.154291" lon="6.811447">
        <time>2023-04-19T09:24:07+00:00</time>
        <ele>2710.0</ele>
      </trkpt>
      <trkpt lat="45.154249" lon="6.811468">
        <time>2023-04-19T09:24:13+00:00</time>
        <ele>2710.0</ele>
      </trkpt>
      <trkpt lat="45.154215" lon="6.81151">
        <time>2023-04-19T09:24:19+00:00</time>
        <ele>2711.0</ele>
      </trkpt>
      <trkpt lat="45.15415" lon="6.811533">
        <time>2023-04-19T09:24:28+00:00</time>
        <ele>2712.0</ele>
      </trkpt>
      <trkpt lat="45.154102" lon="6.811564">
        <time>2023-04-19T09:24:35+00:00</time>
        <ele>2713.0</ele>
      </trkpt>
      <trkpt lat="45.154074" lon="6.811576">
        <time>2023-04-19T09:24:40+00:00</time>
        <ele>2714.0</ele>
      </trkpt>
      <trkpt lat="45.154048" lon="6.811589">
        <time>2023-04-19T09:24:44+00:00</time>
        <ele>2714.0</ele>
      </trkpt>
      <trkpt lat="45.154025" lon="6.811599">
        <time>2023-04-19T09:24:48+00:00</time>
        <ele>2715.0</ele>
      </trkpt>
      <trkpt lat="45.154004" lon="6.811601">
        <time>2023-04-19T09:24:52+00:00</time>
        <ele>2716.0</ele>
      </trkpt>
      <trkpt lat="45.153976" lon="6.811618">
        <time>2023-04-19T09:25:47+00:00</time>
        <ele>2716.0</ele>
      </trkpt>
      <trkpt lat="45.153951" lon="6.811631">
        <time>2023-04-19T09:25:51+00:00</time>
        <ele>2717.0</ele>
      </trkpt>
      <trkpt lat="45.153921" lon="6.811633">
        <time>2023-04-19T09:26:00+00:00</time>
        <ele>2717.0</ele>
      </trkpt>
      <trkpt lat="45.1539" lon="6.811644">
        <time>2023-04-19T09:26:03+00:00</time>
        <ele>2718.0</ele>
      </trkpt>
      <trkpt lat="45.153844" lon="6.81167">
        <time>2023-04-19T09:26:15+00:00</time>
        <ele>2719.0</ele>
      </trkpt>
      <trkpt lat="45.153815" lon="6.811679">
        <time>2023-04-19T09:26:20+00:00</time>
        <ele>2719.0</ele>
      </trkpt>
      <trkpt lat="45.153797" lon="6.811676">
        <time>2023-04-19T09:26:25+00:00</time>
        <ele>2719.0</ele>
      </trkpt>
      <trkpt lat="45.153662" lon="6.811725">
        <time>2023-04-19T09:26:51+00:00</time>
        <ele>2721.0</ele>
      </trkpt>
      <trkpt lat="45.153653" lon="6.811749">
        <time>2023-04-19T09:27:40+00:00</time>
        <ele>2721.0</ele>
      </trkpt>
      <trkpt lat="45.153464" lon="6.811866">
        <time>2023-04-19T09:28:08+00:00</time>
        <ele>2722.0</ele>
      </trkpt>
      <trkpt lat="45.153396" lon="6.811891">
        <time>2023-04-19T09:28:15+00:00</time>
        <ele>2722.0</ele>
      </trkpt>
      <trkpt lat="45.153375" lon="6.811883">
        <time>2023-04-19T09:28:18+00:00</time>
        <ele>2722.0</ele>
      </trkpt>
      <trkpt lat="45.153357" lon="6.81186">
        <time>2023-04-19T09:28:21+00:00</time>
        <ele>2722.0</ele>
      </trkpt>
      <trkpt lat="45.153181" lon="6.811976">
        <time>2023-04-19T09:28:45+00:00</time>
        <ele>2724.0</ele>
      </trkpt>
      <trkpt lat="45.153158" lon="6.812014">
        <time>2023-04-19T09:28:48+00:00</time>
        <ele>2724.0</ele>
      </trkpt>
      <trkpt lat="45.153144" lon="6.81205">
        <time>2023-04-19T09:28:50+00:00</time>
        <ele>2724.0</ele>
      </trkpt>
      <trkpt lat="45.153123" lon="6.81206">
        <time>2023-04-19T09:28:54+00:00</time>
        <ele>2724.0</ele>
      </trkpt>
      <trkpt lat="45.153101" lon="6.812061">
        <time>2023-04-19T09:28:57+00:00</time>
        <ele>2724.0</ele>
      </trkpt>
      <trkpt lat="45.153081" lon="6.812061">
        <time>2023-04-19T09:29:33+00:00</time>
        <ele>2725.0</ele>
      </trkpt>
      <trkpt lat="45.153071" lon="6.812087">
        <time>2023-04-19T09:31:22+00:00</time>
        <ele>2725.0</ele>
      </trkpt>
      <trkpt lat="45.153055" lon="6.812107">
        <time>2023-04-19T09:31:24+00:00</time>
        <ele>2725.0</ele>
      </trkpt>
      <trkpt lat="45.153008" lon="6.812125">
        <time>2023-04-19T09:31:31+00:00</time>
        <ele>2725.0</ele>
      </trkpt>
      <trkpt lat="45.152949" lon="6.812165">
        <time>2023-04-19T09:31:40+00:00</time>
        <ele>2725.0</ele>
      </trkpt>
      <trkpt lat="45.152925" lon="6.81217">
        <time>2023-04-19T09:31:44+00:00</time>
        <ele>2726.0</ele>
      </trkpt>
      <trkpt lat="45.152825" lon="6.812234">
        <time>2023-04-19T09:31:58+00:00</time>
        <ele>2727.0</ele>
      </trkpt>
      <trkpt lat="45.152806" lon="6.812231">
        <time>2023-04-19T09:32:01+00:00</time>
        <ele>2727.0</ele>
      </trkpt>
      <trkpt lat="45.152743" lon="6.812256">
        <time>2023-04-19T09:32:11+00:00</time>
        <ele>2728.0</ele>
      </trkpt>
      <trkpt lat="45.152725" lon="6.812268">
        <time>2023-04-19T09:32:15+00:00</time>
        <ele>2729.0</ele>
      </trkpt>
      <trkpt lat="45.152675" lon="6.812283">
        <time>2023-04-19T09:32:23+00:00</time>
        <ele>2730.0</ele>
      </trkpt>
      <trkpt lat="45.15266" lon="6.812307">
        <time>2023-04-19T09:32:26+00:00</time>
        <ele>2730.0</ele>
      </trkpt>
      <trkpt lat="45.152642" lon="6.812316">
        <time>2023-04-19T09:33:16+00:00</time>
        <ele>2730.0</ele>
      </trkpt>
      <trkpt lat="45.15259" lon="6.812332">
        <time>2023-04-19T09:33:26+00:00</time>
        <ele>2732.0</ele>
      </trkpt>
      <trkpt lat="45.152565" lon="6.81237">
        <time>2023-04-19T09:33:31+00:00</time>
        <ele>2732.0</ele>
      </trkpt>
      <trkpt lat="45.152427" lon="6.812458">
        <time>2023-04-19T09:33:55+00:00</time>
        <ele>2736.0</ele>
      </trkpt>
      <trkpt lat="45.152373" lon="6.812502">
        <time>2023-04-19T09:34:50+00:00</time>
        <ele>2738.0</ele>
      </trkpt>
      <trkpt lat="45.152354" lon="6.81252">
        <time>2023-04-19T09:34:57+00:00</time>
        <ele>2738.0</ele>
      </trkpt>
      <trkpt lat="45.152343" lon="6.812553">
        <time>2023-04-19T09:35:01+00:00</time>
        <ele>2738.0</ele>
      </trkpt>
      <trkpt lat="45.152321" lon="6.81257">
        <time>2023-04-19T09:35:10+00:00</time>
        <ele>2739.0</ele>
      </trkpt>
      <trkpt lat="45.152309" lon="6.812594">
        <time>2023-04-19T09:35:13+00:00</time>
        <ele>2739.0</ele>
      </trkpt>
      <trkpt lat="45.152259" lon="6.812622">
        <time>2023-04-19T09:35:23+00:00</time>
        <ele>2741.0</ele>
      </trkpt>
      <trkpt lat="45.15222" lon="6.812673">
        <time>2023-04-19T09:35:33+00:00</time>
        <ele>2742.0</ele>
      </trkpt>
      <trkpt lat="45.152168" lon="6.812712">
        <time>2023-04-19T09:36:27+00:00</time>
        <ele>2743.0</ele>
      </trkpt>
      <trkpt lat="45.152151" lon="6.812731">
        <time>2023-04-19T09:36:32+00:00</time>
        <ele>2743.0</ele>
      </trkpt>
      <trkpt lat="45.152102" lon="6.81276">
        <time>2023-04-19T09:36:46+00:00</time>
        <ele>2744.0</ele>
      </trkpt>
      <trkpt lat="45.152089" lon="6.812791">
        <time>2023-04-19T09:36:50+00:00</time>
        <ele>2744.0</ele>
      </trkpt>
      <trkpt lat="45.152074" lon="6.812811">
        <time>2023-04-19T09:36:55+00:00</time>
        <ele>2745.0</ele>
      </trkpt>
      <trkpt lat="45.152041" lon="6.812842">
        <time>2023-04-19T09:37:03+00:00</time>
        <ele>2745.0</ele>
      </trkpt>
      <trkpt lat="45.15201" lon="6.812884">
        <time>2023-04-19T09:37:11+00:00</time>
        <ele>2746.0</ele>
      </trkpt>
      <trkpt lat="45.151983" lon="6.812898">
        <time>2023-04-19T09:37:20+00:00</time>
        <ele>2747.0</ele>
      </trkpt>
      <trkpt lat="45.151967" lon="6.812923">
        <time>2023-04-19T09:37:59+00:00</time>
        <ele>2747.0</ele>
      </trkpt>
      <trkpt lat="45.151823" lon="6.813059">
        <time>2023-04-19T09:38:29+00:00</time>
        <ele>2748.0</ele>
      </trkpt>
      <trkpt lat="45.151779" lon="6.813082">
        <time>2023-04-19T09:38:37+00:00</time>
        <ele>2748.0</ele>
      </trkpt>
      <trkpt lat="45.151729" lon="6.813097">
        <time>2023-04-19T09:38:45+00:00</time>
        <ele>2749.0</ele>
      </trkpt>
      <trkpt lat="45.151711" lon="6.813113">
        <time>2023-04-19T09:40:21+00:00</time>
        <ele>2748.0</ele>
      </trkpt>
      <trkpt lat="45.151639" lon="6.813169">
        <time>2023-04-19T09:40:30+00:00</time>
        <ele>2748.0</ele>
      </trkpt>
      <trkpt lat="45.151544" lon="6.813326">
        <time>2023-04-19T09:40:37+00:00</time>
        <ele>2747.0</ele>
      </trkpt>
      <trkpt lat="45.151422" lon="6.81348">
        <time>2023-04-19T09:40:57+00:00</time>
        <ele>2744.0</ele>
      </trkpt>
      <trkpt lat="45.151374" lon="6.813507">
        <time>2023-04-19T09:41:02+00:00</time>
        <ele>2743.0</ele>
      </trkpt>
      <trkpt lat="45.151276" lon="6.813576">
        <time>2023-04-19T09:41:08+00:00</time>
        <ele>2741.0</ele>
      </trkpt>
      <trkpt lat="45.150927" lon="6.813686">
        <time>2023-04-19T09:41:50+00:00</time>
        <ele>2738.0</ele>
      </trkpt>
      <trkpt lat="45.150906" lon="6.813687">
        <time>2023-04-19T09:41:52+00:00</time>
        <ele>2738.0</ele>
      </trkpt>
      <trkpt lat="45.150864" lon="6.813731">
        <time>2023-04-19T09:42:00+00:00</time>
        <ele>2739.0</ele>
      </trkpt>
      <trkpt lat="45.150813" lon="6.813831">
        <time>2023-04-19T09:42:10+00:00</time>
        <ele>2739.0</ele>
      </trkpt>
      <trkpt lat="45.150786" lon="6.813947">
        <time>2023-04-19T09:42:20+00:00</time>
        <ele>2740.0</ele>
      </trkpt>
      <trkpt lat="45.15077" lon="6.813983">
        <time>2023-04-19T09:42:23+00:00</time>
        <ele>2741.0</ele>
      </trkpt>
      <trkpt lat="45.150768" lon="6.814011">
        <time>2023-04-19T09:42:25+00:00</time>
        <ele>2741.0</ele>
      </trkpt>
      <trkpt lat="45.150763" lon="6.814043">
        <time>2023-04-19T09:42:28+00:00</time>
        <ele>2741.0</ele>
      </trkpt>
      <trkpt lat="45.150737" lon="6.814171">
        <time>2023-04-19T09:42:41+00:00</time>
        <ele>2741.0</ele>
      </trkpt>
      <trkpt lat="45.150696" lon="6.81429">
        <time>2023-04-19T09:42:53+00:00</time>
        <ele>2741.0</ele>
      </trkpt>
      <trkpt lat="45.150674" lon="6.814351">
        <time>2023-04-19T09:42:58+00:00</time>
        <ele>2741.0</ele>
      </trkpt>
      <trkpt lat="45.150661" lon="6.814377">
        <time>2023-04-19T09:43:01+00:00</time>
        <ele>2741.0</ele>
      </trkpt>
      <trkpt lat="45.150658" lon="6.814403">
        <time>2023-04-19T09:43:12+00:00</time>
        <ele>2741.0</ele>
      </trkpt>
      <trkpt lat="45.150636" lon="6.814422">
        <time>2023-04-19T09:45:50+00:00</time>
        <ele>2741.0</ele>
      </trkpt>
      <trkpt lat="45.150617" lon="6.814439">
        <time>2023-04-19T09:45:55+00:00</time>
        <ele>2741.0</ele>
      </trkpt>
      <trkpt lat="45.150552" lon="6.814501">
        <time>2023-04-19T09:46:05+00:00</time>
        <ele>2741.0</ele>
      </trkpt>
      <trkpt lat="45.150533" lon="6.814534">
        <time>2023-04-19T09:46:09+00:00</time>
        <ele>2742.0</ele>
      </trkpt>
      <trkpt lat="45.150526" lon="6.81457">
        <time>2023-04-19T09:46:12+00:00</time>
        <ele>2742.0</ele>
      </trkpt>
      <trkpt lat="45.150458" lon="6.814698">
        <time>2023-04-19T09:46:25+00:00</time>
        <ele>2742.0</ele>
      </trkpt>
      <trkpt lat="45.150282" lon="6.814842">
        <time>2023-04-19T09:46:49+00:00</time>
        <ele>2746.0</ele>
      </trkpt>
      <trkpt lat="45.150265" lon="6.814853">
        <time>2023-04-19T09:46:56+00:00</time>
        <ele>2747.0</ele>
      </trkpt>
      <trkpt lat="45.150238" lon="6.814862">
        <time>2023-04-19T09:47:41+00:00</time>
        <ele>2747.0</ele>
      </trkpt>
      <trkpt lat="45.150152" lon="6.814967">
        <time>2023-04-19T09:48:04+00:00</time>
        <ele>2750.0</ele>
      </trkpt>
      <trkpt lat="45.150129" lon="6.814975">
        <time>2023-04-19T09:48:08+00:00</time>
        <ele>2751.0</ele>
      </trkpt>
      <trkpt lat="45.150112" lon="6.814984">
        <time>2023-04-19T09:48:43+00:00</time>
        <ele>2751.0</ele>
      </trkpt>
      <trkpt lat="45.150089" lon="6.81499">
        <time>2023-04-19T09:48:49+00:00</time>
        <ele>2752.0</ele>
      </trkpt>
      <trkpt lat="45.150067" lon="6.814988">
        <time>2023-04-19T09:48:55+00:00</time>
        <ele>2753.0</ele>
      </trkpt>
      <trkpt lat="45.149985" lon="6.815032">
        <time>2023-04-19T09:49:15+00:00</time>
        <ele>2756.0</ele>
      </trkpt>
      <trkpt lat="45.149969" lon="6.815045">
        <time>2023-04-19T09:49:21+00:00</time>
        <ele>2756.0</ele>
      </trkpt>
      <trkpt lat="45.149936" lon="6.815045">
        <time>2023-04-19T09:49:30+00:00</time>
        <ele>2758.0</ele>
      </trkpt>
      <trkpt lat="45.149919" lon="6.815036">
        <time>2023-04-19T09:49:34+00:00</time>
        <ele>2758.0</ele>
      </trkpt>
      <trkpt lat="45.149872" lon="6.815022">
        <time>2023-04-19T09:49:53+00:00</time>
        <ele>2760.0</ele>
      </trkpt>
      <trkpt lat="45.149875" lon="6.815055">
        <time>2023-04-19T09:50:49+00:00</time>
        <ele>2760.0</ele>
      </trkpt>
      <trkpt lat="45.149886" lon="6.815146">
        <time>2023-04-19T09:51:09+00:00</time>
        <ele>2762.0</ele>
      </trkpt>
      <trkpt lat="45.149891" lon="6.815181">
        <time>2023-04-19T09:51:15+00:00</time>
        <ele>2763.0</ele>
      </trkpt>
      <trkpt lat="45.149895" lon="6.815216">
        <time>2023-04-19T09:51:21+00:00</time>
        <ele>2763.0</ele>
      </trkpt>
      <trkpt lat="45.149894" lon="6.815252">
        <time>2023-04-19T09:51:27+00:00</time>
        <ele>2764.0</ele>
      </trkpt>
      <trkpt lat="45.149908" lon="6.815318">
        <time>2023-04-19T09:51:40+00:00</time>
        <ele>2765.0</ele>
      </trkpt>
      <trkpt lat="45.149899" lon="6.815356">
        <time>2023-04-19T09:51:47+00:00</time>
        <ele>2766.0</ele>
      </trkpt>
      <trkpt lat="45.149905" lon="6.815375">
        <time>2023-04-19T09:52:43+00:00</time>
        <ele>2766.0</ele>
      </trkpt>
      <trkpt lat="45.149883" lon="6.81538">
        <time>2023-04-19T09:52:52+00:00</time>
        <ele>2767.0</ele>
      </trkpt>
      <trkpt lat="45.149861" lon="6.81537">
        <time>2023-04-19T09:53:01+00:00</time>
        <ele>2768.0</ele>
      </trkpt>
      <trkpt lat="45.149842" lon="6.815376">
        <time>2023-04-19T09:53:07+00:00</time>
        <ele>2768.0</ele>
      </trkpt>
      <trkpt lat="45.149825" lon="6.815364">
        <time>2023-04-19T09:53:11+00:00</time>
        <ele>2769.0</ele>
      </trkpt>
      <trkpt lat="45.149803" lon="6.815374">
        <time>2023-04-19T09:53:16+00:00</time>
        <ele>2769.0</ele>
      </trkpt>
      <trkpt lat="45.149779" lon="6.815377">
        <time>2023-04-19T09:53:22+00:00</time>
        <ele>2770.0</ele>
      </trkpt>
      <trkpt lat="45.149771" lon="6.815334">
        <time>2023-04-19T09:53:25+00:00</time>
        <ele>2770.0</ele>
      </trkpt>
      <trkpt lat="45.149745" lon="6.815359">
        <time>2023-04-19T09:53:31+00:00</time>
        <ele>2771.0</ele>
      </trkpt>
      <trkpt lat="45.149711" lon="6.815402">
        <time>2023-04-19T09:53:42+00:00</time>
        <ele>2774.0</ele>
      </trkpt>
      <trkpt lat="45.149692" lon="6.815395">
        <time>2023-04-19T09:53:51+00:00</time>
        <ele>2774.0</ele>
      </trkpt>
      <trkpt lat="45.149671" lon="6.815405">
        <time>2023-04-19T09:53:58+00:00</time>
        <ele>2775.0</ele>
      </trkpt>
      <trkpt lat="45.149684" lon="6.815446">
        <time>2023-04-19T09:54:10+00:00</time>
        <ele>2775.0</ele>
      </trkpt>
      <trkpt lat="45.149657" lon="6.815449">
        <time>2023-04-19T09:54:45+00:00</time>
        <ele>2777.0</ele>
      </trkpt>
      <trkpt lat="45.14964" lon="6.815438">
        <time>2023-04-19T09:54:50+00:00</time>
        <ele>2777.0</ele>
      </trkpt>
      <trkpt lat="45.149621" lon="6.81543">
        <time>2023-04-19T09:54:57+00:00</time>
        <ele>2778.0</ele>
      </trkpt>
      <trkpt lat="45.149524" lon="6.815424">
        <time>2023-04-19T09:55:27+00:00</time>
        <ele>2783.0</ele>
      </trkpt>
      <trkpt lat="45.149523" lon="6.81546">
        <time>2023-04-19T09:56:22+00:00</time>
        <ele>2783.0</ele>
      </trkpt>
      <trkpt lat="45.149522" lon="6.815494">
        <time>2023-04-19T09:56:30+00:00</time>
        <ele>2784.0</ele>
      </trkpt>
      <trkpt lat="45.149513" lon="6.815563">
        <time>2023-04-19T09:56:43+00:00</time>
        <ele>2785.0</ele>
      </trkpt>
      <trkpt lat="45.149481" lon="6.815697">
        <time>2023-04-19T09:57:15+00:00</time>
        <ele>2787.0</ele>
      </trkpt>
      <trkpt lat="45.149428" lon="6.815679">
        <time>2023-04-19T09:57:21+00:00</time>
        <ele>2790.0</ele>
      </trkpt>
      <trkpt lat="45.149444" lon="6.815706">
        <time>2023-04-19T09:57:51+00:00</time>
        <ele>2789.0</ele>
      </trkpt>
      <trkpt lat="45.149431" lon="6.81584">
        <time>2023-04-19T09:58:13+00:00</time>
        <ele>2790.0</ele>
      </trkpt>
      <trkpt lat="45.149426" lon="6.815877">
        <time>2023-04-19T09:58:19+00:00</time>
        <ele>2791.0</ele>
      </trkpt>
      <trkpt lat="45.149442" lon="6.815918">
        <time>2023-04-19T09:58:21+00:00</time>
        <ele>2791.0</ele>
      </trkpt>
      <trkpt lat="45.149421" lon="6.815945">
        <time>2023-04-19T09:58:29+00:00</time>
        <ele>2792.0</ele>
      </trkpt>
      <trkpt lat="45.149395" lon="6.815926">
        <time>2023-04-19T09:58:54+00:00</time>
        <ele>2793.0</ele>
      </trkpt>
      <trkpt lat="45.149394" lon="6.815964">
        <time>2023-04-19T09:59:11+00:00</time>
        <ele>2794.0</ele>
      </trkpt>
      <trkpt lat="45.149362" lon="6.8161">
        <time>2023-04-19T09:59:38+00:00</time>
        <ele>2798.0</ele>
      </trkpt>
      <trkpt lat="45.149423" lon="6.816103">
        <time>2023-04-19T09:59:54+00:00</time>
        <ele>2795.0</ele>
      </trkpt>
      <trkpt lat="45.149406" lon="6.816128">
        <time>2023-04-19T10:00:16+00:00</time>
        <ele>2797.0</ele>
      </trkpt>
      <trkpt lat="45.149382" lon="6.816156">
        <time>2023-04-19T10:00:24+00:00</time>
        <ele>2799.0</ele>
      </trkpt>
      <trkpt lat="45.149364" lon="6.816218">
        <time>2023-04-19T10:00:37+00:00</time>
        <ele>2802.0</ele>
      </trkpt>
      <trkpt lat="45.149358" lon="6.816267">
        <time>2023-04-19T10:00:46+00:00</time>
        <ele>2804.0</ele>
      </trkpt>
      <trkpt lat="45.149352" lon="6.816291">
        <time>2023-04-19T10:01:39+00:00</time>
        <ele>2805.0</ele>
      </trkpt>
      <trkpt lat="45.149333" lon="6.81632">
        <time>2023-04-19T10:02:51+00:00</time>
        <ele>2807.0</ele>
      </trkpt>
      <trkpt lat="45.149313" lon="6.816324">
        <time>2023-04-19T10:02:57+00:00</time>
        <ele>2808.0</ele>
      </trkpt>
      <trkpt lat="45.149227" lon="6.816261">
        <time>2023-04-19T10:03:26+00:00</time>
        <ele>2811.0</ele>
      </trkpt>
      <trkpt lat="45.149212" lon="6.81628">
        <time>2023-04-19T10:03:32+00:00</time>
        <ele>2812.0</ele>
      </trkpt>
      <trkpt lat="45.149165" lon="6.816271">
        <time>2023-04-19T10:03:46+00:00</time>
        <ele>2815.0</ele>
      </trkpt>
      <trkpt lat="45.149156" lon="6.81624">
        <time>2023-04-19T10:04:08+00:00</time>
        <ele>2814.0</ele>
      </trkpt>
      <trkpt lat="45.149169" lon="6.816254">
        <time>2023-04-19T10:04:47+00:00</time>
        <ele>2814.0</ele>
      </trkpt>
      <trkpt lat="45.149174" lon="6.816293">
        <time>2023-04-19T10:04:54+00:00</time>
        <ele>2815.0</ele>
      </trkpt>
      <trkpt lat="45.149173" lon="6.816334">
        <time>2023-04-19T10:05:03+00:00</time>
        <ele>2816.0</ele>
      </trkpt>
      <trkpt lat="45.149172" lon="6.816367">
        <time>2023-04-19T10:05:12+00:00</time>
        <ele>2817.0</ele>
      </trkpt>
      <trkpt lat="45.14917" lon="6.8164">
        <time>2023-04-19T10:05:19+00:00</time>
        <ele>2819.0</ele>
      </trkpt>
      <trkpt lat="45.149177" lon="6.816433">
        <time>2023-04-19T10:05:27+00:00</time>
        <ele>2820.0</ele>
      </trkpt>
      <trkpt lat="45.14918" lon="6.816464">
        <time>2023-04-19T10:06:03+00:00</time>
        <ele>2821.0</ele>
      </trkpt>
      <trkpt lat="45.149131" lon="6.81645">
        <time>2023-04-19T10:06:39+00:00</time>
        <ele>2823.0</ele>
      </trkpt>
      <trkpt lat="45.149113" lon="6.816427">
        <time>2023-04-19T10:06:48+00:00</time>
        <ele>2823.0</ele>
      </trkpt>
      <trkpt lat="45.149064" lon="6.816403">
        <time>2023-04-19T10:07:27+00:00</time>
        <ele>2825.0</ele>
      </trkpt>
      <trkpt lat="45.149039" lon="6.816377">
        <time>2023-04-19T10:07:36+00:00</time>
        <ele>2826.0</ele>
      </trkpt>
      <trkpt lat="45.149018" lon="6.816347">
        <time>2023-04-19T10:07:46+00:00</time>
        <ele>2826.0</ele>
      </trkpt>
      <trkpt lat="45.149001" lon="6.816315">
        <time>2023-04-19T10:08:27+00:00</time>
        <ele>2827.0</ele>
      </trkpt>
      <trkpt lat="45.148979" lon="6.816282">
        <time>2023-04-19T10:08:39+00:00</time>
        <ele>2827.0</ele>
      </trkpt>
      <trkpt lat="45.148948" lon="6.816208">
        <time>2023-04-19T10:09:22+00:00</time>
        <ele>2827.0</ele>
      </trkpt>
      <trkpt lat="45.148919" lon="6.816192">
        <time>2023-04-19T10:09:31+00:00</time>
        <ele>2829.0</ele>
      </trkpt>
      <trkpt lat="45.148916" lon="6.816151">
        <time>2023-04-19T10:10:18+00:00</time>
        <ele>2828.0</ele>
      </trkpt>
      <trkpt lat="45.148894" lon="6.816118">
        <time>2023-04-19T10:10:32+00:00</time>
        <ele>2829.0</ele>
      </trkpt>
      <trkpt lat="45.148865" lon="6.816108">
        <time>2023-04-19T10:10:52+00:00</time>
        <ele>2830.0</ele>
      </trkpt>
      <trkpt lat="45.148851" lon="6.816135">
        <time>2023-04-19T10:11:38+00:00</time>
        <ele>2832.0</ele>
      </trkpt>
      <trkpt lat="45.148839" lon="6.816163">
        <time>2023-04-19T10:11:56+00:00</time>
        <ele>2833.0</ele>
      </trkpt>
      <trkpt lat="45.148833" lon="6.816189">
        <time>2023-04-19T10:12:28+00:00</time>
        <ele>2834.0</ele>
      </trkpt>
      <trkpt lat="45.148823" lon="6.816222">
        <time>2023-04-19T10:13:06+00:00</time>
        <ele>2836.0</ele>
      </trkpt>
      <trkpt lat="45.148813" lon="6.816257">
        <time>2023-04-19T10:13:21+00:00</time>
        <ele>2837.0</ele>
      </trkpt>
      <trkpt lat="45.148801" lon="6.816223">
        <time>2023-04-19T10:14:09+00:00</time>
        <ele>2837.0</ele>
      </trkpt>
      <trkpt lat="45.148785" lon="6.816234">
        <time>2023-04-19T10:14:52+00:00</time>
        <ele>2838.0</ele>
      </trkpt>
      <trkpt lat="45.148776" lon="6.816275">
        <time>2023-04-19T10:15:01+00:00</time>
        <ele>2839.0</ele>
      </trkpt>
      <trkpt lat="45.148765" lon="6.816304">
        <time>2023-04-19T10:15:09+00:00</time>
        <ele>2840.0</ele>
      </trkpt>
      <trkpt lat="45.148771" lon="6.81634">
        <time>2023-04-19T10:15:31+00:00</time>
        <ele>2841.0</ele>
      </trkpt>
      <trkpt lat="45.14879" lon="6.81631">
        <time>2023-04-19T10:21:29+00:00</time>
        <ele>2839.0</ele>
      </trkpt>
      <trkpt lat="45.148773" lon="6.816285">
        <time>2023-04-19T10:21:34+00:00</time>
        <ele>2839.0</ele>
      </trkpt>
      <trkpt lat="45.148749" lon="6.816262">
        <time>2023-04-19T10:21:56+00:00</time>
        <ele>2840.0</ele>
      </trkpt>
      <trkpt lat="45.148744" lon="6.816228">
        <time>2023-04-19T10:24:09+00:00</time>
        <ele>2839.0</ele>
      </trkpt>
      <trkpt lat="45.14874" lon="6.816197">
        <time>2023-04-19T10:24:33+00:00</time>
        <ele>2839.0</ele>
      </trkpt>
      <trkpt lat="45.148737" lon="6.816154">
        <time>2023-04-19T10:25:01+00:00</time>
        <ele>2838.0</ele>
      </trkpt>
      <trkpt lat="45.148715" lon="6.816128">
        <time>2023-04-19T10:25:09+00:00</time>
        <ele>2838.0</ele>
      </trkpt>
      <trkpt lat="45.148691" lon="6.816109">
        <time>2023-04-19T10:25:13+00:00</time>
        <ele>2838.0</ele>
      </trkpt>
      <trkpt lat="45.148666" lon="6.816107">
        <time>2023-04-19T10:25:17+00:00</time>
        <ele>2839.0</ele>
      </trkpt>
      <trkpt lat="45.148596" lon="6.816065">
        <time>2023-04-19T10:26:01+00:00</time>
        <ele>2840.0</ele>
      </trkpt>
      <trkpt lat="45.148565" lon="6.816062">
        <time>2023-04-19T10:26:06+00:00</time>
        <ele>2841.0</ele>
      </trkpt>
      <trkpt lat="45.148538" lon="6.816075">
        <time>2023-04-19T10:26:12+00:00</time>
        <ele>2842.0</ele>
      </trkpt>
      <trkpt lat="45.14852" lon="6.816097">
        <time>2023-04-19T10:26:15+00:00</time>
        <ele>2843.0</ele>
      </trkpt>
      <trkpt lat="45.148503" lon="6.816109">
        <time>2023-04-19T10:26:44+00:00</time>
        <ele>2844.0</ele>
      </trkpt>
      <trkpt lat="45.14848" lon="6.816121">
        <time>2023-04-19T10:27:15+00:00</time>
        <ele>2845.0</ele>
      </trkpt>
      <trkpt lat="45.148378" lon="6.81617">
        <time>2023-04-19T10:27:42+00:00</time>
        <ele>2849.0</ele>
      </trkpt>
      <trkpt lat="45.14835" lon="6.816168">
        <time>2023-04-19T10:27:48+00:00</time>
        <ele>2849.0</ele>
      </trkpt>
      <trkpt lat="45.148352" lon="6.816134">
        <time>2023-04-19T10:30:04+00:00</time>
        <ele>2849.0</ele>
      </trkpt>
      <trkpt lat="45.148263" lon="6.816149">
        <time>2023-04-19T10:30:19+00:00</time>
        <ele>2851.0</ele>
      </trkpt>
      <trkpt lat="45.148234" lon="6.816153">
        <time>2023-04-19T10:30:24+00:00</time>
        <ele>2852.0</ele>
      </trkpt>
      <trkpt lat="45.148204" lon="6.816152">
        <time>2023-04-19T10:30:32+00:00</time>
        <ele>2853.0</ele>
      </trkpt>
      <trkpt lat="45.148182" lon="6.816147">
        <time>2023-04-19T10:30:40+00:00</time>
        <ele>2854.0</ele>
      </trkpt>
      <trkpt lat="45.148139" lon="6.816122">
        <time>2023-04-19T10:31:44+00:00</time>
        <ele>2855.0</ele>
      </trkpt>
      <trkpt lat="45.148116" lon="6.816114">
        <time>2023-04-19T10:31:48+00:00</time>
        <ele>2855.0</ele>
      </trkpt>
      <trkpt lat="45.148087" lon="6.816126">
        <time>2023-04-19T10:31:54+00:00</time>
        <ele>2856.0</ele>
      </trkpt>
      <trkpt lat="45.148063" lon="6.816118">
        <time>2023-04-19T10:32:07+00:00</time>
        <ele>2857.0</ele>
      </trkpt>
      <trkpt lat="45.14804" lon="6.816104">
        <time>2023-04-19T10:32:13+00:00</time>
        <ele>2857.0</ele>
      </trkpt>
      <trkpt lat="45.148021" lon="6.816103">
        <time>2023-04-19T10:32:19+00:00</time>
        <ele>2858.0</ele>
      </trkpt>
      <trkpt lat="45.148003" lon="6.816085">
        <time>2023-04-19T10:33:09+00:00</time>
        <ele>2858.0</ele>
      </trkpt>
      <trkpt lat="45.147973" lon="6.816033">
        <time>2023-04-19T10:33:20+00:00</time>
        <ele>2858.0</ele>
      </trkpt>
      <trkpt lat="45.147947" lon="6.816024">
        <time>2023-04-19T10:33:27+00:00</time>
        <ele>2859.0</ele>
      </trkpt>
      <trkpt lat="45.14784" lon="6.815972">
        <time>2023-04-19T10:34:48+00:00</time>
        <ele>2862.0</ele>
      </trkpt>
      <trkpt lat="45.147817" lon="6.815966">
        <time>2023-04-19T10:36:54+00:00</time>
        <ele>2863.0</ele>
      </trkpt>
      <trkpt lat="45.147727" lon="6.815932">
        <time>2023-04-19T10:37:14+00:00</time>
        <ele>2865.0</ele>
      </trkpt>
      <trkpt lat="45.147714" lon="6.815912">
        <time>2023-04-19T10:37:18+00:00</time>
        <ele>2865.0</ele>
      </trkpt>
      <trkpt lat="45.147675" lon="6.815893">
        <time>2023-04-19T10:37:27+00:00</time>
        <ele>2866.0</ele>
      </trkpt>
      <trkpt lat="45.147653" lon="6.81589">
        <time>2023-04-19T10:37:32+00:00</time>
        <ele>2867.0</ele>
      </trkpt>
      <trkpt lat="45.147628" lon="6.815887">
        <time>2023-04-19T10:38:50+00:00</time>
        <ele>2868.0</ele>
      </trkpt>
      <trkpt lat="45.147609" lon="6.815892">
        <time>2023-04-19T10:39:10+00:00</time>
        <ele>2869.0</ele>
      </trkpt>
      <trkpt lat="45.147588" lon="6.815876">
        <time>2023-04-19T10:39:17+00:00</time>
        <ele>2869.0</ele>
      </trkpt>
      <trkpt lat="45.147564" lon="6.815876">
        <time>2023-04-19T10:39:22+00:00</time>
        <ele>2870.0</ele>
      </trkpt>
      <trkpt lat="45.147542" lon="6.815884">
        <time>2023-04-19T10:39:29+00:00</time>
        <ele>2871.0</ele>
      </trkpt>
      <trkpt lat="45.147511" lon="6.815883">
        <time>2023-04-19T10:39:35+00:00</time>
        <ele>2872.0</ele>
      </trkpt>
      <trkpt lat="45.147486" lon="6.815884">
        <time>2023-04-19T10:39:38+00:00</time>
        <ele>2873.0</ele>
      </trkpt>
      <trkpt lat="45.147426" lon="6.815891">
        <time>2023-04-19T10:39:52+00:00</time>
        <ele>2875.0</ele>
      </trkpt>
      <trkpt lat="45.147401" lon="6.815921">
        <time>2023-04-19T10:40:57+00:00</time>
        <ele>2876.0</ele>
      </trkpt>
      <trkpt lat="45.147392" lon="6.815969">
        <time>2023-04-19T10:41:02+00:00</time>
        <ele>2877.0</ele>
      </trkpt>
      <trkpt lat="45.147383" lon="6.816009">
        <time>2023-04-19T10:41:07+00:00</time>
        <ele>2878.0</ele>
      </trkpt>
      <trkpt lat="45.14738" lon="6.816072">
        <time>2023-04-19T10:41:18+00:00</time>
        <ele>2879.0</ele>
      </trkpt>
      <trkpt lat="45.14738" lon="6.816099">
        <time>2023-04-19T10:41:21+00:00</time>
        <ele>2879.0</ele>
      </trkpt>
      <trkpt lat="45.147376" lon="6.816133">
        <time>2023-04-19T10:41:27+00:00</time>
        <ele>2880.0</ele>
      </trkpt>
      <trkpt lat="45.147371" lon="6.816168">
        <time>2023-04-19T10:41:33+00:00</time>
        <ele>2881.0</ele>
      </trkpt>
      <trkpt lat="45.147363" lon="6.81627">
        <time>2023-04-19T10:41:53+00:00</time>
        <ele>2883.0</ele>
      </trkpt>
      <trkpt lat="45.14736" lon="6.816296">
        <time>2023-04-19T10:42:48+00:00</time>
        <ele>2883.0</ele>
      </trkpt>
      <trkpt lat="45.147351" lon="6.816327">
        <time>2023-04-19T10:42:54+00:00</time>
        <ele>2884.0</ele>
      </trkpt>
      <trkpt lat="45.147337" lon="6.81637">
        <time>2023-04-19T10:43:02+00:00</time>
        <ele>2885.0</ele>
      </trkpt>
      <trkpt lat="45.14733" lon="6.816402">
        <time>2023-04-19T10:43:07+00:00</time>
        <ele>2886.0</ele>
      </trkpt>
      <trkpt lat="45.14731" lon="6.816456">
        <time>2023-04-19T10:43:39+00:00</time>
        <ele>2888.0</ele>
      </trkpt>
      <trkpt lat="45.147292" lon="6.816454">
        <time>2023-04-19T10:43:48+00:00</time>
        <ele>2888.0</ele>
      </trkpt>
      <trkpt lat="45.147251" lon="6.816426">
        <time>2023-04-19T10:44:00+00:00</time>
        <ele>2889.0</ele>
      </trkpt>
      <trkpt lat="45.147229" lon="6.816403">
        <time>2023-04-19T10:44:07+00:00</time>
        <ele>2889.0</ele>
      </trkpt>
      <trkpt lat="45.147206" lon="6.816396">
        <time>2023-04-19T10:44:13+00:00</time>
        <ele>2890.0</ele>
      </trkpt>
      <trkpt lat="45.147181" lon="6.816395">
        <time>2023-04-19T10:44:17+00:00</time>
        <ele>2891.0</ele>
      </trkpt>
      <trkpt lat="45.14715" lon="6.816384">
        <time>2023-04-19T10:45:02+00:00</time>
        <ele>2892.0</ele>
      </trkpt>
      <trkpt lat="45.147127" lon="6.816373">
        <time>2023-04-19T10:45:09+00:00</time>
        <ele>2892.0</ele>
      </trkpt>
      <trkpt lat="45.147095" lon="6.816364">
        <time>2023-04-19T10:45:17+00:00</time>
        <ele>2893.0</ele>
      </trkpt>
      <trkpt lat="45.147073" lon="6.816365">
        <time>2023-04-19T10:45:23+00:00</time>
        <ele>2894.0</ele>
      </trkpt>
      <trkpt lat="45.147024" lon="6.816351">
        <time>2023-04-19T10:46:12+00:00</time>
        <ele>2895.0</ele>
      </trkpt>
      <trkpt lat="45.146994" lon="6.816351">
        <time>2023-04-19T10:46:22+00:00</time>
        <ele>2896.0</ele>
      </trkpt>
      <trkpt lat="45.146961" lon="6.816342">
        <time>2023-04-19T10:46:28+00:00</time>
        <ele>2897.0</ele>
      </trkpt>
      <trkpt lat="45.146931" lon="6.816344">
        <time>2023-04-19T10:46:38+00:00</time>
        <ele>2898.0</ele>
      </trkpt>
      <trkpt lat="45.146906" lon="6.81634">
        <time>2023-04-19T10:46:44+00:00</time>
        <ele>2899.0</ele>
      </trkpt>
      <trkpt lat="45.146792" lon="6.816357">
        <time>2023-04-19T10:48:45+00:00</time>
        <ele>2902.0</ele>
      </trkpt>
      <trkpt lat="45.146741" lon="6.816358">
        <time>2023-04-19T10:49:22+00:00</time>
        <ele>2903.0</ele>
      </trkpt>
      <trkpt lat="45.146722" lon="6.816342">
        <time>2023-04-19T10:49:28+00:00</time>
        <ele>2904.0</ele>
      </trkpt>
      <trkpt lat="45.146693" lon="6.816351">
        <time>2023-04-19T10:49:37+00:00</time>
        <ele>2905.0</ele>
      </trkpt>
      <trkpt lat="45.146669" lon="6.816356">
        <time>2023-04-19T10:49:43+00:00</time>
        <ele>2906.0</ele>
      </trkpt>
      <trkpt lat="45.146644" lon="6.816354">
        <time>2023-04-19T10:49:52+00:00</time>
        <ele>2907.0</ele>
      </trkpt>
      <trkpt lat="45.146622" lon="6.816361">
        <time>2023-04-19T10:49:57+00:00</time>
        <ele>2908.0</ele>
      </trkpt>
      <trkpt lat="45.146599" lon="6.816363">
        <time>2023-04-19T10:50:02+00:00</time>
        <ele>2909.0</ele>
      </trkpt>
      <trkpt lat="45.146577" lon="6.81638">
        <time>2023-04-19T10:50:44+00:00</time>
        <ele>2910.0</ele>
      </trkpt>
      <trkpt lat="45.146522" lon="6.816376">
        <time>2023-04-19T10:50:52+00:00</time>
        <ele>2912.0</ele>
      </trkpt>
      <trkpt lat="45.146543" lon="6.816427">
        <time>2023-04-19T10:50:57+00:00</time>
        <ele>2912.0</ele>
      </trkpt>
      <trkpt lat="45.146562" lon="6.816457">
        <time>2023-04-19T10:51:03+00:00</time>
        <ele>2912.0</ele>
      </trkpt>
      <trkpt lat="45.146559" lon="6.816489">
        <time>2023-04-19T10:51:10+00:00</time>
        <ele>2913.0</ele>
      </trkpt>
      <trkpt lat="45.146558" lon="6.816524">
        <time>2023-04-19T10:51:16+00:00</time>
        <ele>2913.0</ele>
      </trkpt>
      <trkpt lat="45.146554" lon="6.816558">
        <time>2023-04-19T10:51:23+00:00</time>
        <ele>2914.0</ele>
      </trkpt>
      <trkpt lat="45.146556" lon="6.816627">
        <time>2023-04-19T10:51:34+00:00</time>
        <ele>2915.0</ele>
      </trkpt>
      <trkpt lat="45.146561" lon="6.816693">
        <time>2023-04-19T10:52:14+00:00</time>
        <ele>2916.0</ele>
      </trkpt>
      <trkpt lat="45.14656" lon="6.816733">
        <time>2023-04-19T10:52:47+00:00</time>
        <ele>2917.0</ele>
      </trkpt>
      <trkpt lat="45.146567" lon="6.816767">
        <time>2023-04-19T10:52:53+00:00</time>
        <ele>2918.0</ele>
      </trkpt>
      <trkpt lat="45.146564" lon="6.816804">
        <time>2023-04-19T10:52:58+00:00</time>
        <ele>2919.0</ele>
      </trkpt>
      <trkpt lat="45.14657" lon="6.816838">
        <time>2023-04-19T10:53:03+00:00</time>
        <ele>2919.0</ele>
      </trkpt>
      <trkpt lat="45.146544" lon="6.816851">
        <time>2023-04-19T10:53:07+00:00</time>
        <ele>2921.0</ele>
      </trkpt>
      <trkpt lat="45.146597" lon="6.816874">
        <time>2023-04-19T10:53:12+00:00</time>
        <ele>2919.0</ele>
      </trkpt>
      <trkpt lat="45.146615" lon="6.816897">
        <time>2023-04-19T10:53:13+00:00</time>
        <ele>2919.0</ele>
      </trkpt>
      <trkpt lat="45.146624" lon="6.816929">
        <time>2023-04-19T10:53:16+00:00</time>
        <ele>2919.0</ele>
      </trkpt>
      <trkpt lat="45.146609" lon="6.816968">
        <time>2023-04-19T10:53:22+00:00</time>
        <ele>2920.0</ele>
      </trkpt>
      <trkpt lat="45.146593" lon="6.816995">
        <time>2023-04-19T10:53:27+00:00</time>
        <ele>2921.0</ele>
      </trkpt>
      <trkpt lat="45.146584" lon="6.817026">
        <time>2023-04-19T10:54:15+00:00</time>
        <ele>2922.0</ele>
      </trkpt>
      <trkpt lat="45.146567" lon="6.817139">
        <time>2023-04-19T10:54:32+00:00</time>
        <ele>2924.0</ele>
      </trkpt>
      <trkpt lat="45.146555" lon="6.817168">
        <time>2023-04-19T10:54:40+00:00</time>
        <ele>2925.0</ele>
      </trkpt>
      <trkpt lat="45.146555" lon="6.817211">
        <time>2023-04-19T10:54:47+00:00</time>
        <ele>2926.0</ele>
      </trkpt>
      <trkpt lat="45.146535" lon="6.817195">
        <time>2023-04-19T10:55:49+00:00</time>
        <ele>2926.0</ele>
      </trkpt>
      <trkpt lat="45.146501" lon="6.817225">
        <time>2023-04-19T10:55:52+00:00</time>
        <ele>2928.0</ele>
      </trkpt>
      <trkpt lat="45.146477" lon="6.817217">
        <time>2023-04-19T10:55:58+00:00</time>
        <ele>2929.0</ele>
      </trkpt>
      <trkpt lat="45.146457" lon="6.8172">
        <time>2023-04-19T10:56:05+00:00</time>
        <ele>2930.0</ele>
      </trkpt>
      <trkpt lat="45.146435" lon="6.8172">
        <time>2023-04-19T10:56:12+00:00</time>
        <ele>2931.0</ele>
      </trkpt>
      <trkpt lat="45.146413" lon="6.81718">
        <time>2023-04-19T10:56:47+00:00</time>
        <ele>2931.0</ele>
      </trkpt>
      <trkpt lat="45.146391" lon="6.817175">
        <time>2023-04-19T10:56:54+00:00</time>
        <ele>2932.0</ele>
      </trkpt>
      <trkpt lat="45.146367" lon="6.817164">
        <time>2023-04-19T10:57:03+00:00</time>
        <ele>2933.0</ele>
      </trkpt>
      <trkpt lat="45.146344" lon="6.817158">
        <time>2023-04-19T10:57:10+00:00</time>
        <ele>2934.0</ele>
      </trkpt>
      <trkpt lat="45.146301" lon="6.817134">
        <time>2023-04-19T10:57:24+00:00</time>
        <ele>2935.0</ele>
      </trkpt>
      <trkpt lat="45.146286" lon="6.817166">
        <time>2023-04-19T10:58:39+00:00</time>
        <ele>2936.0</ele>
      </trkpt>
      <trkpt lat="45.146294" lon="6.817202">
        <time>2023-04-19T10:58:43+00:00</time>
        <ele>2936.0</ele>
      </trkpt>
      <trkpt lat="45.146285" lon="6.817235">
        <time>2023-04-19T10:58:47+00:00</time>
        <ele>2937.0</ele>
      </trkpt>
      <trkpt lat="45.146272" lon="6.817415">
        <time>2023-04-19T10:59:17+00:00</time>
        <ele>2940.0</ele>
      </trkpt>
      <trkpt lat="45.146265" lon="6.817518">
        <time>2023-04-19T11:00:24+00:00</time>
        <ele>2941.0</ele>
      </trkpt>
      <trkpt lat="45.146258" lon="6.81755">
        <time>2023-04-19T11:00:30+00:00</time>
        <ele>2942.0</ele>
      </trkpt>
      <trkpt lat="45.146244" lon="6.817601">
        <time>2023-04-19T11:00:40+00:00</time>
        <ele>2943.0</ele>
      </trkpt>
      <trkpt lat="45.146234" lon="6.817625">
        <time>2023-04-19T11:00:47+00:00</time>
        <ele>2943.0</ele>
      </trkpt>
      <trkpt lat="45.146226" lon="6.817649">
        <time>2023-04-19T11:00:54+00:00</time>
        <ele>2944.0</ele>
      </trkpt>
      <trkpt lat="45.146214" lon="6.817677">
        <time>2023-04-19T11:00:59+00:00</time>
        <ele>2945.0</ele>
      </trkpt>
      <trkpt lat="45.146209" lon="6.817705">
        <time>2023-04-19T11:01:06+00:00</time>
        <ele>2945.0</ele>
      </trkpt>
      <trkpt lat="45.146192" lon="6.817757">
        <time>2023-04-19T11:01:21+00:00</time>
        <ele>2946.0</ele>
      </trkpt>
      <trkpt lat="45.146184" lon="6.817783">
        <time>2023-04-19T11:01:30+00:00</time>
        <ele>2947.0</ele>
      </trkpt>
      <trkpt lat="45.146174" lon="6.817812">
        <time>2023-04-19T11:01:35+00:00</time>
        <ele>2948.0</ele>
      </trkpt>
      <trkpt lat="45.146151" lon="6.817799">
        <time>2023-04-19T11:02:30+00:00</time>
        <ele>2949.0</ele>
      </trkpt>
      <trkpt lat="45.146124" lon="6.817797">
        <time>2023-04-19T11:02:37+00:00</time>
        <ele>2950.0</ele>
      </trkpt>
      <trkpt lat="45.146102" lon="6.817796">
        <time>2023-04-19T11:02:44+00:00</time>
        <ele>2951.0</ele>
      </trkpt>
      <trkpt lat="45.146084" lon="6.817772">
        <time>2023-04-19T11:02:50+00:00</time>
        <ele>2951.0</ele>
      </trkpt>
      <trkpt lat="45.145987" lon="6.817746">
        <time>2023-04-19T11:03:24+00:00</time>
        <ele>2955.0</ele>
      </trkpt>
      <trkpt lat="45.145962" lon="6.81773">
        <time>2023-04-19T11:03:32+00:00</time>
        <ele>2956.0</ele>
      </trkpt>
      <trkpt lat="45.145938" lon="6.81773">
        <time>2023-04-19T11:03:39+00:00</time>
        <ele>2957.0</ele>
      </trkpt>
      <trkpt lat="45.145914" lon="6.817739">
        <time>2023-04-19T11:04:10+00:00</time>
        <ele>2958.0</ele>
      </trkpt>
      <trkpt lat="45.145913" lon="6.817772">
        <time>2023-04-19T11:04:51+00:00</time>
        <ele>2958.0</ele>
      </trkpt>
      <trkpt lat="45.145909" lon="6.81781">
        <time>2023-04-19T11:04:58+00:00</time>
        <ele>2959.0</ele>
      </trkpt>
      <trkpt lat="45.145892" lon="6.817981">
        <time>2023-04-19T11:05:28+00:00</time>
        <ele>2963.0</ele>
      </trkpt>
      <trkpt lat="45.145885" lon="6.818006">
        <time>2023-04-19T11:05:33+00:00</time>
        <ele>2964.0</ele>
      </trkpt>
      <trkpt lat="45.145875" lon="6.818018">
        <time>2023-04-19T11:06:28+00:00</time>
        <ele>2964.0</ele>
      </trkpt>
      <trkpt lat="45.145852" lon="6.818005">
        <time>2023-04-19T11:06:38+00:00</time>
        <ele>2965.0</ele>
      </trkpt>
      <trkpt lat="45.145826" lon="6.817998">
        <time>2023-04-19T11:06:46+00:00</time>
        <ele>2966.0</ele>
      </trkpt>
      <trkpt lat="45.145801" lon="6.818003">
        <time>2023-04-19T11:06:53+00:00</time>
        <ele>2967.0</ele>
      </trkpt>
      <trkpt lat="45.145773" lon="6.818006">
        <time>2023-04-19T11:07:00+00:00</time>
        <ele>2969.0</ele>
      </trkpt>
      <trkpt lat="45.145754" lon="6.818011">
        <time>2023-04-19T11:07:40+00:00</time>
        <ele>2969.0</ele>
      </trkpt>
      <trkpt lat="45.145738" lon="6.818042">
        <time>2023-04-19T11:07:48+00:00</time>
        <ele>2971.0</ele>
      </trkpt>
      <trkpt lat="45.145715" lon="6.818098">
        <time>2023-04-19T11:08:03+00:00</time>
        <ele>2973.0</ele>
      </trkpt>
      <trkpt lat="45.1457" lon="6.818141">
        <time>2023-04-19T11:08:13+00:00</time>
        <ele>2974.0</ele>
      </trkpt>
      <trkpt lat="45.145692" lon="6.818179">
        <time>2023-04-19T11:08:19+00:00</time>
        <ele>2975.0</ele>
      </trkpt>
      <trkpt lat="45.145694" lon="6.818208">
        <time>2023-04-19T11:08:24+00:00</time>
        <ele>2975.0</ele>
      </trkpt>
      <trkpt lat="45.145673" lon="6.818215">
        <time>2023-04-19T11:09:18+00:00</time>
        <ele>2976.0</ele>
      </trkpt>
      <trkpt lat="45.145646" lon="6.818206">
        <time>2023-04-19T11:09:24+00:00</time>
        <ele>2978.0</ele>
      </trkpt>
      <trkpt lat="45.145619" lon="6.818195">
        <time>2023-04-19T11:09:33+00:00</time>
        <ele>2979.0</ele>
      </trkpt>
      <trkpt lat="45.145595" lon="6.818188">
        <time>2023-04-19T11:09:39+00:00</time>
        <ele>2980.0</ele>
      </trkpt>
      <trkpt lat="45.145577" lon="6.818177">
        <time>2023-04-19T11:09:44+00:00</time>
        <ele>2981.0</ele>
      </trkpt>
      <trkpt lat="45.145554" lon="6.81817">
        <time>2023-04-19T11:09:51+00:00</time>
        <ele>2982.0</ele>
      </trkpt>
      <trkpt lat="45.14553" lon="6.81817">
        <time>2023-04-19T11:10:13+00:00</time>
        <ele>2983.0</ele>
      </trkpt>
      <trkpt lat="45.145531" lon="6.818209">
        <time>2023-04-19T11:10:53+00:00</time>
        <ele>2984.0</ele>
      </trkpt>
      <trkpt lat="45.145524" lon="6.818243">
        <time>2023-04-19T11:11:00+00:00</time>
        <ele>2985.0</ele>
      </trkpt>
      <trkpt lat="45.145527" lon="6.818293">
        <time>2023-04-19T11:11:08+00:00</time>
        <ele>2986.0</ele>
      </trkpt>
      <trkpt lat="45.14554" lon="6.818325">
        <time>2023-04-19T11:11:15+00:00</time>
        <ele>2986.0</ele>
      </trkpt>
      <trkpt lat="45.14554" lon="6.818363">
        <time>2023-04-19T11:11:21+00:00</time>
        <ele>2986.0</ele>
      </trkpt>
      <trkpt lat="45.145542" lon="6.818401">
        <time>2023-04-19T11:11:28+00:00</time>
        <ele>2987.0</ele>
      </trkpt>
      <trkpt lat="45.145519" lon="6.818401">
        <time>2023-04-19T11:12:09+00:00</time>
        <ele>2988.0</ele>
      </trkpt>
      <trkpt lat="45.145474" lon="6.818389">
        <time>2023-04-19T11:12:20+00:00</time>
        <ele>2991.0</ele>
      </trkpt>
      <trkpt lat="45.145434" lon="6.818339">
        <time>2023-04-19T11:12:36+00:00</time>
        <ele>2992.0</ele>
      </trkpt>
      <trkpt lat="45.14543" lon="6.818347">
        <time>2023-04-19T11:13:26+00:00</time>
        <ele>2993.0</ele>
      </trkpt>
      <trkpt lat="45.145427" lon="6.818377">
        <time>2023-04-19T11:13:31+00:00</time>
        <ele>2993.0</ele>
      </trkpt>
      <trkpt lat="45.145423" lon="6.81844">
        <time>2023-04-19T11:13:43+00:00</time>
        <ele>2994.0</ele>
      </trkpt>
      <trkpt lat="45.145467" lon="6.818473">
        <time>2023-04-19T11:13:48+00:00</time>
        <ele>2992.0</ele>
      </trkpt>
      <trkpt lat="45.145471" lon="6.818506">
        <time>2023-04-19T11:13:53+00:00</time>
        <ele>2993.0</ele>
      </trkpt>
      <trkpt lat="45.145453" lon="6.818511">
        <time>2023-04-19T11:14:36+00:00</time>
        <ele>2994.0</ele>
      </trkpt>
      <trkpt lat="45.145434" lon="6.818516">
        <time>2023-04-19T11:14:56+00:00</time>
        <ele>2995.0</ele>
      </trkpt>
      <trkpt lat="45.145417" lon="6.818495">
        <time>2023-04-19T11:15:03+00:00</time>
        <ele>2996.0</ele>
      </trkpt>
      <trkpt lat="45.145397" lon="6.818475">
        <time>2023-04-19T11:15:09+00:00</time>
        <ele>2996.0</ele>
      </trkpt>
      <trkpt lat="45.14538" lon="6.818465">
        <time>2023-04-19T11:15:14+00:00</time>
        <ele>2997.0</ele>
      </trkpt>
      <trkpt lat="45.145363" lon="6.818458">
        <time>2023-04-19T11:15:19+00:00</time>
        <ele>2998.0</ele>
      </trkpt>
      <trkpt lat="45.145345" lon="6.818454">
        <time>2023-04-19T11:15:54+00:00</time>
        <ele>2999.0</ele>
      </trkpt>
      <trkpt lat="45.145312" lon="6.818415">
        <time>2023-04-19T11:16:17+00:00</time>
        <ele>3000.0</ele>
      </trkpt>
      <trkpt lat="45.145291" lon="6.818416">
        <time>2023-04-19T11:16:23+00:00</time>
        <ele>3001.0</ele>
      </trkpt>
      <trkpt lat="45.14528" lon="6.818397">
        <time>2023-04-19T11:16:49+00:00</time>
        <ele>3002.0</ele>
      </trkpt>
      <trkpt lat="45.145269" lon="6.818398">
        <time>2023-04-19T11:19:09+00:00</time>
        <ele>3002.0</ele>
      </trkpt>
      <trkpt lat="45.14526" lon="6.818522">
        <time>2023-04-19T11:19:30+00:00</time>
        <ele>3004.0</ele>
      </trkpt>
      <trkpt lat="45.14524" lon="6.818535">
        <time>2023-04-19T11:20:24+00:00</time>
        <ele>3006.0</ele>
      </trkpt>
      <trkpt lat="45.1452" lon="6.818524">
        <time>2023-04-19T11:20:33+00:00</time>
        <ele>3007.0</ele>
      </trkpt>
      <trkpt lat="45.145165" lon="6.818497">
        <time>2023-04-19T11:20:48+00:00</time>
        <ele>3009.0</ele>
      </trkpt>
      <trkpt lat="45.145169" lon="6.818531">
        <time>2023-04-19T11:21:29+00:00</time>
        <ele>3009.0</ele>
      </trkpt>
      <trkpt lat="45.145179" lon="6.818564">
        <time>2023-04-19T11:21:41+00:00</time>
        <ele>3009.0</ele>
      </trkpt>
      <trkpt lat="45.145176" lon="6.81861">
        <time>2023-04-19T11:21:51+00:00</time>
        <ele>3009.0</ele>
      </trkpt>
      <trkpt lat="45.145162" lon="6.818674">
        <time>2023-04-19T11:22:00+00:00</time>
        <ele>3010.0</ele>
      </trkpt>
      <trkpt lat="45.145147" lon="6.818701">
        <time>2023-04-19T11:22:40+00:00</time>
        <ele>3011.0</ele>
      </trkpt>
      <trkpt lat="45.145142" lon="6.818736">
        <time>2023-04-19T11:22:48+00:00</time>
        <ele>3012.0</ele>
      </trkpt>
      <trkpt lat="45.145122" lon="6.818764">
        <time>2023-04-19T11:22:53+00:00</time>
        <ele>3013.0</ele>
      </trkpt>
      <trkpt lat="45.14511" lon="6.818854">
        <time>2023-04-19T11:23:38+00:00</time>
        <ele>3014.0</ele>
      </trkpt>
      <trkpt lat="45.145102" lon="6.818895">
        <time>2023-04-19T11:23:43+00:00</time>
        <ele>3015.0</ele>
      </trkpt>
      <trkpt lat="45.145075" lon="6.819039">
        <time>2023-04-19T11:24:06+00:00</time>
        <ele>3017.0</ele>
      </trkpt>
      <trkpt lat="45.145062" lon="6.819063">
        <time>2023-04-19T11:25:11+00:00</time>
        <ele>3017.0</ele>
      </trkpt>
      <trkpt lat="45.145039" lon="6.819049">
        <time>2023-04-19T11:25:19+00:00</time>
        <ele>3018.0</ele>
      </trkpt>
      <trkpt lat="45.145022" lon="6.81904">
        <time>2023-04-19T11:25:23+00:00</time>
        <ele>3019.0</ele>
      </trkpt>
      <trkpt lat="45.145006" lon="6.819031">
        <time>2023-04-19T11:25:29+00:00</time>
        <ele>3019.0</ele>
      </trkpt>
      <trkpt lat="45.144988" lon="6.819016">
        <time>2023-04-19T11:25:35+00:00</time>
        <ele>3020.0</ele>
      </trkpt>
      <trkpt lat="45.144969" lon="6.818999">
        <time>2023-04-19T11:25:40+00:00</time>
        <ele>3021.0</ele>
      </trkpt>
      <trkpt lat="45.144951" lon="6.818991">
        <time>2023-04-19T11:25:45+00:00</time>
        <ele>3021.0</ele>
      </trkpt>
      <trkpt lat="45.144937" lon="6.818983">
        <time>2023-04-19T11:26:09+00:00</time>
        <ele>3022.0</ele>
      </trkpt>
      <trkpt lat="45.144902" lon="6.818964">
        <time>2023-04-19T11:26:43+00:00</time>
        <ele>3023.0</ele>
      </trkpt>
      <trkpt lat="45.14485" lon="6.818899">
        <time>2023-04-19T11:27:01+00:00</time>
        <ele>3025.0</ele>
      </trkpt>
      <trkpt lat="45.144837" lon="6.818878">
        <time>2023-04-19T11:27:05+00:00</time>
        <ele>3026.0</ele>
      </trkpt>
      <trkpt lat="45.144816" lon="6.818865">
        <time>2023-04-19T11:27:10+00:00</time>
        <ele>3027.0</ele>
      </trkpt>
      <trkpt lat="45.1448" lon="6.818848">
        <time>2023-04-19T11:27:14+00:00</time>
        <ele>3027.0</ele>
      </trkpt>
      <trkpt lat="45.144784" lon="6.818861">
        <time>2023-04-19T11:28:00+00:00</time>
        <ele>3028.0</ele>
      </trkpt>
      <trkpt lat="45.144736" lon="6.818938">
        <time>2023-04-19T11:28:13+00:00</time>
        <ele>3030.0</ele>
      </trkpt>
      <trkpt lat="45.144715" lon="6.818957">
        <time>2023-04-19T11:29:04+00:00</time>
        <ele>3031.0</ele>
      </trkpt>
      <trkpt lat="45.144684" lon="6.818973">
        <time>2023-04-19T11:29:13+00:00</time>
        <ele>3032.0</ele>
      </trkpt>
      <trkpt lat="45.144663" lon="6.818975">
        <time>2023-04-19T11:29:19+00:00</time>
        <ele>3033.0</ele>
      </trkpt>
      <trkpt lat="45.144622" lon="6.818943">
        <time>2023-04-19T11:29:31+00:00</time>
        <ele>3034.0</ele>
      </trkpt>
      <trkpt lat="45.144609" lon="6.818926">
        <time>2023-04-19T11:29:36+00:00</time>
        <ele>3035.0</ele>
      </trkpt>
      <trkpt lat="45.144585" lon="6.81892">
        <time>2023-04-19T11:30:11+00:00</time>
        <ele>3035.0</ele>
      </trkpt>
      <trkpt lat="45.144567" lon="6.818917">
        <time>2023-04-19T11:30:26+00:00</time>
        <ele>3036.0</ele>
      </trkpt>
      <trkpt lat="45.144549" lon="6.818918">
        <time>2023-04-19T11:30:29+00:00</time>
        <ele>3037.0</ele>
      </trkpt>
      <trkpt lat="45.144518" lon="6.818955">
        <time>2023-04-19T11:30:39+00:00</time>
        <ele>3038.0</ele>
      </trkpt>
      <trkpt lat="45.144485" lon="6.81898">
        <time>2023-04-19T11:30:59+00:00</time>
        <ele>3039.0</ele>
      </trkpt>
      <trkpt lat="45.144468" lon="6.818971">
        <time>2023-04-19T11:31:38+00:00</time>
        <ele>3040.0</ele>
      </trkpt>
      <trkpt lat="45.144445" lon="6.81896">
        <time>2023-04-19T11:31:43+00:00</time>
        <ele>3040.0</ele>
      </trkpt>
      <trkpt lat="45.144438" lon="6.818932">
        <time>2023-04-19T11:31:48+00:00</time>
        <ele>3040.0</ele>
      </trkpt>
      <trkpt lat="45.144419" lon="6.818908">
        <time>2023-04-19T11:31:55+00:00</time>
        <ele>3040.0</ele>
      </trkpt>
      <trkpt lat="45.1444" lon="6.818896">
        <time>2023-04-19T11:32:00+00:00</time>
        <ele>3039.0</ele>
      </trkpt>
      <trkpt lat="45.144378" lon="6.818897">
        <time>2023-04-19T11:32:04+00:00</time>
        <ele>3040.0</ele>
      </trkpt>
      <trkpt lat="45.14436" lon="6.818909">
        <time>2023-04-19T11:32:07+00:00</time>
        <ele>3040.0</ele>
      </trkpt>
      <trkpt lat="45.144312" lon="6.819">
        <time>2023-04-19T11:32:46+00:00</time>
        <ele>3042.0</ele>
      </trkpt>
      <trkpt lat="45.144211" lon="6.81912">
        <time>2023-04-19T11:33:43+00:00</time>
        <ele>3041.0</ele>
      </trkpt>
      <trkpt lat="45.14419" lon="6.819145">
        <time>2023-04-19T11:33:47+00:00</time>
        <ele>3040.0</ele>
      </trkpt>
      <trkpt lat="45.144173" lon="6.819155">
        <time>2023-04-19T11:34:16+00:00</time>
        <ele>3039.0</ele>
      </trkpt>
      <trkpt lat="45.14416" lon="6.819173">
        <time>2023-04-19T11:42:11+00:00</time>
        <ele>3038.0</ele>
      </trkpt>
      <trkpt lat="45.144185" lon="6.819097">
        <time>2023-04-19T11:42:19+00:00</time>
        <ele>3041.0</ele>
      </trkpt>
      <trkpt lat="45.144198" lon="6.819134">
        <time>2023-04-19T11:42:39+00:00</time>
        <ele>3040.0</ele>
      </trkpt>
      <trkpt lat="45.144194" lon="6.819135">
        <time>2023-04-19T11:43:46+00:00</time>
        <ele>3040.0</ele>
      </trkpt>
      <trkpt lat="45.144166" lon="6.819181">
        <time>2023-04-19T11:43:53+00:00</time>
        <ele>3038.0</ele>
      </trkpt>
      <trkpt lat="45.144188" lon="6.819204">
        <time>2023-04-19T11:44:24+00:00</time>
        <ele>3038.0</ele>
      </trkpt>
      <trkpt lat="45.144205" lon="6.819223">
        <time>2023-04-19T11:44:30+00:00</time>
        <ele>3038.0</ele>
      </trkpt>
      <trkpt lat="45.144202" lon="6.819216">
        <time>2023-04-19T11:45:36+00:00</time>
        <ele>3038.0</ele>
      </trkpt>
      <trkpt lat="45.144197" lon="6.819184">
        <time>2023-04-19T11:45:39+00:00</time>
        <ele>3039.0</ele>
      </trkpt>
      <trkpt lat="45.144191" lon="6.819158">
        <time>2023-04-19T11:45:42+00:00</time>
        <ele>3039.0</ele>
      </trkpt>
      <trkpt lat="45.144185" lon="6.819127">
        <time>2023-04-19T11:46:13+00:00</time>
        <ele>3040.0</ele>
      </trkpt>
      <trkpt lat="45.144197" lon="6.819128">
        <time>2023-04-19T11:46:52+00:00</time>
        <ele>3040.0</ele>
      </trkpt>
      <trkpt lat="45.144177" lon="6.819129">
        <time>2023-04-19T11:49:02+00:00</time>
        <ele>3040.0</ele>
      </trkpt>
      <trkpt lat="45.144225" lon="6.81914">
        <time>2023-04-19T11:49:46+00:00</time>
        <ele>3041.0</ele>
      </trkpt>
      <trkpt lat="45.144214" lon="6.819142">
        <time>2023-04-19T11:50:20+00:00</time>
        <ele>3040.0</ele>
      </trkpt>
      <trkpt lat="45.144176" lon="6.81914">
        <time>2023-04-19T11:50:24+00:00</time>
        <ele>3039.0</ele>
      </trkpt>
      <trkpt lat="45.144173" lon="6.819089">
        <time>2023-04-19T11:50:49+00:00</time>
        <ele>3041.0</ele>
      </trkpt>
      <trkpt lat="45.14422" lon="6.81909">
        <time>2023-04-19T11:50:54+00:00</time>
        <ele>3042.0</ele>
      </trkpt>
      <trkpt lat="45.144239" lon="6.819137">
        <time>2023-04-19T11:50:56+00:00</time>
        <ele>3041.0</ele>
      </trkpt>
      <trkpt lat="45.144297" lon="6.819134">
        <time>2023-04-19T11:50:59+00:00</time>
        <ele>3042.0</ele>
      </trkpt>
      <trkpt lat="45.144325" lon="6.81912">
        <time>2023-04-19T11:51:05+00:00</time>
        <ele>3042.0</ele>
      </trkpt>
      <trkpt lat="45.144339" lon="6.819062">
        <time>2023-04-19T11:51:08+00:00</time>
        <ele>3043.0</ele>
      </trkpt>
      <trkpt lat="45.144342" lon="6.81895">
        <time>2023-04-19T11:51:12+00:00</time>
        <ele>3041.0</ele>
      </trkpt>
      <trkpt lat="45.144358" lon="6.818896">
        <time>2023-04-19T11:51:14+00:00</time>
        <ele>3040.0</ele>
      </trkpt>
      <trkpt lat="45.144399" lon="6.818874">
        <time>2023-04-19T11:51:16+00:00</time>
        <ele>3039.0</ele>
      </trkpt>
      <trkpt lat="45.144431" lon="6.818877">
        <time>2023-04-19T11:51:21+00:00</time>
        <ele>3039.0</ele>
      </trkpt>
      <trkpt lat="45.14448" lon="6.818926">
        <time>2023-04-19T11:51:23+00:00</time>
        <ele>3039.0</ele>
      </trkpt>
      <trkpt lat="45.144507" lon="6.818985">
        <time>2023-04-19T11:51:24+00:00</time>
        <ele>3038.0</ele>
      </trkpt>
      <trkpt lat="45.144537" lon="6.81914">
        <time>2023-04-19T11:51:26+00:00</time>
        <ele>3037.0</ele>
      </trkpt>
      <trkpt lat="45.144532" lon="6.819197">
        <time>2023-04-19T11:51:27+00:00</time>
        <ele>3037.0</ele>
      </trkpt>
      <trkpt lat="45.144515" lon="6.819235">
        <time>2023-04-19T11:51:28+00:00</time>
        <ele>3037.0</ele>
      </trkpt>
      <trkpt lat="45.144501" lon="6.819255">
        <time>2023-04-19T11:51:30+00:00</time>
        <ele>3038.0</ele>
      </trkpt>
      <trkpt lat="45.14452" lon="6.819267">
        <time>2023-04-19T11:51:38+00:00</time>
        <ele>3037.0</ele>
      </trkpt>
      <trkpt lat="45.144549" lon="6.819282">
        <time>2023-04-19T11:51:39+00:00</time>
        <ele>3036.0</ele>
      </trkpt>
      <trkpt lat="45.144585" lon="6.819303">
        <time>2023-04-19T11:51:40+00:00</time>
        <ele>3035.0</ele>
      </trkpt>
      <trkpt lat="45.144623" lon="6.819358">
        <time>2023-04-19T11:51:41+00:00</time>
        <ele>3034.0</ele>
      </trkpt>
      <trkpt lat="45.144643" lon="6.819408">
        <time>2023-04-19T11:51:42+00:00</time>
        <ele>3033.0</ele>
      </trkpt>
      <trkpt lat="45.144643" lon="6.819445">
        <time>2023-04-19T11:51:43+00:00</time>
        <ele>3033.0</ele>
      </trkpt>
      <trkpt lat="45.144645" lon="6.819474">
        <time>2023-04-19T11:51:44+00:00</time>
        <ele>3033.0</ele>
      </trkpt>
      <trkpt lat="45.144668" lon="6.819501">
        <time>2023-04-19T11:51:45+00:00</time>
        <ele>3032.0</ele>
      </trkpt>
      <trkpt lat="45.14471" lon="6.819523">
        <time>2023-04-19T11:51:46+00:00</time>
        <ele>3031.0</ele>
      </trkpt>
      <trkpt lat="45.144753" lon="6.819518">
        <time>2023-04-19T11:51:47+00:00</time>
        <ele>3029.0</ele>
      </trkpt>
      <trkpt lat="45.144768" lon="6.819469">
        <time>2023-04-19T11:51:48+00:00</time>
        <ele>3029.0</ele>
      </trkpt>
      <trkpt lat="45.144771" lon="6.819431">
        <time>2023-04-19T11:51:49+00:00</time>
        <ele>3029.0</ele>
      </trkpt>
      <trkpt lat="45.144787" lon="6.819377">
        <time>2023-04-19T11:51:51+00:00</time>
        <ele>3028.0</ele>
      </trkpt>
      <trkpt lat="45.144814" lon="6.819377">
        <time>2023-04-19T11:51:52+00:00</time>
        <ele>3027.0</ele>
      </trkpt>
      <trkpt lat="45.144834" lon="6.819395">
        <time>2023-04-19T11:51:53+00:00</time>
        <ele>3027.0</ele>
      </trkpt>
      <trkpt lat="45.144875" lon="6.8195">
        <time>2023-04-19T11:51:56+00:00</time>
        <ele>3025.0</ele>
      </trkpt>
      <trkpt lat="45.144885" lon="6.819536">
        <time>2023-04-19T11:51:57+00:00</time>
        <ele>3025.0</ele>
      </trkpt>
      <trkpt lat="45.144897" lon="6.819567">
        <time>2023-04-19T11:51:58+00:00</time>
        <ele>3025.0</ele>
      </trkpt>
      <trkpt lat="45.144941" lon="6.81957">
        <time>2023-04-19T11:52:00+00:00</time>
        <ele>3023.0</ele>
      </trkpt>
      <trkpt lat="45.144949" lon="6.819498">
        <time>2023-04-19T11:52:02+00:00</time>
        <ele>3023.0</ele>
      </trkpt>
      <trkpt lat="45.144974" lon="6.819439">
        <time>2023-04-19T11:52:04+00:00</time>
        <ele>3022.0</ele>
      </trkpt>
      <trkpt lat="45.145006" lon="6.819442">
        <time>2023-04-19T11:52:05+00:00</time>
        <ele>3021.0</ele>
      </trkpt>
      <trkpt lat="45.145059" lon="6.81946">
        <time>2023-04-19T11:52:08+00:00</time>
        <ele>3019.0</ele>
      </trkpt>
      <trkpt lat="45.145067" lon="6.819392">
        <time>2023-04-19T11:52:10+00:00</time>
        <ele>3019.0</ele>
      </trkpt>
      <trkpt lat="45.145064" lon="6.819289">
        <time>2023-04-19T11:52:12+00:00</time>
        <ele>3019.0</ele>
      </trkpt>
      <trkpt lat="45.145046" lon="6.819226">
        <time>2023-04-19T11:52:14+00:00</time>
        <ele>3019.0</ele>
      </trkpt>
      <trkpt lat="45.145053" lon="6.819196">
        <time>2023-04-19T11:52:29+00:00</time>
        <ele>3018.0</ele>
      </trkpt>
      <trkpt lat="45.145076" lon="6.81916">
        <time>2023-04-19T11:52:31+00:00</time>
        <ele>3017.0</ele>
      </trkpt>
      <trkpt lat="45.145109" lon="6.819159">
        <time>2023-04-19T11:52:32+00:00</time>
        <ele>3016.0</ele>
      </trkpt>
      <trkpt lat="45.145147" lon="6.819209">
        <time>2023-04-19T11:52:34+00:00</time>
        <ele>3016.0</ele>
      </trkpt>
      <trkpt lat="45.145189" lon="6.819219">
        <time>2023-04-19T11:52:36+00:00</time>
        <ele>3015.0</ele>
      </trkpt>
      <trkpt lat="45.145191" lon="6.819165">
        <time>2023-04-19T11:52:37+00:00</time>
        <ele>3014.0</ele>
      </trkpt>
      <trkpt lat="45.145177" lon="6.819076">
        <time>2023-04-19T11:52:39+00:00</time>
        <ele>3013.0</ele>
      </trkpt>
      <trkpt lat="45.145228" lon="6.819043">
        <time>2023-04-19T11:52:41+00:00</time>
        <ele>3011.0</ele>
      </trkpt>
      <trkpt lat="45.145293" lon="6.819087">
        <time>2023-04-19T11:52:44+00:00</time>
        <ele>3010.0</ele>
      </trkpt>
      <trkpt lat="45.145316" lon="6.819001">
        <time>2023-04-19T11:52:46+00:00</time>
        <ele>3008.0</ele>
      </trkpt>
      <trkpt lat="45.145304" lon="6.818954">
        <time>2023-04-19T11:52:47+00:00</time>
        <ele>3008.0</ele>
      </trkpt>
      <trkpt lat="45.145318" lon="6.818888">
        <time>2023-04-19T11:52:49+00:00</time>
        <ele>3006.0</ele>
      </trkpt>
      <trkpt lat="45.145361" lon="6.818886">
        <time>2023-04-19T11:52:50+00:00</time>
        <ele>3004.0</ele>
      </trkpt>
      <trkpt lat="45.145389" lon="6.818899">
        <time>2023-04-19T11:52:51+00:00</time>
        <ele>3003.0</ele>
      </trkpt>
      <trkpt lat="45.145406" lon="6.818865">
        <time>2023-04-19T11:53:07+00:00</time>
        <ele>3002.0</ele>
      </trkpt>
      <trkpt lat="45.145385" lon="6.818803">
        <time>2023-04-19T11:53:09+00:00</time>
        <ele>3002.0</ele>
      </trkpt>
      <trkpt lat="45.145408" lon="6.818757">
        <time>2023-04-19T11:53:11+00:00</time>
        <ele>3000.0</ele>
      </trkpt>
      <trkpt lat="45.145446" lon="6.818756">
        <time>2023-04-19T11:53:12+00:00</time>
        <ele>2998.0</ele>
      </trkpt>
      <trkpt lat="45.145479" lon="6.818781">
        <time>2023-04-19T11:53:14+00:00</time>
        <ele>2997.0</ele>
      </trkpt>
      <trkpt lat="45.145493" lon="6.818753">
        <time>2023-04-19T11:53:17+00:00</time>
        <ele>2996.0</ele>
      </trkpt>
      <trkpt lat="45.145518" lon="6.818772">
        <time>2023-04-19T11:53:18+00:00</time>
        <ele>2995.0</ele>
      </trkpt>
      <trkpt lat="45.145585" lon="6.818876">
        <time>2023-04-19T11:53:23+00:00</time>
        <ele>2994.0</ele>
      </trkpt>
      <trkpt lat="45.145562" lon="6.818726">
        <time>2023-04-19T11:53:27+00:00</time>
        <ele>2992.0</ele>
      </trkpt>
      <trkpt lat="45.145574" lon="6.81866">
        <time>2023-04-19T11:53:29+00:00</time>
        <ele>2990.0</ele>
      </trkpt>
      <trkpt lat="45.14562" lon="6.818663">
        <time>2023-04-19T11:53:30+00:00</time>
        <ele>2988.0</ele>
      </trkpt>
      <trkpt lat="45.145663" lon="6.818695">
        <time>2023-04-19T11:53:31+00:00</time>
        <ele>2986.0</ele>
      </trkpt>
      <trkpt lat="45.145686" lon="6.818739">
        <time>2023-04-19T11:53:32+00:00</time>
        <ele>2986.0</ele>
      </trkpt>
      <trkpt lat="45.145732" lon="6.818774">
        <time>2023-04-19T11:53:34+00:00</time>
        <ele>2984.0</ele>
      </trkpt>
      <trkpt lat="45.145757" lon="6.818746">
        <time>2023-04-19T11:53:35+00:00</time>
        <ele>2982.0</ele>
      </trkpt>
      <trkpt lat="45.145756" lon="6.818676">
        <time>2023-04-19T11:53:36+00:00</time>
        <ele>2981.0</ele>
      </trkpt>
      <trkpt lat="45.145718" lon="6.818615">
        <time>2023-04-19T11:53:38+00:00</time>
        <ele>2982.0</ele>
      </trkpt>
      <trkpt lat="45.145748" lon="6.818585">
        <time>2023-04-19T11:53:57+00:00</time>
        <ele>2980.0</ele>
      </trkpt>
      <trkpt lat="45.145792" lon="6.818627">
        <time>2023-04-19T11:53:59+00:00</time>
        <ele>2978.0</ele>
      </trkpt>
      <trkpt lat="45.145833" lon="6.81861">
        <time>2023-04-19T11:54:01+00:00</time>
        <ele>2976.0</ele>
      </trkpt>
      <trkpt lat="45.145844" lon="6.818555">
        <time>2023-04-19T11:54:02+00:00</time>
        <ele>2974.0</ele>
      </trkpt>
      <trkpt lat="45.145831" lon="6.818514">
        <time>2023-04-19T11:54:03+00:00</time>
        <ele>2974.0</ele>
      </trkpt>
      <trkpt lat="45.145862" lon="6.818455">
        <time>2023-04-19T11:54:05+00:00</time>
        <ele>2972.0</ele>
      </trkpt>
      <trkpt lat="45.145907" lon="6.818455">
        <time>2023-04-19T11:54:06+00:00</time>
        <ele>2969.0</ele>
      </trkpt>
      <trkpt lat="45.145943" lon="6.818501">
        <time>2023-04-19T11:54:07+00:00</time>
        <ele>2968.0</ele>
      </trkpt>
      <trkpt lat="45.145989" lon="6.818554">
        <time>2023-04-19T11:54:09+00:00</time>
        <ele>2967.0</ele>
      </trkpt>
      <trkpt lat="45.146019" lon="6.818525">
        <time>2023-04-19T11:54:10+00:00</time>
        <ele>2965.0</ele>
      </trkpt>
      <trkpt lat="45.146029" lon="6.818467">
        <time>2023-04-19T11:54:11+00:00</time>
        <ele>2964.0</ele>
      </trkpt>
      <trkpt lat="45.146013" lon="6.818416">
        <time>2023-04-19T11:54:12+00:00</time>
        <ele>2964.0</ele>
      </trkpt>
      <trkpt lat="45.146014" lon="6.818301">
        <time>2023-04-19T11:54:14+00:00</time>
        <ele>2962.0</ele>
      </trkpt>
      <trkpt lat="45.146061" lon="6.818293">
        <time>2023-04-19T11:54:15+00:00</time>
        <ele>2960.0</ele>
      </trkpt>
      <trkpt lat="45.146113" lon="6.818324">
        <time>2023-04-19T11:54:16+00:00</time>
        <ele>2958.0</ele>
      </trkpt>
      <trkpt lat="45.146138" lon="6.81836">
        <time>2023-04-19T11:54:17+00:00</time>
        <ele>2958.0</ele>
      </trkpt>
      <trkpt lat="45.146169" lon="6.818379">
        <time>2023-04-19T11:54:19+00:00</time>
        <ele>2957.0</ele>
      </trkpt>
      <trkpt lat="45.146178" lon="6.818285">
        <time>2023-04-19T11:54:21+00:00</time>
        <ele>2955.0</ele>
      </trkpt>
      <trkpt lat="45.146154" lon="6.818185">
        <time>2023-04-19T11:54:23+00:00</time>
        <ele>2954.0</ele>
      </trkpt>
      <trkpt lat="45.146172" lon="6.818146">
        <time>2023-04-19T11:54:24+00:00</time>
        <ele>2953.0</ele>
      </trkpt>
      <trkpt lat="45.146224" lon="6.818143">
        <time>2023-04-19T11:54:25+00:00</time>
        <ele>2951.0</ele>
      </trkpt>
      <trkpt lat="45.146272" lon="6.818172">
        <time>2023-04-19T11:54:26+00:00</time>
        <ele>2950.0</ele>
      </trkpt>
      <trkpt lat="45.146297" lon="6.8182">
        <time>2023-04-19T11:54:27+00:00</time>
        <ele>2950.0</ele>
      </trkpt>
      <trkpt lat="45.146338" lon="6.818236">
        <time>2023-04-19T11:54:29+00:00</time>
        <ele>2949.0</ele>
      </trkpt>
      <trkpt lat="45.146346" lon="6.818141">
        <time>2023-04-19T11:54:31+00:00</time>
        <ele>2947.0</ele>
      </trkpt>
      <trkpt lat="45.146333" lon="6.818078">
        <time>2023-04-19T11:54:32+00:00</time>
        <ele>2947.0</ele>
      </trkpt>
      <trkpt lat="45.146309" lon="6.818054">
        <time>2023-04-19T11:54:33+00:00</time>
        <ele>2947.0</ele>
      </trkpt>
      <trkpt lat="45.146289" lon="6.818044">
        <time>2023-04-19T11:54:39+00:00</time>
        <ele>2948.0</ele>
      </trkpt>
      <trkpt lat="45.146304" lon="6.818025">
        <time>2023-04-19T11:54:57+00:00</time>
        <ele>2947.0</ele>
      </trkpt>
      <trkpt lat="45.146374" lon="6.818015">
        <time>2023-04-19T11:54:59+00:00</time>
        <ele>2945.0</ele>
      </trkpt>
      <trkpt lat="45.146397" lon="6.818027">
        <time>2023-04-19T11:55:00+00:00</time>
        <ele>2944.0</ele>
      </trkpt>
      <trkpt lat="45.146432" lon="6.818017">
        <time>2023-04-19T11:55:02+00:00</time>
        <ele>2943.0</ele>
      </trkpt>
      <trkpt lat="45.14642" lon="6.817873">
        <time>2023-04-19T11:55:05+00:00</time>
        <ele>2941.0</ele>
      </trkpt>
      <trkpt lat="45.146453" lon="6.817847">
        <time>2023-04-19T11:55:06+00:00</time>
        <ele>2939.0</ele>
      </trkpt>
      <trkpt lat="45.146506" lon="6.817878">
        <time>2023-04-19T11:55:07+00:00</time>
        <ele>2938.0</ele>
      </trkpt>
      <trkpt lat="45.146564" lon="6.817919">
        <time>2023-04-19T11:55:09+00:00</time>
        <ele>2937.0</ele>
      </trkpt>
      <trkpt lat="45.146586" lon="6.817884">
        <time>2023-04-19T11:55:10+00:00</time>
        <ele>2935.0</ele>
      </trkpt>
      <trkpt lat="45.14657" lon="6.817814">
        <time>2023-04-19T11:55:11+00:00</time>
        <ele>2935.0</ele>
      </trkpt>
      <trkpt lat="45.146546" lon="6.81777">
        <time>2023-04-19T11:55:12+00:00</time>
        <ele>2935.0</ele>
      </trkpt>
      <trkpt lat="45.146552" lon="6.817699">
        <time>2023-04-19T11:55:14+00:00</time>
        <ele>2933.0</ele>
      </trkpt>
      <trkpt lat="45.14659" lon="6.817692">
        <time>2023-04-19T11:55:15+00:00</time>
        <ele>2932.0</ele>
      </trkpt>
      <trkpt lat="45.146631" lon="6.817718">
        <time>2023-04-19T11:55:16+00:00</time>
        <ele>2931.0</ele>
      </trkpt>
      <trkpt lat="45.14665" lon="6.817745">
        <time>2023-04-19T11:55:17+00:00</time>
        <ele>2931.0</ele>
      </trkpt>
      <trkpt lat="45.146694" lon="6.817758">
        <time>2023-04-19T11:55:19+00:00</time>
        <ele>2930.0</ele>
      </trkpt>
      <trkpt lat="45.146716" lon="6.817723">
        <time>2023-04-19T11:55:20+00:00</time>
        <ele>2928.0</ele>
      </trkpt>
      <trkpt lat="45.146706" lon="6.817666">
        <time>2023-04-19T11:55:21+00:00</time>
        <ele>2928.0</ele>
      </trkpt>
      <trkpt lat="45.14669" lon="6.81761">
        <time>2023-04-19T11:55:22+00:00</time>
        <ele>2927.0</ele>
      </trkpt>
      <trkpt lat="45.146736" lon="6.817536">
        <time>2023-04-19T11:55:24+00:00</time>
        <ele>2924.0</ele>
      </trkpt>
      <trkpt lat="45.146786" lon="6.817544">
        <time>2023-04-19T11:55:25+00:00</time>
        <ele>2923.0</ele>
      </trkpt>
      <trkpt lat="45.14684" lon="6.817607">
        <time>2023-04-19T11:55:27+00:00</time>
        <ele>2922.0</ele>
      </trkpt>
      <trkpt lat="45.146891" lon="6.817632">
        <time>2023-04-19T11:55:29+00:00</time>
        <ele>2920.0</ele>
      </trkpt>
      <trkpt lat="45.146911" lon="6.817582">
        <time>2023-04-19T11:55:30+00:00</time>
        <ele>2918.0</ele>
      </trkpt>
      <trkpt lat="45.146831" lon="6.817323">
        <time>2023-04-19T11:55:35+00:00</time>
        <ele>2917.0</ele>
      </trkpt>
      <trkpt lat="45.146811" lon="6.817226">
        <time>2023-04-19T11:55:37+00:00</time>
        <ele>2916.0</ele>
      </trkpt>
      <trkpt lat="45.146772" lon="6.817097">
        <time>2023-04-19T11:55:40+00:00</time>
        <ele>2915.0</ele>
      </trkpt>
      <trkpt lat="45.146755" lon="6.817072">
        <time>2023-04-19T11:55:42+00:00</time>
        <ele>2915.0</ele>
      </trkpt>
      <trkpt lat="45.146769" lon="6.817041">
        <time>2023-04-19T11:55:57+00:00</time>
        <ele>2914.0</ele>
      </trkpt>
      <trkpt lat="45.146838" lon="6.817054">
        <time>2023-04-19T11:55:59+00:00</time>
        <ele>2912.0</ele>
      </trkpt>
      <trkpt lat="45.146855" lon="6.817075">
        <time>2023-04-19T11:56:00+00:00</time>
        <ele>2912.0</ele>
      </trkpt>
      <trkpt lat="45.146901" lon="6.817027">
        <time>2023-04-19T11:56:02+00:00</time>
        <ele>2909.0</ele>
      </trkpt>
      <trkpt lat="45.146884" lon="6.816867">
        <time>2023-04-19T11:56:05+00:00</time>
        <ele>2908.0</ele>
      </trkpt>
      <trkpt lat="45.146885" lon="6.816829">
        <time>2023-04-19T11:56:06+00:00</time>
        <ele>2907.0</ele>
      </trkpt>
      <trkpt lat="45.146914" lon="6.816789">
        <time>2023-04-19T11:56:07+00:00</time>
        <ele>2905.0</ele>
      </trkpt>
      <trkpt lat="45.147004" lon="6.816825">
        <time>2023-04-19T11:56:09+00:00</time>
        <ele>2902.0</ele>
      </trkpt>
      <trkpt lat="45.147019" lon="6.816863">
        <time>2023-04-19T11:56:10+00:00</time>
        <ele>2902.0</ele>
      </trkpt>
      <trkpt lat="45.147035" lon="6.816894">
        <time>2023-04-19T11:56:11+00:00</time>
        <ele>2902.0</ele>
      </trkpt>
      <trkpt lat="45.14706" lon="6.816905">
        <time>2023-04-19T11:56:12+00:00</time>
        <ele>2901.0</ele>
      </trkpt>
      <trkpt lat="45.147105" lon="6.816845">
        <time>2023-04-19T11:56:14+00:00</time>
        <ele>2898.0</ele>
      </trkpt>
      <trkpt lat="45.147087" lon="6.8167">
        <time>2023-04-19T11:56:17+00:00</time>
        <ele>2897.0</ele>
      </trkpt>
      <trkpt lat="45.14715" lon="6.816668">
        <time>2023-04-19T11:56:19+00:00</time>
        <ele>2894.0</ele>
      </trkpt>
      <trkpt lat="45.147214" lon="6.816733">
        <time>2023-04-19T11:56:21+00:00</time>
        <ele>2894.0</ele>
      </trkpt>
      <trkpt lat="45.147264" lon="6.816847">
        <time>2023-04-19T11:56:24+00:00</time>
        <ele>2894.0</ele>
      </trkpt>
      <trkpt lat="45.147279" lon="6.81687">
        <time>2023-04-19T11:56:25+00:00</time>
        <ele>2894.0</ele>
      </trkpt>
      <trkpt lat="45.147301" lon="6.816882">
        <time>2023-04-19T11:56:26+00:00</time>
        <ele>2893.0</ele>
      </trkpt>
      <trkpt lat="45.147321" lon="6.816852">
        <time>2023-04-19T11:56:27+00:00</time>
        <ele>2892.0</ele>
      </trkpt>
      <trkpt lat="45.147276" lon="6.816584">
        <time>2023-04-19T11:56:32+00:00</time>
        <ele>2890.0</ele>
      </trkpt>
      <trkpt lat="45.147248" lon="6.8165">
        <time>2023-04-19T11:56:34+00:00</time>
        <ele>2890.0</ele>
      </trkpt>
      <trkpt lat="45.147251" lon="6.816461">
        <time>2023-04-19T11:56:53+00:00</time>
        <ele>2889.0</ele>
      </trkpt>
      <trkpt lat="45.147283" lon="6.816446">
        <time>2023-04-19T11:56:54+00:00</time>
        <ele>2888.0</ele>
      </trkpt>
      <trkpt lat="45.147325" lon="6.816444">
        <time>2023-04-19T11:56:55+00:00</time>
        <ele>2887.0</ele>
      </trkpt>
      <trkpt lat="45.147429" lon="6.816613">
        <time>2023-04-19T11:57:00+00:00</time>
        <ele>2884.0</ele>
      </trkpt>
      <trkpt lat="45.14746" lon="6.816649">
        <time>2023-04-19T11:57:02+00:00</time>
        <ele>2883.0</ele>
      </trkpt>
      <trkpt lat="45.147482" lon="6.816641">
        <time>2023-04-19T11:57:03+00:00</time>
        <ele>2882.0</ele>
      </trkpt>
      <trkpt lat="45.147487" lon="6.816575">
        <time>2023-04-19T11:57:04+00:00</time>
        <ele>2881.0</ele>
      </trkpt>
      <trkpt lat="45.147442" lon="6.816404">
        <time>2023-04-19T11:57:07+00:00</time>
        <ele>2881.0</ele>
      </trkpt>
      <trkpt lat="45.147461" lon="6.816319">
        <time>2023-04-19T11:57:09+00:00</time>
        <ele>2879.0</ele>
      </trkpt>
      <trkpt lat="45.147504" lon="6.816308">
        <time>2023-04-19T11:57:10+00:00</time>
        <ele>2877.0</ele>
      </trkpt>
      <trkpt lat="45.14755" lon="6.816339">
        <time>2023-04-19T11:57:11+00:00</time>
        <ele>2876.0</ele>
      </trkpt>
      <trkpt lat="45.147594" lon="6.816488">
        <time>2023-04-19T11:57:14+00:00</time>
        <ele>2876.0</ele>
      </trkpt>
      <trkpt lat="45.147629" lon="6.816477">
        <time>2023-04-19T11:57:15+00:00</time>
        <ele>2874.0</ele>
      </trkpt>
      <trkpt lat="45.147654" lon="6.816405">
        <time>2023-04-19T11:57:16+00:00</time>
        <ele>2872.0</ele>
      </trkpt>
      <trkpt lat="45.147663" lon="6.816326">
        <time>2023-04-19T11:57:17+00:00</time>
        <ele>2870.0</ele>
      </trkpt>
      <trkpt lat="45.147647" lon="6.816171">
        <time>2023-04-19T11:57:20+00:00</time>
        <ele>2870.0</ele>
      </trkpt>
      <trkpt lat="45.147647" lon="6.8161">
        <time>2023-04-19T11:57:22+00:00</time>
        <ele>2869.0</ele>
      </trkpt>
      <trkpt lat="45.147716" lon="6.816029">
        <time>2023-04-19T11:57:24+00:00</time>
        <ele>2866.0</ele>
      </trkpt>
      <trkpt lat="45.147776" lon="6.816042">
        <time>2023-04-19T11:57:25+00:00</time>
        <ele>2864.0</ele>
      </trkpt>
      <trkpt lat="45.14796" lon="6.816312">
        <time>2023-04-19T11:57:32+00:00</time>
        <ele>2861.0</ele>
      </trkpt>
      <trkpt lat="45.148011" lon="6.816334">
        <time>2023-04-19T11:57:34+00:00</time>
        <ele>2860.0</ele>
      </trkpt>
      <trkpt lat="45.148032" lon="6.816286">
        <time>2023-04-19T11:57:36+00:00</time>
        <ele>2860.0</ele>
      </trkpt>
      <trkpt lat="45.148008" lon="6.816264">
        <time>2023-04-19T11:57:41+00:00</time>
        <ele>2860.0</ele>
      </trkpt>
      <trkpt lat="45.147997" lon="6.816111">
        <time>2023-04-19T11:58:09+00:00</time>
        <ele>2859.0</ele>
      </trkpt>
      <trkpt lat="45.147965" lon="6.815707">
        <time>2023-04-19T11:58:17+00:00</time>
        <ele>2855.0</ele>
      </trkpt>
      <trkpt lat="45.148005" lon="6.815412">
        <time>2023-04-19T11:58:21+00:00</time>
        <ele>2850.0</ele>
      </trkpt>
      <trkpt lat="45.148018" lon="6.815368">
        <time>2023-04-19T11:58:22+00:00</time>
        <ele>2850.0</ele>
      </trkpt>
      <trkpt lat="45.148132" lon="6.815206">
        <time>2023-04-19T11:58:27+00:00</time>
        <ele>2846.0</ele>
      </trkpt>
      <trkpt lat="45.148151" lon="6.815127">
        <time>2023-04-19T11:58:31+00:00</time>
        <ele>2846.0</ele>
      </trkpt>
      <trkpt lat="45.148121" lon="6.815035">
        <time>2023-04-19T11:58:55+00:00</time>
        <ele>2847.0</ele>
      </trkpt>
      <trkpt lat="45.148088" lon="6.81498">
        <time>2023-04-19T11:58:57+00:00</time>
        <ele>2848.0</ele>
      </trkpt>
      <trkpt lat="45.147894" lon="6.814795">
        <time>2023-04-19T11:59:06+00:00</time>
        <ele>2848.0</ele>
      </trkpt>
      <trkpt lat="45.147887" lon="6.814765">
        <time>2023-04-19T11:59:07+00:00</time>
        <ele>2848.0</ele>
      </trkpt>
      <trkpt lat="45.147943" lon="6.814698">
        <time>2023-04-19T11:59:09+00:00</time>
        <ele>2845.0</ele>
      </trkpt>
      <trkpt lat="45.148055" lon="6.814711">
        <time>2023-04-19T11:59:12+00:00</time>
        <ele>2843.0</ele>
      </trkpt>
      <trkpt lat="45.148123" lon="6.814748">
        <time>2023-04-19T11:59:15+00:00</time>
        <ele>2843.0</ele>
      </trkpt>
      <trkpt lat="45.148165" lon="6.814756">
        <time>2023-04-19T11:59:17+00:00</time>
        <ele>2843.0</ele>
      </trkpt>
      <trkpt lat="45.148176" lon="6.814716">
        <time>2023-04-19T11:59:21+00:00</time>
        <ele>2842.0</ele>
      </trkpt>
      <trkpt lat="45.148096" lon="6.814642">
        <time>2023-04-19T11:59:26+00:00</time>
        <ele>2840.0</ele>
      </trkpt>
      <trkpt lat="45.148048" lon="6.814569">
        <time>2023-04-19T11:59:29+00:00</time>
        <ele>2839.0</ele>
      </trkpt>
      <trkpt lat="45.148068" lon="6.81452">
        <time>2023-04-19T11:59:30+00:00</time>
        <ele>2837.0</ele>
      </trkpt>
      <trkpt lat="45.148121" lon="6.814501">
        <time>2023-04-19T11:59:34+00:00</time>
        <ele>2836.0</ele>
      </trkpt>
      <trkpt lat="45.148095" lon="6.814462">
        <time>2023-04-19T11:59:37+00:00</time>
        <ele>2835.0</ele>
      </trkpt>
      <trkpt lat="45.147989" lon="6.814406">
        <time>2023-04-19T11:59:41+00:00</time>
        <ele>2835.0</ele>
      </trkpt>
      <trkpt lat="45.147942" lon="6.81435">
        <time>2023-04-19T11:59:44+00:00</time>
        <ele>2834.0</ele>
      </trkpt>
      <trkpt lat="45.147944" lon="6.814311">
        <time>2023-04-19T11:59:45+00:00</time>
        <ele>2832.0</ele>
      </trkpt>
      <trkpt lat="45.147978" lon="6.81429">
        <time>2023-04-19T11:59:47+00:00</time>
        <ele>2831.0</ele>
      </trkpt>
      <trkpt lat="45.147944" lon="6.81424">
        <time>2023-04-19T11:59:51+00:00</time>
        <ele>2830.0</ele>
      </trkpt>
      <trkpt lat="45.147905" lon="6.814228">
        <time>2023-04-19T11:59:52+00:00</time>
        <ele>2830.0</ele>
      </trkpt>
      <trkpt lat="45.147863" lon="6.814214">
        <time>2023-04-19T11:59:54+00:00</time>
        <ele>2830.0</ele>
      </trkpt>
      <trkpt lat="45.147861" lon="6.814174">
        <time>2023-04-19T11:59:55+00:00</time>
        <ele>2829.0</ele>
      </trkpt>
      <trkpt lat="45.147886" lon="6.814128">
        <time>2023-04-19T11:59:56+00:00</time>
        <ele>2826.0</ele>
      </trkpt>
      <trkpt lat="45.147944" lon="6.814096">
        <time>2023-04-19T11:59:57+00:00</time>
        <ele>2824.0</ele>
      </trkpt>
      <trkpt lat="45.148094" lon="6.81411">
        <time>2023-04-19T12:00:01+00:00</time>
        <ele>2823.0</ele>
      </trkpt>
      <trkpt lat="45.148119" lon="6.814117">
        <time>2023-04-19T12:00:02+00:00</time>
        <ele>2823.0</ele>
      </trkpt>
      <trkpt lat="45.148169" lon="6.814105">
        <time>2023-04-19T12:00:19+00:00</time>
        <ele>2822.0</ele>
      </trkpt>
      <trkpt lat="45.148324" lon="6.814068">
        <time>2023-04-19T12:00:25+00:00</time>
        <ele>2820.0</ele>
      </trkpt>
      <trkpt lat="45.148361" lon="6.814086">
        <time>2023-04-19T12:00:26+00:00</time>
        <ele>2820.0</ele>
      </trkpt>
      <trkpt lat="45.1484" lon="6.814091">
        <time>2023-04-19T12:00:29+00:00</time>
        <ele>2820.0</ele>
      </trkpt>
      <trkpt lat="45.148415" lon="6.814056">
        <time>2023-04-19T12:00:30+00:00</time>
        <ele>2818.0</ele>
      </trkpt>
      <trkpt lat="45.148405" lon="6.813991">
        <time>2023-04-19T12:00:31+00:00</time>
        <ele>2816.0</ele>
      </trkpt>
      <trkpt lat="45.148387" lon="6.813929">
        <time>2023-04-19T12:00:32+00:00</time>
        <ele>2813.0</ele>
      </trkpt>
      <trkpt lat="45.148364" lon="6.813715">
        <time>2023-04-19T12:00:36+00:00</time>
        <ele>2808.0</ele>
      </trkpt>
      <trkpt lat="45.148326" lon="6.813575">
        <time>2023-04-19T12:00:39+00:00</time>
        <ele>2807.0</ele>
      </trkpt>
      <trkpt lat="45.148336" lon="6.813541">
        <time>2023-04-19T12:00:40+00:00</time>
        <ele>2806.0</ele>
      </trkpt>
      <trkpt lat="45.148359" lon="6.813521">
        <time>2023-04-19T12:00:41+00:00</time>
        <ele>2806.0</ele>
      </trkpt>
      <trkpt lat="45.148379" lon="6.813514">
        <time>2023-04-19T12:00:42+00:00</time>
        <ele>2806.0</ele>
      </trkpt>
      <trkpt lat="45.148477" lon="6.81343">
        <time>2023-04-19T12:00:46+00:00</time>
        <ele>2804.0</ele>
      </trkpt>
      <trkpt lat="45.148509" lon="6.813415">
        <time>2023-04-19T12:00:47+00:00</time>
        <ele>2804.0</ele>
      </trkpt>
      <trkpt lat="45.148621" lon="6.813454">
        <time>2023-04-19T12:00:51+00:00</time>
        <ele>2803.0</ele>
      </trkpt>
      <trkpt lat="45.148688" lon="6.813464">
        <time>2023-04-19T12:00:53+00:00</time>
        <ele>2802.0</ele>
      </trkpt>
      <trkpt lat="45.148727" lon="6.813475">
        <time>2023-04-19T12:00:54+00:00</time>
        <ele>2801.0</ele>
      </trkpt>
      <trkpt lat="45.148751" lon="6.813505">
        <time>2023-04-19T12:00:55+00:00</time>
        <ele>2801.0</ele>
      </trkpt>
      <trkpt lat="45.148806" lon="6.813784">
        <time>2023-04-19T12:01:02+00:00</time>
        <ele>2800.0</ele>
      </trkpt>
      <trkpt lat="45.148807" lon="6.813826">
        <time>2023-04-19T12:01:03+00:00</time>
        <ele>2800.0</ele>
      </trkpt>
      <trkpt lat="45.148803" lon="6.813851">
        <time>2023-04-19T12:01:04+00:00</time>
        <ele>2801.0</ele>
      </trkpt>
      <trkpt lat="45.148818" lon="6.813881">
        <time>2023-04-19T12:01:21+00:00</time>
        <ele>2801.0</ele>
      </trkpt>
      <trkpt lat="45.148851" lon="6.813836">
        <time>2023-04-19T12:01:24+00:00</time>
        <ele>2799.0</ele>
      </trkpt>
      <trkpt lat="45.148882" lon="6.813805">
        <time>2023-04-19T12:01:33+00:00</time>
        <ele>2798.0</ele>
      </trkpt>
      <trkpt lat="45.149007" lon="6.813439">
        <time>2023-04-19T12:01:42+00:00</time>
        <ele>2794.0</ele>
      </trkpt>
      <trkpt lat="45.149074" lon="6.813188">
        <time>2023-04-19T12:01:47+00:00</time>
        <ele>2792.0</ele>
      </trkpt>
      <trkpt lat="45.14914" lon="6.813076">
        <time>2023-04-19T12:01:49+00:00</time>
        <ele>2790.0</ele>
      </trkpt>
      <trkpt lat="45.149558" lon="6.812871">
        <time>2023-04-19T12:01:57+00:00</time>
        <ele>2780.0</ele>
      </trkpt>
      <trkpt lat="45.149847" lon="6.81282">
        <time>2023-04-19T12:02:02+00:00</time>
        <ele>2775.0</ele>
      </trkpt>
      <trkpt lat="45.150137" lon="6.8127">
        <time>2023-04-19T12:02:11+00:00</time>
        <ele>2772.0</ele>
      </trkpt>
      <trkpt lat="45.150154" lon="6.81268">
        <time>2023-04-19T12:02:14+00:00</time>
        <ele>2772.0</ele>
      </trkpt>
      <trkpt lat="45.150207" lon="6.812656">
        <time>2023-04-19T12:02:26+00:00</time>
        <ele>2772.0</ele>
      </trkpt>
      <trkpt lat="45.150362" lon="6.81261">
        <time>2023-04-19T12:02:32+00:00</time>
        <ele>2770.0</ele>
      </trkpt>
      <trkpt lat="45.150409" lon="6.812596">
        <time>2023-04-19T12:02:34+00:00</time>
        <ele>2769.0</ele>
      </trkpt>
      <trkpt lat="45.150434" lon="6.812595">
        <time>2023-04-19T12:02:35+00:00</time>
        <ele>2768.0</ele>
      </trkpt>
      <trkpt lat="45.150457" lon="6.812629">
        <time>2023-04-19T12:02:36+00:00</time>
        <ele>2767.0</ele>
      </trkpt>
      <trkpt lat="45.150446" lon="6.812678">
        <time>2023-04-19T12:02:37+00:00</time>
        <ele>2766.0</ele>
      </trkpt>
      <trkpt lat="45.150417" lon="6.812707">
        <time>2023-04-19T12:02:38+00:00</time>
        <ele>2766.0</ele>
      </trkpt>
      <trkpt lat="45.150412" lon="6.812722">
        <time>2023-04-19T12:03:28+00:00</time>
        <ele>2766.0</ele>
      </trkpt>
      <trkpt lat="45.150423" lon="6.812767">
        <time>2023-04-19T12:03:59+00:00</time>
        <ele>2765.0</ele>
      </trkpt>
      <trkpt lat="45.150454" lon="6.812787">
        <time>2023-04-19T12:04:00+00:00</time>
        <ele>2764.0</ele>
      </trkpt>
      <trkpt lat="45.150492" lon="6.812774">
        <time>2023-04-19T12:04:01+00:00</time>
        <ele>2763.0</ele>
      </trkpt>
      <trkpt lat="45.150528" lon="6.812762">
        <time>2023-04-19T12:04:02+00:00</time>
        <ele>2763.0</ele>
      </trkpt>
      <trkpt lat="45.150649" lon="6.812737">
        <time>2023-04-19T12:04:05+00:00</time>
        <ele>2760.0</ele>
      </trkpt>
      <trkpt lat="45.150709" lon="6.812747">
        <time>2023-04-19T12:04:06+00:00</time>
        <ele>2758.0</ele>
      </trkpt>
      <trkpt lat="45.150776" lon="6.812755">
        <time>2023-04-19T12:04:07+00:00</time>
        <ele>2757.0</ele>
      </trkpt>
      <trkpt lat="45.151042" lon="6.812852">
        <time>2023-04-19T12:04:11+00:00</time>
        <ele>2753.0</ele>
      </trkpt>
      <trkpt lat="45.151177" lon="6.81295">
        <time>2023-04-19T12:04:14+00:00</time>
        <ele>2751.0</ele>
      </trkpt>
      <trkpt lat="45.151547" lon="6.813143">
        <time>2023-04-19T12:04:27+00:00</time>
        <ele>2749.0</ele>
      </trkpt>
      <trkpt lat="45.151636" lon="6.813149">
        <time>2023-04-19T12:04:31+00:00</time>
        <ele>2748.0</ele>
      </trkpt>
      <trkpt lat="45.15166" lon="6.813142">
        <time>2023-04-19T12:04:32+00:00</time>
        <ele>2748.0</ele>
      </trkpt>
      <trkpt lat="45.151691" lon="6.813128">
        <time>2023-04-19T12:04:34+00:00</time>
        <ele>2748.0</ele>
      </trkpt>
      <trkpt lat="45.151724" lon="6.813134">
        <time>2023-04-19T12:05:05+00:00</time>
        <ele>2748.0</ele>
      </trkpt>
      <trkpt lat="45.151753" lon="6.813132">
        <time>2023-04-19T12:05:06+00:00</time>
        <ele>2748.0</ele>
      </trkpt>
      <trkpt lat="45.151824" lon="6.813089">
        <time>2023-04-19T12:05:08+00:00</time>
        <ele>2748.0</ele>
      </trkpt>
      <trkpt lat="45.151966" lon="6.81293">
        <time>2023-04-19T12:05:12+00:00</time>
        <ele>2747.0</ele>
      </trkpt>
      <trkpt lat="45.152511" lon="6.812136">
        <time>2023-04-19T12:05:27+00:00</time>
        <ele>2736.0</ele>
      </trkpt>
      <trkpt lat="45.1527" lon="6.811987">
        <time>2023-04-19T12:05:31+00:00</time>
        <ele>2733.0</ele>
      </trkpt>
      <trkpt lat="45.152824" lon="6.811926">
        <time>2023-04-19T12:05:34+00:00</time>
        <ele>2731.0</ele>
      </trkpt>
      <trkpt lat="45.15306" lon="6.811709">
        <time>2023-04-19T12:05:39+00:00</time>
        <ele>2728.0</ele>
      </trkpt>
      <trkpt lat="45.15318" lon="6.81164">
        <time>2023-04-19T12:05:41+00:00</time>
        <ele>2726.0</ele>
      </trkpt>
      <trkpt lat="45.153406" lon="6.811606">
        <time>2023-04-19T12:05:45+00:00</time>
        <ele>2723.0</ele>
      </trkpt>
      <trkpt lat="45.153477" lon="6.811556">
        <time>2023-04-19T12:05:47+00:00</time>
        <ele>2722.0</ele>
      </trkpt>
      <trkpt lat="45.153572" lon="6.811536">
        <time>2023-04-19T12:05:49+00:00</time>
        <ele>2721.0</ele>
      </trkpt>
      <trkpt lat="45.153775" lon="6.811607">
        <time>2023-04-19T12:05:52+00:00</time>
        <ele>2719.0</ele>
      </trkpt>
      <trkpt lat="45.153837" lon="6.811655">
        <time>2023-04-19T12:05:53+00:00</time>
        <ele>2719.0</ele>
      </trkpt>
      <trkpt lat="45.153886" lon="6.811711">
        <time>2023-04-19T12:05:54+00:00</time>
        <ele>2719.0</ele>
      </trkpt>
      <trkpt lat="45.153906" lon="6.811771">
        <time>2023-04-19T12:05:55+00:00</time>
        <ele>2719.0</ele>
      </trkpt>
      <trkpt lat="45.153915" lon="6.811818">
        <time>2023-04-19T12:05:56+00:00</time>
        <ele>2720.0</ele>
      </trkpt>
      <trkpt lat="45.15392" lon="6.811843">
        <time>2023-04-19T12:06:50+00:00</time>
        <ele>2720.0</ele>
      </trkpt>
      <trkpt lat="45.15395" lon="6.811865">
        <time>2023-04-19T12:07:39+00:00</time>
        <ele>2720.0</ele>
      </trkpt>
      <trkpt lat="45.154003" lon="6.811875">
        <time>2023-04-19T12:07:41+00:00</time>
        <ele>2719.0</ele>
      </trkpt>
      <trkpt lat="45.154041" lon="6.811863">
        <time>2023-04-19T12:07:42+00:00</time>
        <ele>2718.0</ele>
      </trkpt>
      <trkpt lat="45.154071" lon="6.811811">
        <time>2023-04-19T12:07:43+00:00</time>
        <ele>2716.0</ele>
      </trkpt>
      <trkpt lat="45.154079" lon="6.81174">
        <time>2023-04-19T12:07:44+00:00</time>
        <ele>2715.0</ele>
      </trkpt>
      <trkpt lat="45.154066" lon="6.811672">
        <time>2023-04-19T12:07:45+00:00</time>
        <ele>2715.0</ele>
      </trkpt>
      <trkpt lat="45.154066" lon="6.811545">
        <time>2023-04-19T12:07:47+00:00</time>
        <ele>2714.0</ele>
      </trkpt>
      <trkpt lat="45.154117" lon="6.811421">
        <time>2023-04-19T12:07:49+00:00</time>
        <ele>2713.0</ele>
      </trkpt>
      <trkpt lat="45.154225" lon="6.811328">
        <time>2023-04-19T12:07:53+00:00</time>
        <ele>2711.0</ele>
      </trkpt>
      <trkpt lat="45.154401" lon="6.811235">
        <time>2023-04-19T12:07:58+00:00</time>
        <ele>2708.0</ele>
      </trkpt>
      <trkpt lat="45.154425" lon="6.811207">
        <time>2023-04-19T12:07:59+00:00</time>
        <ele>2708.0</ele>
      </trkpt>
      <trkpt lat="45.154439" lon="6.811176">
        <time>2023-04-19T12:08:00+00:00</time>
        <ele>2708.0</ele>
      </trkpt>
      <trkpt lat="45.154446" lon="6.811143">
        <time>2023-04-19T12:08:01+00:00</time>
        <ele>2708.0</ele>
      </trkpt>
      <trkpt lat="45.154444" lon="6.811117">
        <time>2023-04-19T12:08:02+00:00</time>
        <ele>2708.0</ele>
      </trkpt>
      <trkpt lat="45.154471" lon="6.811082">
        <time>2023-04-19T12:08:04+00:00</time>
        <ele>2707.0</ele>
      </trkpt>
      <trkpt lat="45.154508" lon="6.811087">
        <time>2023-04-19T12:08:05+00:00</time>
        <ele>2707.0</ele>
      </trkpt>
      <trkpt lat="45.154536" lon="6.811136">
        <time>2023-04-19T12:08:06+00:00</time>
        <ele>2706.0</ele>
      </trkpt>
      <trkpt lat="45.154574" lon="6.811248">
        <time>2023-04-19T12:08:08+00:00</time>
        <ele>2706.0</ele>
      </trkpt>
      <trkpt lat="45.154594" lon="6.811301">
        <time>2023-04-19T12:08:09+00:00</time>
        <ele>2706.0</ele>
      </trkpt>
      <trkpt lat="45.154625" lon="6.811328">
        <time>2023-04-19T12:08:10+00:00</time>
        <ele>2705.0</ele>
      </trkpt>
      <trkpt lat="45.154662" lon="6.811333">
        <time>2023-04-19T12:08:11+00:00</time>
        <ele>2705.0</ele>
      </trkpt>
      <trkpt lat="45.154747" lon="6.811302">
        <time>2023-04-19T12:08:13+00:00</time>
        <ele>2703.0</ele>
      </trkpt>
      <trkpt lat="45.154808" lon="6.811297">
        <time>2023-04-19T12:08:14+00:00</time>
        <ele>2702.0</ele>
      </trkpt>
      <trkpt lat="45.155085" lon="6.811412">
        <time>2023-04-19T12:08:18+00:00</time>
        <ele>2696.0</ele>
      </trkpt>
      <trkpt lat="45.15523" lon="6.811424">
        <time>2023-04-19T12:08:20+00:00</time>
        <ele>2694.0</ele>
      </trkpt>
      <trkpt lat="45.155355" lon="6.811409">
        <time>2023-04-19T12:08:23+00:00</time>
        <ele>2692.0</ele>
      </trkpt>
      <trkpt lat="45.15538" lon="6.811402">
        <time>2023-04-19T12:08:36+00:00</time>
        <ele>2692.0</ele>
      </trkpt>
      <trkpt lat="45.155431" lon="6.811396">
        <time>2023-04-19T12:08:47+00:00</time>
        <ele>2692.0</ele>
      </trkpt>
      <trkpt lat="45.155493" lon="6.811375">
        <time>2023-04-19T12:09:00+00:00</time>
        <ele>2693.0</ele>
      </trkpt>
      <trkpt lat="45.155517" lon="6.811364">
        <time>2023-04-19T12:09:02+00:00</time>
        <ele>2693.0</ele>
      </trkpt>
      <trkpt lat="45.155546" lon="6.811223">
        <time>2023-04-19T12:09:08+00:00</time>
        <ele>2694.0</ele>
      </trkpt>
      <trkpt lat="45.15558" lon="6.811171">
        <time>2023-04-19T12:09:29+00:00</time>
        <ele>2694.0</ele>
      </trkpt>
      <trkpt lat="45.155583" lon="6.811135">
        <time>2023-04-19T12:09:31+00:00</time>
        <ele>2694.0</ele>
      </trkpt>
      <trkpt lat="45.15558" lon="6.811106">
        <time>2023-04-19T12:09:32+00:00</time>
        <ele>2694.0</ele>
      </trkpt>
      <trkpt lat="45.155482" lon="6.81089">
        <time>2023-04-19T12:09:37+00:00</time>
        <ele>2694.0</ele>
      </trkpt>
      <trkpt lat="45.155428" lon="6.810777">
        <time>2023-04-19T12:09:39+00:00</time>
        <ele>2692.0</ele>
      </trkpt>
      <trkpt lat="45.155407" lon="6.810623">
        <time>2023-04-19T12:09:41+00:00</time>
        <ele>2690.0</ele>
      </trkpt>
      <trkpt lat="45.155412" lon="6.810559">
        <time>2023-04-19T12:09:42+00:00</time>
        <ele>2690.0</ele>
      </trkpt>
      <trkpt lat="45.155422" lon="6.810528">
        <time>2023-04-19T12:09:44+00:00</time>
        <ele>2690.0</ele>
      </trkpt>
      <trkpt lat="45.15547" lon="6.810557">
        <time>2023-04-19T12:10:00+00:00</time>
        <ele>2690.0</ele>
      </trkpt>
      <trkpt lat="45.155562" lon="6.810625">
        <time>2023-04-19T12:10:05+00:00</time>
        <ele>2689.0</ele>
      </trkpt>
      <trkpt lat="45.155645" lon="6.810653">
        <time>2023-04-19T12:10:09+00:00</time>
        <ele>2688.0</ele>
      </trkpt>
      <trkpt lat="45.155801" lon="6.810649">
        <time>2023-04-19T12:10:15+00:00</time>
        <ele>2685.0</ele>
      </trkpt>
      <trkpt lat="45.155845" lon="6.810658">
        <time>2023-04-19T12:10:16+00:00</time>
        <ele>2684.0</ele>
      </trkpt>
      <trkpt lat="45.155885" lon="6.810693">
        <time>2023-04-19T12:10:17+00:00</time>
        <ele>2683.0</ele>
      </trkpt>
      <trkpt lat="45.15593" lon="6.810795">
        <time>2023-04-19T12:10:19+00:00</time>
        <ele>2682.0</ele>
      </trkpt>
      <trkpt lat="45.155939" lon="6.811098">
        <time>2023-04-19T12:10:24+00:00</time>
        <ele>2684.0</ele>
      </trkpt>
      <trkpt lat="45.155951" lon="6.811163">
        <time>2023-04-19T12:10:25+00:00</time>
        <ele>2684.0</ele>
      </trkpt>
      <trkpt lat="45.155975" lon="6.811206">
        <time>2023-04-19T12:10:26+00:00</time>
        <ele>2684.0</ele>
      </trkpt>
      <trkpt lat="45.156137" lon="6.81131">
        <time>2023-04-19T12:10:29+00:00</time>
        <ele>2678.0</ele>
      </trkpt>
      <trkpt lat="45.156174" lon="6.811372">
        <time>2023-04-19T12:10:30+00:00</time>
        <ele>2677.0</ele>
      </trkpt>
      <trkpt lat="45.156217" lon="6.811509">
        <time>2023-04-19T12:10:32+00:00</time>
        <ele>2676.0</ele>
      </trkpt>
      <trkpt lat="45.156244" lon="6.811619">
        <time>2023-04-19T12:10:34+00:00</time>
        <ele>2675.0</ele>
      </trkpt>
      <trkpt lat="45.156331" lon="6.811734">
        <time>2023-04-19T12:10:37+00:00</time>
        <ele>2673.0</ele>
      </trkpt>
      <trkpt lat="45.156389" lon="6.811883">
        <time>2023-04-19T12:10:40+00:00</time>
        <ele>2672.0</ele>
      </trkpt>
      <trkpt lat="45.156395" lon="6.811914">
        <time>2023-04-19T12:10:41+00:00</time>
        <ele>2672.0</ele>
      </trkpt>
      <trkpt lat="45.156414" lon="6.811943">
        <time>2023-04-19T12:10:56+00:00</time>
        <ele>2671.0</ele>
      </trkpt>
      <trkpt lat="45.15644" lon="6.811866">
        <time>2023-04-19T12:10:59+00:00</time>
        <ele>2670.0</ele>
      </trkpt>
      <trkpt lat="45.156441" lon="6.81163">
        <time>2023-04-19T12:11:02+00:00</time>
        <ele>2667.0</ele>
      </trkpt>
      <trkpt lat="45.156497" lon="6.811531">
        <time>2023-04-19T12:11:04+00:00</time>
        <ele>2664.0</ele>
      </trkpt>
      <trkpt lat="45.15654" lon="6.811549">
        <time>2023-04-19T12:11:05+00:00</time>
        <ele>2663.0</ele>
      </trkpt>
      <trkpt lat="45.15657" lon="6.811652">
        <time>2023-04-19T12:11:07+00:00</time>
        <ele>2663.0</ele>
      </trkpt>
      <trkpt lat="45.156635" lon="6.811734">
        <time>2023-04-19T12:11:09+00:00</time>
        <ele>2662.0</ele>
      </trkpt>
      <trkpt lat="45.156744" lon="6.811696">
        <time>2023-04-19T12:11:11+00:00</time>
        <ele>2657.0</ele>
      </trkpt>
      <trkpt lat="45.156803" lon="6.811698">
        <time>2023-04-19T12:11:12+00:00</time>
        <ele>2655.0</ele>
      </trkpt>
      <trkpt lat="45.156859" lon="6.811811">
        <time>2023-04-19T12:11:14+00:00</time>
        <ele>2655.0</ele>
      </trkpt>
      <trkpt lat="45.156862" lon="6.811941">
        <time>2023-04-19T12:11:16+00:00</time>
        <ele>2660.0</ele>
      </trkpt>
      <trkpt lat="45.156873" lon="6.811978">
        <time>2023-04-19T12:11:17+00:00</time>
        <ele>2660.0</ele>
      </trkpt>
      <trkpt lat="45.156989" lon="6.81207">
        <time>2023-04-19T12:11:20+00:00</time>
        <ele>2656.0</ele>
      </trkpt>
      <trkpt lat="45.157095" lon="6.812318">
        <time>2023-04-19T12:11:25+00:00</time>
        <ele>2659.0</ele>
      </trkpt>
      <trkpt lat="45.157263" lon="6.812541">
        <time>2023-04-19T12:11:30+00:00</time>
        <ele>2654.0</ele>
      </trkpt>
      <trkpt lat="45.1573" lon="6.81255">
        <time>2023-04-19T12:11:35+00:00</time>
        <ele>2650.0</ele>
      </trkpt>
      <trkpt lat="45.157525" lon="6.812777">
        <time>2023-04-19T12:12:02+00:00</time>
        <ele>2630.0</ele>
      </trkpt>
      <trkpt lat="45.157543" lon="6.8128">
        <time>2023-04-19T12:12:04+00:00</time>
        <ele>2628.0</ele>
      </trkpt>
      <trkpt lat="45.157617" lon="6.812723">
        <time>2023-04-19T12:12:09+00:00</time>
        <ele>2621.0</ele>
      </trkpt>
      <trkpt lat="45.157687" lon="6.812704">
        <time>2023-04-19T12:12:40+00:00</time>
        <ele>2616.0</ele>
      </trkpt>
      <trkpt lat="45.157722" lon="6.812755">
        <time>2023-04-19T12:13:23+00:00</time>
        <ele>2612.0</ele>
      </trkpt>
      <trkpt lat="45.157795" lon="6.812761">
        <time>2023-04-19T12:13:26+00:00</time>
        <ele>2607.0</ele>
      </trkpt>
      <trkpt lat="45.157848" lon="6.812732">
        <time>2023-04-19T12:13:28+00:00</time>
        <ele>2605.0</ele>
      </trkpt>
      <trkpt lat="45.157859" lon="6.812785">
        <time>2023-04-19T12:14:05+00:00</time>
        <ele>2602.0</ele>
      </trkpt>
      <trkpt lat="45.157772" lon="6.812875">
        <time>2023-04-19T12:14:09+00:00</time>
        <ele>2604.0</ele>
      </trkpt>
      <trkpt lat="45.157765" lon="6.812922">
        <time>2023-04-19T12:14:16+00:00</time>
        <ele>2602.0</ele>
      </trkpt>
      <trkpt lat="45.157772" lon="6.812963">
        <time>2023-04-19T12:14:22+00:00</time>
        <ele>2600.0</ele>
      </trkpt>
      <trkpt lat="45.157774" lon="6.813115">
        <time>2023-04-19T12:14:54+00:00</time>
        <ele>2594.0</ele>
      </trkpt>
      <trkpt lat="45.157795" lon="6.813166">
        <time>2023-04-19T12:14:59+00:00</time>
        <ele>2590.0</ele>
      </trkpt>
      <trkpt lat="45.157792" lon="6.813203">
        <time>2023-04-19T12:15:15+00:00</time>
        <ele>2588.0</ele>
      </trkpt>
      <trkpt lat="45.157805" lon="6.813242">
        <time>2023-04-19T12:15:22+00:00</time>
        <ele>2584.0</ele>
      </trkpt>
      <trkpt lat="45.157818" lon="6.813261">
        <time>2023-04-19T12:15:45+00:00</time>
        <ele>2583.0</ele>
      </trkpt>
      <trkpt lat="45.157857" lon="6.81328">
        <time>2023-04-19T12:15:52+00:00</time>
        <ele>2579.0</ele>
      </trkpt>
      <trkpt lat="45.157909" lon="6.81325">
        <time>2023-04-19T12:15:54+00:00</time>
        <ele>2578.0</ele>
      </trkpt>
      <trkpt lat="45.157957" lon="6.81326">
        <time>2023-04-19T12:15:57+00:00</time>
        <ele>2575.0</ele>
      </trkpt>
      <trkpt lat="45.157922" lon="6.813364">
        <time>2023-04-19T12:15:59+00:00</time>
        <ele>2572.0</ele>
      </trkpt>
      <trkpt lat="45.15787" lon="6.813393">
        <time>2023-04-19T12:16:01+00:00</time>
        <ele>2573.0</ele>
      </trkpt>
      <trkpt lat="45.157883" lon="6.813464">
        <time>2023-04-19T12:16:04+00:00</time>
        <ele>2569.0</ele>
      </trkpt>
      <trkpt lat="45.157951" lon="6.813464">
        <time>2023-04-19T12:16:05+00:00</time>
        <ele>2567.0</ele>
      </trkpt>
      <trkpt lat="45.15804" lon="6.813417">
        <time>2023-04-19T12:16:07+00:00</time>
        <ele>2566.0</ele>
      </trkpt>
      <trkpt lat="45.158167" lon="6.813334">
        <time>2023-04-19T12:16:10+00:00</time>
        <ele>2565.0</ele>
      </trkpt>
      <trkpt lat="45.158225" lon="6.813318">
        <time>2023-04-19T12:16:11+00:00</time>
        <ele>2564.0</ele>
      </trkpt>
      <trkpt lat="45.158601" lon="6.813521">
        <time>2023-04-19T12:16:22+00:00</time>
        <ele>2552.0</ele>
      </trkpt>
      <trkpt lat="45.160176" lon="6.8133">
        <time>2023-04-19T12:16:49+00:00</time>
        <ele>2531.0</ele>
      </trkpt>
      <trkpt lat="45.160273" lon="6.813257">
        <time>2023-04-19T12:16:52+00:00</time>
        <ele>2530.0</ele>
      </trkpt>
      <trkpt lat="45.160378" lon="6.813229">
        <time>2023-04-19T12:16:54+00:00</time>
        <ele>2528.0</ele>
      </trkpt>
      <trkpt lat="45.160857" lon="6.813372">
        <time>2023-04-19T12:17:02+00:00</time>
        <ele>2519.0</ele>
      </trkpt>
      <trkpt lat="45.162043" lon="6.814216">
        <time>2023-04-19T12:17:32+00:00</time>
        <ele>2497.0</ele>
      </trkpt>
      <trkpt lat="45.162279" lon="6.814331">
        <time>2023-04-19T12:17:38+00:00</time>
        <ele>2495.0</ele>
      </trkpt>
      <trkpt lat="45.162412" lon="6.814375">
        <time>2023-04-19T12:17:41+00:00</time>
        <ele>2494.0</ele>
      </trkpt>
      <trkpt lat="45.162528" lon="6.81436">
        <time>2023-04-19T12:17:44+00:00</time>
        <ele>2494.0</ele>
      </trkpt>
      <trkpt lat="45.16255" lon="6.814351">
        <time>2023-04-19T12:17:45+00:00</time>
        <ele>2494.0</ele>
      </trkpt>
      <trkpt lat="45.16257" lon="6.814352">
        <time>2023-04-19T12:18:32+00:00</time>
        <ele>2494.0</ele>
      </trkpt>
      <trkpt lat="45.162885" lon="6.814466">
        <time>2023-04-19T12:18:40+00:00</time>
        <ele>2488.0</ele>
      </trkpt>
      <trkpt lat="45.162988" lon="6.814478">
        <time>2023-04-19T12:18:42+00:00</time>
        <ele>2486.0</ele>
      </trkpt>
      <trkpt lat="45.163357" lon="6.81456">
        <time>2023-04-19T12:18:47+00:00</time>
        <ele>2479.0</ele>
      </trkpt>
      <trkpt lat="45.163595" lon="6.814609">
        <time>2023-04-19T12:18:50+00:00</time>
        <ele>2474.0</ele>
      </trkpt>
      <trkpt lat="45.163656" lon="6.814604">
        <time>2023-04-19T12:18:51+00:00</time>
        <ele>2474.0</ele>
      </trkpt>
      <trkpt lat="45.163696" lon="6.814583">
        <time>2023-04-19T12:18:52+00:00</time>
        <ele>2474.0</ele>
      </trkpt>
      <trkpt lat="45.163722" lon="6.814568">
        <time>2023-04-19T12:18:54+00:00</time>
        <ele>2475.0</ele>
      </trkpt>
      <trkpt lat="45.163752" lon="6.81458">
        <time>2023-04-19T12:18:56+00:00</time>
        <ele>2474.0</ele>
      </trkpt>
      <trkpt lat="45.163781" lon="6.814616">
        <time>2023-04-19T12:18:57+00:00</time>
        <ele>2472.0</ele>
      </trkpt>
      <trkpt lat="45.163764" lon="6.814714">
        <time>2023-04-19T12:18:59+00:00</time>
        <ele>2469.0</ele>
      </trkpt>
      <trkpt lat="45.163639" lon="6.814786">
        <time>2023-04-19T12:19:02+00:00</time>
        <ele>2468.0</ele>
      </trkpt>
      <trkpt lat="45.163656" lon="6.814865">
        <time>2023-04-19T12:19:04+00:00</time>
        <ele>2466.0</ele>
      </trkpt>
      <trkpt lat="45.16371" lon="6.81489">
        <time>2023-04-19T12:19:05+00:00</time>
        <ele>2464.0</ele>
      </trkpt>
      <trkpt lat="45.163812" lon="6.814873">
        <time>2023-04-19T12:19:07+00:00</time>
        <ele>2464.0</ele>
      </trkpt>
      <trkpt lat="45.163874" lon="6.814837">
        <time>2023-04-19T12:19:09+00:00</time>
        <ele>2464.0</ele>
      </trkpt>
      <trkpt lat="45.164001" lon="6.814823">
        <time>2023-04-19T12:19:14+00:00</time>
        <ele>2462.0</ele>
      </trkpt>
      <trkpt lat="45.164191" lon="6.814722">
        <time>2023-04-19T12:19:18+00:00</time>
        <ele>2460.0</ele>
      </trkpt>
      <trkpt lat="45.16426" lon="6.814721">
        <time>2023-04-19T12:19:19+00:00</time>
        <ele>2459.0</ele>
      </trkpt>
      <trkpt lat="45.164292" lon="6.814764">
        <time>2023-04-19T12:19:20+00:00</time>
        <ele>2458.0</ele>
      </trkpt>
      <trkpt lat="45.164315" lon="6.814858">
        <time>2023-04-19T12:19:22+00:00</time>
        <ele>2455.0</ele>
      </trkpt>
      <trkpt lat="45.164676" lon="6.815017">
        <time>2023-04-19T12:19:30+00:00</time>
        <ele>2448.0</ele>
      </trkpt>
      <trkpt lat="45.164724" lon="6.815029">
        <time>2023-04-19T12:19:31+00:00</time>
        <ele>2448.0</ele>
      </trkpt>
      <trkpt lat="45.164914" lon="6.815001">
        <time>2023-04-19T12:19:57+00:00</time>
        <ele>2446.0</ele>
      </trkpt>
      <trkpt lat="45.164987" lon="6.81503">
        <time>2023-04-19T12:19:59+00:00</time>
        <ele>2444.0</ele>
      </trkpt>
      <trkpt lat="45.165007" lon="6.815058">
        <time>2023-04-19T12:20:00+00:00</time>
        <ele>2443.0</ele>
      </trkpt>
      <trkpt lat="45.165036" lon="6.815087">
        <time>2023-04-19T12:20:01+00:00</time>
        <ele>2441.0</ele>
      </trkpt>
      <trkpt lat="45.16531" lon="6.815155">
        <time>2023-04-19T12:20:07+00:00</time>
        <ele>2437.0</ele>
      </trkpt>
      <trkpt lat="45.165405" lon="6.815223">
        <time>2023-04-19T12:20:09+00:00</time>
        <ele>2434.0</ele>
      </trkpt>
      <trkpt lat="45.165464" lon="6.815291">
        <time>2023-04-19T12:20:10+00:00</time>
        <ele>2431.0</ele>
      </trkpt>
      <trkpt lat="45.165591" lon="6.815382">
        <time>2023-04-19T12:20:12+00:00</time>
        <ele>2429.0</ele>
      </trkpt>
      <trkpt lat="45.165658" lon="6.815414">
        <time>2023-04-19T12:20:14+00:00</time>
        <ele>2429.0</ele>
      </trkpt>
      <trkpt lat="45.165947" lon="6.815613">
        <time>2023-04-19T12:20:22+00:00</time>
        <ele>2424.0</ele>
      </trkpt>
      <trkpt lat="45.166071" lon="6.815656">
        <time>2023-04-19T12:20:26+00:00</time>
        <ele>2425.0</ele>
      </trkpt>
      <trkpt lat="45.166153" lon="6.815654">
        <time>2023-04-19T12:20:28+00:00</time>
        <ele>2426.0</ele>
      </trkpt>
      <trkpt lat="45.166218" lon="6.815713">
        <time>2023-04-19T12:20:30+00:00</time>
        <ele>2424.0</ele>
      </trkpt>
      <trkpt lat="45.166199" lon="6.815778">
        <time>2023-04-19T12:20:31+00:00</time>
        <ele>2422.0</ele>
      </trkpt>
      <trkpt lat="45.166164" lon="6.815808">
        <time>2023-04-19T12:20:32+00:00</time>
        <ele>2421.0</ele>
      </trkpt>
      <trkpt lat="45.166098" lon="6.815822">
        <time>2023-04-19T12:20:34+00:00</time>
        <ele>2420.0</ele>
      </trkpt>
      <trkpt lat="45.166073" lon="6.81586">
        <time>2023-04-19T12:20:35+00:00</time>
        <ele>2418.0</ele>
      </trkpt>
      <trkpt lat="45.166074" lon="6.81592">
        <time>2023-04-19T12:20:36+00:00</time>
        <ele>2415.0</ele>
      </trkpt>
      <trkpt lat="45.166117" lon="6.81597">
        <time>2023-04-19T12:20:37+00:00</time>
        <ele>2414.0</ele>
      </trkpt>
      <trkpt lat="45.166165" lon="6.81599">
        <time>2023-04-19T12:20:38+00:00</time>
        <ele>2413.0</ele>
      </trkpt>
      <trkpt lat="45.166226" lon="6.816011">
        <time>2023-04-19T12:20:40+00:00</time>
        <ele>2413.0</ele>
      </trkpt>
      <trkpt lat="45.166251" lon="6.816033">
        <time>2023-04-19T12:20:41+00:00</time>
        <ele>2412.0</ele>
      </trkpt>
      <trkpt lat="45.166264" lon="6.816079">
        <time>2023-04-19T12:20:42+00:00</time>
        <ele>2410.0</ele>
      </trkpt>
      <trkpt lat="45.166236" lon="6.816131">
        <time>2023-04-19T12:20:43+00:00</time>
        <ele>2408.0</ele>
      </trkpt>
      <trkpt lat="45.166088" lon="6.816151">
        <time>2023-04-19T12:20:47+00:00</time>
        <ele>2405.0</ele>
      </trkpt>
      <trkpt lat="45.166191" lon="6.816288">
        <time>2023-04-19T12:20:50+00:00</time>
        <ele>2401.0</ele>
      </trkpt>
      <trkpt lat="45.166236" lon="6.816297">
        <time>2023-04-19T12:20:51+00:00</time>
        <ele>2401.0</ele>
      </trkpt>
      <trkpt lat="45.166282" lon="6.816303">
        <time>2023-04-19T12:20:53+00:00</time>
        <ele>2401.0</ele>
      </trkpt>
      <trkpt lat="45.166309" lon="6.816319">
        <time>2023-04-19T12:21:16+00:00</time>
        <ele>2401.0</ele>
      </trkpt>
      <trkpt lat="45.166352" lon="6.816333">
        <time>2023-04-19T12:21:18+00:00</time>
        <ele>2400.0</ele>
      </trkpt>
      <trkpt lat="45.166321" lon="6.81642">
        <time>2023-04-19T12:21:20+00:00</time>
        <ele>2397.0</ele>
      </trkpt>
      <trkpt lat="45.166279" lon="6.816428">
        <time>2023-04-19T12:21:21+00:00</time>
        <ele>2396.0</ele>
      </trkpt>
      <trkpt lat="45.166197" lon="6.816431">
        <time>2023-04-19T12:21:24+00:00</time>
        <ele>2395.0</ele>
      </trkpt>
      <trkpt lat="45.166172" lon="6.816439">
        <time>2023-04-19T12:21:25+00:00</time>
        <ele>2395.0</ele>
      </trkpt>
      <trkpt lat="45.166152" lon="6.816469">
        <time>2023-04-19T12:21:26+00:00</time>
        <ele>2393.0</ele>
      </trkpt>
      <trkpt lat="45.166162" lon="6.816527">
        <time>2023-04-19T12:21:27+00:00</time>
        <ele>2391.0</ele>
      </trkpt>
      <trkpt lat="45.166211" lon="6.816555">
        <time>2023-04-19T12:21:28+00:00</time>
        <ele>2390.0</ele>
      </trkpt>
      <trkpt lat="45.166391" lon="6.816618">
        <time>2023-04-19T12:21:33+00:00</time>
        <ele>2389.0</ele>
      </trkpt>
      <trkpt lat="45.166343" lon="6.816735">
        <time>2023-04-19T12:21:35+00:00</time>
        <ele>2384.0</ele>
      </trkpt>
      <trkpt lat="45.166277" lon="6.816769">
        <time>2023-04-19T12:21:36+00:00</time>
        <ele>2382.0</ele>
      </trkpt>
      <trkpt lat="45.166198" lon="6.816754">
        <time>2023-04-19T12:21:38+00:00</time>
        <ele>2381.0</ele>
      </trkpt>
      <trkpt lat="45.16617" lon="6.816747">
        <time>2023-04-19T12:21:40+00:00</time>
        <ele>2381.0</ele>
      </trkpt>
      <trkpt lat="45.166206" lon="6.816801">
        <time>2023-04-19T12:22:06+00:00</time>
        <ele>2379.0</ele>
      </trkpt>
      <trkpt lat="45.166382" lon="6.816861">
        <time>2023-04-19T12:22:11+00:00</time>
        <ele>2378.0</ele>
      </trkpt>
      <trkpt lat="45.166402" lon="6.816929">
        <time>2023-04-19T12:22:13+00:00</time>
        <ele>2375.0</ele>
      </trkpt>
      <trkpt lat="45.166292" lon="6.817007">
        <time>2023-04-19T12:22:16+00:00</time>
        <ele>2371.0</ele>
      </trkpt>
      <trkpt lat="45.166306" lon="6.817071">
        <time>2023-04-19T12:22:18+00:00</time>
        <ele>2369.0</ele>
      </trkpt>
      <trkpt lat="45.166408" lon="6.817084">
        <time>2023-04-19T12:22:20+00:00</time>
        <ele>2368.0</ele>
      </trkpt>
      <trkpt lat="45.166471" lon="6.817072">
        <time>2023-04-19T12:22:22+00:00</time>
        <ele>2368.0</ele>
      </trkpt>
      <trkpt lat="45.166534" lon="6.817085">
        <time>2023-04-19T12:22:25+00:00</time>
        <ele>2367.0</ele>
      </trkpt>
      <trkpt lat="45.166546" lon="6.817131">
        <time>2023-04-19T12:22:26+00:00</time>
        <ele>2365.0</ele>
      </trkpt>
      <trkpt lat="45.166517" lon="6.817171">
        <time>2023-04-19T12:22:27+00:00</time>
        <ele>2364.0</ele>
      </trkpt>
      <trkpt lat="45.166469" lon="6.817203">
        <time>2023-04-19T12:22:28+00:00</time>
        <ele>2363.0</ele>
      </trkpt>
      <trkpt lat="45.166406" lon="6.817217">
        <time>2023-04-19T12:22:30+00:00</time>
        <ele>2362.0</ele>
      </trkpt>
      <trkpt lat="45.16642" lon="6.817263">
        <time>2023-04-19T12:22:52+00:00</time>
        <ele>2360.0</ele>
      </trkpt>
      <trkpt lat="45.166682" lon="6.817295">
        <time>2023-04-19T12:23:00+00:00</time>
        <ele>2357.0</ele>
      </trkpt>
      <trkpt lat="45.166764" lon="6.817269">
        <time>2023-04-19T12:23:03+00:00</time>
        <ele>2357.0</ele>
      </trkpt>
      <trkpt lat="45.166816" lon="6.817271">
        <time>2023-04-19T12:23:05+00:00</time>
        <ele>2356.0</ele>
      </trkpt>
      <trkpt lat="45.166835" lon="6.817317">
        <time>2023-04-19T12:23:06+00:00</time>
        <ele>2354.0</ele>
      </trkpt>
      <trkpt lat="45.166822" lon="6.817357">
        <time>2023-04-19T12:23:07+00:00</time>
        <ele>2352.0</ele>
      </trkpt>
      <trkpt lat="45.166797" lon="6.817385">
        <time>2023-04-19T12:23:08+00:00</time>
        <ele>2351.0</ele>
      </trkpt>
      <trkpt lat="45.166729" lon="6.817447">
        <time>2023-04-19T12:23:11+00:00</time>
        <ele>2350.0</ele>
      </trkpt>
      <trkpt lat="45.166759" lon="6.817507">
        <time>2023-04-19T12:23:13+00:00</time>
        <ele>2346.0</ele>
      </trkpt>
      <trkpt lat="45.166904" lon="6.817486">
        <time>2023-04-19T12:23:17+00:00</time>
        <ele>2346.0</ele>
      </trkpt>
      <trkpt lat="45.16694" lon="6.81747">
        <time>2023-04-19T12:23:18+00:00</time>
        <ele>2345.0</ele>
      </trkpt>
      <trkpt lat="45.166965" lon="6.817449">
        <time>2023-04-19T12:23:20+00:00</time>
        <ele>2346.0</ele>
      </trkpt>
      <trkpt lat="45.167" lon="6.817475">
        <time>2023-04-19T12:23:36+00:00</time>
        <ele>2344.0</ele>
      </trkpt>
      <trkpt lat="45.166996" lon="6.817521">
        <time>2023-04-19T12:23:37+00:00</time>
        <ele>2342.0</ele>
      </trkpt>
      <trkpt lat="45.166974" lon="6.817563">
        <time>2023-04-19T12:23:38+00:00</time>
        <ele>2340.0</ele>
      </trkpt>
      <trkpt lat="45.16689" lon="6.817619">
        <time>2023-04-19T12:23:41+00:00</time>
        <ele>2340.0</ele>
      </trkpt>
      <trkpt lat="45.166874" lon="6.817677">
        <time>2023-04-19T12:23:43+00:00</time>
        <ele>2337.0</ele>
      </trkpt>
      <trkpt lat="45.166956" lon="6.817726">
        <time>2023-04-19T12:23:45+00:00</time>
        <ele>2333.0</ele>
      </trkpt>
      <trkpt lat="45.167017" lon="6.81781">
        <time>2023-04-19T12:23:48+00:00</time>
        <ele>2328.0</ele>
      </trkpt>
      <trkpt lat="45.166941" lon="6.817857">
        <time>2023-04-19T12:23:50+00:00</time>
        <ele>2327.0</ele>
      </trkpt>
      <trkpt lat="45.166915" lon="6.817867">
        <time>2023-04-19T12:23:51+00:00</time>
        <ele>2327.0</ele>
      </trkpt>
      <trkpt lat="45.166959" lon="6.817935">
        <time>2023-04-19T12:23:53+00:00</time>
        <ele>2323.0</ele>
      </trkpt>
      <trkpt lat="45.167043" lon="6.817919">
        <time>2023-04-19T12:23:55+00:00</time>
        <ele>2323.0</ele>
      </trkpt>
      <trkpt lat="45.167073" lon="6.817927">
        <time>2023-04-19T12:23:56+00:00</time>
        <ele>2322.0</ele>
      </trkpt>
      <trkpt lat="45.167091" lon="6.817984">
        <time>2023-04-19T12:23:57+00:00</time>
        <ele>2319.0</ele>
      </trkpt>
      <trkpt lat="45.167068" lon="6.818059">
        <time>2023-04-19T12:23:58+00:00</time>
        <ele>2316.0</ele>
      </trkpt>
      <trkpt lat="45.1669" lon="6.818145">
        <time>2023-04-19T12:24:02+00:00</time>
        <ele>2314.0</ele>
      </trkpt>
      <trkpt lat="45.166914" lon="6.81822">
        <time>2023-04-19T12:24:04+00:00</time>
        <ele>2311.0</ele>
      </trkpt>
      <trkpt lat="45.16706" lon="6.818255">
        <time>2023-04-19T12:24:07+00:00</time>
        <ele>2307.0</ele>
      </trkpt>
      <trkpt lat="45.167175" lon="6.818252">
        <time>2023-04-19T12:24:10+00:00</time>
        <ele>2306.0</ele>
      </trkpt>
      <trkpt lat="45.167205" lon="6.818261">
        <time>2023-04-19T12:25:50+00:00</time>
        <ele>2305.0</ele>
      </trkpt>
      <trkpt lat="45.167238" lon="6.818281">
        <time>2023-04-19T12:25:53+00:00</time>
        <ele>2304.0</ele>
      </trkpt>
      <trkpt lat="45.16727" lon="6.818292">
        <time>2023-04-19T12:25:55+00:00</time>
        <ele>2303.0</ele>
      </trkpt>
      <trkpt lat="45.167273" lon="6.81833">
        <time>2023-04-19T12:25:56+00:00</time>
        <ele>2301.0</ele>
      </trkpt>
      <trkpt lat="45.167248" lon="6.818356">
        <time>2023-04-19T12:25:57+00:00</time>
        <ele>2301.0</ele>
      </trkpt>
      <trkpt lat="45.167116" lon="6.818395">
        <time>2023-04-19T12:26:01+00:00</time>
        <ele>2300.0</ele>
      </trkpt>
      <trkpt lat="45.167086" lon="6.818432">
        <time>2023-04-19T12:26:03+00:00</time>
        <ele>2299.0</ele>
      </trkpt>
      <trkpt lat="45.167169" lon="6.818486">
        <time>2023-04-19T12:26:05+00:00</time>
        <ele>2296.0</ele>
      </trkpt>
      <trkpt lat="45.167244" lon="6.818492">
        <time>2023-04-19T12:26:07+00:00</time>
        <ele>2295.0</ele>
      </trkpt>
      <trkpt lat="45.167263" lon="6.818521">
        <time>2023-04-19T12:26:08+00:00</time>
        <ele>2293.0</ele>
      </trkpt>
      <trkpt lat="45.167198" lon="6.81863">
        <time>2023-04-19T12:26:10+00:00</time>
        <ele>2289.0</ele>
      </trkpt>
      <trkpt lat="45.167113" lon="6.818676">
        <time>2023-04-19T12:26:13+00:00</time>
        <ele>2287.0</ele>
      </trkpt>
      <trkpt lat="45.167105" lon="6.818737">
        <time>2023-04-19T12:26:15+00:00</time>
        <ele>2285.0</ele>
      </trkpt>
      <trkpt lat="45.167163" lon="6.818772">
        <time>2023-04-19T12:26:16+00:00</time>
        <ele>2283.0</ele>
      </trkpt>
      <trkpt lat="45.167291" lon="6.818787">
        <time>2023-04-19T12:26:19+00:00</time>
        <ele>2281.0</ele>
      </trkpt>
      <trkpt lat="45.167311" lon="6.818858">
        <time>2023-04-19T12:26:21+00:00</time>
        <ele>2278.0</ele>
      </trkpt>
      <trkpt lat="45.16726" lon="6.818907">
        <time>2023-04-19T12:26:22+00:00</time>
        <ele>2276.0</ele>
      </trkpt>
      <trkpt lat="45.167215" lon="6.818919">
        <time>2023-04-19T12:26:23+00:00</time>
        <ele>2276.0</ele>
      </trkpt>
      <trkpt lat="45.167176" lon="6.818935">
        <time>2023-04-19T12:26:24+00:00</time>
        <ele>2275.0</ele>
      </trkpt>
      <trkpt lat="45.167151" lon="6.818952">
        <time>2023-04-19T12:26:25+00:00</time>
        <ele>2275.0</ele>
      </trkpt>
      <trkpt lat="45.167154" lon="6.819003">
        <time>2023-04-19T12:26:26+00:00</time>
        <ele>2272.0</ele>
      </trkpt>
      <trkpt lat="45.167254" lon="6.819032">
        <time>2023-04-19T12:26:28+00:00</time>
        <ele>2270.0</ele>
      </trkpt>
      <trkpt lat="45.167306" lon="6.819025">
        <time>2023-04-19T12:26:30+00:00</time>
        <ele>2270.0</ele>
      </trkpt>
      <trkpt lat="45.167346" lon="6.819057">
        <time>2023-04-19T12:27:20+00:00</time>
        <ele>2268.0</ele>
      </trkpt>
      <trkpt lat="45.167351" lon="6.819092">
        <time>2023-04-19T12:27:21+00:00</time>
        <ele>2267.0</ele>
      </trkpt>
      <trkpt lat="45.167319" lon="6.819134">
        <time>2023-04-19T12:27:22+00:00</time>
        <ele>2265.0</ele>
      </trkpt>
      <trkpt lat="45.167269" lon="6.819162">
        <time>2023-04-19T12:27:23+00:00</time>
        <ele>2264.0</ele>
      </trkpt>
      <trkpt lat="45.16718" lon="6.819175">
        <time>2023-04-19T12:27:25+00:00</time>
        <ele>2264.0</ele>
      </trkpt>
      <trkpt lat="45.167152" lon="6.819184">
        <time>2023-04-19T12:27:26+00:00</time>
        <ele>2264.0</ele>
      </trkpt>
      <trkpt lat="45.167176" lon="6.819271">
        <time>2023-04-19T12:27:28+00:00</time>
        <ele>2259.0</ele>
      </trkpt>
      <trkpt lat="45.16727" lon="6.819291">
        <time>2023-04-19T12:27:30+00:00</time>
        <ele>2257.0</ele>
      </trkpt>
      <trkpt lat="45.167287" lon="6.819362">
        <time>2023-04-19T12:27:32+00:00</time>
        <ele>2253.0</ele>
      </trkpt>
      <trkpt lat="45.167223" lon="6.819409">
        <time>2023-04-19T12:27:33+00:00</time>
        <ele>2252.0</ele>
      </trkpt>
      <trkpt lat="45.166932" lon="6.81954">
        <time>2023-04-19T12:27:40+00:00</time>
        <ele>2247.0</ele>
      </trkpt>
      <trkpt lat="45.166965" lon="6.819555">
        <time>2023-04-19T12:27:53+00:00</time>
        <ele>2246.0</ele>
      </trkpt>
      <trkpt lat="45.166994" lon="6.819567">
        <time>2023-04-19T12:27:54+00:00</time>
        <ele>2246.0</ele>
      </trkpt>
      <trkpt lat="45.167125" lon="6.819557">
        <time>2023-04-19T12:27:57+00:00</time>
        <ele>2246.0</ele>
      </trkpt>
      <trkpt lat="45.167153" lon="6.819594">
        <time>2023-04-19T12:27:59+00:00</time>
        <ele>2245.0</ele>
      </trkpt>
      <trkpt lat="45.167135" lon="6.819655">
        <time>2023-04-19T12:28:00+00:00</time>
        <ele>2242.0</ele>
      </trkpt>
      <trkpt lat="45.167054" lon="6.819728">
        <time>2023-04-19T12:28:02+00:00</time>
        <ele>2240.0</ele>
      </trkpt>
      <trkpt lat="45.167039" lon="6.819777">
        <time>2023-04-19T12:28:04+00:00</time>
        <ele>2237.0</ele>
      </trkpt>
      <trkpt lat="45.167064" lon="6.819811">
        <time>2023-04-19T12:28:05+00:00</time>
        <ele>2236.0</ele>
      </trkpt>
      <trkpt lat="45.167113" lon="6.819818">
        <time>2023-04-19T12:28:06+00:00</time>
        <ele>2236.0</ele>
      </trkpt>
      <trkpt lat="45.167299" lon="6.819769">
        <time>2023-04-19T12:28:10+00:00</time>
        <ele>2237.0</ele>
      </trkpt>
      <trkpt lat="45.167325" lon="6.819788">
        <time>2023-04-19T12:28:11+00:00</time>
        <ele>2236.0</ele>
      </trkpt>
      <trkpt lat="45.16732" lon="6.819844">
        <time>2023-04-19T12:28:12+00:00</time>
        <ele>2234.0</ele>
      </trkpt>
      <trkpt lat="45.167219" lon="6.819956">
        <time>2023-04-19T12:28:14+00:00</time>
        <ele>2230.0</ele>
      </trkpt>
      <trkpt lat="45.167182" lon="6.819986">
        <time>2023-04-19T12:28:15+00:00</time>
        <ele>2229.0</ele>
      </trkpt>
      <trkpt lat="45.167162" lon="6.820027">
        <time>2023-04-19T12:28:17+00:00</time>
        <ele>2227.0</ele>
      </trkpt>
      <trkpt lat="45.167196" lon="6.820052">
        <time>2023-04-19T12:28:18+00:00</time>
        <ele>2226.0</ele>
      </trkpt>
      <trkpt lat="45.167421" lon="6.819977">
        <time>2023-04-19T12:28:24+00:00</time>
        <ele>2226.0</ele>
      </trkpt>
      <trkpt lat="45.167437" lon="6.82005">
        <time>2023-04-19T12:28:58+00:00</time>
        <ele>2223.0</ele>
      </trkpt>
      <trkpt lat="45.167406" lon="6.820091">
        <time>2023-04-19T12:28:59+00:00</time>
        <ele>2222.0</ele>
      </trkpt>
      <trkpt lat="45.167359" lon="6.820108">
        <time>2023-04-19T12:29:00+00:00</time>
        <ele>2222.0</ele>
      </trkpt>
      <trkpt lat="45.167336" lon="6.820114">
        <time>2023-04-19T12:29:01+00:00</time>
        <ele>2223.0</ele>
      </trkpt>
      <trkpt lat="45.167346" lon="6.820159">
        <time>2023-04-19T12:29:03+00:00</time>
        <ele>2220.0</ele>
      </trkpt>
      <trkpt lat="45.167373" lon="6.820178">
        <time>2023-04-19T12:29:04+00:00</time>
        <ele>2219.0</ele>
      </trkpt>
      <trkpt lat="45.167394" lon="6.82023">
        <time>2023-04-19T12:29:06+00:00</time>
        <ele>2216.0</ele>
      </trkpt>
      <trkpt lat="45.167366" lon="6.820293">
        <time>2023-04-19T12:29:07+00:00</time>
        <ele>2214.0</ele>
      </trkpt>
      <trkpt lat="45.167286" lon="6.820339">
        <time>2023-04-19T12:29:09+00:00</time>
        <ele>2214.0</ele>
      </trkpt>
      <trkpt lat="45.167264" lon="6.820354">
        <time>2023-04-19T12:29:10+00:00</time>
        <ele>2214.0</ele>
      </trkpt>
      <trkpt lat="45.167278" lon="6.820426">
        <time>2023-04-19T12:29:12+00:00</time>
        <ele>2210.0</ele>
      </trkpt>
      <trkpt lat="45.167344" lon="6.82044">
        <time>2023-04-19T12:29:14+00:00</time>
        <ele>2208.0</ele>
      </trkpt>
      <trkpt lat="45.167367" lon="6.820523">
        <time>2023-04-19T12:29:16+00:00</time>
        <ele>2204.0</ele>
      </trkpt>
      <trkpt lat="45.167332" lon="6.820574">
        <time>2023-04-19T12:29:17+00:00</time>
        <ele>2203.0</ele>
      </trkpt>
      <trkpt lat="45.167292" lon="6.8206">
        <time>2023-04-19T12:29:18+00:00</time>
        <ele>2203.0</ele>
      </trkpt>
      <trkpt lat="45.167305" lon="6.82065">
        <time>2023-04-19T12:29:20+00:00</time>
        <ele>2200.0</ele>
      </trkpt>
      <trkpt lat="45.167352" lon="6.820664">
        <time>2023-04-19T12:29:21+00:00</time>
        <ele>2199.0</ele>
      </trkpt>
      <trkpt lat="45.167395" lon="6.820679">
        <time>2023-04-19T12:29:22+00:00</time>
        <ele>2197.0</ele>
      </trkpt>
      <trkpt lat="45.167405" lon="6.820727">
        <time>2023-04-19T12:29:23+00:00</time>
        <ele>2195.0</ele>
      </trkpt>
      <trkpt lat="45.167382" lon="6.820778">
        <time>2023-04-19T12:29:24+00:00</time>
        <ele>2193.0</ele>
      </trkpt>
      <trkpt lat="45.167297" lon="6.820847">
        <time>2023-04-19T12:29:26+00:00</time>
        <ele>2192.0</ele>
      </trkpt>
      <trkpt lat="45.167231" lon="6.820883">
        <time>2023-04-19T12:29:28+00:00</time>
        <ele>2190.0</ele>
      </trkpt>
      <trkpt lat="45.167254" lon="6.820919">
        <time>2023-04-19T12:29:47+00:00</time>
        <ele>2189.0</ele>
      </trkpt>
      <trkpt lat="45.167363" lon="6.820926">
        <time>2023-04-19T12:29:50+00:00</time>
        <ele>2187.0</ele>
      </trkpt>
      <trkpt lat="45.167438" lon="6.820913">
        <time>2023-04-19T12:29:52+00:00</time>
        <ele>2187.0</ele>
      </trkpt>
      <trkpt lat="45.167686" lon="6.820882">
        <time>2023-04-19T12:29:59+00:00</time>
        <ele>2182.0</ele>
      </trkpt>
      <trkpt lat="45.167713" lon="6.820871">
        <time>2023-04-19T12:30:01+00:00</time>
        <ele>2182.0</ele>
      </trkpt>
      <trkpt lat="45.16785" lon="6.820868">
        <time>2023-04-19T12:30:25+00:00</time>
        <ele>2178.0</ele>
      </trkpt>
      <trkpt lat="45.167902" lon="6.820854">
        <time>2023-04-19T12:30:27+00:00</time>
        <ele>2177.0</ele>
      </trkpt>
      <trkpt lat="45.167948" lon="6.820867">
        <time>2023-04-19T12:30:31+00:00</time>
        <ele>2174.0</ele>
      </trkpt>
      <trkpt lat="45.168046" lon="6.820872">
        <time>2023-04-19T12:30:34+00:00</time>
        <ele>2170.0</ele>
      </trkpt>
      <trkpt lat="45.168181" lon="6.820847">
        <time>2023-04-19T12:30:37+00:00</time>
        <ele>2167.0</ele>
      </trkpt>
      <trkpt lat="45.168303" lon="6.820847">
        <time>2023-04-19T12:30:40+00:00</time>
        <ele>2164.0</ele>
      </trkpt>
      <trkpt lat="45.168329" lon="6.820836">
        <time>2023-04-19T12:30:42+00:00</time>
        <ele>2164.0</ele>
      </trkpt>
      <trkpt lat="45.168378" lon="6.820852">
        <time>2023-04-19T12:31:01+00:00</time>
        <ele>2162.0</ele>
      </trkpt>
      <trkpt lat="45.16844" lon="6.820843">
        <time>2023-04-19T12:31:03+00:00</time>
        <ele>2161.0</ele>
      </trkpt>
      <trkpt lat="45.168459" lon="6.820892">
        <time>2023-04-19T12:31:05+00:00</time>
        <ele>2159.0</ele>
      </trkpt>
      <trkpt lat="45.168376" lon="6.820995">
        <time>2023-04-19T12:31:07+00:00</time>
        <ele>2156.0</ele>
      </trkpt>
      <trkpt lat="45.168342" lon="6.821032">
        <time>2023-04-19T12:31:08+00:00</time>
        <ele>2155.0</ele>
      </trkpt>
      <trkpt lat="45.168353" lon="6.821061">
        <time>2023-04-19T12:31:12+00:00</time>
        <ele>2154.0</ele>
      </trkpt>
      <trkpt lat="45.168445" lon="6.821052">
        <time>2023-04-19T12:31:15+00:00</time>
        <ele>2153.0</ele>
      </trkpt>
      <trkpt lat="45.168469" lon="6.821076">
        <time>2023-04-19T12:31:16+00:00</time>
        <ele>2151.0</ele>
      </trkpt>
      <trkpt lat="45.168475" lon="6.821131">
        <time>2023-04-19T12:31:17+00:00</time>
        <ele>2149.0</ele>
      </trkpt>
      <trkpt lat="45.168433" lon="6.821197">
        <time>2023-04-19T12:31:18+00:00</time>
        <ele>2147.0</ele>
      </trkpt>
      <trkpt lat="45.168378" lon="6.821246">
        <time>2023-04-19T12:31:19+00:00</time>
        <ele>2146.0</ele>
      </trkpt>
      <trkpt lat="45.168337" lon="6.821281">
        <time>2023-04-19T12:31:20+00:00</time>
        <ele>2145.0</ele>
      </trkpt>
      <trkpt lat="45.168278" lon="6.821306">
        <time>2023-04-19T12:31:23+00:00</time>
        <ele>2144.0</ele>
      </trkpt>
      <trkpt lat="45.168097" lon="6.821418">
        <time>2023-04-19T12:31:28+00:00</time>
        <ele>2142.0</ele>
      </trkpt>
      <trkpt lat="45.168011" lon="6.821502">
        <time>2023-04-19T12:31:30+00:00</time>
        <ele>2139.0</ele>
      </trkpt>
      <trkpt lat="45.167975" lon="6.821521">
        <time>2023-04-19T12:31:31+00:00</time>
        <ele>2139.0</ele>
      </trkpt>
      <trkpt lat="45.16797" lon="6.821577">
        <time>2023-04-19T12:32:18+00:00</time>
        <ele>2136.0</ele>
      </trkpt>
      <trkpt lat="45.168026" lon="6.821596">
        <time>2023-04-19T12:32:20+00:00</time>
        <ele>2134.0</ele>
      </trkpt>
      <trkpt lat="45.168102" lon="6.821573">
        <time>2023-04-19T12:32:22+00:00</time>
        <ele>2135.0</ele>
      </trkpt>
      <trkpt lat="45.168135" lon="6.821582">
        <time>2023-04-19T12:32:23+00:00</time>
        <ele>2134.0</ele>
      </trkpt>
      <trkpt lat="45.168127" lon="6.821677">
        <time>2023-04-19T12:32:25+00:00</time>
        <ele>2129.0</ele>
      </trkpt>
      <trkpt lat="45.1681" lon="6.821704">
        <time>2023-04-19T12:32:26+00:00</time>
        <ele>2128.0</ele>
      </trkpt>
      <trkpt lat="45.168127" lon="6.821738">
        <time>2023-04-19T12:32:28+00:00</time>
        <ele>2126.0</ele>
      </trkpt>
      <trkpt lat="45.168316" lon="6.821733">
        <time>2023-04-19T12:32:32+00:00</time>
        <ele>2126.0</ele>
      </trkpt>
      <trkpt lat="45.168414" lon="6.8218">
        <time>2023-04-19T12:32:38+00:00</time>
        <ele>2124.0</ele>
      </trkpt>
      <trkpt lat="45.168447" lon="6.821852">
        <time>2023-04-19T12:32:40+00:00</time>
        <ele>2122.0</ele>
      </trkpt>
      <trkpt lat="45.168406" lon="6.821912">
        <time>2023-04-19T12:32:41+00:00</time>
        <ele>2121.0</ele>
      </trkpt>
      <trkpt lat="45.168312" lon="6.821966">
        <time>2023-04-19T12:32:43+00:00</time>
        <ele>2119.0</ele>
      </trkpt>
      <trkpt lat="45.168219" lon="6.821974">
        <time>2023-04-19T12:32:46+00:00</time>
        <ele>2118.0</ele>
      </trkpt>
      <trkpt lat="45.168195" lon="6.821994">
        <time>2023-04-19T12:32:47+00:00</time>
        <ele>2117.0</ele>
      </trkpt>
      <trkpt lat="45.168189" lon="6.82204">
        <time>2023-04-19T12:32:48+00:00</time>
        <ele>2116.0</ele>
      </trkpt>
      <trkpt lat="45.168257" lon="6.822092">
        <time>2023-04-19T12:32:50+00:00</time>
        <ele>2115.0</ele>
      </trkpt>
      <trkpt lat="45.168283" lon="6.822128">
        <time>2023-04-19T12:32:52+00:00</time>
        <ele>2114.0</ele>
      </trkpt>
      <trkpt lat="45.168256" lon="6.822125">
        <time>2023-04-19T12:41:56+00:00</time>
        <ele>2114.0</ele>
      </trkpt>
      <trkpt lat="45.168272" lon="6.822179">
        <time>2023-04-19T12:44:26+00:00</time>
        <ele>2112.0</ele>
      </trkpt>
      <trkpt lat="45.168285" lon="6.822149">
        <time>2023-04-19T12:44:55+00:00</time>
        <ele>2113.0</ele>
      </trkpt>
      <trkpt lat="45.168287" lon="6.822154">
        <time>2023-04-19T12:47:25+00:00</time>
        <ele>2113.0</ele>
      </trkpt>
      <trkpt lat="45.168283" lon="6.822109">
        <time>2023-04-19T12:48:20+00:00</time>
        <ele>2114.0</ele>
      </trkpt>
      <trkpt lat="45.16831" lon="6.82216">
        <time>2023-04-19T12:49:30+00:00</time>
        <ele>2113.0</ele>
      </trkpt>
      <trkpt lat="45.168298" lon="6.82223">
        <time>2023-04-19T12:49:32+00:00</time>
        <ele>2111.0</ele>
      </trkpt>
      <trkpt lat="45.168184" lon="6.822261">
        <time>2023-04-19T12:49:35+00:00</time>
        <ele>2110.0</ele>
      </trkpt>
      <trkpt lat="45.168083" lon="6.822322">
        <time>2023-04-19T12:49:38+00:00</time>
        <ele>2109.0</ele>
      </trkpt>
      <trkpt lat="45.167935" lon="6.822459">
        <time>2023-04-19T12:49:45+00:00</time>
        <ele>2108.0</ele>
      </trkpt>
      <trkpt lat="45.167838" lon="6.822525">
        <time>2023-04-19T12:49:48+00:00</time>
        <ele>2108.0</ele>
      </trkpt>
      <trkpt lat="45.167811" lon="6.822586">
        <time>2023-04-19T12:49:50+00:00</time>
        <ele>2107.0</ele>
      </trkpt>
      <trkpt lat="45.16795" lon="6.822652">
        <time>2023-04-19T12:49:58+00:00</time>
        <ele>2106.0</ele>
      </trkpt>
      <trkpt lat="45.168124" lon="6.822812">
        <time>2023-04-19T12:50:04+00:00</time>
        <ele>2103.0</ele>
      </trkpt>
      <trkpt lat="45.168178" lon="6.822836">
        <time>2023-04-19T12:50:10+00:00</time>
        <ele>2103.0</ele>
      </trkpt>
      <trkpt lat="45.168324" lon="6.822955">
        <time>2023-04-19T12:50:27+00:00</time>
        <ele>2103.0</ele>
      </trkpt>
      <trkpt lat="45.168547" lon="6.82304">
        <time>2023-04-19T12:50:47+00:00</time>
        <ele>2102.0</ele>
      </trkpt>
      <trkpt lat="45.168916" lon="6.823011">
        <time>2023-04-19T12:51:11+00:00</time>
        <ele>2101.0</ele>
      </trkpt>
      <trkpt lat="45.169157" lon="6.822896">
        <time>2023-04-19T12:51:22+00:00</time>
        <ele>2099.0</ele>
      </trkpt>
      <trkpt lat="45.169174" lon="6.822875">
        <time>2023-04-19T12:51:29+00:00</time>
        <ele>2098.0</ele>
      </trkpt>
      <trkpt lat="45.169233" lon="6.822819">
        <time>2023-04-19T12:51:48+00:00</time>
        <ele>2097.0</ele>
      </trkpt>
      <trkpt lat="45.169239" lon="6.822807">
        <time>2023-04-19T12:51:56+00:00</time>
        <ele>2097.0</ele>
      </trkpt>
      <trkpt lat="45.16928" lon="6.822822">
        <time>2023-04-19T12:52:06+00:00</time>
        <ele>2097.0</ele>
      </trkpt>
      <trkpt lat="45.169324" lon="6.822844">
        <time>2023-04-19T12:52:13+00:00</time>
        <ele>2098.0</ele>
      </trkpt>
      <trkpt lat="45.169344" lon="6.822877">
        <time>2023-04-19T12:52:21+00:00</time>
        <ele>2098.0</ele>
      </trkpt>
      <trkpt lat="45.169373" lon="6.822906">
        <time>2023-04-19T12:52:27+00:00</time>
        <ele>2099.0</ele>
      </trkpt>
      <trkpt lat="45.169419" lon="6.822934">
        <time>2023-04-19T12:52:35+00:00</time>
        <ele>2099.0</ele>
      </trkpt>
      <trkpt lat="45.169794" lon="6.823154">
        <time>2023-04-19T12:53:05+00:00</time>
        <ele>2099.0</ele>
      </trkpt>
      <trkpt lat="45.169928" lon="6.823243">
        <time>2023-04-19T12:53:12+00:00</time>
        <ele>2098.0</ele>
      </trkpt>
      <trkpt lat="45.170006" lon="6.823284">
        <time>2023-04-19T12:53:31+00:00</time>
        <ele>2098.0</ele>
      </trkpt>
      <trkpt lat="45.17008" lon="6.823321">
        <time>2023-04-19T12:53:37+00:00</time>
        <ele>2097.0</ele>
      </trkpt>
      <trkpt lat="45.170399" lon="6.823463">
        <time>2023-04-19T12:53:55+00:00</time>
        <ele>2094.0</ele>
      </trkpt>
      <trkpt lat="45.170471" lon="6.8235">
        <time>2023-04-19T12:54:00+00:00</time>
        <ele>2094.0</ele>
      </trkpt>
      <trkpt lat="45.170507" lon="6.82349">
        <time>2023-04-19T12:54:16+00:00</time>
        <ele>2093.0</ele>
      </trkpt>
      <trkpt lat="45.170666" lon="6.823571">
        <time>2023-04-19T12:54:38+00:00</time>
        <ele>2093.0</ele>
      </trkpt>
      <trkpt lat="45.171068" lon="6.823897">
        <time>2023-04-19T12:56:27+00:00</time>
        <ele>2089.0</ele>
      </trkpt>
      <trkpt lat="45.17109" lon="6.823921">
        <time>2023-04-19T12:56:30+00:00</time>
        <ele>2089.0</ele>
      </trkpt>
      <trkpt lat="45.171117" lon="6.823923">
        <time>2023-04-19T12:56:33+00:00</time>
        <ele>2089.0</ele>
      </trkpt>
      <trkpt lat="45.171367" lon="6.824113">
        <time>2023-04-19T12:56:50+00:00</time>
        <ele>2087.0</ele>
      </trkpt>
      <trkpt lat="45.17165" lon="6.824186">
        <time>2023-04-19T12:57:07+00:00</time>
        <ele>2084.0</ele>
      </trkpt>
      <trkpt lat="45.171985" lon="6.824358">
        <time>2023-04-19T12:57:22+00:00</time>
        <ele>2081.0</ele>
      </trkpt>
      <trkpt lat="45.172075" lon="6.824377">
        <time>2023-04-19T12:57:26+00:00</time>
        <ele>2080.0</ele>
      </trkpt>
      <trkpt lat="45.172321" lon="6.824534">
        <time>2023-04-19T12:57:32+00:00</time>
        <ele>2078.0</ele>
      </trkpt>
      <trkpt lat="45.172576" lon="6.824537">
        <time>2023-04-19T12:57:36+00:00</time>
        <ele>2069.0</ele>
      </trkpt>
      <trkpt lat="45.172703" lon="6.824594">
        <time>2023-04-19T12:57:38+00:00</time>
        <ele>2069.0</ele>
      </trkpt>
      <trkpt lat="45.172756" lon="6.824639">
        <time>2023-04-19T12:57:39+00:00</time>
        <ele>2069.0</ele>
      </trkpt>
      <trkpt lat="45.172922" lon="6.824707">
        <time>2023-04-19T12:57:43+00:00</time>
        <ele>2066.0</ele>
      </trkpt>
      <trkpt lat="45.172953" lon="6.824711">
        <time>2023-04-19T12:57:44+00:00</time>
        <ele>2065.0</ele>
      </trkpt>
      <trkpt lat="45.173011" lon="6.824709">
        <time>2023-04-19T12:57:46+00:00</time>
        <ele>2064.0</ele>
      </trkpt>
      <trkpt lat="45.173095" lon="6.824679">
        <time>2023-04-19T12:57:57+00:00</time>
        <ele>2063.0</ele>
      </trkpt>
      <trkpt lat="45.173212" lon="6.824694">
        <time>2023-04-19T12:58:02+00:00</time>
        <ele>2062.0</ele>
      </trkpt>
      <trkpt lat="45.173829" lon="6.824981">
        <time>2023-04-19T12:58:29+00:00</time>
        <ele>2057.0</ele>
      </trkpt>
      <trkpt lat="45.173994" lon="6.825024">
        <time>2023-04-19T12:58:34+00:00</time>
        <ele>2056.0</ele>
      </trkpt>
      <trkpt lat="45.174043" lon="6.825019">
        <time>2023-04-19T12:58:36+00:00</time>
        <ele>2056.0</ele>
      </trkpt>
      <trkpt lat="45.174077" lon="6.825068">
        <time>2023-04-19T12:58:42+00:00</time>
        <ele>2058.0</ele>
      </trkpt>
      <trkpt lat="45.174084" lon="6.825035">
        <time>2023-04-19T12:58:54+00:00</time>
        <ele>2056.0</ele>
      </trkpt>
      <trkpt lat="45.174114" lon="6.825012">
        <time>2023-04-19T12:58:58+00:00</time>
        <ele>2055.0</ele>
      </trkpt>
      <trkpt lat="45.17419" lon="6.825">
        <time>2023-04-19T12:59:02+00:00</time>
        <ele>2054.0</ele>
      </trkpt>
      <trkpt lat="45.174533" lon="6.825027">
        <time>2023-04-19T12:59:28+00:00</time>
        <ele>2051.0</ele>
      </trkpt>
      <trkpt lat="45.174571" lon="6.825032">
        <time>2023-04-19T12:59:31+00:00</time>
        <ele>2051.0</ele>
      </trkpt>
      <trkpt lat="45.174596" lon="6.825047">
        <time>2023-04-19T12:59:42+00:00</time>
        <ele>2051.0</ele>
      </trkpt>
      <trkpt lat="45.174621" lon="6.825057">
        <time>2023-04-19T12:59:47+00:00</time>
        <ele>2052.0</ele>
      </trkpt>
      <trkpt lat="45.174694" lon="6.825109">
        <time>2023-04-19T13:00:06+00:00</time>
        <ele>2052.0</ele>
      </trkpt>
      <trkpt lat="45.174747" lon="6.825104">
        <time>2023-04-19T13:00:16+00:00</time>
        <ele>2052.0</ele>
      </trkpt>
      <trkpt lat="45.174801" lon="6.825038">
        <time>2023-04-19T13:00:32+00:00</time>
        <ele>2051.0</ele>
      </trkpt>
      <trkpt lat="45.174867" lon="6.824987">
        <time>2023-04-19T13:00:41+00:00</time>
        <ele>2050.0</ele>
      </trkpt>
      <trkpt lat="45.174894" lon="6.824995">
        <time>2023-04-19T13:00:43+00:00</time>
        <ele>2050.0</ele>
      </trkpt>
      <trkpt lat="45.175218" lon="6.824935">
        <time>2023-04-19T13:01:03+00:00</time>
        <ele>2048.0</ele>
      </trkpt>
      <trkpt lat="45.175375" lon="6.824994">
        <time>2023-04-19T13:01:11+00:00</time>
        <ele>2046.0</ele>
      </trkpt>
      <trkpt lat="45.175396" lon="6.825002">
        <time>2023-04-19T13:01:16+00:00</time>
        <ele>2046.0</ele>
      </trkpt>
      <trkpt lat="45.17542" lon="6.825011">
        <time>2023-04-19T13:01:22+00:00</time>
        <ele>2046.0</ele>
      </trkpt>
      <trkpt lat="45.175442" lon="6.825032">
        <time>2023-04-19T13:01:26+00:00</time>
        <ele>2046.0</ele>
      </trkpt>
      <trkpt lat="45.175501" lon="6.825044">
        <time>2023-04-19T13:01:32+00:00</time>
        <ele>2045.0</ele>
      </trkpt>
      <trkpt lat="45.175912" lon="6.825066">
        <time>2023-04-19T13:02:03+00:00</time>
        <ele>2043.0</ele>
      </trkpt>
      <trkpt lat="45.176016" lon="6.825074">
        <time>2023-04-19T13:02:09+00:00</time>
        <ele>2043.0</ele>
      </trkpt>
      <trkpt lat="45.17609" lon="6.825056">
        <time>2023-04-19T13:02:11+00:00</time>
        <ele>2042.0</ele>
      </trkpt>
      <trkpt lat="45.176136" lon="6.825022">
        <time>2023-04-19T13:02:13+00:00</time>
        <ele>2040.0</ele>
      </trkpt>
      <trkpt lat="45.176161" lon="6.825035">
        <time>2023-04-19T13:02:18+00:00</time>
        <ele>2040.0</ele>
      </trkpt>
      <trkpt lat="45.176186" lon="6.825026">
        <time>2023-04-19T13:02:24+00:00</time>
        <ele>2040.0</ele>
      </trkpt>
      <trkpt lat="45.176241" lon="6.824981">
        <time>2023-04-19T13:02:28+00:00</time>
        <ele>2038.0</ele>
      </trkpt>
      <trkpt lat="45.176297" lon="6.824962">
        <time>2023-04-19T13:02:31+00:00</time>
        <ele>2038.0</ele>
      </trkpt>
      <trkpt lat="45.176522" lon="6.82499">
        <time>2023-04-19T13:02:38+00:00</time>
        <ele>2038.0</ele>
      </trkpt>
      <trkpt lat="45.176735" lon="6.824952">
        <time>2023-04-19T13:02:46+00:00</time>
        <ele>2037.0</ele>
      </trkpt>
      <trkpt lat="45.176949" lon="6.824846">
        <time>2023-04-19T13:02:57+00:00</time>
        <ele>2034.0</ele>
      </trkpt>
      <trkpt lat="45.176963" lon="6.824829">
        <time>2023-04-19T13:02:58+00:00</time>
        <ele>2033.0</ele>
      </trkpt>
      <trkpt lat="45.176985" lon="6.824788">
        <time>2023-04-19T13:03:00+00:00</time>
        <ele>2032.0</ele>
      </trkpt>
      <trkpt lat="45.177005" lon="6.824733">
        <time>2023-04-19T13:03:02+00:00</time>
        <ele>2031.0</ele>
      </trkpt>
      <trkpt lat="45.177039" lon="6.824685">
        <time>2023-04-19T13:03:04+00:00</time>
        <ele>2029.0</ele>
      </trkpt>
      <trkpt lat="45.177065" lon="6.824663">
        <time>2023-04-19T13:03:06+00:00</time>
        <ele>2029.0</ele>
      </trkpt>
      <trkpt lat="45.177112" lon="6.824693">
        <time>2023-04-19T13:03:41+00:00</time>
        <ele>2029.0</ele>
      </trkpt>
      <trkpt lat="45.177149" lon="6.824688">
        <time>2023-04-19T13:04:04+00:00</time>
        <ele>2029.0</ele>
      </trkpt>
      <trkpt lat="45.177182" lon="6.824691">
        <time>2023-04-19T13:04:21+00:00</time>
        <ele>2029.0</ele>
      </trkpt>
      <trkpt lat="45.177217" lon="6.824646">
        <time>2023-04-19T13:05:33+00:00</time>
        <ele>2029.0</ele>
      </trkpt>
      <trkpt lat="45.177247" lon="6.824622">
        <time>2023-04-19T13:05:37+00:00</time>
        <ele>2029.0</ele>
      </trkpt>
      <trkpt lat="45.177273" lon="6.8246">
        <time>2023-04-19T13:05:43+00:00</time>
        <ele>2029.0</ele>
      </trkpt>
      <trkpt lat="45.177344" lon="6.82453">
        <time>2023-04-19T13:05:49+00:00</time>
        <ele>2028.0</ele>
      </trkpt>
      <trkpt lat="45.177366" lon="6.824504">
        <time>2023-04-19T13:05:51+00:00</time>
        <ele>2028.0</ele>
      </trkpt>
      <trkpt lat="45.177407" lon="6.824476">
        <time>2023-04-19T13:05:56+00:00</time>
        <ele>2028.0</ele>
      </trkpt>
      <trkpt lat="45.177439" lon="6.824482">
        <time>2023-04-19T13:05:59+00:00</time>
        <ele>2028.0</ele>
      </trkpt>
      <trkpt lat="45.177466" lon="6.824479">
        <time>2023-04-19T13:06:02+00:00</time>
        <ele>2028.0</ele>
      </trkpt>
      <trkpt lat="45.177473" lon="6.82451">
        <time>2023-04-19T13:08:19+00:00</time>
        <ele>2029.0</ele>
      </trkpt>
      <trkpt lat="45.177509" lon="6.82451">
        <time>2023-04-19T13:10:07+00:00</time>
        <ele>2029.0</ele>
      </trkpt>
      <trkpt lat="45.177774" lon="6.824511">
        <time>2023-04-19T13:10:17+00:00</time>
        <ele>2027.0</ele>
      </trkpt>
      <trkpt lat="45.177949" lon="6.824593">
        <time>2023-04-19T13:10:22+00:00</time>
        <ele>2025.0</ele>
      </trkpt>
      <trkpt lat="45.177988" lon="6.824584">
        <time>2023-04-19T13:10:23+00:00</time>
        <ele>2024.0</ele>
      </trkpt>
      <trkpt lat="45.178006" lon="6.824542">
        <time>2023-04-19T13:10:24+00:00</time>
        <ele>2023.0</ele>
      </trkpt>
      <trkpt lat="45.178036" lon="6.824457">
        <time>2023-04-19T13:10:26+00:00</time>
        <ele>2021.0</ele>
      </trkpt>
      <trkpt lat="45.178067" lon="6.824452">
        <time>2023-04-19T13:10:28+00:00</time>
        <ele>2021.0</ele>
      </trkpt>
      <trkpt lat="45.178109" lon="6.824435">
        <time>2023-04-19T13:10:51+00:00</time>
        <ele>2020.0</ele>
      </trkpt>
      <trkpt lat="45.178115" lon="6.824409">
        <time>2023-04-19T13:11:04+00:00</time>
        <ele>2020.0</ele>
      </trkpt>
      <trkpt lat="45.17816" lon="6.824365">
        <time>2023-04-19T13:11:34+00:00</time>
        <ele>2019.0</ele>
      </trkpt>
      <trkpt lat="45.178901" lon="6.824321">
        <time>2023-04-19T13:11:56+00:00</time>
        <ele>2009.0</ele>
      </trkpt>
      <trkpt lat="45.179114" lon="6.824389">
        <time>2023-04-19T13:13:01+00:00</time>
        <ele>2008.0</ele>
      </trkpt>
      <trkpt lat="45.179142" lon="6.824396">
        <time>2023-04-19T13:13:05+00:00</time>
        <ele>2008.0</ele>
      </trkpt>
      <trkpt lat="45.17919" lon="6.824395">
        <time>2023-04-19T13:13:11+00:00</time>
        <ele>2007.0</ele>
      </trkpt>
      <trkpt lat="45.179217" lon="6.824379">
        <time>2023-04-19T13:13:25+00:00</time>
        <ele>2007.0</ele>
      </trkpt>
      <trkpt lat="45.179251" lon="6.824364">
        <time>2023-04-19T13:13:30+00:00</time>
        <ele>2006.0</ele>
      </trkpt>
      <trkpt lat="45.179438" lon="6.824522">
        <time>2023-04-19T13:14:01+00:00</time>
        <ele>2008.0</ele>
      </trkpt>
      <trkpt lat="45.17961" lon="6.824601">
        <time>2023-04-19T13:14:21+00:00</time>
        <ele>2008.0</ele>
      </trkpt>
      <trkpt lat="45.179643" lon="6.824624">
        <time>2023-04-19T13:14:26+00:00</time>
        <ele>2009.0</ele>
      </trkpt>
      <trkpt lat="45.179668" lon="6.824641">
        <time>2023-04-19T13:14:31+00:00</time>
        <ele>2009.0</ele>
      </trkpt>
      <trkpt lat="45.179702" lon="6.824678">
        <time>2023-04-19T13:14:37+00:00</time>
        <ele>2009.0</ele>
      </trkpt>
      <trkpt lat="45.179731" lon="6.824675">
        <time>2023-04-19T13:14:41+00:00</time>
        <ele>2009.0</ele>
      </trkpt>
      <trkpt lat="45.179793" lon="6.824747">
        <time>2023-04-19T13:14:51+00:00</time>
        <ele>2010.0</ele>
      </trkpt>
      <trkpt lat="45.17983" lon="6.824761">
        <time>2023-04-19T13:14:55+00:00</time>
        <ele>2010.0</ele>
      </trkpt>
      <trkpt lat="45.17989" lon="6.824826">
        <time>2023-04-19T13:15:04+00:00</time>
        <ele>2011.0</ele>
      </trkpt>
      <trkpt lat="45.17992" lon="6.824855">
        <time>2023-04-19T13:16:01+00:00</time>
        <ele>2012.0</ele>
      </trkpt>
      <trkpt lat="45.180005" lon="6.824872">
        <time>2023-04-19T13:16:21+00:00</time>
        <ele>2011.0</ele>
      </trkpt>
      <trkpt lat="45.180061" lon="6.824863">
        <time>2023-04-19T13:16:26+00:00</time>
        <ele>2011.0</ele>
      </trkpt>
      <trkpt lat="45.180105" lon="6.824857">
        <time>2023-04-19T13:16:29+00:00</time>
        <ele>2011.0</ele>
      </trkpt>
      <trkpt lat="45.180134" lon="6.824846">
        <time>2023-04-19T13:16:31+00:00</time>
        <ele>2010.0</ele>
      </trkpt>
      <trkpt lat="45.180579" lon="6.824991">
        <time>2023-04-19T13:16:57+00:00</time>
        <ele>2010.0</ele>
      </trkpt>
      <trkpt lat="45.180621" lon="6.825015">
        <time>2023-04-19T13:17:08+00:00</time>
        <ele>2010.0</ele>
      </trkpt>
      <trkpt lat="45.180828" lon="6.825121">
        <time>2023-04-19T13:17:21+00:00</time>
        <ele>2011.0</ele>
      </trkpt>
      <trkpt lat="45.181119" lon="6.825346">
        <time>2023-04-19T13:17:44+00:00</time>
        <ele>2008.0</ele>
      </trkpt>
      <trkpt lat="45.181135" lon="6.825362">
        <time>2023-04-19T13:17:48+00:00</time>
        <ele>2007.0</ele>
      </trkpt>
      <trkpt lat="45.181328" lon="6.825589">
        <time>2023-04-19T13:18:22+00:00</time>
        <ele>2008.0</ele>
      </trkpt>
      <trkpt lat="45.181361" lon="6.825597">
        <time>2023-04-19T13:18:27+00:00</time>
        <ele>2007.0</ele>
      </trkpt>
      <trkpt lat="45.181442" lon="6.825641">
        <time>2023-04-19T13:18:39+00:00</time>
        <ele>2006.0</ele>
      </trkpt>
      <trkpt lat="45.181616" lon="6.825852">
        <time>2023-04-19T13:19:06+00:00</time>
        <ele>2005.0</ele>
      </trkpt>
      <trkpt lat="45.181643" lon="6.825869">
        <time>2023-04-19T13:19:09+00:00</time>
        <ele>2005.0</ele>
      </trkpt>
      <trkpt lat="45.181663" lon="6.825894">
        <time>2023-04-19T13:19:12+00:00</time>
        <ele>2005.0</ele>
      </trkpt>
      <trkpt lat="45.181675" lon="6.825916">
        <time>2023-04-19T13:19:17+00:00</time>
        <ele>2005.0</ele>
      </trkpt>
      <trkpt lat="45.181745" lon="6.826003">
        <time>2023-04-19T13:19:27+00:00</time>
        <ele>2005.0</ele>
      </trkpt>
      <trkpt lat="45.181802" lon="6.826095">
        <time>2023-04-19T13:19:37+00:00</time>
        <ele>2004.0</ele>
      </trkpt>
      <trkpt lat="45.181844" lon="6.82616">
        <time>2023-04-19T13:19:46+00:00</time>
        <ele>2004.0</ele>
      </trkpt>
      <trkpt lat="45.181867" lon="6.826198">
        <time>2023-04-19T13:19:51+00:00</time>
        <ele>2004.0</ele>
      </trkpt>
      <trkpt lat="45.181918" lon="6.826277">
        <time>2023-04-19T13:20:01+00:00</time>
        <ele>2003.0</ele>
      </trkpt>
      <trkpt lat="45.182029" lon="6.826453">
        <time>2023-04-19T13:20:21+00:00</time>
        <ele>2003.0</ele>
      </trkpt>
      <trkpt lat="45.182046" lon="6.826477">
        <time>2023-04-19T13:20:24+00:00</time>
        <ele>2003.0</ele>
      </trkpt>
      <trkpt lat="45.182109" lon="6.826568">
        <time>2023-04-19T13:20:36+00:00</time>
        <ele>2002.0</ele>
      </trkpt>
      <trkpt lat="45.182129" lon="6.826594">
        <time>2023-04-19T13:20:39+00:00</time>
        <ele>2001.0</ele>
      </trkpt>
      <trkpt lat="45.182313" lon="6.826846">
        <time>2023-04-19T13:21:01+00:00</time>
        <ele>2001.0</ele>
      </trkpt>
      <trkpt lat="45.182469" lon="6.827088">
        <time>2023-04-19T13:21:22+00:00</time>
        <ele>2005.0</ele>
      </trkpt>
      <trkpt lat="45.182529" lon="6.827188">
        <time>2023-04-19T13:21:36+00:00</time>
        <ele>2006.0</ele>
      </trkpt>
      <trkpt lat="45.182562" lon="6.827216">
        <time>2023-04-19T13:21:41+00:00</time>
        <ele>2005.0</ele>
      </trkpt>
      <trkpt lat="45.182631" lon="6.827285">
        <time>2023-04-19T13:21:54+00:00</time>
        <ele>2005.0</ele>
      </trkpt>
      <trkpt lat="45.182684" lon="6.827392">
        <time>2023-04-19T13:22:06+00:00</time>
        <ele>2006.0</ele>
      </trkpt>
      <trkpt lat="45.182703" lon="6.827402">
        <time>2023-04-19T13:22:22+00:00</time>
        <ele>2005.0</ele>
      </trkpt>
      <trkpt lat="45.182746" lon="6.827437">
        <time>2023-04-19T13:22:31+00:00</time>
        <ele>2005.0</ele>
      </trkpt>
      <trkpt lat="45.182815" lon="6.827517">
        <time>2023-04-19T13:22:42+00:00</time>
        <ele>2005.0</ele>
      </trkpt>
      <trkpt lat="45.182935" lon="6.827639">
        <time>2023-04-19T13:23:01+00:00</time>
        <ele>2004.0</ele>
      </trkpt>
      <trkpt lat="45.182957" lon="6.827666">
        <time>2023-04-19T13:23:04+00:00</time>
        <ele>2004.0</ele>
      </trkpt>
      <trkpt lat="45.183028" lon="6.827741">
        <time>2023-04-19T13:23:17+00:00</time>
        <ele>2003.0</ele>
      </trkpt>
      <trkpt lat="45.183258" lon="6.828085">
        <time>2023-04-19T13:23:48+00:00</time>
        <ele>2000.0</ele>
      </trkpt>
      <trkpt lat="45.183553" lon="6.828484">
        <time>2023-04-19T13:24:17+00:00</time>
        <ele>1996.0</ele>
      </trkpt>
      <trkpt lat="45.183946" lon="6.828831">
        <time>2023-04-19T13:24:46+00:00</time>
        <ele>1993.0</ele>
      </trkpt>
      <trkpt lat="45.184069" lon="6.828867">
        <time>2023-04-19T13:24:53+00:00</time>
        <ele>1991.0</ele>
      </trkpt>
      <trkpt lat="45.184222" lon="6.828872">
        <time>2023-04-19T13:24:59+00:00</time>
        <ele>1988.0</ele>
      </trkpt>
      <trkpt lat="45.184396" lon="6.828935">
        <time>2023-04-19T13:25:04+00:00</time>
        <ele>1987.0</ele>
      </trkpt>
      <trkpt lat="45.184432" lon="6.828967">
        <time>2023-04-19T13:25:06+00:00</time>
        <ele>1988.0</ele>
      </trkpt>
      <trkpt lat="45.184443" lon="6.828982">
        <time>2023-04-19T13:28:29+00:00</time>
        <ele>1988.0</ele>
      </trkpt>
      <trkpt lat="45.184642" lon="6.829048">
        <time>2023-04-19T13:28:43+00:00</time>
        <ele>1986.0</ele>
      </trkpt>
      <trkpt lat="45.184744" lon="6.829119">
        <time>2023-04-19T13:28:59+00:00</time>
        <ele>1986.0</ele>
      </trkpt>
      <trkpt lat="45.184768" lon="6.829135">
        <time>2023-04-19T13:29:02+00:00</time>
        <ele>1986.0</ele>
      </trkpt>
      <trkpt lat="45.184832" lon="6.829169">
        <time>2023-04-19T13:29:11+00:00</time>
        <ele>1985.0</ele>
      </trkpt>
      <trkpt lat="45.184853" lon="6.829184">
        <time>2023-04-19T13:29:14+00:00</time>
        <ele>1985.0</ele>
      </trkpt>
      <trkpt lat="45.184975" lon="6.829269">
        <time>2023-04-19T13:29:34+00:00</time>
        <ele>1984.0</ele>
      </trkpt>
      <trkpt lat="45.184995" lon="6.829295">
        <time>2023-04-19T13:29:38+00:00</time>
        <ele>1984.0</ele>
      </trkpt>
      <trkpt lat="45.185048" lon="6.829347">
        <time>2023-04-19T13:29:47+00:00</time>
        <ele>1985.0</ele>
      </trkpt>
      <trkpt lat="45.185071" lon="6.829372">
        <time>2023-04-19T13:29:51+00:00</time>
        <ele>1985.0</ele>
      </trkpt>
      <trkpt lat="45.185237" lon="6.829537">
        <time>2023-04-19T13:30:21+00:00</time>
        <ele>1986.0</ele>
      </trkpt>
      <trkpt lat="45.185294" lon="6.829581">
        <time>2023-04-19T13:30:30+00:00</time>
        <ele>1986.0</ele>
      </trkpt>
      <trkpt lat="45.185311" lon="6.82961">
        <time>2023-04-19T13:30:43+00:00</time>
        <ele>1986.0</ele>
      </trkpt>
      <trkpt lat="45.18535" lon="6.829627">
        <time>2023-04-19T13:30:50+00:00</time>
        <ele>1985.0</ele>
      </trkpt>
      <trkpt lat="45.185481" lon="6.82983">
        <time>2023-04-19T13:31:23+00:00</time>
        <ele>1984.0</ele>
      </trkpt>
      <trkpt lat="45.185511" lon="6.829887">
        <time>2023-04-19T13:31:46+00:00</time>
        <ele>1985.0</ele>
      </trkpt>
      <trkpt lat="45.185553" lon="6.829959">
        <time>2023-04-19T13:32:10+00:00</time>
        <ele>1986.0</ele>
      </trkpt>
      <trkpt lat="45.185572" lon="6.829983">
        <time>2023-04-19T13:32:14+00:00</time>
        <ele>1985.0</ele>
      </trkpt>
      <trkpt lat="45.185629" lon="6.83008">
        <time>2023-04-19T13:32:28+00:00</time>
        <ele>1986.0</ele>
      </trkpt>
      <trkpt lat="45.185632" lon="6.830108">
        <time>2023-04-19T13:32:31+00:00</time>
        <ele>1986.0</ele>
      </trkpt>
      <trkpt lat="45.185711" lon="6.830299">
        <time>2023-04-19T13:32:53+00:00</time>
        <ele>1987.0</ele>
      </trkpt>
      <trkpt lat="45.185759" lon="6.830405">
        <time>2023-04-19T13:33:04+00:00</time>
        <ele>1987.0</ele>
      </trkpt>
      <trkpt lat="45.185777" lon="6.830434">
        <time>2023-04-19T13:33:08+00:00</time>
        <ele>1987.0</ele>
      </trkpt>
      <trkpt lat="45.185799" lon="6.830454">
        <time>2023-04-19T13:33:11+00:00</time>
        <ele>1986.0</ele>
      </trkpt>
      <trkpt lat="45.185816" lon="6.830496">
        <time>2023-04-19T13:33:14+00:00</time>
        <ele>1986.0</ele>
      </trkpt>
      <trkpt lat="45.185829" lon="6.830529">
        <time>2023-04-19T13:33:17+00:00</time>
        <ele>1986.0</ele>
      </trkpt>
      <trkpt lat="45.185828" lon="6.830536">
        <time>2023-04-19T13:34:53+00:00</time>
        <ele>1987.0</ele>
      </trkpt>
      <trkpt lat="45.185841" lon="6.830528">
        <time>2023-04-19T13:35:29+00:00</time>
        <ele>1986.0</ele>
      </trkpt>
      <trkpt lat="45.185861" lon="6.830541">
        <time>2023-04-19T13:35:32+00:00</time>
        <ele>1985.0</ele>
      </trkpt>
      <trkpt lat="45.185889" lon="6.830535">
        <time>2023-04-19T13:35:34+00:00</time>
        <ele>1984.0</ele>
      </trkpt>
      <trkpt lat="45.185923" lon="6.830523">
        <time>2023-04-19T13:35:37+00:00</time>
        <ele>1984.0</ele>
      </trkpt>
      <trkpt lat="45.185951" lon="6.830499">
        <time>2023-04-19T13:35:40+00:00</time>
        <ele>1984.0</ele>
      </trkpt>
      <trkpt lat="45.186109" lon="6.830367">
        <time>2023-04-19T13:35:57+00:00</time>
        <ele>1982.0</ele>
      </trkpt>
      <trkpt lat="45.186207" lon="6.830331">
        <time>2023-04-19T13:36:08+00:00</time>
        <ele>1982.0</ele>
      </trkpt>
      <trkpt lat="45.186239" lon="6.83032">
        <time>2023-04-19T13:36:12+00:00</time>
        <ele>1982.0</ele>
      </trkpt>
      <trkpt lat="45.186367" lon="6.830386">
        <time>2023-04-19T13:36:29+00:00</time>
        <ele>1982.0</ele>
      </trkpt>
      <trkpt lat="45.186402" lon="6.830415">
        <time>2023-04-19T13:36:33+00:00</time>
        <ele>1982.0</ele>
      </trkpt>
      <trkpt lat="45.186391" lon="6.830449">
        <time>2023-04-19T13:38:10+00:00</time>
        <ele>1984.0</ele>
      </trkpt>
      <trkpt lat="45.186406" lon="6.830507">
        <time>2023-04-19T13:41:16+00:00</time>
        <ele>1985.0</ele>
      </trkpt>
      <trkpt lat="45.186442" lon="6.830528">
        <time>2023-04-19T13:41:20+00:00</time>
        <ele>1985.0</ele>
      </trkpt>
      <trkpt lat="45.186475" lon="6.830535">
        <time>2023-04-19T13:41:24+00:00</time>
        <ele>1984.0</ele>
      </trkpt>
      <trkpt lat="45.186507" lon="6.830553">
        <time>2023-04-19T13:41:28+00:00</time>
        <ele>1984.0</ele>
      </trkpt>
      <trkpt lat="45.186682" lon="6.8306">
        <time>2023-04-19T13:41:45+00:00</time>
        <ele>1980.0</ele>
      </trkpt>
      <trkpt lat="45.186741" lon="6.830674">
        <time>2023-04-19T13:41:52+00:00</time>
        <ele>1981.0</ele>
      </trkpt>
      <trkpt lat="45.186937" lon="6.830954">
        <time>2023-04-19T13:42:20+00:00</time>
        <ele>1981.0</ele>
      </trkpt>
      <trkpt lat="45.186944" lon="6.831001">
        <time>2023-04-19T13:42:24+00:00</time>
        <ele>1982.0</ele>
      </trkpt>
      <trkpt lat="45.186971" lon="6.831025">
        <time>2023-04-19T13:42:30+00:00</time>
        <ele>1981.0</ele>
      </trkpt>
      <trkpt lat="45.186995" lon="6.831051">
        <time>2023-04-19T13:42:33+00:00</time>
        <ele>1980.0</ele>
      </trkpt>
      <trkpt lat="45.187008" lon="6.831104">
        <time>2023-04-19T13:42:37+00:00</time>
        <ele>1980.0</ele>
      </trkpt>
      <trkpt lat="45.187029" lon="6.831146">
        <time>2023-04-19T13:42:42+00:00</time>
        <ele>1980.0</ele>
      </trkpt>
      <trkpt lat="45.187047" lon="6.831169">
        <time>2023-04-19T13:42:48+00:00</time>
        <ele>1980.0</ele>
      </trkpt>
      <trkpt lat="45.187068" lon="6.831164">
        <time>2023-04-19T13:42:58+00:00</time>
        <ele>1980.0</ele>
      </trkpt>
      <trkpt lat="45.187099" lon="6.831228">
        <time>2023-04-19T13:43:14+00:00</time>
        <ele>1981.0</ele>
      </trkpt>
      <trkpt lat="45.18713" lon="6.831219">
        <time>2023-04-19T13:43:17+00:00</time>
        <ele>1980.0</ele>
      </trkpt>
      <trkpt lat="45.187153" lon="6.831226">
        <time>2023-04-19T13:43:20+00:00</time>
        <ele>1980.0</ele>
      </trkpt>
      <trkpt lat="45.187273" lon="6.831272">
        <time>2023-04-19T13:43:32+00:00</time>
        <ele>1980.0</ele>
      </trkpt>
      <trkpt lat="45.187325" lon="6.831276">
        <time>2023-04-19T13:43:38+00:00</time>
        <ele>1979.0</ele>
      </trkpt>
      <trkpt lat="45.187361" lon="6.831268">
        <time>2023-04-19T13:43:42+00:00</time>
        <ele>1979.0</ele>
      </trkpt>
      <trkpt lat="45.187501" lon="6.831235">
        <time>2023-04-19T13:43:55+00:00</time>
        <ele>1978.0</ele>
      </trkpt>
      <trkpt lat="45.187766" lon="6.831251">
        <time>2023-04-19T13:44:22+00:00</time>
        <ele>1980.0</ele>
      </trkpt>
      <trkpt lat="45.187787" lon="6.831237">
        <time>2023-04-19T13:44:24+00:00</time>
        <ele>1979.0</ele>
      </trkpt>
      <trkpt lat="45.188138" lon="6.831271">
        <time>2023-04-19T13:44:57+00:00</time>
        <ele>1979.0</ele>
      </trkpt>
      <trkpt lat="45.188231" lon="6.831262">
        <time>2023-04-19T13:45:05+00:00</time>
        <ele>1979.0</ele>
      </trkpt>
      <trkpt lat="45.188258" lon="6.831263">
        <time>2023-04-19T13:45:07+00:00</time>
        <ele>1979.0</ele>
      </trkpt>
      <trkpt lat="45.18859" lon="6.831242">
        <time>2023-04-19T13:45:37+00:00</time>
        <ele>1978.0</ele>
      </trkpt>
      <trkpt lat="45.188883" lon="6.831324">
        <time>2023-04-19T13:46:04+00:00</time>
        <ele>1977.0</ele>
      </trkpt>
      <trkpt lat="45.188966" lon="6.831375">
        <time>2023-04-19T13:46:12+00:00</time>
        <ele>1976.0</ele>
      </trkpt>
      <trkpt lat="45.189301" lon="6.831503">
        <time>2023-04-19T13:46:42+00:00</time>
        <ele>1973.0</ele>
      </trkpt>
      <trkpt lat="45.189327" lon="6.831506">
        <time>2023-04-19T13:46:44+00:00</time>
        <ele>1972.0</ele>
      </trkpt>
      <trkpt lat="45.189543" lon="6.831498">
        <time>2023-04-19T13:47:03+00:00</time>
        <ele>1968.0</ele>
      </trkpt>
      <trkpt lat="45.189674" lon="6.831452">
        <time>2023-04-19T13:47:17+00:00</time>
        <ele>1967.0</ele>
      </trkpt>
      <trkpt lat="45.189805" lon="6.831345">
        <time>2023-04-19T13:47:30+00:00</time>
        <ele>1963.0</ele>
      </trkpt>
      <trkpt lat="45.18983" lon="6.83135">
        <time>2023-04-19T13:47:32+00:00</time>
        <ele>1963.0</ele>
      </trkpt>
      <trkpt lat="45.189859" lon="6.83138">
        <time>2023-04-19T13:47:35+00:00</time>
        <ele>1964.0</ele>
      </trkpt>
      <trkpt lat="45.18989" lon="6.831346">
        <time>2023-04-19T13:47:42+00:00</time>
        <ele>1963.0</ele>
      </trkpt>
      <trkpt lat="45.189931" lon="6.831284">
        <time>2023-04-19T13:47:49+00:00</time>
        <ele>1961.0</ele>
      </trkpt>
      <trkpt lat="45.189965" lon="6.831276">
        <time>2023-04-19T13:47:52+00:00</time>
        <ele>1961.0</ele>
      </trkpt>
      <trkpt lat="45.189994" lon="6.831255">
        <time>2023-04-19T13:47:55+00:00</time>
        <ele>1960.0</ele>
      </trkpt>
      <trkpt lat="45.190012" lon="6.83119">
        <time>2023-04-19T13:48:05+00:00</time>
        <ele>1959.0</ele>
      </trkpt>
      <trkpt lat="45.190041" lon="6.831157">
        <time>2023-04-19T13:48:08+00:00</time>
        <ele>1958.0</ele>
      </trkpt>
      <trkpt lat="45.190072" lon="6.831136">
        <time>2023-04-19T13:48:10+00:00</time>
        <ele>1958.0</ele>
      </trkpt>
      <trkpt lat="45.190089" lon="6.831111">
        <time>2023-04-19T13:48:12+00:00</time>
        <ele>1958.0</ele>
      </trkpt>
      <trkpt lat="45.1902" lon="6.831018">
        <time>2023-04-19T13:48:23+00:00</time>
        <ele>1956.0</ele>
      </trkpt>
      <trkpt lat="45.190237" lon="6.830977">
        <time>2023-04-19T13:48:27+00:00</time>
        <ele>1956.0</ele>
      </trkpt>
      <trkpt lat="45.190317" lon="6.830893">
        <time>2023-04-19T13:48:37+00:00</time>
        <ele>1955.0</ele>
      </trkpt>
      <trkpt lat="45.190653" lon="6.830752">
        <time>2023-04-19T13:49:07+00:00</time>
        <ele>1954.0</ele>
      </trkpt>
      <trkpt lat="45.190863" lon="6.830736">
        <time>2023-04-19T13:49:25+00:00</time>
        <ele>1954.0</ele>
      </trkpt>
      <trkpt lat="45.191008" lon="6.830758">
        <time>2023-04-19T13:49:38+00:00</time>
        <ele>1954.0</ele>
      </trkpt>
      <trkpt lat="45.191094" lon="6.830786">
        <time>2023-04-19T13:49:45+00:00</time>
        <ele>1954.0</ele>
      </trkpt>
      <trkpt lat="45.191152" lon="6.830822">
        <time>2023-04-19T13:49:52+00:00</time>
        <ele>1954.0</ele>
      </trkpt>
      <trkpt lat="45.191357" lon="6.830934">
        <time>2023-04-19T13:50:13+00:00</time>
        <ele>1954.0</ele>
      </trkpt>
      <trkpt lat="45.19139" lon="6.83096">
        <time>2023-04-19T13:50:17+00:00</time>
        <ele>1954.0</ele>
      </trkpt>
      <trkpt lat="45.191507" lon="6.830921">
        <time>2023-04-19T13:50:27+00:00</time>
        <ele>1953.0</ele>
      </trkpt>
      <trkpt lat="45.191646" lon="6.830877">
        <time>2023-04-19T13:50:38+00:00</time>
        <ele>1951.0</ele>
      </trkpt>
      <trkpt lat="45.191678" lon="6.830869">
        <time>2023-04-19T13:50:41+00:00</time>
        <ele>1950.0</ele>
      </trkpt>
      <trkpt lat="45.19171" lon="6.830863">
        <time>2023-04-19T13:50:46+00:00</time>
        <ele>1950.0</ele>
      </trkpt>
      <trkpt lat="45.191741" lon="6.830857">
        <time>2023-04-19T13:50:49+00:00</time>
        <ele>1949.0</ele>
      </trkpt>
      <trkpt lat="45.19188" lon="6.830913">
        <time>2023-04-19T13:51:02+00:00</time>
        <ele>1948.0</ele>
      </trkpt>
      <trkpt lat="45.19199" lon="6.830922">
        <time>2023-04-19T13:51:12+00:00</time>
        <ele>1946.0</ele>
      </trkpt>
      <trkpt lat="45.192233" lon="6.830939">
        <time>2023-04-19T13:51:35+00:00</time>
        <ele>1944.0</ele>
      </trkpt>
      <trkpt lat="45.192334" lon="6.830968">
        <time>2023-04-19T13:51:45+00:00</time>
        <ele>1944.0</ele>
      </trkpt>
      <trkpt lat="45.192367" lon="6.830985">
        <time>2023-04-19T13:51:48+00:00</time>
        <ele>1943.0</ele>
      </trkpt>
      <trkpt lat="45.192404" lon="6.831008">
        <time>2023-04-19T13:51:52+00:00</time>
        <ele>1943.0</ele>
      </trkpt>
      <trkpt lat="45.192443" lon="6.831018">
        <time>2023-04-19T13:51:57+00:00</time>
        <ele>1943.0</ele>
      </trkpt>
      <trkpt lat="45.19244" lon="6.831062">
        <time>2023-04-19T13:53:23+00:00</time>
        <ele>1943.0</ele>
      </trkpt>
      <trkpt lat="45.19247" lon="6.831053">
        <time>2023-04-19T13:56:07+00:00</time>
        <ele>1943.0</ele>
      </trkpt>
      <trkpt lat="45.192583" lon="6.83106">
        <time>2023-04-19T13:56:22+00:00</time>
        <ele>1941.0</ele>
      </trkpt>
      <trkpt lat="45.192791" lon="6.831174">
        <time>2023-04-19T13:56:34+00:00</time>
        <ele>1939.0</ele>
      </trkpt>
      <trkpt lat="45.192872" lon="6.831255">
        <time>2023-04-19T13:56:37+00:00</time>
        <ele>1938.0</ele>
      </trkpt>
      <trkpt lat="45.193003" lon="6.831518">
        <time>2023-04-19T13:56:45+00:00</time>
        <ele>1936.0</ele>
      </trkpt>
      <trkpt lat="45.193012" lon="6.831543">
        <time>2023-04-19T13:56:47+00:00</time>
        <ele>1936.0</ele>
      </trkpt>
      <trkpt lat="45.193077" lon="6.831585">
        <time>2023-04-19T13:57:00+00:00</time>
        <ele>1935.0</ele>
      </trkpt>
      <trkpt lat="45.193205" lon="6.83178">
        <time>2023-04-19T13:57:07+00:00</time>
        <ele>1934.0</ele>
      </trkpt>
      <trkpt lat="45.193297" lon="6.83186">
        <time>2023-04-19T13:57:12+00:00</time>
        <ele>1933.0</ele>
      </trkpt>
      <trkpt lat="45.193344" lon="6.831916">
        <time>2023-04-19T13:57:14+00:00</time>
        <ele>1933.0</ele>
      </trkpt>
      <trkpt lat="45.193377" lon="6.831932">
        <time>2023-04-19T13:57:15+00:00</time>
        <ele>1932.0</ele>
      </trkpt>
      <trkpt lat="45.193525" lon="6.831934">
        <time>2023-04-19T13:57:18+00:00</time>
        <ele>1929.0</ele>
      </trkpt>
      <trkpt lat="45.193547" lon="6.831971">
        <time>2023-04-19T13:57:20+00:00</time>
        <ele>1929.0</ele>
      </trkpt>
      <trkpt lat="45.19357" lon="6.831984">
        <time>2023-04-19T13:57:23+00:00</time>
        <ele>1929.0</ele>
      </trkpt>
      <trkpt lat="45.193594" lon="6.831993">
        <time>2023-04-19T13:57:25+00:00</time>
        <ele>1929.0</ele>
      </trkpt>
      <trkpt lat="45.193617" lon="6.832013">
        <time>2023-04-19T13:58:08+00:00</time>
        <ele>1929.0</ele>
      </trkpt>
      <trkpt lat="45.19364" lon="6.83203">
        <time>2023-04-19T13:58:26+00:00</time>
        <ele>1928.0</ele>
      </trkpt>
      <trkpt lat="45.19367" lon="6.832047">
        <time>2023-04-19T13:58:32+00:00</time>
        <ele>1928.0</ele>
      </trkpt>
      <trkpt lat="45.193684" lon="6.832065">
        <time>2023-04-19T13:58:37+00:00</time>
        <ele>1928.0</ele>
      </trkpt>
      <trkpt lat="45.193776" lon="6.832109">
        <time>2023-04-19T13:58:57+00:00</time>
        <ele>1927.0</ele>
      </trkpt>
      <trkpt lat="45.193804" lon="6.832125">
        <time>2023-04-19T13:58:59+00:00</time>
        <ele>1927.0</ele>
      </trkpt>
      <trkpt lat="45.194206" lon="6.832252">
        <time>2023-04-19T13:59:32+00:00</time>
        <ele>1923.0</ele>
      </trkpt>
      <trkpt lat="45.194387" lon="6.832285">
        <time>2023-04-19T13:59:51+00:00</time>
        <ele>1921.0</ele>
      </trkpt>
      <trkpt lat="45.194425" lon="6.832292">
        <time>2023-04-19T13:59:55+00:00</time>
        <ele>1921.0</ele>
      </trkpt>
      <trkpt lat="45.194454" lon="6.832272">
        <time>2023-04-19T14:00:02+00:00</time>
        <ele>1920.0</ele>
      </trkpt>
      <trkpt lat="45.194525" lon="6.832301">
        <time>2023-04-19T14:00:12+00:00</time>
        <ele>1919.0</ele>
      </trkpt>
      <trkpt lat="45.194566" lon="6.832305">
        <time>2023-04-19T14:00:15+00:00</time>
        <ele>1919.0</ele>
      </trkpt>
      <trkpt lat="45.194597" lon="6.83232">
        <time>2023-04-19T14:00:19+00:00</time>
        <ele>1918.0</ele>
      </trkpt>
      <trkpt lat="45.194652" lon="6.832357">
        <time>2023-04-19T14:00:24+00:00</time>
        <ele>1918.0</ele>
      </trkpt>
      <trkpt lat="45.194683" lon="6.832392">
        <time>2023-04-19T14:00:27+00:00</time>
        <ele>1917.0</ele>
      </trkpt>
      <trkpt lat="45.194776" lon="6.832473">
        <time>2023-04-19T14:00:37+00:00</time>
        <ele>1916.0</ele>
      </trkpt>
      <trkpt lat="45.19483" lon="6.832507">
        <time>2023-04-19T14:00:42+00:00</time>
        <ele>1915.0</ele>
      </trkpt>
      <trkpt lat="45.194864" lon="6.83252">
        <time>2023-04-19T14:00:45+00:00</time>
        <ele>1915.0</ele>
      </trkpt>
      <trkpt lat="45.194889" lon="6.832554">
        <time>2023-04-19T14:00:49+00:00</time>
        <ele>1915.0</ele>
      </trkpt>
      <trkpt lat="45.194919" lon="6.832603">
        <time>2023-04-19T14:00:54+00:00</time>
        <ele>1915.0</ele>
      </trkpt>
      <trkpt lat="45.194943" lon="6.832633">
        <time>2023-04-19T14:00:57+00:00</time>
        <ele>1915.0</ele>
      </trkpt>
      <trkpt lat="45.194962" lon="6.832696">
        <time>2023-04-19T14:01:17+00:00</time>
        <ele>1916.0</ele>
      </trkpt>
      <trkpt lat="45.194996" lon="6.83269">
        <time>2023-04-19T14:01:37+00:00</time>
        <ele>1915.0</ele>
      </trkpt>
      <trkpt lat="45.195029" lon="6.832747">
        <time>2023-04-19T14:01:42+00:00</time>
        <ele>1915.0</ele>
      </trkpt>
      <trkpt lat="45.195161" lon="6.833049">
        <time>2023-04-19T14:01:54+00:00</time>
        <ele>1914.0</ele>
      </trkpt>
      <trkpt lat="45.195181" lon="6.833084">
        <time>2023-04-19T14:01:55+00:00</time>
        <ele>1914.0</ele>
      </trkpt>
      <trkpt lat="45.195637" lon="6.833418">
        <time>2023-04-19T14:02:13+00:00</time>
        <ele>1907.0</ele>
      </trkpt>
      <trkpt lat="45.196239" lon="6.833697">
        <time>2023-04-19T14:03:08+00:00</time>
        <ele>1898.0</ele>
      </trkpt>
      <trkpt lat="45.196723" lon="6.834033">
        <time>2023-04-19T14:03:29+00:00</time>
        <ele>1895.0</ele>
      </trkpt>
      <trkpt lat="45.196971" lon="6.83425">
        <time>2023-04-19T14:03:37+00:00</time>
        <ele>1892.0</ele>
      </trkpt>
      <trkpt lat="45.197029" lon="6.834284">
        <time>2023-04-19T14:03:39+00:00</time>
        <ele>1891.0</ele>
      </trkpt>
      <trkpt lat="45.197264" lon="6.834362">
        <time>2023-04-19T14:03:50+00:00</time>
        <ele>1887.0</ele>
      </trkpt>
      <trkpt lat="45.197388" lon="6.834447">
        <time>2023-04-19T14:03:55+00:00</time>
        <ele>1884.0</ele>
      </trkpt>
      <trkpt lat="45.197562" lon="6.834676">
        <time>2023-04-19T14:04:04+00:00</time>
        <ele>1884.0</ele>
      </trkpt>
      <trkpt lat="45.197637" lon="6.834744">
        <time>2023-04-19T14:04:09+00:00</time>
        <ele>1882.0</ele>
      </trkpt>
      <trkpt lat="45.197688" lon="6.834802">
        <time>2023-04-19T14:04:16+00:00</time>
        <ele>1882.0</ele>
      </trkpt>
      <trkpt lat="45.197716" lon="6.834818">
        <time>2023-04-19T14:04:18+00:00</time>
        <ele>1881.0</ele>
      </trkpt>
      <trkpt lat="45.197767" lon="6.834849">
        <time>2023-04-19T14:04:21+00:00</time>
        <ele>1880.0</ele>
      </trkpt>
      <trkpt lat="45.197846" lon="6.8349">
        <time>2023-04-19T14:04:25+00:00</time>
        <ele>1878.0</ele>
      </trkpt>
      <trkpt lat="45.197883" lon="6.834925">
        <time>2023-04-19T14:04:27+00:00</time>
        <ele>1877.0</ele>
      </trkpt>
      <trkpt lat="45.197902" lon="6.834937">
        <time>2023-04-19T14:04:35+00:00</time>
        <ele>1877.0</ele>
      </trkpt>
      <trkpt lat="45.198204" lon="6.835171">
        <time>2023-04-19T14:05:05+00:00</time>
        <ele>1872.0</ele>
      </trkpt>
      <trkpt lat="45.19836" lon="6.835306">
        <time>2023-04-19T14:05:14+00:00</time>
        <ele>1870.0</ele>
      </trkpt>
      <trkpt lat="45.198493" lon="6.835354">
        <time>2023-04-19T14:05:19+00:00</time>
        <ele>1867.0</ele>
      </trkpt>
      <trkpt lat="45.198759" lon="6.835491">
        <time>2023-04-19T14:05:30+00:00</time>
        <ele>1863.0</ele>
      </trkpt>
      <trkpt lat="45.198778" lon="6.835525">
        <time>2023-04-19T14:05:32+00:00</time>
        <ele>1864.0</ele>
      </trkpt>
      <trkpt lat="45.19884" lon="6.835549">
        <time>2023-04-19T14:06:47+00:00</time>
        <ele>1864.0</ele>
      </trkpt>
      <trkpt lat="45.198925" lon="6.835565">
        <time>2023-04-19T14:07:03+00:00</time>
        <ele>1864.0</ele>
      </trkpt>
      <trkpt lat="45.198966" lon="6.835592">
        <time>2023-04-19T14:07:07+00:00</time>
        <ele>1865.0</ele>
      </trkpt>
      <trkpt lat="45.198998" lon="6.8356">
        <time>2023-04-19T14:07:09+00:00</time>
        <ele>1864.0</ele>
      </trkpt>
      <trkpt lat="45.199053" lon="6.835627">
        <time>2023-04-19T14:07:17+00:00</time>
        <ele>1864.0</ele>
      </trkpt>
      <trkpt lat="45.199129" lon="6.835653">
        <time>2023-04-19T14:07:22+00:00</time>
        <ele>1862.0</ele>
      </trkpt>
      <trkpt lat="45.199166" lon="6.835664">
        <time>2023-04-19T14:07:24+00:00</time>
        <ele>1861.0</ele>
      </trkpt>
      <trkpt lat="45.199344" lon="6.83571">
        <time>2023-04-19T14:07:39+00:00</time>
        <ele>1858.0</ele>
      </trkpt>
      <trkpt lat="45.199603" lon="6.835803">
        <time>2023-04-19T14:07:57+00:00</time>
        <ele>1857.0</ele>
      </trkpt>
      <trkpt lat="45.199703" lon="6.835891">
        <time>2023-04-19T14:08:07+00:00</time>
        <ele>1857.0</ele>
      </trkpt>
      <trkpt lat="45.199746" lon="6.835959">
        <time>2023-04-19T14:08:12+00:00</time>
        <ele>1857.0</ele>
      </trkpt>
      <trkpt lat="45.199764" lon="6.836003">
        <time>2023-04-19T14:08:15+00:00</time>
        <ele>1857.0</ele>
      </trkpt>
      <trkpt lat="45.199785" lon="6.836048">
        <time>2023-04-19T14:08:19+00:00</time>
        <ele>1858.0</ele>
      </trkpt>
      <trkpt lat="45.19982" lon="6.836086">
        <time>2023-04-19T14:08:24+00:00</time>
        <ele>1858.0</ele>
      </trkpt>
      <trkpt lat="45.199855" lon="6.836114">
        <time>2023-04-19T14:08:27+00:00</time>
        <ele>1857.0</ele>
      </trkpt>
      <trkpt lat="45.199896" lon="6.836169">
        <time>2023-04-19T14:08:32+00:00</time>
        <ele>1858.0</ele>
      </trkpt>
      <trkpt lat="45.199951" lon="6.836214">
        <time>2023-04-19T14:08:37+00:00</time>
        <ele>1858.0</ele>
      </trkpt>
      <trkpt lat="45.20002" lon="6.836271">
        <time>2023-04-19T14:08:44+00:00</time>
        <ele>1860.0</ele>
      </trkpt>
      <trkpt lat="45.200053" lon="6.836295">
        <time>2023-04-19T14:08:47+00:00</time>
        <ele>1860.0</ele>
      </trkpt>
      <trkpt lat="45.200127" lon="6.836361">
        <time>2023-04-19T14:08:54+00:00</time>
        <ele>1861.0</ele>
      </trkpt>
      <trkpt lat="45.200158" lon="6.836384">
        <time>2023-04-19T14:08:57+00:00</time>
        <ele>1861.0</ele>
      </trkpt>
      <trkpt lat="45.200188" lon="6.8364">
        <time>2023-04-19T14:09:00+00:00</time>
        <ele>1861.0</ele>
      </trkpt>
      <trkpt lat="45.20029" lon="6.836425">
        <time>2023-04-19T14:09:09+00:00</time>
        <ele>1860.0</ele>
      </trkpt>
      <trkpt lat="45.200357" lon="6.836441">
        <time>2023-04-19T14:09:16+00:00</time>
        <ele>1859.0</ele>
      </trkpt>
      <trkpt lat="45.200438" lon="6.836427">
        <time>2023-04-19T14:09:23+00:00</time>
        <ele>1858.0</ele>
      </trkpt>
      <trkpt lat="45.200481" lon="6.836425">
        <time>2023-04-19T14:09:28+00:00</time>
        <ele>1858.0</ele>
      </trkpt>
      <trkpt lat="45.200518" lon="6.836439">
        <time>2023-04-19T14:09:31+00:00</time>
        <ele>1858.0</ele>
      </trkpt>
      <trkpt lat="45.200599" lon="6.836446">
        <time>2023-04-19T14:09:39+00:00</time>
        <ele>1857.0</ele>
      </trkpt>
      <trkpt lat="45.200703" lon="6.836464">
        <time>2023-04-19T14:09:49+00:00</time>
        <ele>1857.0</ele>
      </trkpt>
      <trkpt lat="45.200735" lon="6.836465">
        <time>2023-04-19T14:09:51+00:00</time>
        <ele>1857.0</ele>
      </trkpt>
      <trkpt lat="45.200766" lon="6.836465">
        <time>2023-04-19T14:09:54+00:00</time>
        <ele>1856.0</ele>
      </trkpt>
      <trkpt lat="45.2008" lon="6.836464">
        <time>2023-04-19T14:09:58+00:00</time>
        <ele>1856.0</ele>
      </trkpt>
      <trkpt lat="45.200929" lon="6.836506">
        <time>2023-04-19T14:10:10+00:00</time>
        <ele>1855.0</ele>
      </trkpt>
      <trkpt lat="45.200962" lon="6.836519">
        <time>2023-04-19T14:10:14+00:00</time>
        <ele>1855.0</ele>
      </trkpt>
      <trkpt lat="45.200996" lon="6.836504">
        <time>2023-04-19T14:10:17+00:00</time>
        <ele>1855.0</ele>
      </trkpt>
      <trkpt lat="45.201029" lon="6.836517">
        <time>2023-04-19T14:10:21+00:00</time>
        <ele>1855.0</ele>
      </trkpt>
      <trkpt lat="45.201054" lon="6.836543">
        <time>2023-04-19T14:10:24+00:00</time>
        <ele>1854.0</ele>
      </trkpt>
      <trkpt lat="45.201085" lon="6.83656">
        <time>2023-04-19T14:10:28+00:00</time>
        <ele>1854.0</ele>
      </trkpt>
      <trkpt lat="45.20112" lon="6.836557">
        <time>2023-04-19T14:10:32+00:00</time>
        <ele>1854.0</ele>
      </trkpt>
      <trkpt lat="45.201154" lon="6.836576">
        <time>2023-04-19T14:10:36+00:00</time>
        <ele>1854.0</ele>
      </trkpt>
      <trkpt lat="45.201199" lon="6.83658">
        <time>2023-04-19T14:10:40+00:00</time>
        <ele>1853.0</ele>
      </trkpt>
      <trkpt lat="45.201238" lon="6.83657">
        <time>2023-04-19T14:10:43+00:00</time>
        <ele>1853.0</ele>
      </trkpt>
      <trkpt lat="45.201269" lon="6.836587">
        <time>2023-04-19T14:10:46+00:00</time>
        <ele>1852.0</ele>
      </trkpt>
      <trkpt lat="45.201297" lon="6.836614">
        <time>2023-04-19T14:10:50+00:00</time>
        <ele>1852.0</ele>
      </trkpt>
      <trkpt lat="45.20141" lon="6.836687">
        <time>2023-04-19T14:11:01+00:00</time>
        <ele>1851.0</ele>
      </trkpt>
      <trkpt lat="45.201438" lon="6.836757">
        <time>2023-04-19T14:11:22+00:00</time>
        <ele>1850.0</ele>
      </trkpt>
      <trkpt lat="45.201455" lon="6.836788">
        <time>2023-04-19T14:11:24+00:00</time>
        <ele>1850.0</ele>
      </trkpt>
      <trkpt lat="45.201476" lon="6.836872">
        <time>2023-04-19T14:11:28+00:00</time>
        <ele>1850.0</ele>
      </trkpt>
      <trkpt lat="45.201474" lon="6.836912">
        <time>2023-04-19T14:11:30+00:00</time>
        <ele>1851.0</ele>
      </trkpt>
      <trkpt lat="45.201495" lon="6.836965">
        <time>2023-04-19T14:11:33+00:00</time>
        <ele>1850.0</ele>
      </trkpt>
      <trkpt lat="45.201523" lon="6.837053">
        <time>2023-04-19T14:11:37+00:00</time>
        <ele>1850.0</ele>
      </trkpt>
      <trkpt lat="45.201556" lon="6.837083">
        <time>2023-04-19T14:11:39+00:00</time>
        <ele>1849.0</ele>
      </trkpt>
      <trkpt lat="45.201612" lon="6.83717">
        <time>2023-04-19T14:11:44+00:00</time>
        <ele>1849.0</ele>
      </trkpt>
      <trkpt lat="45.201624" lon="6.837208">
        <time>2023-04-19T14:11:46+00:00</time>
        <ele>1849.0</ele>
      </trkpt>
      <trkpt lat="45.201649" lon="6.837213">
        <time>2023-04-19T14:12:26+00:00</time>
        <ele>1849.0</ele>
      </trkpt>
      <trkpt lat="45.201675" lon="6.837256">
        <time>2023-04-19T14:12:30+00:00</time>
        <ele>1848.0</ele>
      </trkpt>
      <trkpt lat="45.201768" lon="6.837326">
        <time>2023-04-19T14:12:41+00:00</time>
        <ele>1846.0</ele>
      </trkpt>
      <trkpt lat="45.201789" lon="6.837346">
        <time>2023-04-19T14:13:02+00:00</time>
        <ele>1846.0</ele>
      </trkpt>
      <trkpt lat="45.201821" lon="6.837359">
        <time>2023-04-19T14:13:14+00:00</time>
        <ele>1845.0</ele>
      </trkpt>
      <trkpt lat="45.202327" lon="6.837934">
        <time>2023-04-19T14:13:42+00:00</time>
        <ele>1839.0</ele>
      </trkpt>
      <trkpt lat="45.202384" lon="6.838051">
        <time>2023-04-19T14:13:46+00:00</time>
        <ele>1838.0</ele>
      </trkpt>
      <trkpt lat="45.202427" lon="6.838092">
        <time>2023-04-19T14:13:48+00:00</time>
        <ele>1837.0</ele>
      </trkpt>
      <trkpt lat="45.202501" lon="6.838163">
        <time>2023-04-19T14:13:51+00:00</time>
        <ele>1834.0</ele>
      </trkpt>
      <trkpt lat="45.202606" lon="6.838342">
        <time>2023-04-19T14:13:57+00:00</time>
        <ele>1831.0</ele>
      </trkpt>
      <trkpt lat="45.202776" lon="6.838984">
        <time>2023-04-19T14:14:15+00:00</time>
        <ele>1825.0</ele>
      </trkpt>
      <trkpt lat="45.202791" lon="6.839156">
        <time>2023-04-19T14:14:19+00:00</time>
        <ele>1823.0</ele>
      </trkpt>
      <trkpt lat="45.202804" lon="6.839363">
        <time>2023-04-19T14:14:24+00:00</time>
        <ele>1821.0</ele>
      </trkpt>
      <trkpt lat="45.202842" lon="6.84007">
        <time>2023-04-19T14:14:43+00:00</time>
        <ele>1818.0</ele>
      </trkpt>
      <trkpt lat="45.202855" lon="6.840128">
        <time>2023-04-19T14:14:45+00:00</time>
        <ele>1818.0</ele>
      </trkpt>
      <trkpt lat="45.202879" lon="6.840175">
        <time>2023-04-19T14:14:47+00:00</time>
        <ele>1818.0</ele>
      </trkpt>
      <trkpt lat="45.202902" lon="6.84019">
        <time>2023-04-19T14:14:56+00:00</time>
        <ele>1817.0</ele>
      </trkpt>
      <trkpt lat="45.202921" lon="6.84017">
        <time>2023-04-19T14:15:05+00:00</time>
        <ele>1815.0</ele>
      </trkpt>
      <trkpt lat="45.202925" lon="6.840124">
        <time>2023-04-19T14:15:15+00:00</time>
        <ele>1815.0</ele>
      </trkpt>
      <trkpt lat="45.2029" lon="6.840122">
        <time>2023-04-19T14:15:52+00:00</time>
        <ele>1816.0</ele>
      </trkpt>
      <trkpt lat="45.202908" lon="6.840057">
        <time>2023-04-19T14:18:18+00:00</time>
        <ele>1815.0</ele>
      </trkpt>
      <trkpt lat="45.202924" lon="6.840013">
        <time>2023-04-19T14:18:20+00:00</time>
        <ele>1814.0</ele>
      </trkpt>
      <trkpt lat="45.203102" lon="6.839108">
        <time>2023-04-19T14:18:50+00:00</time>
        <ele>1803.0</ele>
      </trkpt>
      <trkpt lat="45.203124" lon="6.838965">
        <time>2023-04-19T14:18:55+00:00</time>
        <ele>1802.0</ele>
      </trkpt>
      <trkpt lat="45.20313" lon="6.838919">
        <time>2023-04-19T14:18:57+00:00</time>
        <ele>1801.0</ele>
      </trkpt>
      <trkpt lat="45.203141" lon="6.838685">
        <time>2023-04-19T14:19:06+00:00</time>
        <ele>1801.0</ele>
      </trkpt>
      <trkpt lat="45.20314" lon="6.838642">
        <time>2023-04-19T14:19:18+00:00</time>
        <ele>1801.0</ele>
      </trkpt>
      <trkpt lat="45.20317" lon="6.838461">
        <time>2023-04-19T14:19:25+00:00</time>
        <ele>1799.0</ele>
      </trkpt>
      <trkpt lat="45.203197" lon="6.838319">
        <time>2023-04-19T14:19:30+00:00</time>
        <ele>1797.0</ele>
      </trkpt>
      <trkpt lat="45.203175" lon="6.837766">
        <time>2023-04-19T14:19:46+00:00</time>
        <ele>1795.0</ele>
      </trkpt>
      <trkpt lat="45.203153" lon="6.837493">
        <time>2023-04-19T14:19:53+00:00</time>
        <ele>1793.0</ele>
      </trkpt>
      <trkpt lat="45.203141" lon="6.837235">
        <time>2023-04-19T14:20:00+00:00</time>
        <ele>1791.0</ele>
      </trkpt>
      <trkpt lat="45.203109" lon="6.837134">
        <time>2023-04-19T14:20:26+00:00</time>
        <ele>1791.0</ele>
      </trkpt>
      <trkpt lat="45.203109" lon="6.837066">
        <time>2023-04-19T14:20:48+00:00</time>
        <ele>1790.0</ele>
      </trkpt>
      <trkpt lat="45.203121" lon="6.837015">
        <time>2023-04-19T14:20:51+00:00</time>
        <ele>1789.0</ele>
      </trkpt>
      <trkpt lat="45.203128" lon="6.836958">
        <time>2023-04-19T14:20:54+00:00</time>
        <ele>1788.0</ele>
      </trkpt>
      <trkpt lat="45.203118" lon="6.836901">
        <time>2023-04-19T14:20:58+00:00</time>
        <ele>1788.0</ele>
      </trkpt>
      <trkpt lat="45.203107" lon="6.836843">
        <time>2023-04-19T14:21:03+00:00</time>
        <ele>1788.0</ele>
      </trkpt>
      <trkpt lat="45.203131" lon="6.836704">
        <time>2023-04-19T14:21:11+00:00</time>
        <ele>1786.0</ele>
      </trkpt>
      <trkpt lat="45.20313" lon="6.836657">
        <time>2023-04-19T14:21:14+00:00</time>
        <ele>1785.0</ele>
      </trkpt>
      <trkpt lat="45.20316" lon="6.836614">
        <time>2023-04-19T14:21:18+00:00</time>
        <ele>1784.0</ele>
      </trkpt>
      <trkpt lat="45.203173" lon="6.836582">
        <time>2023-04-19T14:21:29+00:00</time>
        <ele>1783.0</ele>
      </trkpt>
      <trkpt lat="45.203279" lon="6.836537">
        <time>2023-04-19T14:21:44+00:00</time>
        <ele>1780.0</ele>
      </trkpt>
      <trkpt lat="45.203392" lon="6.836445">
        <time>2023-04-19T14:21:54+00:00</time>
        <ele>1778.0</ele>
      </trkpt>
      <trkpt lat="45.203416" lon="6.836412">
        <time>2023-04-19T14:21:57+00:00</time>
        <ele>1777.0</ele>
      </trkpt>
      <trkpt lat="45.203442" lon="6.836388">
        <time>2023-04-19T14:22:00+00:00</time>
        <ele>1777.0</ele>
      </trkpt>
      <trkpt lat="45.203463" lon="6.836357">
        <time>2023-04-19T14:22:03+00:00</time>
        <ele>1776.0</ele>
      </trkpt>
      <trkpt lat="45.203465" lon="6.836299">
        <time>2023-04-19T14:22:08+00:00</time>
        <ele>1777.0</ele>
      </trkpt>
      <trkpt lat="45.203468" lon="6.836228">
        <time>2023-04-19T14:22:13+00:00</time>
        <ele>1777.0</ele>
      </trkpt>
      <trkpt lat="45.203478" lon="6.836177">
        <time>2023-04-19T14:22:16+00:00</time>
        <ele>1777.0</ele>
      </trkpt>
      <trkpt lat="45.20348" lon="6.836062">
        <time>2023-04-19T14:22:23+00:00</time>
        <ele>1778.0</ele>
      </trkpt>
      <trkpt lat="45.203456" lon="6.836027">
        <time>2023-04-19T14:22:28+00:00</time>
        <ele>1779.0</ele>
      </trkpt>
      <trkpt lat="45.203471" lon="6.835993">
        <time>2023-04-19T14:25:28+00:00</time>
        <ele>1778.0</ele>
      </trkpt>
      <trkpt lat="45.20347" lon="6.835934">
        <time>2023-04-19T14:25:43+00:00</time>
        <ele>1778.0</ele>
      </trkpt>
      <trkpt lat="45.203475" lon="6.835874">
        <time>2023-04-19T14:25:48+00:00</time>
        <ele>1778.0</ele>
      </trkpt>
      <trkpt lat="45.20351" lon="6.835798">
        <time>2023-04-19T14:25:55+00:00</time>
        <ele>1777.0</ele>
      </trkpt>
      <trkpt lat="45.203547" lon="6.835784">
        <time>2023-04-19T14:25:58+00:00</time>
        <ele>1775.0</ele>
      </trkpt>
      <trkpt lat="45.203574" lon="6.835798">
        <time>2023-04-19T14:26:00+00:00</time>
        <ele>1775.0</ele>
      </trkpt>
      <trkpt lat="45.203615" lon="6.835855">
        <time>2023-04-19T14:26:06+00:00</time>
        <ele>1773.0</ele>
      </trkpt>
      <trkpt lat="45.203647" lon="6.835922">
        <time>2023-04-19T14:26:11+00:00</time>
        <ele>1772.0</ele>
      </trkpt>
      <trkpt lat="45.203666" lon="6.835988">
        <time>2023-04-19T14:26:15+00:00</time>
        <ele>1771.0</ele>
      </trkpt>
      <trkpt lat="45.203686" lon="6.836119">
        <time>2023-04-19T14:26:23+00:00</time>
        <ele>1770.0</ele>
      </trkpt>
      <trkpt lat="45.203679" lon="6.836261">
        <time>2023-04-19T14:26:31+00:00</time>
        <ele>1769.0</ele>
      </trkpt>
      <trkpt lat="45.203661" lon="6.836407">
        <time>2023-04-19T14:26:40+00:00</time>
        <ele>1769.0</ele>
      </trkpt>
      <trkpt lat="45.203696" lon="6.836806">
        <time>2023-04-19T14:27:05+00:00</time>
        <ele>1765.0</ele>
      </trkpt>
      <trkpt lat="45.203695" lon="6.836907">
        <time>2023-04-19T14:27:11+00:00</time>
        <ele>1764.0</ele>
      </trkpt>
      <trkpt lat="45.203714" lon="6.837063">
        <time>2023-04-19T14:27:20+00:00</time>
        <ele>1762.0</ele>
      </trkpt>
      <trkpt lat="45.2037" lon="6.837156">
        <time>2023-04-19T14:27:26+00:00</time>
        <ele>1762.0</ele>
      </trkpt>
      <trkpt lat="45.203688" lon="6.837196">
        <time>2023-04-19T14:27:29+00:00</time>
        <ele>1762.0</ele>
      </trkpt>
      <trkpt lat="45.203682" lon="6.837246">
        <time>2023-04-19T14:27:33+00:00</time>
        <ele>1763.0</ele>
      </trkpt>
      <trkpt lat="45.203721" lon="6.83734">
        <time>2023-04-19T14:27:41+00:00</time>
        <ele>1762.0</ele>
      </trkpt>
      <trkpt lat="45.20374" lon="6.837382">
        <time>2023-04-19T14:27:44+00:00</time>
        <ele>1761.0</ele>
      </trkpt>
      <trkpt lat="45.203769" lon="6.837421">
        <time>2023-04-19T14:27:48+00:00</time>
        <ele>1761.0</ele>
      </trkpt>
      <trkpt lat="45.203853" lon="6.837516">
        <time>2023-04-19T14:28:01+00:00</time>
        <ele>1759.0</ele>
      </trkpt>
      <trkpt lat="45.203873" lon="6.837558">
        <time>2023-04-19T14:28:06+00:00</time>
        <ele>1759.0</ele>
      </trkpt>
      <trkpt lat="45.203951" lon="6.837684">
        <time>2023-04-19T14:28:16+00:00</time>
        <ele>1757.0</ele>
      </trkpt>
      <trkpt lat="45.203961" lon="6.837726">
        <time>2023-04-19T14:28:19+00:00</time>
        <ele>1756.0</ele>
      </trkpt>
      <trkpt lat="45.204006" lon="6.837809">
        <time>2023-04-19T14:28:25+00:00</time>
        <ele>1754.0</ele>
      </trkpt>
      <trkpt lat="45.204023" lon="6.837856">
        <time>2023-04-19T14:28:28+00:00</time>
        <ele>1752.0</ele>
      </trkpt>
      <trkpt lat="45.204011" lon="6.837958">
        <time>2023-04-19T14:28:34+00:00</time>
        <ele>1752.0</ele>
      </trkpt>
      <trkpt lat="45.204045" lon="6.838065">
        <time>2023-04-19T14:28:41+00:00</time>
        <ele>1750.0</ele>
      </trkpt>
      <trkpt lat="45.204034" lon="6.838186">
        <time>2023-04-19T14:28:48+00:00</time>
        <ele>1750.0</ele>
      </trkpt>
      <trkpt lat="45.204006" lon="6.838283">
        <time>2023-04-19T14:28:56+00:00</time>
        <ele>1750.0</ele>
      </trkpt>
      <trkpt lat="45.204008" lon="6.838326">
        <time>2023-04-19T14:28:59+00:00</time>
        <ele>1750.0</ele>
      </trkpt>
      <trkpt lat="45.204019" lon="6.838372">
        <time>2023-04-19T14:29:02+00:00</time>
        <ele>1749.0</ele>
      </trkpt>
      <trkpt lat="45.204013" lon="6.838413">
        <time>2023-04-19T14:29:04+00:00</time>
        <ele>1749.0</ele>
      </trkpt>
      <trkpt lat="45.203999" lon="6.838601">
        <time>2023-04-19T14:29:16+00:00</time>
        <ele>1749.0</ele>
      </trkpt>
      <trkpt lat="45.204013" lon="6.838652">
        <time>2023-04-19T14:29:19+00:00</time>
        <ele>1748.0</ele>
      </trkpt>
      <trkpt lat="45.204034" lon="6.8388">
        <time>2023-04-19T14:29:28+00:00</time>
        <ele>1746.0</ele>
      </trkpt>
      <trkpt lat="45.204055" lon="6.838852">
        <time>2023-04-19T14:29:31+00:00</time>
        <ele>1745.0</ele>
      </trkpt>
      <trkpt lat="45.204093" lon="6.839019">
        <time>2023-04-19T14:29:41+00:00</time>
        <ele>1743.0</ele>
      </trkpt>
      <trkpt lat="45.204109" lon="6.839127">
        <time>2023-04-19T14:29:49+00:00</time>
        <ele>1742.0</ele>
      </trkpt>
      <trkpt lat="45.204128" lon="6.839193">
        <time>2023-04-19T14:29:53+00:00</time>
        <ele>1741.0</ele>
      </trkpt>
      <trkpt lat="45.204157" lon="6.839239">
        <time>2023-04-19T14:29:56+00:00</time>
        <ele>1740.0</ele>
      </trkpt>
      <trkpt lat="45.204166" lon="6.839292">
        <time>2023-04-19T14:30:00+00:00</time>
        <ele>1739.0</ele>
      </trkpt>
      <trkpt lat="45.204161" lon="6.839348">
        <time>2023-04-19T14:30:03+00:00</time>
        <ele>1740.0</ele>
      </trkpt>
      <trkpt lat="45.204174" lon="6.839398">
        <time>2023-04-19T14:30:06+00:00</time>
        <ele>1739.0</ele>
      </trkpt>
      <trkpt lat="45.204154" lon="6.839454">
        <time>2023-04-19T14:30:09+00:00</time>
        <ele>1740.0</ele>
      </trkpt>
      <trkpt lat="45.204157" lon="6.839507">
        <time>2023-04-19T14:30:13+00:00</time>
        <ele>1740.0</ele>
      </trkpt>
      <trkpt lat="45.204146" lon="6.839623">
        <time>2023-04-19T14:30:21+00:00</time>
        <ele>1741.0</ele>
      </trkpt>
      <trkpt lat="45.204177" lon="6.839701">
        <time>2023-04-19T14:30:26+00:00</time>
        <ele>1740.0</ele>
      </trkpt>
      <trkpt lat="45.204259" lon="6.839814">
        <time>2023-04-19T14:30:34+00:00</time>
        <ele>1738.0</ele>
      </trkpt>
      <trkpt lat="45.204286" lon="6.839873">
        <time>2023-04-19T14:30:38+00:00</time>
        <ele>1737.0</ele>
      </trkpt>
      <trkpt lat="45.204374" lon="6.840063">
        <time>2023-04-19T14:30:53+00:00</time>
        <ele>1736.0</ele>
      </trkpt>
      <trkpt lat="45.204404" lon="6.840087">
        <time>2023-04-19T14:30:56+00:00</time>
        <ele>1735.0</ele>
      </trkpt>
      <trkpt lat="45.204445" lon="6.840168">
        <time>2023-04-19T14:31:05+00:00</time>
        <ele>1735.0</ele>
      </trkpt>
      <trkpt lat="45.20446" lon="6.840193">
        <time>2023-04-19T14:31:08+00:00</time>
        <ele>1735.0</ele>
      </trkpt>
      <trkpt lat="45.204556" lon="6.840326">
        <time>2023-04-19T14:31:20+00:00</time>
        <ele>1734.0</ele>
      </trkpt>
      <trkpt lat="45.204593" lon="6.840343">
        <time>2023-04-19T14:31:24+00:00</time>
        <ele>1733.0</ele>
      </trkpt>
      <trkpt lat="45.204613" lon="6.840388">
        <time>2023-04-19T14:31:29+00:00</time>
        <ele>1733.0</ele>
      </trkpt>
      <trkpt lat="45.20457" lon="6.840435">
        <time>2023-04-19T14:31:33+00:00</time>
        <ele>1735.0</ele>
      </trkpt>
      <trkpt lat="45.20464" lon="6.840491">
        <time>2023-04-19T14:31:38+00:00</time>
        <ele>1733.0</ele>
      </trkpt>
      <trkpt lat="45.204689" lon="6.840505">
        <time>2023-04-19T14:31:40+00:00</time>
        <ele>1731.0</ele>
      </trkpt>
      <trkpt lat="45.204787" lon="6.840548">
        <time>2023-04-19T14:31:48+00:00</time>
        <ele>1730.0</ele>
      </trkpt>
      <trkpt lat="45.204823" lon="6.840548">
        <time>2023-04-19T14:31:53+00:00</time>
        <ele>1729.0</ele>
      </trkpt>
      <trkpt lat="45.204949" lon="6.840616">
        <time>2023-04-19T14:32:11+00:00</time>
        <ele>1727.0</ele>
      </trkpt>
      <trkpt lat="45.205021" lon="6.840649">
        <time>2023-04-19T14:32:15+00:00</time>
        <ele>1726.0</ele>
      </trkpt>
      <trkpt lat="45.205048" lon="6.840666">
        <time>2023-04-19T14:32:18+00:00</time>
        <ele>1725.0</ele>
      </trkpt>
      <trkpt lat="45.205067" lon="6.840692">
        <time>2023-04-19T14:32:20+00:00</time>
        <ele>1725.0</ele>
      </trkpt>
      <trkpt lat="45.205102" lon="6.840751">
        <time>2023-04-19T14:32:23+00:00</time>
        <ele>1725.0</ele>
      </trkpt>
      <trkpt lat="45.20518" lon="6.840854">
        <time>2023-04-19T14:32:33+00:00</time>
        <ele>1724.0</ele>
      </trkpt>
      <trkpt lat="45.205197" lon="6.840885">
        <time>2023-04-19T14:32:36+00:00</time>
        <ele>1724.0</ele>
      </trkpt>
      <trkpt lat="45.205224" lon="6.840864">
        <time>2023-04-19T14:32:43+00:00</time>
        <ele>1723.0</ele>
      </trkpt>
      <trkpt lat="45.205241" lon="6.8409">
        <time>2023-04-19T14:32:50+00:00</time>
        <ele>1723.0</ele>
      </trkpt>
      <trkpt lat="45.205251" lon="6.840946">
        <time>2023-04-19T14:32:56+00:00</time>
        <ele>1723.0</ele>
      </trkpt>
    </trkseg>
  </trk>
</gpx>
